<?xml version='1.0' encoding='UTF-8'?><gpx version="1.1" creator="JPX - https://github.com/jenetics/jpx" xmlns="http://www.topografix.com/GPX/1/1"><trk><trkseg><trkpt lat="42.4179774" lon="12.3449107"><ele>262.0</ele><time>2026-04-12T07:03:17.991Z</time></trkpt><trkpt lat="42.4180551" lon="12.3448991"><ele>262.0</ele><time>2026-04-12T07:06:01.991Z</time></trkpt><trkpt lat="42.4180002" lon="12.3449636"><ele>262.0</ele><time>2026-04-12T07:13:48.992Z</time></trkpt><trkpt lat="42.4180366" lon="12.3448247"><ele>262.0</ele><time>2026-04-12T07:14:56.992Z</time></trkpt><trkpt lat="42.4179697" lon="12.3447822"><ele>262.0</ele><time>2026-04-12T07:16:51.992Z</time></trkpt><trkpt lat="42.4178715" lon="12.3446954"><ele>261.8</ele><time>2026-04-12T07:16:53.992Z</time></trkpt><trkpt lat="42.4177829" lon="12.3446492"><ele>261.6</ele><time>2026-04-12T07:16:55.991Z</time></trkpt><trkpt lat="42.4176701" lon="12.3445768"><ele>261.40000000000003</ele><time>2026-04-12T07:16:57.992Z</time></trkpt><trkpt lat="42.4176145" lon="12.3445334"><ele>261.2</ele><time>2026-04-12T07:16:58.991Z</time></trkpt><trkpt lat="42.4175059" lon="12.344436"><ele>261.0</ele><time>2026-04-12T07:17:00.992Z</time></trkpt><trkpt lat="42.4174468" lon="12.3443874"><ele>261.0</ele><time>2026-04-12T07:17:01.992Z</time></trkpt><trkpt lat="42.4173863" lon="12.3443448"><ele>261.0</ele><time>2026-04-12T07:17:02.992Z</time></trkpt><trkpt lat="42.4172722" lon="12.3442834"><ele>261.0</ele><time>2026-04-12T07:17:04.992Z</time></trkpt><trkpt lat="42.4172183" lon="12.3442372"><ele>261.0</ele><time>2026-04-12T07:17:05.991Z</time></trkpt><trkpt lat="42.4171283" lon="12.3441591"><ele>261.0</ele><time>2026-04-12T07:17:07.992Z</time></trkpt><trkpt lat="42.4171382" lon="12.3440439"><ele>261.0</ele><time>2026-04-12T07:17:09.992Z</time></trkpt><trkpt lat="42.4172018" lon="12.3439716"><ele>261.0</ele><time>2026-04-12T07:17:11.991Z</time></trkpt><trkpt lat="42.4172586" lon="12.3439256"><ele>261.0</ele><time>2026-04-12T07:17:13.992Z</time></trkpt><trkpt lat="42.4173318" lon="12.3439599"><ele>261.0</ele><time>2026-04-12T07:17:14.992Z</time></trkpt><trkpt lat="42.4174033" lon="12.3439113"><ele>261.0</ele><time>2026-04-12T07:17:15.991Z</time></trkpt><trkpt lat="42.4174828" lon="12.343961"><ele>261.0</ele><time>2026-04-12T07:17:16.99Z</time></trkpt><trkpt lat="42.4175459" lon="12.3439444"><ele>261.0</ele><time>2026-04-12T07:17:17.992Z</time></trkpt><trkpt lat="42.417624" lon="12.343978"><ele>261.0</ele><time>2026-04-12T07:17:18.992Z</time></trkpt><trkpt lat="42.4177594" lon="12.344042"><ele>261.0</ele><time>2026-04-12T07:17:19.992Z</time></trkpt><trkpt lat="42.4178266" lon="12.3440402"><ele>261.0</ele><time>2026-04-12T07:17:20.992Z</time></trkpt><trkpt lat="42.417912" lon="12.3440093"><ele>261.0</ele><time>2026-04-12T07:17:21.992Z</time></trkpt><trkpt lat="42.4179852" lon="12.3440067"><ele>261.0</ele><time>2026-04-12T07:17:22.991Z</time></trkpt><trkpt lat="42.4180567" lon="12.3440009"><ele>261.0</ele><time>2026-04-12T07:17:23.991Z</time></trkpt><trkpt lat="42.4181447" lon="12.3440054"><ele>261.5</ele><time>2026-04-12T07:17:24.991Z</time></trkpt><trkpt lat="42.418239" lon="12.3440038"><ele>262.0</ele><time>2026-04-12T07:17:25.992Z</time></trkpt><trkpt lat="42.4183237" lon="12.3439842"><ele>262.5</ele><time>2026-04-12T07:17:26.992Z</time></trkpt><trkpt lat="42.4183955" lon="12.3439925"><ele>263.0</ele><time>2026-04-12T07:17:27.991Z</time></trkpt><trkpt lat="42.4184192" lon="12.3441173"><ele>263.5</ele><time>2026-04-12T07:17:28.991Z</time></trkpt><trkpt lat="42.4184709" lon="12.3441694"><ele>264.0</ele><time>2026-04-12T07:17:29.99Z</time></trkpt><trkpt lat="42.4185283" lon="12.3442404"><ele>264.0</ele><time>2026-04-12T07:17:30.991Z</time></trkpt><trkpt lat="42.4185845" lon="12.3442902"><ele>264.0</ele><time>2026-04-12T07:17:31.99Z</time></trkpt><trkpt lat="42.4186391" lon="12.3443692"><ele>264.0</ele><time>2026-04-12T07:17:32.991Z</time></trkpt><trkpt lat="42.4187624" lon="12.3444424"><ele>264.0</ele><time>2026-04-12T07:17:34.992Z</time></trkpt><trkpt lat="42.418831" lon="12.3444622"><ele>264.0</ele><time>2026-04-12T07:17:35.992Z</time></trkpt><trkpt lat="42.4188914" lon="12.3444958"><ele>264.0</ele><time>2026-04-12T07:17:36.992Z</time></trkpt><trkpt lat="42.4189577" lon="12.3445322"><ele>264.5</ele><time>2026-04-12T07:17:37.992Z</time></trkpt><trkpt lat="42.4190414" lon="12.3445777"><ele>265.0</ele><time>2026-04-12T07:17:38.992Z</time></trkpt><trkpt lat="42.4191079" lon="12.3446153"><ele>265.5</ele><time>2026-04-12T07:17:39.992Z</time></trkpt><trkpt lat="42.4191732" lon="12.3446357"><ele>266.0</ele><time>2026-04-12T07:17:40.992Z</time></trkpt><trkpt lat="42.4192929" lon="12.3446582"><ele>266.5</ele><time>2026-04-12T07:17:42.992Z</time></trkpt><trkpt lat="42.4193811" lon="12.3446741"><ele>267.0</ele><time>2026-04-12T07:17:44.991Z</time></trkpt><trkpt lat="42.4194692" lon="12.3447118"><ele>264.8</ele><time>2026-04-12T07:17:46.992Z</time></trkpt><trkpt lat="42.4195454" lon="12.3447533"><ele>262.6</ele><time>2026-04-12T07:17:47.992Z</time></trkpt><trkpt lat="42.4196385" lon="12.3448294"><ele>260.40000000000003</ele><time>2026-04-12T07:17:49.992Z</time></trkpt><trkpt lat="42.4197404" lon="12.3449036"><ele>258.2</ele><time>2026-04-12T07:17:51.991Z</time></trkpt><trkpt lat="42.4198223" lon="12.3449585"><ele>256.0</ele><time>2026-04-12T07:17:53.991Z</time></trkpt><trkpt lat="42.4199289" lon="12.3448955"><ele>256.0</ele><time>2026-04-12T07:17:55.992Z</time></trkpt><trkpt lat="42.4200242" lon="12.3448201"><ele>256.0</ele><time>2026-04-12T07:17:57.992Z</time></trkpt><trkpt lat="42.4200877" lon="12.3448056"><ele>256.0</ele><time>2026-04-12T07:17:58.992Z</time></trkpt><trkpt lat="42.4201668" lon="12.3448221"><ele>256.0</ele><time>2026-04-12T07:17:59.992Z</time></trkpt><trkpt lat="42.4202473" lon="12.3448695"><ele>256.0</ele><time>2026-04-12T07:18:00.991Z</time></trkpt><trkpt lat="42.4203428" lon="12.34494"><ele>256.0</ele><time>2026-04-12T07:18:01.991Z</time></trkpt><trkpt lat="42.4204175" lon="12.3450412"><ele>256.0</ele><time>2026-04-12T07:18:02.991Z</time></trkpt><trkpt lat="42.4204902" lon="12.345139"><ele>256.0</ele><time>2026-04-12T07:18:03.992Z</time></trkpt><trkpt lat="42.42056" lon="12.3452434"><ele>256.0</ele><time>2026-04-12T07:18:04.992Z</time></trkpt><trkpt lat="42.4206389" lon="12.345318"><ele>256.0</ele><time>2026-04-12T07:18:05.992Z</time></trkpt><trkpt lat="42.420728" lon="12.3453866"><ele>257.6</ele><time>2026-04-12T07:18:06.991Z</time></trkpt><trkpt lat="42.420819" lon="12.3454265"><ele>259.20000000000005</ele><time>2026-04-12T07:18:07.992Z</time></trkpt><trkpt lat="42.4209024" lon="12.3454637"><ele>260.79999999999995</ele><time>2026-04-12T07:18:08.992Z</time></trkpt><trkpt lat="42.4209756" lon="12.3455189"><ele>262.4</ele><time>2026-04-12T07:18:09.991Z</time></trkpt><trkpt lat="42.4210462" lon="12.3456201"><ele>264.0</ele><time>2026-04-12T07:18:10.992Z</time></trkpt><trkpt lat="42.4211115" lon="12.3456962"><ele>263.4</ele><time>2026-04-12T07:18:11.992Z</time></trkpt><trkpt lat="42.4211858" lon="12.3457553"><ele>262.79999999999995</ele><time>2026-04-12T07:18:12.992Z</time></trkpt><trkpt lat="42.4212664" lon="12.3457985"><ele>262.20000000000005</ele><time>2026-04-12T07:18:13.992Z</time></trkpt><trkpt lat="42.421357" lon="12.3458234"><ele>261.6</ele><time>2026-04-12T07:18:14.992Z</time></trkpt><trkpt lat="42.4214504" lon="12.345844"><ele>261.0</ele><time>2026-04-12T07:18:15.992Z</time></trkpt><trkpt lat="42.4215512" lon="12.3458663"><ele>261.0</ele><time>2026-04-12T07:18:16.992Z</time></trkpt><trkpt lat="42.4216523" lon="12.3458927"><ele>261.0</ele><time>2026-04-12T07:18:17.992Z</time></trkpt><trkpt lat="42.4217543" lon="12.3459251"><ele>261.0</ele><time>2026-04-12T07:18:18.991Z</time></trkpt><trkpt lat="42.4218528" lon="12.3459502"><ele>261.0</ele><time>2026-04-12T07:18:19.99Z</time></trkpt><trkpt lat="42.4219403" lon="12.3459766"><ele>261.0</ele><time>2026-04-12T07:18:20.992Z</time></trkpt><trkpt lat="42.4220254" lon="12.3460027"><ele>261.0</ele><time>2026-04-12T07:18:21.991Z</time></trkpt><trkpt lat="42.4221147" lon="12.3460277"><ele>261.0</ele><time>2026-04-12T07:18:22.992Z</time></trkpt><trkpt lat="42.4222085" lon="12.3460376"><ele>261.0</ele><time>2026-04-12T07:18:23.992Z</time></trkpt><trkpt lat="42.4223132" lon="12.346025"><ele>261.0</ele><time>2026-04-12T07:18:24.992Z</time></trkpt><trkpt lat="42.4224223" lon="12.3459806"><ele>261.0</ele><time>2026-04-12T07:18:25.992Z</time></trkpt><trkpt lat="42.4225419" lon="12.3459194"><ele>261.25</ele><time>2026-04-12T07:18:26.992Z</time></trkpt><trkpt lat="42.4226528" lon="12.3458696"><ele>261.5</ele><time>2026-04-12T07:18:27.992Z</time></trkpt><trkpt lat="42.4227611" lon="12.3458243"><ele>261.75</ele><time>2026-04-12T07:18:28.992Z</time></trkpt><trkpt lat="42.4228761" lon="12.3457834"><ele>262.0</ele><time>2026-04-12T07:18:29.991Z</time></trkpt><trkpt lat="42.4229946" lon="12.3457531"><ele>260.4</ele><time>2026-04-12T07:18:30.992Z</time></trkpt><trkpt lat="42.4231028" lon="12.3457347"><ele>258.79999999999995</ele><time>2026-04-12T07:18:31.992Z</time></trkpt><trkpt lat="42.4232106" lon="12.3457146"><ele>257.2</ele><time>2026-04-12T07:18:32.991Z</time></trkpt><trkpt lat="42.423323" lon="12.3456907"><ele>255.6</ele><time>2026-04-12T07:18:33.992Z</time></trkpt><trkpt lat="42.4234327" lon="12.3456671"><ele>254.0</ele><time>2026-04-12T07:18:34.992Z</time></trkpt><trkpt lat="42.4235377" lon="12.3456329"><ele>254.0</ele><time>2026-04-12T07:18:35.992Z</time></trkpt><trkpt lat="42.4236395" lon="12.3455811"><ele>253.99999999999997</ele><time>2026-04-12T07:18:36.991Z</time></trkpt><trkpt lat="42.423732" lon="12.34551"><ele>253.99999999999997</ele><time>2026-04-12T07:18:37.992Z</time></trkpt><trkpt lat="42.4238216" lon="12.3454287"><ele>254.0</ele><time>2026-04-12T07:18:38.991Z</time></trkpt><trkpt lat="42.4239093" lon="12.3453331"><ele>254.0</ele><time>2026-04-12T07:18:39.992Z</time></trkpt><trkpt lat="42.4239955" lon="12.3452321"><ele>255.5</ele><time>2026-04-12T07:18:40.992Z</time></trkpt><trkpt lat="42.4240812" lon="12.3451347"><ele>257.0</ele><time>2026-04-12T07:18:41.992Z</time></trkpt><trkpt lat="42.4241697" lon="12.3450441"><ele>258.5</ele><time>2026-04-12T07:18:42.992Z</time></trkpt><trkpt lat="42.4242704" lon="12.3449586"><ele>260.0</ele><time>2026-04-12T07:18:43.992Z</time></trkpt><trkpt lat="42.4243834" lon="12.344902"><ele>260.0</ele><time>2026-04-12T07:18:44.992Z</time></trkpt><trkpt lat="42.4244875" lon="12.3448445"><ele>260.0</ele><time>2026-04-12T07:18:45.992Z</time></trkpt><trkpt lat="42.424616" lon="12.3447973"><ele>260.0</ele><time>2026-04-12T07:18:46.991Z</time></trkpt><trkpt lat="42.4247544" lon="12.3447659"><ele>260.0</ele><time>2026-04-12T07:18:47.992Z</time></trkpt><trkpt lat="42.4248906" lon="12.3447318"><ele>258.0</ele><time>2026-04-12T07:18:48.992Z</time></trkpt><trkpt lat="42.4250267" lon="12.3446954"><ele>256.0</ele><time>2026-04-12T07:18:49.991Z</time></trkpt><trkpt lat="42.4251674" lon="12.3446505"><ele>254.0</ele><time>2026-04-12T07:18:50.992Z</time></trkpt><trkpt lat="42.4253227" lon="12.344586"><ele>252.0</ele><time>2026-04-12T07:18:51.992Z</time></trkpt><trkpt lat="42.4254761" lon="12.344512"><ele>250.33333333333331</ele><time>2026-04-12T07:18:52.992Z</time></trkpt><trkpt lat="42.4256289" lon="12.3444493"><ele>248.66666666666666</ele><time>2026-04-12T07:18:53.992Z</time></trkpt><trkpt lat="42.4257875" lon="12.3443998"><ele>247.0</ele><time>2026-04-12T07:18:54.991Z</time></trkpt><trkpt lat="42.4259418" lon="12.3443604"><ele>247.0</ele><time>2026-04-12T07:18:55.992Z</time></trkpt><trkpt lat="42.4260981" lon="12.3443153"><ele>247.0</ele><time>2026-04-12T07:18:56.992Z</time></trkpt><trkpt lat="42.4262425" lon="12.3442417"><ele>247.0</ele><time>2026-04-12T07:18:57.992Z</time></trkpt><trkpt lat="42.4263785" lon="12.3441449"><ele>246.66666666666666</ele><time>2026-04-12T07:18:58.991Z</time></trkpt><trkpt lat="42.4265102" lon="12.3440232"><ele>246.33333333333331</ele><time>2026-04-12T07:18:59.992Z</time></trkpt><trkpt lat="42.4266248" lon="12.3438981"><ele>246.0</ele><time>2026-04-12T07:19:00.992Z</time></trkpt><trkpt lat="42.4267558" lon="12.3437679"><ele>245.0</ele><time>2026-04-12T07:19:01.992Z</time></trkpt><trkpt lat="42.4268976" lon="12.3436504"><ele>244.0</ele><time>2026-04-12T07:19:02.99Z</time></trkpt><trkpt lat="42.4270459" lon="12.3435267"><ele>243.0</ele><time>2026-04-12T07:19:03.992Z</time></trkpt><trkpt lat="42.4272157" lon="12.3433776"><ele>243.0</ele><time>2026-04-12T07:19:04.992Z</time></trkpt><trkpt lat="42.4274038" lon="12.3432168"><ele>243.0</ele><time>2026-04-12T07:19:05.992Z</time></trkpt><trkpt lat="42.4275849" lon="12.343071"><ele>243.0</ele><time>2026-04-12T07:19:06.992Z</time></trkpt><trkpt lat="42.4277512" lon="12.3429366"><ele>240.33333333333331</ele><time>2026-04-12T07:19:07.992Z</time></trkpt><trkpt lat="42.4279063" lon="12.3428117"><ele>237.66666666666666</ele><time>2026-04-12T07:19:08.992Z</time></trkpt><trkpt lat="42.4280511" lon="12.3426928"><ele>235.0</ele><time>2026-04-12T07:19:09.992Z</time></trkpt><trkpt lat="42.4281811" lon="12.3425827"><ele>234.25</ele><time>2026-04-12T07:19:10.992Z</time></trkpt><trkpt lat="42.4282906" lon="12.3425038"><ele>233.5</ele><time>2026-04-12T07:19:11.992Z</time></trkpt><trkpt lat="42.4284012" lon="12.3424545"><ele>232.75</ele><time>2026-04-12T07:19:12.991Z</time></trkpt><trkpt lat="42.4285187" lon="12.3424412"><ele>232.0</ele><time>2026-04-12T07:19:13.992Z</time></trkpt><trkpt lat="42.4286493" lon="12.3424518"><ele>232.0</ele><time>2026-04-12T07:19:14.992Z</time></trkpt><trkpt lat="42.4287852" lon="12.3424907"><ele>232.0</ele><time>2026-04-12T07:19:15.992Z</time></trkpt><trkpt lat="42.4289097" lon="12.342531"><ele>232.0</ele><time>2026-04-12T07:19:16.992Z</time></trkpt><trkpt lat="42.4290261" lon="12.3425643"><ele>232.0</ele><time>2026-04-12T07:19:17.992Z</time></trkpt><trkpt lat="42.4291316" lon="12.3425942"><ele>230.33333333333331</ele><time>2026-04-12T07:19:18.992Z</time></trkpt><trkpt lat="42.4292156" lon="12.3426168"><ele>228.66666666666666</ele><time>2026-04-12T07:19:19.99Z</time></trkpt><trkpt lat="42.4293086" lon="12.3426388"><ele>227.0</ele><time>2026-04-12T07:19:20.992Z</time></trkpt><trkpt lat="42.4293929" lon="12.3426638"><ele>225.33333333333331</ele><time>2026-04-12T07:19:21.991Z</time></trkpt><trkpt lat="42.4294731" lon="12.3426829"><ele>223.66666666666666</ele><time>2026-04-12T07:19:22.99Z</time></trkpt><trkpt lat="42.429548" lon="12.3427005"><ele>222.0</ele><time>2026-04-12T07:19:23.992Z</time></trkpt><trkpt lat="42.4296671" lon="12.3427085"><ele>220.0</ele><time>2026-04-12T07:19:25.992Z</time></trkpt><trkpt lat="42.4297752" lon="12.3427245"><ele>218.0</ele><time>2026-04-12T07:19:27.992Z</time></trkpt><trkpt lat="42.4298681" lon="12.3427455"><ele>216.0</ele><time>2026-04-12T07:19:29.992Z</time></trkpt><trkpt lat="42.4299511" lon="12.3427762"><ele>214.0</ele><time>2026-04-12T07:19:31.992Z</time></trkpt><trkpt lat="42.4300241" lon="12.342806"><ele>212.0</ele><time>2026-04-12T07:19:33.991Z</time></trkpt><trkpt lat="42.4300551" lon="12.3428951"><ele>210.0</ele><time>2026-04-12T07:19:36.991Z</time></trkpt><trkpt lat="42.4299935" lon="12.3429478"><ele>210.0</ele><time>2026-04-12T07:19:38.991Z</time></trkpt><trkpt lat="42.4298808" lon="12.3430189"><ele>210.0</ele><time>2026-04-12T07:19:40.992Z</time></trkpt><trkpt lat="42.4297738" lon="12.343024"><ele>210.0</ele><time>2026-04-12T07:19:41.992Z</time></trkpt><trkpt lat="42.429604" lon="12.3430626"><ele>210.0</ele><time>2026-04-12T07:19:42.992Z</time></trkpt><trkpt lat="42.4295051" lon="12.3430933"><ele>209.33333333333334</ele><time>2026-04-12T07:19:43.99Z</time></trkpt><trkpt lat="42.4294204" lon="12.3431232"><ele>208.66666666666669</ele><time>2026-04-12T07:19:45.991Z</time></trkpt><trkpt lat="42.4293627" lon="12.3431655"><ele>208.0</ele><time>2026-04-12T07:19:46.991Z</time></trkpt><trkpt lat="42.4294229" lon="12.34324"><ele>207.33333333333334</ele><time>2026-04-12T07:19:59.992Z</time></trkpt><trkpt lat="42.429509" lon="12.3432726"><ele>206.66666666666669</ele><time>2026-04-12T07:20:11.992Z</time></trkpt><trkpt lat="42.429582" lon="12.3432544"><ele>206.0</ele><time>2026-04-12T07:20:12.992Z</time></trkpt><trkpt lat="42.4296939" lon="12.34323"><ele>206.0</ele><time>2026-04-12T07:20:13.991Z</time></trkpt><trkpt lat="42.4298173" lon="12.3432272"><ele>206.0</ele><time>2026-04-12T07:20:14.992Z</time></trkpt><trkpt lat="42.4299436" lon="12.3432341"><ele>206.0</ele><time>2026-04-12T07:20:15.991Z</time></trkpt><trkpt lat="42.4300724" lon="12.3432451"><ele>206.0</ele><time>2026-04-12T07:20:16.992Z</time></trkpt><trkpt lat="42.4301987" lon="12.3432194"><ele>206.0</ele><time>2026-04-12T07:20:17.992Z</time></trkpt><trkpt lat="42.430339" lon="12.3431791"><ele>206.0</ele><time>2026-04-12T07:20:18.991Z</time></trkpt><trkpt lat="42.4305127" lon="12.3430821"><ele>206.0</ele><time>2026-04-12T07:20:19.992Z</time></trkpt><trkpt lat="42.4306996" lon="12.3429737"><ele>205.33333333333334</ele><time>2026-04-12T07:20:20.992Z</time></trkpt><trkpt lat="42.4308659" lon="12.3428679"><ele>204.66666666666669</ele><time>2026-04-12T07:20:21.992Z</time></trkpt><trkpt lat="42.4310116" lon="12.3427573"><ele>204.0</ele><time>2026-04-12T07:20:22.991Z</time></trkpt><trkpt lat="42.4311438" lon="12.3426456"><ele>204.0</ele><time>2026-04-12T07:20:23.992Z</time></trkpt><trkpt lat="42.431272" lon="12.3425451"><ele>204.0</ele><time>2026-04-12T07:20:24.992Z</time></trkpt><trkpt lat="42.4313775" lon="12.3424892"><ele>204.0</ele><time>2026-04-12T07:20:25.991Z</time></trkpt><trkpt lat="42.431499" lon="12.3424208"><ele>204.0</ele><time>2026-04-12T07:20:26.991Z</time></trkpt><trkpt lat="42.4316465" lon="12.34238"><ele>204.0</ele><time>2026-04-12T07:20:27.991Z</time></trkpt><trkpt lat="42.4318047" lon="12.3423685"><ele>204.0</ele><time>2026-04-12T07:20:28.992Z</time></trkpt><trkpt lat="42.431948" lon="12.3423598"><ele>204.0</ele><time>2026-04-12T07:20:29.992Z</time></trkpt><trkpt lat="42.4320911" lon="12.3423073"><ele>203.5</ele><time>2026-04-12T07:20:30.992Z</time></trkpt><trkpt lat="42.4322332" lon="12.3422712"><ele>203.0</ele><time>2026-04-12T07:20:31.992Z</time></trkpt><trkpt lat="42.4323093" lon="12.342159"><ele>202.5</ele><time>2026-04-12T07:20:32.991Z</time></trkpt><trkpt lat="42.4323816" lon="12.3420326"><ele>202.0</ele><time>2026-04-12T07:20:33.992Z</time></trkpt><trkpt lat="42.4324522" lon="12.3419348"><ele>201.75</ele><time>2026-04-12T07:20:34.992Z</time></trkpt><trkpt lat="42.4324988" lon="12.3418493"><ele>201.5</ele><time>2026-04-12T07:20:35.991Z</time></trkpt><trkpt lat="42.4326449" lon="12.3417828"><ele>201.25</ele><time>2026-04-12T07:20:37.992Z</time></trkpt><trkpt lat="42.4328006" lon="12.3418632"><ele>201.0</ele><time>2026-04-12T07:20:38.991Z</time></trkpt><trkpt lat="42.4329184" lon="12.3419007"><ele>200.0</ele><time>2026-04-12T07:20:39.992Z</time></trkpt><trkpt lat="42.433025" lon="12.3419356"><ele>199.0</ele><time>2026-04-12T07:20:40.992Z</time></trkpt><trkpt lat="42.4330903" lon="12.3419998"><ele>198.0</ele><time>2026-04-12T07:20:41.992Z</time></trkpt><trkpt lat="42.4331754" lon="12.3420403"><ele>197.0</ele><time>2026-04-12T07:20:42.991Z</time></trkpt><trkpt lat="42.4332547" lon="12.3420184"><ele>196.0</ele><time>2026-04-12T07:20:44.992Z</time></trkpt><trkpt lat="42.433325" lon="12.3419105"><ele>196.0</ele><time>2026-04-12T07:20:45.992Z</time></trkpt><trkpt lat="42.4333841" lon="12.3418314"><ele>196.0</ele><time>2026-04-12T07:20:46.991Z</time></trkpt><trkpt lat="42.4334445" lon="12.3416725"><ele>196.0</ele><time>2026-04-12T07:20:47.991Z</time></trkpt><trkpt lat="42.4335539" lon="12.341451"><ele>196.0</ele><time>2026-04-12T07:20:48.992Z</time></trkpt><trkpt lat="42.4336509" lon="12.3413204"><ele>196.5</ele><time>2026-04-12T07:20:49.993Z</time></trkpt><trkpt lat="42.4337272" lon="12.341159"><ele>197.0</ele><time>2026-04-12T07:20:50.992Z</time></trkpt><trkpt lat="42.4337814" lon="12.3410041"><ele>197.5</ele><time>2026-04-12T07:20:51.993Z</time></trkpt><trkpt lat="42.4338125" lon="12.3408274"><ele>198.0</ele><time>2026-04-12T07:20:52.992Z</time></trkpt><trkpt lat="42.4338175" lon="12.3406345"><ele>198.0</ele><time>2026-04-12T07:20:53.993Z</time></trkpt><trkpt lat="42.4338051" lon="12.3404142"><ele>198.0</ele><time>2026-04-12T07:20:54.992Z</time></trkpt><trkpt lat="42.4337785" lon="12.3401951"><ele>198.0</ele><time>2026-04-12T07:20:55.993Z</time></trkpt><trkpt lat="42.4337458" lon="12.3400039"><ele>198.0</ele><time>2026-04-12T07:20:56.991Z</time></trkpt><trkpt lat="42.4337062" lon="12.3398358"><ele>198.0</ele><time>2026-04-12T07:20:57.991Z</time></trkpt><trkpt lat="42.4336313" lon="12.3396874"><ele>198.0</ele><time>2026-04-12T07:20:58.992Z</time></trkpt><trkpt lat="42.4335586" lon="12.3395394"><ele>198.0</ele><time>2026-04-12T07:20:59.993Z</time></trkpt><trkpt lat="42.4335194" lon="12.3394155"><ele>198.60000000000002</ele><time>2026-04-12T07:21:00.992Z</time></trkpt><trkpt lat="42.4335278" lon="12.3393055"><ele>199.20000000000002</ele><time>2026-04-12T07:21:01.993Z</time></trkpt><trkpt lat="42.4335752" lon="12.3392192"><ele>199.8</ele><time>2026-04-12T07:21:02.992Z</time></trkpt><trkpt lat="42.4336368" lon="12.3391044"><ele>200.4</ele><time>2026-04-12T07:21:03.993Z</time></trkpt><trkpt lat="42.4337123" lon="12.3389637"><ele>201.0</ele><time>2026-04-12T07:21:04.992Z</time></trkpt><trkpt lat="42.4337713" lon="12.3388429"><ele>204.4</ele><time>2026-04-12T07:21:05.993Z</time></trkpt><trkpt lat="42.4338209" lon="12.3387103"><ele>207.8</ele><time>2026-04-12T07:21:06.992Z</time></trkpt><trkpt lat="42.4338701" lon="12.3385588"><ele>211.20000000000002</ele><time>2026-04-12T07:21:07.993Z</time></trkpt><trkpt lat="42.4338619" lon="12.3384444"><ele>214.60000000000002</ele><time>2026-04-12T07:21:08.991Z</time></trkpt><trkpt lat="42.4338827" lon="12.3383209"><ele>218.0</ele><time>2026-04-12T07:21:09.993Z</time></trkpt><trkpt lat="42.4339037" lon="12.3382116"><ele>218.00000000000003</ele><time>2026-04-12T07:21:10.992Z</time></trkpt><trkpt lat="42.4339236" lon="12.3380994"><ele>218.0</ele><time>2026-04-12T07:21:11.992Z</time></trkpt><trkpt lat="42.4339431" lon="12.3379846"><ele>218.0</ele><time>2026-04-12T07:21:12.992Z</time></trkpt><trkpt lat="42.4339587" lon="12.3378875"><ele>218.0</ele><time>2026-04-12T07:21:13.993Z</time></trkpt><trkpt lat="42.4339267" lon="12.3378136"><ele>218.00000000000003</ele><time>2026-04-12T07:21:14.99Z</time></trkpt><trkpt lat="42.4339371" lon="12.3377184"><ele>218.0</ele><time>2026-04-12T07:21:16.992Z</time></trkpt><trkpt lat="42.4339392" lon="12.3375362"><ele>217.60000000000002</ele><time>2026-04-12T07:21:19.991Z</time></trkpt><trkpt lat="42.4339511" lon="12.3374142"><ele>217.20000000000002</ele><time>2026-04-12T07:21:20.992Z</time></trkpt><trkpt lat="42.4339785" lon="12.3373303"><ele>216.8</ele><time>2026-04-12T07:21:21.993Z</time></trkpt><trkpt lat="42.4340298" lon="12.3372467"><ele>216.4</ele><time>2026-04-12T07:21:22.991Z</time></trkpt><trkpt lat="42.4340894" lon="12.337093"><ele>216.0</ele><time>2026-04-12T07:21:24.991Z</time></trkpt><trkpt lat="42.4340846" lon="12.3369609"><ele>218.0</ele><time>2026-04-12T07:21:25.992Z</time></trkpt><trkpt lat="42.4340669" lon="12.3368195"><ele>220.0</ele><time>2026-04-12T07:21:26.992Z</time></trkpt><trkpt lat="42.4340292" lon="12.3366491"><ele>222.0</ele><time>2026-04-12T07:21:27.992Z</time></trkpt><trkpt lat="42.4339817" lon="12.3364681"><ele>224.0</ele><time>2026-04-12T07:21:28.991Z</time></trkpt><trkpt lat="42.4339106" lon="12.3363031"><ele>223.5</ele><time>2026-04-12T07:21:29.992Z</time></trkpt><trkpt lat="42.4338424" lon="12.3361235"><ele>223.0</ele><time>2026-04-12T07:21:30.993Z</time></trkpt><trkpt lat="42.4337897" lon="12.3359452"><ele>222.5</ele><time>2026-04-12T07:21:31.992Z</time></trkpt><trkpt lat="42.4337637" lon="12.33577"><ele>222.0</ele><time>2026-04-12T07:21:32.992Z</time></trkpt><trkpt lat="42.4337384" lon="12.3355733"><ele>221.75</ele><time>2026-04-12T07:21:33.992Z</time></trkpt><trkpt lat="42.4337369" lon="12.3353775"><ele>221.5</ele><time>2026-04-12T07:21:34.991Z</time></trkpt><trkpt lat="42.433739" lon="12.3351856"><ele>221.25</ele><time>2026-04-12T07:21:35.992Z</time></trkpt><trkpt lat="42.433782" lon="12.3350133"><ele>221.0</ele><time>2026-04-12T07:21:36.991Z</time></trkpt><trkpt lat="42.4338323" lon="12.3348398"><ele>227.25</ele><time>2026-04-12T07:21:37.992Z</time></trkpt><trkpt lat="42.4339038" lon="12.3347648"><ele>233.5</ele><time>2026-04-12T07:21:38.991Z</time></trkpt><trkpt lat="42.4339425" lon="12.3346234"><ele>239.75</ele><time>2026-04-12T07:21:39.992Z</time></trkpt><trkpt lat="42.4339727" lon="12.3344498"><ele>246.0</ele><time>2026-04-12T07:21:40.992Z</time></trkpt><trkpt lat="42.4338679" lon="12.3342666"><ele>246.75</ele><time>2026-04-12T07:21:41.992Z</time></trkpt><trkpt lat="42.4338447" lon="12.3340892"><ele>247.5</ele><time>2026-04-12T07:21:42.991Z</time></trkpt><trkpt lat="42.4338226" lon="12.3339154"><ele>248.25</ele><time>2026-04-12T07:21:43.992Z</time></trkpt><trkpt lat="42.4338059" lon="12.3337286"><ele>249.0</ele><time>2026-04-12T07:21:44.992Z</time></trkpt><trkpt lat="42.4338027" lon="12.3335384"><ele>250.33333333333331</ele><time>2026-04-12T07:21:45.992Z</time></trkpt><trkpt lat="42.4338269" lon="12.3333319"><ele>251.66666666666666</ele><time>2026-04-12T07:21:46.991Z</time></trkpt><trkpt lat="42.4338544" lon="12.3331215"><ele>253.0</ele><time>2026-04-12T07:21:47.992Z</time></trkpt><trkpt lat="42.4338825" lon="12.3329157"><ele>253.0</ele><time>2026-04-12T07:21:48.992Z</time></trkpt><trkpt lat="42.4339098" lon="12.33271"><ele>253.0</ele><time>2026-04-12T07:21:49.992Z</time></trkpt><trkpt lat="42.4339343" lon="12.3325201"><ele>253.0</ele><time>2026-04-12T07:21:50.991Z</time></trkpt><trkpt lat="42.4340008" lon="12.3321872"><ele>253.0</ele><time>2026-04-12T07:21:52.99Z</time></trkpt><trkpt lat="42.4340477" lon="12.3320588"><ele>253.0</ele><time>2026-04-12T07:21:53.991Z</time></trkpt><trkpt lat="42.434101" lon="12.3319633"><ele>253.0</ele><time>2026-04-12T07:21:54.992Z</time></trkpt><trkpt lat="42.4341828" lon="12.331908"><ele>253.0</ele><time>2026-04-12T07:21:55.992Z</time></trkpt><trkpt lat="42.4342895" lon="12.3318428"><ele>253.0</ele><time>2026-04-12T07:21:56.992Z</time></trkpt><trkpt lat="42.4344055" lon="12.3317622"><ele>253.0</ele><time>2026-04-12T07:21:57.992Z</time></trkpt><trkpt lat="42.4345153" lon="12.3316642"><ele>253.0</ele><time>2026-04-12T07:21:58.992Z</time></trkpt><trkpt lat="42.4346512" lon="12.3315533"><ele>253.0</ele><time>2026-04-12T07:21:59.992Z</time></trkpt><trkpt lat="42.4347665" lon="12.3314335"><ele>253.0</ele><time>2026-04-12T07:22:00.992Z</time></trkpt><trkpt lat="42.4348712" lon="12.3313088"><ele>255.25</ele><time>2026-04-12T07:22:01.992Z</time></trkpt><trkpt lat="42.4349617" lon="12.3311743"><ele>257.5</ele><time>2026-04-12T07:22:02.992Z</time></trkpt><trkpt lat="42.4350458" lon="12.3310024"><ele>259.75</ele><time>2026-04-12T07:22:03.992Z</time></trkpt><trkpt lat="42.4351138" lon="12.330833"><ele>262.0</ele><time>2026-04-12T07:22:04.992Z</time></trkpt><trkpt lat="42.435176" lon="12.3306747"><ele>263.0</ele><time>2026-04-12T07:22:05.992Z</time></trkpt><trkpt lat="42.4352533" lon="12.3305481"><ele>264.0</ele><time>2026-04-12T07:22:06.992Z</time></trkpt><trkpt lat="42.4353486" lon="12.3304155"><ele>265.0</ele><time>2026-04-12T07:22:07.992Z</time></trkpt><trkpt lat="42.4354295" lon="12.3302921"><ele>266.0</ele><time>2026-04-12T07:22:08.99Z</time></trkpt><trkpt lat="42.435492" lon="12.3301892"><ele>266.7142857142857</ele><time>2026-04-12T07:22:09.992Z</time></trkpt><trkpt lat="42.4355432" lon="12.3301078"><ele>267.42857142857144</ele><time>2026-04-12T07:22:10.992Z</time></trkpt><trkpt lat="42.4355917" lon="12.3300344"><ele>268.1428571428571</ele><time>2026-04-12T07:22:11.991Z</time></trkpt><trkpt lat="42.4356464" lon="12.3299678"><ele>268.8571428571429</ele><time>2026-04-12T07:22:12.991Z</time></trkpt><trkpt lat="42.4357066" lon="12.3299026"><ele>269.57142857142856</ele><time>2026-04-12T07:22:13.992Z</time></trkpt><trkpt lat="42.4357439" lon="12.32983"><ele>270.2857142857143</ele><time>2026-04-12T07:22:14.992Z</time></trkpt><trkpt lat="42.4357978" lon="12.3297493"><ele>271.0</ele><time>2026-04-12T07:22:15.992Z</time></trkpt><trkpt lat="42.4358579" lon="12.3296573"><ele>271.5</ele><time>2026-04-12T07:22:16.992Z</time></trkpt><trkpt lat="42.4359257" lon="12.3295489"><ele>272.0</ele><time>2026-04-12T07:22:17.992Z</time></trkpt><trkpt lat="42.4359975" lon="12.329424"><ele>272.5</ele><time>2026-04-12T07:22:18.992Z</time></trkpt><trkpt lat="42.4360737" lon="12.329281"><ele>273.0</ele><time>2026-04-12T07:22:19.992Z</time></trkpt><trkpt lat="42.4361542" lon="12.3291265"><ele>273.0</ele><time>2026-04-12T07:22:20.99Z</time></trkpt><trkpt lat="42.4362386" lon="12.3289692"><ele>273.0</ele><time>2026-04-12T07:22:21.992Z</time></trkpt><trkpt lat="42.4363286" lon="12.3287954"><ele>273.0</ele><time>2026-04-12T07:22:22.99Z</time></trkpt><trkpt lat="42.4364241" lon="12.3286179"><ele>274.3333333333333</ele><time>2026-04-12T07:22:23.992Z</time></trkpt><trkpt lat="42.436521" lon="12.3284374"><ele>275.66666666666663</ele><time>2026-04-12T07:22:24.992Z</time></trkpt><trkpt lat="42.4366163" lon="12.3282656"><ele>277.0</ele><time>2026-04-12T07:22:25.992Z</time></trkpt><trkpt lat="42.4367161" lon="12.3280907"><ele>277.3333333333333</ele><time>2026-04-12T07:22:26.992Z</time></trkpt><trkpt lat="42.4368145" lon="12.3279106"><ele>277.6666666666667</ele><time>2026-04-12T07:22:27.991Z</time></trkpt><trkpt lat="42.4369135" lon="12.3277265"><ele>278.0</ele><time>2026-04-12T07:22:28.991Z</time></trkpt><trkpt lat="42.4370087" lon="12.3275384"><ele>278.0</ele><time>2026-04-12T07:22:29.992Z</time></trkpt><trkpt lat="42.4370945" lon="12.3273564"><ele>278.0</ele><time>2026-04-12T07:22:30.992Z</time></trkpt><trkpt lat="42.4371753" lon="12.3271769"><ele>278.0</ele><time>2026-04-12T07:22:31.992Z</time></trkpt><trkpt lat="42.4372522" lon="12.3269909"><ele>277.6666666666667</ele><time>2026-04-12T07:22:32.991Z</time></trkpt><trkpt lat="42.43732" lon="12.3267956"><ele>277.3333333333333</ele><time>2026-04-12T07:22:33.992Z</time></trkpt><trkpt lat="42.4373786" lon="12.3265876"><ele>277.0</ele><time>2026-04-12T07:22:34.99Z</time></trkpt><trkpt lat="42.4374274" lon="12.326376"><ele>277.66666666666663</ele><time>2026-04-12T07:22:35.992Z</time></trkpt><trkpt lat="42.4374705" lon="12.3261576"><ele>278.3333333333333</ele><time>2026-04-12T07:22:36.992Z</time></trkpt><trkpt lat="42.4375163" lon="12.3259365"><ele>279.0</ele><time>2026-04-12T07:22:37.992Z</time></trkpt><trkpt lat="42.4375632" lon="12.3257096"><ele>279.0</ele><time>2026-04-12T07:22:38.992Z</time></trkpt><trkpt lat="42.4376065" lon="12.3254854"><ele>279.0</ele><time>2026-04-12T07:22:39.992Z</time></trkpt><trkpt lat="42.4376481" lon="12.3252654"><ele>279.0</ele><time>2026-04-12T07:22:40.992Z</time></trkpt><trkpt lat="42.4376902" lon="12.3250424"><ele>279.0</ele><time>2026-04-12T07:22:41.992Z</time></trkpt><trkpt lat="42.437733" lon="12.3248181"><ele>279.0</ele><time>2026-04-12T07:22:42.991Z</time></trkpt><trkpt lat="42.4377751" lon="12.3245921"><ele>279.0</ele><time>2026-04-12T07:22:43.992Z</time></trkpt><trkpt lat="42.4378145" lon="12.324372"><ele>279.3333333333333</ele><time>2026-04-12T07:22:44.991Z</time></trkpt><trkpt lat="42.4378557" lon="12.3241528"><ele>279.66666666666663</ele><time>2026-04-12T07:22:45.992Z</time></trkpt><trkpt lat="42.4378962" lon="12.3239363"><ele>280.0</ele><time>2026-04-12T07:22:46.992Z</time></trkpt><trkpt lat="42.4379359" lon="12.3237237"><ele>282.3333333333333</ele><time>2026-04-12T07:22:47.992Z</time></trkpt><trkpt lat="42.4379757" lon="12.3235047"><ele>284.6666666666667</ele><time>2026-04-12T07:22:48.992Z</time></trkpt><trkpt lat="42.4380194" lon="12.3232859"><ele>287.0</ele><time>2026-04-12T07:22:49.992Z</time></trkpt><trkpt lat="42.4380683" lon="12.3230695"><ele>288.0</ele><time>2026-04-12T07:22:50.992Z</time></trkpt><trkpt lat="42.4381207" lon="12.3228519"><ele>289.0</ele><time>2026-04-12T07:22:51.992Z</time></trkpt><trkpt lat="42.4381748" lon="12.3226321"><ele>290.0</ele><time>2026-04-12T07:22:52.992Z</time></trkpt><trkpt lat="42.4382274" lon="12.3224141"><ele>290.33333333333337</ele><time>2026-04-12T07:22:53.991Z</time></trkpt><trkpt lat="42.4382814" lon="12.322196"><ele>290.6666666666667</ele><time>2026-04-12T07:22:54.991Z</time></trkpt><trkpt lat="42.4383344" lon="12.3219798"><ele>291.0</ele><time>2026-04-12T07:22:55.991Z</time></trkpt><trkpt lat="42.4383935" lon="12.3217517"><ele>291.0</ele><time>2026-04-12T07:22:56.991Z</time></trkpt><trkpt lat="42.4384525" lon="12.3215226"><ele>291.0</ele><time>2026-04-12T07:22:57.992Z</time></trkpt><trkpt lat="42.4385141" lon="12.3212924"><ele>291.0</ele><time>2026-04-12T07:22:58.992Z</time></trkpt><trkpt lat="42.4385744" lon="12.3210524"><ele>291.0</ele><time>2026-04-12T07:22:59.992Z</time></trkpt><trkpt lat="42.4386292" lon="12.3208139"><ele>291.0</ele><time>2026-04-12T07:23:00.992Z</time></trkpt><trkpt lat="42.438674" lon="12.3205719"><ele>291.0</ele><time>2026-04-12T07:23:01.992Z</time></trkpt><trkpt lat="42.4387111" lon="12.3203209"><ele>292.6666666666667</ele><time>2026-04-12T07:23:02.991Z</time></trkpt><trkpt lat="42.4387443" lon="12.3200619"><ele>294.33333333333337</ele><time>2026-04-12T07:23:03.992Z</time></trkpt><trkpt lat="42.4387784" lon="12.3197914"><ele>296.0</ele><time>2026-04-12T07:23:04.991Z</time></trkpt><trkpt lat="42.4388187" lon="12.3195135"><ele>297.33333333333337</ele><time>2026-04-12T07:23:05.992Z</time></trkpt><trkpt lat="42.4388568" lon="12.3192368"><ele>298.6666666666667</ele><time>2026-04-12T07:23:06.992Z</time></trkpt><trkpt lat="42.4388908" lon="12.3189585"><ele>300.0</ele><time>2026-04-12T07:23:07.991Z</time></trkpt><trkpt lat="42.4389226" lon="12.3186734"><ele>300.0</ele><time>2026-04-12T07:23:08.991Z</time></trkpt><trkpt lat="42.4389489" lon="12.3183844"><ele>300.0</ele><time>2026-04-12T07:23:09.992Z</time></trkpt><trkpt lat="42.4389733" lon="12.3181034"><ele>300.0</ele><time>2026-04-12T07:23:10.991Z</time></trkpt><trkpt lat="42.4389951" lon="12.3178293"><ele>299.6666666666667</ele><time>2026-04-12T07:23:11.992Z</time></trkpt><trkpt lat="42.4390157" lon="12.3175643"><ele>299.33333333333337</ele><time>2026-04-12T07:23:12.991Z</time></trkpt><trkpt lat="42.4390339" lon="12.3172963"><ele>299.0</ele><time>2026-04-12T07:23:13.992Z</time></trkpt><trkpt lat="42.439052" lon="12.3170234"><ele>298.6666666666667</ele><time>2026-04-12T07:23:14.992Z</time></trkpt><trkpt lat="42.4390692" lon="12.3167619"><ele>298.3333333333333</ele><time>2026-04-12T07:23:15.992Z</time></trkpt><trkpt lat="42.4390833" lon="12.3165218"><ele>298.0</ele><time>2026-04-12T07:23:16.992Z</time></trkpt><trkpt lat="42.4390996" lon="12.3162779"><ele>297.66666666666663</ele><time>2026-04-12T07:23:17.992Z</time></trkpt><trkpt lat="42.4391181" lon="12.3160431"><ele>297.3333333333333</ele><time>2026-04-12T07:23:18.992Z</time></trkpt><trkpt lat="42.4391357" lon="12.3158225"><ele>297.0</ele><time>2026-04-12T07:23:19.992Z</time></trkpt><trkpt lat="42.4391408" lon="12.315621"><ele>297.0</ele><time>2026-04-12T07:23:20.992Z</time></trkpt><trkpt lat="42.4391417" lon="12.3154257"><ele>297.0</ele><time>2026-04-12T07:23:21.992Z</time></trkpt><trkpt lat="42.4391232" lon="12.3152275"><ele>297.0</ele><time>2026-04-12T07:23:22.992Z</time></trkpt><trkpt lat="42.439078" lon="12.3150319"><ele>297.0</ele><time>2026-04-12T07:23:23.991Z</time></trkpt><trkpt lat="42.4390091" lon="12.3148286"><ele>297.0</ele><time>2026-04-12T07:23:24.992Z</time></trkpt><trkpt lat="42.4389118" lon="12.3146119"><ele>297.0</ele><time>2026-04-12T07:23:25.992Z</time></trkpt><trkpt lat="42.4388056" lon="12.3143933"><ele>297.0</ele><time>2026-04-12T07:23:26.992Z</time></trkpt><trkpt lat="42.4387036" lon="12.3141742"><ele>297.0</ele><time>2026-04-12T07:23:27.992Z</time></trkpt><trkpt lat="42.4386054" lon="12.3139671"><ele>297.0</ele><time>2026-04-12T07:23:28.991Z</time></trkpt><trkpt lat="42.438507" lon="12.3137641"><ele>297.0</ele><time>2026-04-12T07:23:29.992Z</time></trkpt><trkpt lat="42.4384176" lon="12.3135665"><ele>297.0</ele><time>2026-04-12T07:23:30.992Z</time></trkpt><trkpt lat="42.438324" lon="12.3133726"><ele>297.0</ele><time>2026-04-12T07:23:31.992Z</time></trkpt><trkpt lat="42.4382346" lon="12.3131803"><ele>297.0</ele><time>2026-04-12T07:23:32.991Z</time></trkpt><trkpt lat="42.4381407" lon="12.3129878"><ele>297.0</ele><time>2026-04-12T07:23:33.991Z</time></trkpt><trkpt lat="42.43805" lon="12.3127914"><ele>297.0</ele><time>2026-04-12T07:23:34.992Z</time></trkpt><trkpt lat="42.4379629" lon="12.3125993"><ele>297.0</ele><time>2026-04-12T07:23:35.991Z</time></trkpt><trkpt lat="42.4378794" lon="12.3124088"><ele>297.0</ele><time>2026-04-12T07:23:36.991Z</time></trkpt><trkpt lat="42.4377953" lon="12.312221"><ele>297.0</ele><time>2026-04-12T07:23:37.992Z</time></trkpt><trkpt lat="42.4377082" lon="12.3120337"><ele>297.0</ele><time>2026-04-12T07:23:38.992Z</time></trkpt><trkpt lat="42.4376205" lon="12.3118442"><ele>297.0</ele><time>2026-04-12T07:23:39.992Z</time></trkpt><trkpt lat="42.4375367" lon="12.3116618"><ele>297.0</ele><time>2026-04-12T07:23:40.991Z</time></trkpt><trkpt lat="42.4374528" lon="12.3114786"><ele>297.0</ele><time>2026-04-12T07:23:41.991Z</time></trkpt><trkpt lat="42.4373733" lon="12.3112979"><ele>296.75</ele><time>2026-04-12T07:23:42.991Z</time></trkpt><trkpt lat="42.4372999" lon="12.3111323"><ele>296.5</ele><time>2026-04-12T07:23:43.992Z</time></trkpt><trkpt lat="42.4372303" lon="12.3109809"><ele>296.25</ele><time>2026-04-12T07:23:44.992Z</time></trkpt><trkpt lat="42.4371638" lon="12.3108392"><ele>296.0</ele><time>2026-04-12T07:23:45.992Z</time></trkpt><trkpt lat="42.4371015" lon="12.3107064"><ele>296.0</ele><time>2026-04-12T07:23:46.992Z</time></trkpt><trkpt lat="42.4370402" lon="12.3105742"><ele>296.0</ele><time>2026-04-12T07:23:47.991Z</time></trkpt><trkpt lat="42.4369746" lon="12.3104336"><ele>296.0</ele><time>2026-04-12T07:23:48.992Z</time></trkpt><trkpt lat="42.4369079" lon="12.3102948"><ele>296.0</ele><time>2026-04-12T07:23:49.991Z</time></trkpt><trkpt lat="42.4368461" lon="12.3101691"><ele>296.0</ele><time>2026-04-12T07:23:50.992Z</time></trkpt><trkpt lat="42.4367899" lon="12.3100452"><ele>296.0</ele><time>2026-04-12T07:23:51.992Z</time></trkpt><trkpt lat="42.4367361" lon="12.3099229"><ele>296.0</ele><time>2026-04-12T07:23:52.992Z</time></trkpt><trkpt lat="42.4366796" lon="12.3098097"><ele>296.0</ele><time>2026-04-12T07:23:53.991Z</time></trkpt><trkpt lat="42.4366264" lon="12.3096952"><ele>296.0</ele><time>2026-04-12T07:23:54.992Z</time></trkpt><trkpt lat="42.4365738" lon="12.3095814"><ele>296.0</ele><time>2026-04-12T07:23:55.992Z</time></trkpt><trkpt lat="42.4365202" lon="12.3094708"><ele>296.0</ele><time>2026-04-12T07:23:56.991Z</time></trkpt><trkpt lat="42.4364692" lon="12.3093558"><ele>296.0</ele><time>2026-04-12T07:23:57.992Z</time></trkpt><trkpt lat="42.4364162" lon="12.3092411"><ele>296.0</ele><time>2026-04-12T07:23:58.991Z</time></trkpt><trkpt lat="42.436368" lon="12.309133"><ele>296.0</ele><time>2026-04-12T07:23:59.991Z</time></trkpt><trkpt lat="42.4363214" lon="12.309016"><ele>296.6</ele><time>2026-04-12T07:24:00.992Z</time></trkpt><trkpt lat="42.436272" lon="12.3089079"><ele>297.20000000000005</ele><time>2026-04-12T07:24:01.991Z</time></trkpt><trkpt lat="42.4362215" lon="12.3087996"><ele>297.79999999999995</ele><time>2026-04-12T07:24:02.992Z</time></trkpt><trkpt lat="42.4361658" lon="12.3086941"><ele>298.4</ele><time>2026-04-12T07:24:03.991Z</time></trkpt><trkpt lat="42.4361104" lon="12.3085797"><ele>299.0</ele><time>2026-04-12T07:24:04.991Z</time></trkpt><trkpt lat="42.4360562" lon="12.3084624"><ele>299.0</ele><time>2026-04-12T07:24:05.992Z</time></trkpt><trkpt lat="42.4360035" lon="12.3083579"><ele>299.0</ele><time>2026-04-12T07:24:06.992Z</time></trkpt><trkpt lat="42.4359579" lon="12.3082629"><ele>299.0</ele><time>2026-04-12T07:24:07.992Z</time></trkpt><trkpt lat="42.4359197" lon="12.3081854"><ele>299.0</ele><time>2026-04-12T07:24:08.992Z</time></trkpt><trkpt lat="42.4358798" lon="12.3080543"><ele>299.0</ele><time>2026-04-12T07:24:10.991Z</time></trkpt><trkpt lat="42.4359009" lon="12.307916"><ele>298.59999999999997</ele><time>2026-04-12T07:24:12.991Z</time></trkpt><trkpt lat="42.4359229" lon="12.3077709"><ele>298.2</ele><time>2026-04-12T07:24:14.992Z</time></trkpt><trkpt lat="42.4359065" lon="12.3076396"><ele>297.79999999999995</ele><time>2026-04-12T07:24:16.992Z</time></trkpt><trkpt lat="42.4358773" lon="12.3074947"><ele>297.4</ele><time>2026-04-12T07:24:18.992Z</time></trkpt><trkpt lat="42.43583" lon="12.3074035"><ele>297.0</ele><time>2026-04-12T07:24:19.992Z</time></trkpt><trkpt lat="42.4357562" lon="12.3072809"><ele>296.0</ele><time>2026-04-12T07:24:20.992Z</time></trkpt><trkpt lat="42.4356823" lon="12.3071496"><ele>295.0</ele><time>2026-04-12T07:24:21.992Z</time></trkpt><trkpt lat="42.4356304" lon="12.3070093"><ele>294.0</ele><time>2026-04-12T07:24:22.992Z</time></trkpt><trkpt lat="42.4356061" lon="12.3068891"><ele>293.0</ele><time>2026-04-12T07:24:23.991Z</time></trkpt><trkpt lat="42.4355684" lon="12.3067652"><ele>292.0</ele><time>2026-04-12T07:24:24.992Z</time></trkpt><trkpt lat="42.4355261" lon="12.3066551"><ele>292.0</ele><time>2026-04-12T07:24:25.991Z</time></trkpt><trkpt lat="42.4354791" lon="12.3065367"><ele>292.0</ele><time>2026-04-12T07:24:26.991Z</time></trkpt><trkpt lat="42.4353877" lon="12.3064183"><ele>292.0</ele><time>2026-04-12T07:24:27.992Z</time></trkpt><trkpt lat="42.4352987" lon="12.3063337"><ele>292.0</ele><time>2026-04-12T07:24:28.991Z</time></trkpt><trkpt lat="42.4351899" lon="12.3062594"><ele>291.5</ele><time>2026-04-12T07:24:29.991Z</time></trkpt><trkpt lat="42.4350617" lon="12.3061872"><ele>291.0</ele><time>2026-04-12T07:24:30.991Z</time></trkpt><trkpt lat="42.4349325" lon="12.306114"><ele>290.5</ele><time>2026-04-12T07:24:31.992Z</time></trkpt><trkpt lat="42.4348193" lon="12.3060225"><ele>290.0</ele><time>2026-04-12T07:24:32.992Z</time></trkpt><trkpt lat="42.4347071" lon="12.3059252"><ele>291.0</ele><time>2026-04-12T07:24:33.992Z</time></trkpt><trkpt lat="42.4345936" lon="12.3058536"><ele>292.0</ele><time>2026-04-12T07:24:34.991Z</time></trkpt><trkpt lat="42.4344759" lon="12.305789"><ele>293.0</ele><time>2026-04-12T07:24:35.992Z</time></trkpt><trkpt lat="42.4343592" lon="12.3057436"><ele>294.0</ele><time>2026-04-12T07:24:36.991Z</time></trkpt><trkpt lat="42.4342493" lon="12.3056925"><ele>294.0</ele><time>2026-04-12T07:24:37.992Z</time></trkpt><trkpt lat="42.434132" lon="12.3056324"><ele>294.0</ele><time>2026-04-12T07:24:38.99Z</time></trkpt><trkpt lat="42.4340212" lon="12.3055667"><ele>294.0</ele><time>2026-04-12T07:24:39.991Z</time></trkpt><trkpt lat="42.4339062" lon="12.305501"><ele>294.0</ele><time>2026-04-12T07:24:40.992Z</time></trkpt><trkpt lat="42.4338096" lon="12.3054461"><ele>293.8</ele><time>2026-04-12T07:24:41.992Z</time></trkpt><trkpt lat="42.4337134" lon="12.3053873"><ele>293.59999999999997</ele><time>2026-04-12T07:24:42.992Z</time></trkpt><trkpt lat="42.4336236" lon="12.3053324"><ele>293.4</ele><time>2026-04-12T07:24:43.99Z</time></trkpt><trkpt lat="42.4335415" lon="12.3052835"><ele>293.2</ele><time>2026-04-12T07:24:44.991Z</time></trkpt><trkpt lat="42.4334582" lon="12.3052349"><ele>293.0</ele><time>2026-04-12T07:24:45.992Z</time></trkpt><trkpt lat="42.4333748" lon="12.30519"><ele>293.0</ele><time>2026-04-12T07:24:46.992Z</time></trkpt><trkpt lat="42.4333024" lon="12.3051487"><ele>293.0</ele><time>2026-04-12T07:24:47.992Z</time></trkpt><trkpt lat="42.4332335" lon="12.3051117"><ele>293.0</ele><time>2026-04-12T07:24:48.991Z</time></trkpt><trkpt lat="42.433169" lon="12.3050773"><ele>293.0</ele><time>2026-04-12T07:24:49.992Z</time></trkpt><trkpt lat="42.4330602" lon="12.3050093"><ele>293.0</ele><time>2026-04-12T07:24:51.992Z</time></trkpt><trkpt lat="42.4329709" lon="12.3049597"><ele>293.0</ele><time>2026-04-12T07:24:53.992Z</time></trkpt><trkpt lat="42.4329001" lon="12.3049134"><ele>292.99999999999994</ele><time>2026-04-12T07:24:55.991Z</time></trkpt><trkpt lat="42.4328387" lon="12.3048735"><ele>293.0</ele><time>2026-04-12T07:24:57.993Z</time></trkpt><trkpt lat="42.4327859" lon="12.3048196"><ele>293.0</ele><time>2026-04-12T07:24:59.992Z</time></trkpt><trkpt lat="42.4327227" lon="12.3047854"><ele>293.0</ele><time>2026-04-12T07:25:00.992Z</time></trkpt><trkpt lat="42.4326604" lon="12.3047537"><ele>293.0</ele><time>2026-04-12T07:25:01.993Z</time></trkpt><trkpt lat="42.4325928" lon="12.3047185"><ele>292.99999999999994</ele><time>2026-04-12T07:25:02.991Z</time></trkpt><trkpt lat="42.4325121" lon="12.3046662"><ele>293.0</ele><time>2026-04-12T07:25:03.993Z</time></trkpt><trkpt lat="42.4324211" lon="12.3046044"><ele>293.0</ele><time>2026-04-12T07:25:04.992Z</time></trkpt><trkpt lat="42.4323283" lon="12.3045368"><ele>293.0</ele><time>2026-04-12T07:25:05.991Z</time></trkpt><trkpt lat="42.4322344" lon="12.3044623"><ele>293.0</ele><time>2026-04-12T07:25:06.991Z</time></trkpt><trkpt lat="42.4321418" lon="12.3043934"><ele>293.0</ele><time>2026-04-12T07:25:07.992Z</time></trkpt><trkpt lat="42.4320437" lon="12.3043193"><ele>293.0</ele><time>2026-04-12T07:25:08.991Z</time></trkpt><trkpt lat="42.4319434" lon="12.3042447"><ele>293.4</ele><time>2026-04-12T07:25:09.992Z</time></trkpt><trkpt lat="42.4318662" lon="12.3041634"><ele>293.8</ele><time>2026-04-12T07:25:10.992Z</time></trkpt><trkpt lat="42.4318048" lon="12.3040653"><ele>294.2</ele><time>2026-04-12T07:25:11.992Z</time></trkpt><trkpt lat="42.4317493" lon="12.3039546"><ele>294.6</ele><time>2026-04-12T07:25:12.991Z</time></trkpt><trkpt lat="42.4316858" lon="12.3038226"><ele>295.0</ele><time>2026-04-12T07:25:13.992Z</time></trkpt><trkpt lat="42.4316173" lon="12.3037284"><ele>295.0</ele><time>2026-04-12T07:25:14.992Z</time></trkpt><trkpt lat="42.4315391" lon="12.3036577"><ele>295.0</ele><time>2026-04-12T07:25:15.992Z</time></trkpt><trkpt lat="42.4314494" lon="12.3035721"><ele>295.0</ele><time>2026-04-12T07:25:16.992Z</time></trkpt><trkpt lat="42.4313443" lon="12.303572"><ele>295.0</ele><time>2026-04-12T07:25:17.992Z</time></trkpt><trkpt lat="42.4312433" lon="12.3035502"><ele>295.0</ele><time>2026-04-12T07:25:18.992Z</time></trkpt><trkpt lat="42.4310511" lon="12.3036157"><ele>296.3333333333333</ele><time>2026-04-12T07:25:19.993Z</time></trkpt><trkpt lat="42.4308858" lon="12.3036437"><ele>297.6666666666667</ele><time>2026-04-12T07:25:20.992Z</time></trkpt><trkpt lat="42.430732" lon="12.3036633"><ele>299.0</ele><time>2026-04-12T07:25:21.992Z</time></trkpt><trkpt lat="42.430572" lon="12.3036748"><ele>300.0</ele><time>2026-04-12T07:25:22.992Z</time></trkpt><trkpt lat="42.4304303" lon="12.3037043"><ele>301.0</ele><time>2026-04-12T07:25:23.992Z</time></trkpt><trkpt lat="42.4302974" lon="12.3037274"><ele>302.0</ele><time>2026-04-12T07:25:24.992Z</time></trkpt><trkpt lat="42.4301484" lon="12.3037523"><ele>303.0</ele><time>2026-04-12T07:25:25.991Z</time></trkpt><trkpt lat="42.4300719" lon="12.3037577"><ele>303.0</ele><time>2026-04-12T07:25:26.992Z</time></trkpt><trkpt lat="42.4299512" lon="12.3037786"><ele>303.0</ele><time>2026-04-12T07:25:27.993Z</time></trkpt><trkpt lat="42.4298433" lon="12.3037667"><ele>303.0</ele><time>2026-04-12T07:25:28.992Z</time></trkpt><trkpt lat="42.4297431" lon="12.3036706"><ele>303.0</ele><time>2026-04-12T07:25:29.991Z</time></trkpt><trkpt lat="42.4296528" lon="12.3035401"><ele>302.75</ele><time>2026-04-12T07:25:30.992Z</time></trkpt><trkpt lat="42.4295335" lon="12.3034327"><ele>302.5</ele><time>2026-04-12T07:25:31.992Z</time></trkpt><trkpt lat="42.4294092" lon="12.3033247"><ele>302.25</ele><time>2026-04-12T07:25:32.992Z</time></trkpt><trkpt lat="42.429338" lon="12.3032243"><ele>302.0</ele><time>2026-04-12T07:25:33.992Z</time></trkpt><trkpt lat="42.4292273" lon="12.303137"><ele>301.0</ele><time>2026-04-12T07:25:34.992Z</time></trkpt><trkpt lat="42.4291224" lon="12.303037"><ele>300.0</ele><time>2026-04-12T07:25:35.992Z</time></trkpt><trkpt lat="42.429018" lon="12.3029667"><ele>299.0</ele><time>2026-04-12T07:25:36.991Z</time></trkpt><trkpt lat="42.4289197" lon="12.3028836"><ele>298.0</ele><time>2026-04-12T07:25:37.991Z</time></trkpt><trkpt lat="42.4288255" lon="12.3028112"><ele>298.4</ele><time>2026-04-12T07:25:38.991Z</time></trkpt><trkpt lat="42.4287309" lon="12.3027328"><ele>298.8</ele><time>2026-04-12T07:25:39.992Z</time></trkpt><trkpt lat="42.4286398" lon="12.3026494"><ele>299.2</ele><time>2026-04-12T07:25:40.992Z</time></trkpt><trkpt lat="42.4285471" lon="12.3025767"><ele>299.6</ele><time>2026-04-12T07:25:41.993Z</time></trkpt><trkpt lat="42.428447" lon="12.3024976"><ele>300.0</ele><time>2026-04-12T07:25:42.991Z</time></trkpt><trkpt lat="42.428342" lon="12.3024296"><ele>300.0</ele><time>2026-04-12T07:25:43.992Z</time></trkpt><trkpt lat="42.4282362" lon="12.3023703"><ele>300.0</ele><time>2026-04-12T07:25:44.992Z</time></trkpt><trkpt lat="42.4281159" lon="12.3023225"><ele>300.0</ele><time>2026-04-12T07:25:45.992Z</time></trkpt><trkpt lat="42.4279957" lon="12.3022734"><ele>300.0</ele><time>2026-04-12T07:25:46.992Z</time></trkpt><trkpt lat="42.4278732" lon="12.3022338"><ele>300.5</ele><time>2026-04-12T07:25:47.992Z</time></trkpt><trkpt lat="42.427737" lon="12.3021863"><ele>301.0</ele><time>2026-04-12T07:25:48.992Z</time></trkpt><trkpt lat="42.4276095" lon="12.3021394"><ele>301.5</ele><time>2026-04-12T07:25:49.991Z</time></trkpt><trkpt lat="42.427496" lon="12.3020998"><ele>302.0</ele><time>2026-04-12T07:25:50.991Z</time></trkpt><trkpt lat="42.42739" lon="12.302062"><ele>302.0</ele><time>2026-04-12T07:25:51.991Z</time></trkpt><trkpt lat="42.4272884" lon="12.3020309"><ele>302.0</ele><time>2026-04-12T07:25:52.992Z</time></trkpt><trkpt lat="42.4271763" lon="12.3019884"><ele>302.0</ele><time>2026-04-12T07:25:53.991Z</time></trkpt><trkpt lat="42.4270696" lon="12.3019359"><ele>302.0</ele><time>2026-04-12T07:25:54.992Z</time></trkpt><trkpt lat="42.4269534" lon="12.3018875"><ele>302.25</ele><time>2026-04-12T07:25:55.992Z</time></trkpt><trkpt lat="42.4268313" lon="12.3018326"><ele>302.5</ele><time>2026-04-12T07:25:56.992Z</time></trkpt><trkpt lat="42.4267094" lon="12.3017702"><ele>302.75</ele><time>2026-04-12T07:25:57.992Z</time></trkpt><trkpt lat="42.4265904" lon="12.3017045"><ele>303.0</ele><time>2026-04-12T07:25:58.992Z</time></trkpt><trkpt lat="42.4264722" lon="12.3016208"><ele>303.0</ele><time>2026-04-12T07:25:59.992Z</time></trkpt><trkpt lat="42.4263596" lon="12.3015383"><ele>303.0</ele><time>2026-04-12T07:26:00.992Z</time></trkpt><trkpt lat="42.4262523" lon="12.3014551"><ele>303.0</ele><time>2026-04-12T07:26:01.992Z</time></trkpt><trkpt lat="42.4261435" lon="12.3013617"><ele>303.0</ele><time>2026-04-12T07:26:02.992Z</time></trkpt><trkpt lat="42.4260286" lon="12.3012619"><ele>303.75</ele><time>2026-04-12T07:26:03.992Z</time></trkpt><trkpt lat="42.4259211" lon="12.3011677"><ele>304.5</ele><time>2026-04-12T07:26:04.992Z</time></trkpt><trkpt lat="42.4258157" lon="12.3010845"><ele>305.25</ele><time>2026-04-12T07:26:05.992Z</time></trkpt><trkpt lat="42.4257048" lon="12.3010094"><ele>306.0</ele><time>2026-04-12T07:26:06.992Z</time></trkpt><trkpt lat="42.4255857" lon="12.3009403"><ele>306.5</ele><time>2026-04-12T07:26:07.992Z</time></trkpt><trkpt lat="42.425459" lon="12.3008836"><ele>307.0</ele><time>2026-04-12T07:26:08.992Z</time></trkpt><trkpt lat="42.4253366" lon="12.3008284"><ele>307.5</ele><time>2026-04-12T07:26:09.992Z</time></trkpt><trkpt lat="42.4252327" lon="12.3007748"><ele>308.0</ele><time>2026-04-12T07:26:10.992Z</time></trkpt><trkpt lat="42.4251248" lon="12.300732"><ele>308.0</ele><time>2026-04-12T07:26:11.991Z</time></trkpt><trkpt lat="42.4250176" lon="12.3006898"><ele>308.0</ele><time>2026-04-12T07:26:12.991Z</time></trkpt><trkpt lat="42.42492" lon="12.3006482"><ele>308.0</ele><time>2026-04-12T07:26:13.992Z</time></trkpt><trkpt lat="42.4248203" lon="12.3006009"><ele>308.0</ele><time>2026-04-12T07:26:14.992Z</time></trkpt><trkpt lat="42.4247436" lon="12.3005626"><ele>308.0</ele><time>2026-04-12T07:26:15.992Z</time></trkpt><trkpt lat="42.4246692" lon="12.3005215"><ele>308.0</ele><time>2026-04-12T07:26:16.992Z</time></trkpt><trkpt lat="42.4246121" lon="12.3004796"><ele>308.0</ele><time>2026-04-12T07:26:17.992Z</time></trkpt><trkpt lat="42.4245624" lon="12.30037"><ele>308.0</ele><time>2026-04-12T07:26:19.991Z</time></trkpt><trkpt lat="42.4245757" lon="12.3002759"><ele>308.0</ele><time>2026-04-12T07:26:20.992Z</time></trkpt><trkpt lat="42.4246267" lon="12.3001413"><ele>308.0</ele><time>2026-04-12T07:26:21.992Z</time></trkpt><trkpt lat="42.4246966" lon="12.2999906"><ele>307.25</ele><time>2026-04-12T07:26:22.991Z</time></trkpt><trkpt lat="42.4247627" lon="12.2998189"><ele>306.5</ele><time>2026-04-12T07:26:23.992Z</time></trkpt><trkpt lat="42.4248194" lon="12.2996694"><ele>305.75</ele><time>2026-04-12T07:26:24.992Z</time></trkpt><trkpt lat="42.4248713" lon="12.2995266"><ele>305.0</ele><time>2026-04-12T07:26:25.991Z</time></trkpt><trkpt lat="42.4249165" lon="12.2994048"><ele>304.83333333333337</ele><time>2026-04-12T07:26:26.992Z</time></trkpt><trkpt lat="42.4249555" lon="12.299296"><ele>304.6666666666667</ele><time>2026-04-12T07:26:27.991Z</time></trkpt><trkpt lat="42.4249811" lon="12.299204"><ele>304.5</ele><time>2026-04-12T07:26:28.991Z</time></trkpt><trkpt lat="42.4249892" lon="12.299111"><ele>304.3333333333333</ele><time>2026-04-12T07:26:29.992Z</time></trkpt><trkpt lat="42.424945" lon="12.2989565"><ele>304.16666666666663</ele><time>2026-04-12T07:26:31.992Z</time></trkpt><trkpt lat="42.424878" lon="12.2988646"><ele>304.0</ele><time>2026-04-12T07:26:32.992Z</time></trkpt><trkpt lat="42.4248494" lon="12.2987867"><ele>304.0</ele><time>2026-04-12T07:26:33.991Z</time></trkpt><trkpt lat="42.4248579" lon="12.2986821"><ele>304.0</ele><time>2026-04-12T07:26:34.992Z</time></trkpt><trkpt lat="42.4248905" lon="12.2985926"><ele>304.0</ele><time>2026-04-12T07:26:35.992Z</time></trkpt><trkpt lat="42.4249395" lon="12.2984893"><ele>304.0</ele><time>2026-04-12T07:26:36.991Z</time></trkpt><trkpt lat="42.4249936" lon="12.2983631"><ele>304.0</ele><time>2026-04-12T07:26:37.992Z</time></trkpt><trkpt lat="42.4250276" lon="12.298245"><ele>304.0</ele><time>2026-04-12T07:26:38.991Z</time></trkpt><trkpt lat="42.4250509" lon="12.2981034"><ele>304.3333333333333</ele><time>2026-04-12T07:26:39.992Z</time></trkpt><trkpt lat="42.4250676" lon="12.297969"><ele>304.66666666666663</ele><time>2026-04-12T07:26:40.992Z</time></trkpt><trkpt lat="42.4250836" lon="12.297845"><ele>305.0</ele><time>2026-04-12T07:26:41.992Z</time></trkpt><trkpt lat="42.4251031" lon="12.297719"><ele>305.3333333333333</ele><time>2026-04-12T07:26:42.992Z</time></trkpt><trkpt lat="42.4251404" lon="12.2976272"><ele>305.6666666666667</ele><time>2026-04-12T07:26:43.991Z</time></trkpt><trkpt lat="42.4251841" lon="12.2975337"><ele>306.0</ele><time>2026-04-12T07:26:44.991Z</time></trkpt><trkpt lat="42.4252483" lon="12.297441"><ele>306.0</ele><time>2026-04-12T07:26:45.992Z</time></trkpt><trkpt lat="42.4253249" lon="12.2973538"><ele>306.0</ele><time>2026-04-12T07:26:46.992Z</time></trkpt><trkpt lat="42.4254948" lon="12.2971833"><ele>306.0</ele><time>2026-04-12T07:26:48.991Z</time></trkpt><trkpt lat="42.4255676" lon="12.2970843"><ele>306.0</ele><time>2026-04-12T07:26:49.991Z</time></trkpt><trkpt lat="42.4256489" lon="12.2970024"><ele>306.0</ele><time>2026-04-12T07:26:50.992Z</time></trkpt><trkpt lat="42.4257478" lon="12.2969412"><ele>306.0</ele><time>2026-04-12T07:26:51.992Z</time></trkpt><trkpt lat="42.4258464" lon="12.2968685"><ele>306.0</ele><time>2026-04-12T07:26:52.992Z</time></trkpt><trkpt lat="42.425939" lon="12.2967778"><ele>306.0</ele><time>2026-04-12T07:26:53.991Z</time></trkpt><trkpt lat="42.426025" lon="12.2966824"><ele>306.0</ele><time>2026-04-12T07:26:54.991Z</time></trkpt><trkpt lat="42.4261053" lon="12.2965797"><ele>306.0</ele><time>2026-04-12T07:26:55.991Z</time></trkpt><trkpt lat="42.4261904" lon="12.296472"><ele>306.0</ele><time>2026-04-12T07:26:56.992Z</time></trkpt><trkpt lat="42.4262788" lon="12.2963268"><ele>306.0</ele><time>2026-04-12T07:26:57.991Z</time></trkpt><trkpt lat="42.4263669" lon="12.2962089"><ele>306.0</ele><time>2026-04-12T07:26:58.991Z</time></trkpt><trkpt lat="42.4264535" lon="12.2961063"><ele>306.0</ele><time>2026-04-12T07:26:59.992Z</time></trkpt><trkpt lat="42.4265423" lon="12.2960031"><ele>306.0</ele><time>2026-04-12T07:27:00.992Z</time></trkpt><trkpt lat="42.4266254" lon="12.2958893"><ele>306.0</ele><time>2026-04-12T07:27:01.991Z</time></trkpt><trkpt lat="42.4267045" lon="12.2957582"><ele>306.0</ele><time>2026-04-12T07:27:02.992Z</time></trkpt><trkpt lat="42.4267789" lon="12.2956034"><ele>306.25</ele><time>2026-04-12T07:27:03.992Z</time></trkpt><trkpt lat="42.426843" lon="12.2954436"><ele>306.5</ele><time>2026-04-12T07:27:04.992Z</time></trkpt><trkpt lat="42.4269015" lon="12.295308"><ele>306.75</ele><time>2026-04-12T07:27:05.992Z</time></trkpt><trkpt lat="42.4269566" lon="12.2951711"><ele>307.0</ele><time>2026-04-12T07:27:06.992Z</time></trkpt><trkpt lat="42.4270007" lon="12.2950574"><ele>307.0</ele><time>2026-04-12T07:27:07.992Z</time></trkpt><trkpt lat="42.4270341" lon="12.2949746"><ele>307.0</ele><time>2026-04-12T07:27:08.991Z</time></trkpt><trkpt lat="42.4270621" lon="12.2948238"><ele>307.0</ele><time>2026-04-12T07:27:10.991Z</time></trkpt><trkpt lat="42.4270591" lon="12.2947281"><ele>307.0</ele><time>2026-04-12T07:27:11.992Z</time></trkpt><trkpt lat="42.427069" lon="12.2945723"><ele>307.0</ele><time>2026-04-12T07:27:13.992Z</time></trkpt><trkpt lat="42.4271449" lon="12.2944064"><ele>306.5</ele><time>2026-04-12T07:27:15.992Z</time></trkpt><trkpt lat="42.4271895" lon="12.2942478"><ele>306.0</ele><time>2026-04-12T07:27:16.992Z</time></trkpt><trkpt lat="42.4272168" lon="12.2941662"><ele>305.5</ele><time>2026-04-12T07:27:17.992Z</time></trkpt><trkpt lat="42.4272387" lon="12.2940809"><ele>305.0</ele><time>2026-04-12T07:27:18.991Z</time></trkpt><trkpt lat="42.427252" lon="12.2939898"><ele>304.5</ele><time>2026-04-12T07:27:19.991Z</time></trkpt><trkpt lat="42.4273101" lon="12.2938493"><ele>304.0</ele><time>2026-04-12T07:27:21.992Z</time></trkpt><trkpt lat="42.4274255" lon="12.2937707"><ele>302.4</ele><time>2026-04-12T07:27:23.992Z</time></trkpt><trkpt lat="42.4274962" lon="12.2937358"><ele>300.79999999999995</ele><time>2026-04-12T07:27:24.992Z</time></trkpt><trkpt lat="42.4275612" lon="12.2937073"><ele>299.20000000000005</ele><time>2026-04-12T07:27:25.992Z</time></trkpt><trkpt lat="42.427656" lon="12.2936443"><ele>297.6</ele><time>2026-04-12T07:27:27.992Z</time></trkpt><trkpt lat="42.4277284" lon="12.293558"><ele>296.0</ele><time>2026-04-12T07:27:29.992Z</time></trkpt><trkpt lat="42.4278169" lon="12.2934732"><ele>296.0</ele><time>2026-04-12T07:27:31.992Z</time></trkpt><trkpt lat="42.4279018" lon="12.2933994"><ele>296.0</ele><time>2026-04-12T07:27:33.992Z</time></trkpt><trkpt lat="42.428" lon="12.2933492"><ele>296.0</ele><time>2026-04-12T07:27:35.992Z</time></trkpt><trkpt lat="42.428088" lon="12.2933624"><ele>296.0</ele><time>2026-04-12T07:27:37.992Z</time></trkpt><trkpt lat="42.4280483" lon="12.2932455"><ele>296.0</ele><time>2026-04-12T07:27:40.991Z</time></trkpt><trkpt lat="42.4279503" lon="12.2931671"><ele>296.0</ele><time>2026-04-12T07:27:42.992Z</time></trkpt><trkpt lat="42.4278866" lon="12.2931197"><ele>296.0</ele><time>2026-04-12T07:27:43.992Z</time></trkpt><trkpt lat="42.4278182" lon="12.2930706"><ele>296.0</ele><time>2026-04-12T07:27:44.992Z</time></trkpt><trkpt lat="42.4277602" lon="12.2930284"><ele>296.0</ele><time>2026-04-12T07:27:45.992Z</time></trkpt><trkpt lat="42.4276523" lon="12.2929867"><ele>296.0</ele><time>2026-04-12T07:27:47.991Z</time></trkpt><trkpt lat="42.427549" lon="12.2929401"><ele>296.0</ele><time>2026-04-12T07:27:49.991Z</time></trkpt><trkpt lat="42.4274853" lon="12.2929188"><ele>295.8</ele><time>2026-04-12T07:27:50.992Z</time></trkpt><trkpt lat="42.4273816" lon="12.292875"><ele>295.6</ele><time>2026-04-12T07:27:52.992Z</time></trkpt><trkpt lat="42.4272666" lon="12.2928418"><ele>295.4</ele><time>2026-04-12T07:27:54.991Z</time></trkpt><trkpt lat="42.427202" lon="12.2927894"><ele>295.2</ele><time>2026-04-12T07:27:55.992Z</time></trkpt><trkpt lat="42.4271534" lon="12.2927226"><ele>295.0</ele><time>2026-04-12T07:27:57.992Z</time></trkpt><trkpt lat="42.427092" lon="12.2926382"><ele>294.8</ele><time>2026-04-12T07:27:59.992Z</time></trkpt><trkpt lat="42.4270401" lon="12.2925351"><ele>294.6</ele><time>2026-04-12T07:28:00.992Z</time></trkpt><trkpt lat="42.4269318" lon="12.2924638"><ele>294.4</ele><time>2026-04-12T07:28:02.992Z</time></trkpt><trkpt lat="42.4268412" lon="12.2923734"><ele>294.2</ele><time>2026-04-12T07:28:04.992Z</time></trkpt><trkpt lat="42.426818" lon="12.2922865"><ele>294.0</ele><time>2026-04-12T07:28:06.991Z</time></trkpt><trkpt lat="42.4268199" lon="12.2921996"><ele>294.3333333333333</ele><time>2026-04-12T07:28:07.991Z</time></trkpt><trkpt lat="42.4267606" lon="12.2921053"><ele>294.6666666666667</ele><time>2026-04-12T07:28:09.992Z</time></trkpt><trkpt lat="42.4267154" lon="12.2920361"><ele>295.0</ele><time>2026-04-12T07:28:10.992Z</time></trkpt><trkpt lat="42.4266648" lon="12.2919714"><ele>295.33333333333337</ele><time>2026-04-12T07:28:11.991Z</time></trkpt><trkpt lat="42.4266222" lon="12.2918572"><ele>295.6666666666667</ele><time>2026-04-12T07:28:12.992Z</time></trkpt><trkpt lat="42.4266252" lon="12.2917255"><ele>296.0</ele><time>2026-04-12T07:28:13.993Z</time></trkpt><trkpt lat="42.4266568" lon="12.2914615"><ele>296.5</ele><time>2026-04-12T07:28:14.993Z</time></trkpt><trkpt lat="42.4266961" lon="12.2912788"><ele>297.0</ele><time>2026-04-12T07:28:15.992Z</time></trkpt><trkpt lat="42.4267051" lon="12.2911204"><ele>297.5</ele><time>2026-04-12T07:28:16.993Z</time></trkpt><trkpt lat="42.4267192" lon="12.2909602"><ele>298.0</ele><time>2026-04-12T07:28:17.993Z</time></trkpt><trkpt lat="42.4267153" lon="12.2908243"><ele>298.0</ele><time>2026-04-12T07:28:18.992Z</time></trkpt><trkpt lat="42.426726" lon="12.2906934"><ele>298.0</ele><time>2026-04-12T07:28:19.993Z</time></trkpt><trkpt lat="42.4267324" lon="12.2905481"><ele>298.0</ele><time>2026-04-12T07:28:20.993Z</time></trkpt><trkpt lat="42.4267555" lon="12.2904185"><ele>298.0</ele><time>2026-04-12T07:28:21.993Z</time></trkpt><trkpt lat="42.4267696" lon="12.2902686"><ele>298.0</ele><time>2026-04-12T07:28:22.993Z</time></trkpt><trkpt lat="42.4267815" lon="12.2901409"><ele>299.4</ele><time>2026-04-12T07:28:23.992Z</time></trkpt><trkpt lat="42.4267882" lon="12.2900439"><ele>300.8</ele><time>2026-04-12T07:28:24.992Z</time></trkpt><trkpt lat="42.4267928" lon="12.2899579"><ele>302.2</ele><time>2026-04-12T07:28:25.993Z</time></trkpt><trkpt lat="42.4267919" lon="12.2898503"><ele>303.6</ele><time>2026-04-12T07:28:27.992Z</time></trkpt><trkpt lat="42.4267435" lon="12.2896777"><ele>305.0</ele><time>2026-04-12T07:30:30.992Z</time></trkpt><trkpt lat="42.426704" lon="12.2895224"><ele>305.0</ele><time>2026-04-12T07:30:32.992Z</time></trkpt><trkpt lat="42.4266884" lon="12.2893797"><ele>305.0</ele><time>2026-04-12T07:30:34.993Z</time></trkpt><trkpt lat="42.4266831" lon="12.2892382"><ele>305.0</ele><time>2026-04-12T07:30:36.992Z</time></trkpt><trkpt lat="42.4266895" lon="12.2891019"><ele>305.0</ele><time>2026-04-12T07:30:38.993Z</time></trkpt><trkpt lat="42.4267125" lon="12.2889489"><ele>305.0</ele><time>2026-04-12T07:30:40.993Z</time></trkpt><trkpt lat="42.4267268" lon="12.2888566"><ele>305.2</ele><time>2026-04-12T07:30:41.993Z</time></trkpt><trkpt lat="42.4267431" lon="12.2887535"><ele>305.4</ele><time>2026-04-12T07:30:42.993Z</time></trkpt><trkpt lat="42.4267586" lon="12.2886204"><ele>305.6</ele><time>2026-04-12T07:30:43.993Z</time></trkpt><trkpt lat="42.4267707" lon="12.2884744"><ele>305.8</ele><time>2026-04-12T07:30:44.991Z</time></trkpt><trkpt lat="42.426779" lon="12.2883464"><ele>306.0</ele><time>2026-04-12T07:30:45.992Z</time></trkpt><trkpt lat="42.4267762" lon="12.2882041"><ele>306.2</ele><time>2026-04-12T07:30:46.992Z</time></trkpt><trkpt lat="42.4267657" lon="12.2880554"><ele>306.40000000000003</ele><time>2026-04-12T07:30:47.993Z</time></trkpt><trkpt lat="42.4267564" lon="12.2879131"><ele>306.6</ele><time>2026-04-12T07:30:48.993Z</time></trkpt><trkpt lat="42.4267442" lon="12.2877734"><ele>306.8</ele><time>2026-04-12T07:30:49.993Z</time></trkpt><trkpt lat="42.4267198" lon="12.2876404"><ele>307.0</ele><time>2026-04-12T07:30:50.993Z</time></trkpt><trkpt lat="42.4267036" lon="12.2875037"><ele>307.0</ele><time>2026-04-12T07:30:51.993Z</time></trkpt><trkpt lat="42.4266863" lon="12.287364"><ele>307.0</ele><time>2026-04-12T07:30:52.993Z</time></trkpt><trkpt lat="42.4266679" lon="12.2872375"><ele>307.0</ele><time>2026-04-12T07:30:53.993Z</time></trkpt><trkpt lat="42.4266494" lon="12.287119"><ele>307.0</ele><time>2026-04-12T07:30:54.992Z</time></trkpt><trkpt lat="42.4266421" lon="12.2870011"><ele>307.0</ele><time>2026-04-12T07:30:55.993Z</time></trkpt><trkpt lat="42.4266427" lon="12.2868799"><ele>306.8</ele><time>2026-04-12T07:30:56.992Z</time></trkpt><trkpt lat="42.4266595" lon="12.2867565"><ele>306.6</ele><time>2026-04-12T07:30:57.993Z</time></trkpt><trkpt lat="42.4266766" lon="12.2866289"><ele>306.40000000000003</ele><time>2026-04-12T07:30:58.993Z</time></trkpt><trkpt lat="42.4266838" lon="12.2865076"><ele>306.2</ele><time>2026-04-12T07:30:59.993Z</time></trkpt><trkpt lat="42.4266902" lon="12.2863882"><ele>306.0</ele><time>2026-04-12T07:31:00.993Z</time></trkpt><trkpt lat="42.426642" lon="12.2862407"><ele>305.25</ele><time>2026-04-12T07:31:01.992Z</time></trkpt><trkpt lat="42.4265868" lon="12.2861101"><ele>304.5</ele><time>2026-04-12T07:31:02.993Z</time></trkpt><trkpt lat="42.426522" lon="12.2859766"><ele>303.75</ele><time>2026-04-12T07:31:03.993Z</time></trkpt><trkpt lat="42.4264486" lon="12.2858561"><ele>303.0</ele><time>2026-04-12T07:31:04.993Z</time></trkpt><trkpt lat="42.4263601" lon="12.2857613"><ele>303.25</ele><time>2026-04-12T07:31:05.993Z</time></trkpt><trkpt lat="42.4262688" lon="12.2856662"><ele>303.5</ele><time>2026-04-12T07:31:06.993Z</time></trkpt><trkpt lat="42.426169" lon="12.2855756"><ele>303.75</ele><time>2026-04-12T07:31:07.992Z</time></trkpt><trkpt lat="42.4260803" lon="12.2854847"><ele>304.0</ele><time>2026-04-12T07:31:08.993Z</time></trkpt><trkpt lat="42.4259756" lon="12.2853974"><ele>303.0</ele><time>2026-04-12T07:31:09.992Z</time></trkpt><trkpt lat="42.4258665" lon="12.2853239"><ele>302.0</ele><time>2026-04-12T07:31:10.993Z</time></trkpt><trkpt lat="42.4257508" lon="12.2852453"><ele>301.0</ele><time>2026-04-12T07:31:11.993Z</time></trkpt><trkpt lat="42.4256351" lon="12.2851571"><ele>300.0</ele><time>2026-04-12T07:31:12.993Z</time></trkpt><trkpt lat="42.4255227" lon="12.2850617"><ele>300.25</ele><time>2026-04-12T07:31:13.993Z</time></trkpt><trkpt lat="42.4254221" lon="12.2849656"><ele>300.5</ele><time>2026-04-12T07:31:14.992Z</time></trkpt><trkpt lat="42.4253303" lon="12.2848731"><ele>300.75</ele><time>2026-04-12T07:31:15.992Z</time></trkpt><trkpt lat="42.4252006" lon="12.2846595"><ele>301.0</ele><time>2026-04-12T07:31:17.993Z</time></trkpt><trkpt lat="42.4251755" lon="12.284536"><ele>301.0</ele><time>2026-04-12T07:31:18.993Z</time></trkpt><trkpt lat="42.4251782" lon="12.2843981"><ele>301.0</ele><time>2026-04-12T07:31:19.993Z</time></trkpt><trkpt lat="42.4252075" lon="12.2842476"><ele>301.0</ele><time>2026-04-12T07:31:20.993Z</time></trkpt><trkpt lat="42.425256" lon="12.284093"><ele>301.0</ele><time>2026-04-12T07:31:21.992Z</time></trkpt><trkpt lat="42.4253014" lon="12.2839498"><ele>301.6</ele><time>2026-04-12T07:31:22.993Z</time></trkpt><trkpt lat="42.4253285" lon="12.2838258"><ele>302.20000000000005</ele><time>2026-04-12T07:31:23.993Z</time></trkpt><trkpt lat="42.4253468" lon="12.2837085"><ele>302.79999999999995</ele><time>2026-04-12T07:31:24.993Z</time></trkpt><trkpt lat="42.4253383" lon="12.2835923"><ele>303.4</ele><time>2026-04-12T07:31:25.993Z</time></trkpt><trkpt lat="42.4253019" lon="12.2834811"><ele>304.0</ele><time>2026-04-12T07:31:26.993Z</time></trkpt><trkpt lat="42.4252379" lon="12.283372"><ele>304.0</ele><time>2026-04-12T07:31:27.993Z</time></trkpt><trkpt lat="42.4251713" lon="12.283271"><ele>304.0</ele><time>2026-04-12T07:31:28.992Z</time></trkpt><trkpt lat="42.4251043" lon="12.2831739"><ele>304.0</ele><time>2026-04-12T07:31:29.993Z</time></trkpt><trkpt lat="42.4250378" lon="12.2830766"><ele>304.0</ele><time>2026-04-12T07:31:30.993Z</time></trkpt><trkpt lat="42.4249135" lon="12.282878"><ele>305.0</ele><time>2026-04-12T07:31:32.993Z</time></trkpt><trkpt lat="42.4247779" lon="12.2826729"><ele>306.0</ele><time>2026-04-12T07:31:34.993Z</time></trkpt><trkpt lat="42.4247129" lon="12.282554"><ele>307.0</ele><time>2026-04-12T07:31:35.992Z</time></trkpt><trkpt lat="42.4246109" lon="12.2822799"><ele>307.6</ele><time>2026-04-12T07:31:37.993Z</time></trkpt><trkpt lat="42.4245719" lon="12.282142"><ele>308.2</ele><time>2026-04-12T07:31:38.993Z</time></trkpt><trkpt lat="42.4245261" lon="12.2820111"><ele>308.8</ele><time>2026-04-12T07:31:39.992Z</time></trkpt><trkpt lat="42.4244654" lon="12.2818809"><ele>309.4</ele><time>2026-04-12T07:31:40.993Z</time></trkpt><trkpt lat="42.4243962" lon="12.2817661"><ele>310.0</ele><time>2026-04-12T07:31:41.993Z</time></trkpt><trkpt lat="42.4243282" lon="12.2816483"><ele>310.0</ele><time>2026-04-12T07:31:42.991Z</time></trkpt><trkpt lat="42.4242636" lon="12.2815237"><ele>310.0</ele><time>2026-04-12T07:31:43.993Z</time></trkpt><trkpt lat="42.4242178" lon="12.2813923"><ele>310.0</ele><time>2026-04-12T07:31:44.993Z</time></trkpt><trkpt lat="42.4241768" lon="12.281251"><ele>310.0</ele><time>2026-04-12T07:31:45.992Z</time></trkpt><trkpt lat="42.4241449" lon="12.2811146"><ele>310.0</ele><time>2026-04-12T07:31:46.993Z</time></trkpt><trkpt lat="42.424108" lon="12.2809733"><ele>310.2</ele><time>2026-04-12T07:31:47.992Z</time></trkpt><trkpt lat="42.4240738" lon="12.2808294"><ele>310.4</ele><time>2026-04-12T07:31:48.993Z</time></trkpt><trkpt lat="42.4240385" lon="12.2806762"><ele>310.6</ele><time>2026-04-12T07:31:49.992Z</time></trkpt><trkpt lat="42.4240099" lon="12.2805344"><ele>310.8</ele><time>2026-04-12T07:31:50.992Z</time></trkpt><trkpt lat="42.4239868" lon="12.2803923"><ele>311.0</ele><time>2026-04-12T07:31:51.992Z</time></trkpt><trkpt lat="42.4239699" lon="12.280251"><ele>311.0</ele><time>2026-04-12T07:31:52.993Z</time></trkpt><trkpt lat="42.4239584" lon="12.2800945"><ele>311.0</ele><time>2026-04-12T07:31:53.993Z</time></trkpt><trkpt lat="42.4239532" lon="12.2799463"><ele>311.0</ele><time>2026-04-12T07:31:54.993Z</time></trkpt><trkpt lat="42.4239497" lon="12.2797854"><ele>311.0</ele><time>2026-04-12T07:31:55.993Z</time></trkpt><trkpt lat="42.423943" lon="12.2796142"><ele>310.5</ele><time>2026-04-12T07:31:56.992Z</time></trkpt><trkpt lat="42.423938" lon="12.2794578"><ele>310.0</ele><time>2026-04-12T07:31:57.993Z</time></trkpt><trkpt lat="42.4239383" lon="12.2793065"><ele>309.5</ele><time>2026-04-12T07:31:58.993Z</time></trkpt><trkpt lat="42.4239363" lon="12.2791527"><ele>309.0</ele><time>2026-04-12T07:31:59.993Z</time></trkpt><trkpt lat="42.4239322" lon="12.2789886"><ele>308.2</ele><time>2026-04-12T07:32:00.992Z</time></trkpt><trkpt lat="42.4239284" lon="12.2788385"><ele>307.4</ele><time>2026-04-12T07:32:01.993Z</time></trkpt><trkpt lat="42.4239245" lon="12.2786935"><ele>306.6</ele><time>2026-04-12T07:32:02.992Z</time></trkpt><trkpt lat="42.4239196" lon="12.2785532"><ele>305.8</ele><time>2026-04-12T07:32:03.993Z</time></trkpt><trkpt lat="42.4239183" lon="12.2784042"><ele>305.0</ele><time>2026-04-12T07:32:04.993Z</time></trkpt><trkpt lat="42.4239133" lon="12.2782575"><ele>305.0</ele><time>2026-04-12T07:32:05.993Z</time></trkpt><trkpt lat="42.4239095" lon="12.2781155"><ele>305.0</ele><time>2026-04-12T07:32:06.993Z</time></trkpt><trkpt lat="42.4239055" lon="12.2779731"><ele>305.0</ele><time>2026-04-12T07:32:07.993Z</time></trkpt><trkpt lat="42.4239147" lon="12.2778357"><ele>305.0</ele><time>2026-04-12T07:32:08.993Z</time></trkpt><trkpt lat="42.4239397" lon="12.2776883"><ele>305.0</ele><time>2026-04-12T07:32:09.993Z</time></trkpt><trkpt lat="42.4239742" lon="12.2775494"><ele>304.0</ele><time>2026-04-12T07:32:10.993Z</time></trkpt><trkpt lat="42.4240269" lon="12.2774361"><ele>303.0</ele><time>2026-04-12T07:32:11.993Z</time></trkpt><trkpt lat="42.424088" lon="12.277339"><ele>302.0</ele><time>2026-04-12T07:32:12.992Z</time></trkpt><trkpt lat="42.4241324" lon="12.2772439"><ele>301.0</ele><time>2026-04-12T07:32:13.993Z</time></trkpt><trkpt lat="42.424183" lon="12.2771517"><ele>300.0</ele><time>2026-04-12T07:32:14.993Z</time></trkpt><trkpt lat="42.4241749" lon="12.2770559"><ele>299.0</ele><time>2026-04-12T07:32:15.992Z</time></trkpt><trkpt lat="42.4241069" lon="12.276958"><ele>297.2</ele><time>2026-04-12T07:32:16.992Z</time></trkpt><trkpt lat="42.424011" lon="12.2769026"><ele>295.4</ele><time>2026-04-12T07:32:17.993Z</time></trkpt><trkpt lat="42.4239316" lon="12.2768775"><ele>293.6</ele><time>2026-04-12T07:32:18.993Z</time></trkpt><trkpt lat="42.4238215" lon="12.2768637"><ele>291.8</ele><time>2026-04-12T07:32:19.993Z</time></trkpt><trkpt lat="42.4237368" lon="12.2768468"><ele>290.0</ele><time>2026-04-12T07:32:20.993Z</time></trkpt><trkpt lat="42.4236654" lon="12.2768314"><ele>290.0</ele><time>2026-04-12T07:32:21.993Z</time></trkpt><trkpt lat="42.4235674" lon="12.2767282"><ele>290.0</ele><time>2026-04-12T07:32:23.993Z</time></trkpt><trkpt lat="42.4235338" lon="12.2766532"><ele>290.0</ele><time>2026-04-12T07:32:24.993Z</time></trkpt><trkpt lat="42.4235109" lon="12.2765665"><ele>290.0</ele><time>2026-04-12T07:32:25.993Z</time></trkpt><trkpt lat="42.4235042" lon="12.27643"><ele>290.0</ele><time>2026-04-12T07:32:26.993Z</time></trkpt><trkpt lat="42.4235232" lon="12.2762615"><ele>290.4</ele><time>2026-04-12T07:32:27.993Z</time></trkpt><trkpt lat="42.4234821" lon="12.2761133"><ele>290.8</ele><time>2026-04-12T07:32:28.993Z</time></trkpt><trkpt lat="42.423422" lon="12.2759847"><ele>291.2</ele><time>2026-04-12T07:32:29.992Z</time></trkpt><trkpt lat="42.4233439" lon="12.2758769"><ele>291.6</ele><time>2026-04-12T07:32:30.993Z</time></trkpt><trkpt lat="42.4232862" lon="12.2757712"><ele>292.0</ele><time>2026-04-12T07:32:31.993Z</time></trkpt><trkpt lat="42.4232457" lon="12.2756753"><ele>292.8333333333333</ele><time>2026-04-12T07:32:32.992Z</time></trkpt><trkpt lat="42.4232018" lon="12.2755749"><ele>293.66666666666663</ele><time>2026-04-12T07:32:33.991Z</time></trkpt><trkpt lat="42.4231579" lon="12.2754706"><ele>294.5</ele><time>2026-04-12T07:32:34.993Z</time></trkpt><trkpt lat="42.4231193" lon="12.2753684"><ele>295.3333333333333</ele><time>2026-04-12T07:32:35.993Z</time></trkpt><trkpt lat="42.4230789" lon="12.2752599"><ele>296.1666666666667</ele><time>2026-04-12T07:32:36.993Z</time></trkpt><trkpt lat="42.4230323" lon="12.2751437"><ele>297.0</ele><time>2026-04-12T07:32:37.993Z</time></trkpt><trkpt lat="42.4229845" lon="12.2750322"><ele>297.8</ele><time>2026-04-12T07:32:38.993Z</time></trkpt><trkpt lat="42.4229368" lon="12.2749175"><ele>298.6</ele><time>2026-04-12T07:32:39.993Z</time></trkpt><trkpt lat="42.4228927" lon="12.2748021"><ele>299.40000000000003</ele><time>2026-04-12T07:32:40.993Z</time></trkpt><trkpt lat="42.4228475" lon="12.2746847"><ele>300.2</ele><time>2026-04-12T07:32:41.993Z</time></trkpt><trkpt lat="42.4227998" lon="12.2745825"><ele>301.0</ele><time>2026-04-12T07:32:42.993Z</time></trkpt><trkpt lat="42.4227564" lon="12.2744814"><ele>301.16666666666663</ele><time>2026-04-12T07:32:43.993Z</time></trkpt><trkpt lat="42.422719" lon="12.274383"><ele>301.3333333333333</ele><time>2026-04-12T07:32:44.993Z</time></trkpt><trkpt lat="42.4226921" lon="12.274288"><ele>301.5</ele><time>2026-04-12T07:32:45.993Z</time></trkpt><trkpt lat="42.4226652" lon="12.2741979"><ele>301.6666666666667</ele><time>2026-04-12T07:32:46.993Z</time></trkpt><trkpt lat="42.4226386" lon="12.2741027"><ele>301.83333333333337</ele><time>2026-04-12T07:32:47.993Z</time></trkpt><trkpt lat="42.4226106" lon="12.2739955"><ele>302.0</ele><time>2026-04-12T07:32:48.993Z</time></trkpt><trkpt lat="42.4225847" lon="12.2738958"><ele>301.6666666666667</ele><time>2026-04-12T07:32:49.993Z</time></trkpt><trkpt lat="42.4225634" lon="12.2738022"><ele>301.33333333333337</ele><time>2026-04-12T07:32:50.993Z</time></trkpt><trkpt lat="42.4225381" lon="12.2737056"><ele>301.0</ele><time>2026-04-12T07:32:51.992Z</time></trkpt><trkpt lat="42.4225037" lon="12.2736092"><ele>300.6666666666667</ele><time>2026-04-12T07:32:53.993Z</time></trkpt><trkpt lat="42.4224749" lon="12.2735301"><ele>300.3333333333333</ele><time>2026-04-12T07:33:10.993Z</time></trkpt><trkpt lat="42.4224186" lon="12.273385"><ele>300.0</ele><time>2026-04-12T07:33:13.993Z</time></trkpt><trkpt lat="42.4223511" lon="12.2732351"><ele>300.0</ele><time>2026-04-12T07:33:14.992Z</time></trkpt><trkpt lat="42.4222989" lon="12.2730944"><ele>300.0</ele><time>2026-04-12T07:33:15.992Z</time></trkpt><trkpt lat="42.4222608" lon="12.2729144"><ele>300.0</ele><time>2026-04-12T07:33:16.993Z</time></trkpt><trkpt lat="42.4222258" lon="12.2727447"><ele>300.0</ele><time>2026-04-12T07:33:17.993Z</time></trkpt><trkpt lat="42.4222018" lon="12.2725832"><ele>300.0</ele><time>2026-04-12T07:33:18.993Z</time></trkpt><trkpt lat="42.4221803" lon="12.2724144"><ele>300.0</ele><time>2026-04-12T07:33:19.993Z</time></trkpt><trkpt lat="42.4221528" lon="12.2722426"><ele>300.0</ele><time>2026-04-12T07:33:20.993Z</time></trkpt><trkpt lat="42.4221098" lon="12.272082"><ele>300.0</ele><time>2026-04-12T07:33:21.993Z</time></trkpt><trkpt lat="42.422068" lon="12.2719226"><ele>301.0</ele><time>2026-04-12T07:33:22.993Z</time></trkpt><trkpt lat="42.422019" lon="12.2717575"><ele>302.0</ele><time>2026-04-12T07:33:23.992Z</time></trkpt><trkpt lat="42.4219703" lon="12.2716046"><ele>303.0</ele><time>2026-04-12T07:33:24.993Z</time></trkpt><trkpt lat="42.421923" lon="12.271472"><ele>304.0</ele><time>2026-04-12T07:33:25.993Z</time></trkpt><trkpt lat="42.4218796" lon="12.2713475"><ele>304.0</ele><time>2026-04-12T07:33:26.992Z</time></trkpt><trkpt lat="42.4218645" lon="12.2712298"><ele>304.0</ele><time>2026-04-12T07:33:27.993Z</time></trkpt><trkpt lat="42.4218529" lon="12.2711024"><ele>304.0</ele><time>2026-04-12T07:33:28.993Z</time></trkpt><trkpt lat="42.4218607" lon="12.2709546"><ele>304.0</ele><time>2026-04-12T07:33:29.993Z</time></trkpt><trkpt lat="42.4218757" lon="12.270793"><ele>304.0</ele><time>2026-04-12T07:33:30.992Z</time></trkpt><trkpt lat="42.4218864" lon="12.2706404"><ele>304.25</ele><time>2026-04-12T07:33:31.993Z</time></trkpt><trkpt lat="42.4219003" lon="12.2704543"><ele>304.5</ele><time>2026-04-12T07:33:32.993Z</time></trkpt><trkpt lat="42.421915" lon="12.270273"><ele>304.75</ele><time>2026-04-12T07:33:33.993Z</time></trkpt><trkpt lat="42.4219297" lon="12.2701008"><ele>305.0</ele><time>2026-04-12T07:33:34.993Z</time></trkpt><trkpt lat="42.4219364" lon="12.2699384"><ele>305.0</ele><time>2026-04-12T07:33:35.993Z</time></trkpt><trkpt lat="42.4219416" lon="12.2697924"><ele>305.0</ele><time>2026-04-12T07:33:36.993Z</time></trkpt><trkpt lat="42.4219396" lon="12.2696722"><ele>305.0</ele><time>2026-04-12T07:33:37.992Z</time></trkpt><trkpt lat="42.4219403" lon="12.269548"><ele>305.0</ele><time>2026-04-12T07:33:38.993Z</time></trkpt><trkpt lat="42.4219472" lon="12.2694358"><ele>305.0</ele><time>2026-04-12T07:33:39.992Z</time></trkpt><trkpt lat="42.4219634" lon="12.269334"><ele>305.0</ele><time>2026-04-12T07:33:40.993Z</time></trkpt><trkpt lat="42.4219902" lon="12.2692305"><ele>304.75</ele><time>2026-04-12T07:33:41.993Z</time></trkpt><trkpt lat="42.4220712" lon="12.2691153"><ele>304.5</ele><time>2026-04-12T07:33:42.993Z</time></trkpt><trkpt lat="42.4221584" lon="12.2690052"><ele>304.25</ele><time>2026-04-12T07:33:43.992Z</time></trkpt><trkpt lat="42.4222261" lon="12.2688858"><ele>304.0</ele><time>2026-04-12T07:33:44.993Z</time></trkpt><trkpt lat="42.4222778" lon="12.2687462"><ele>303.0</ele><time>2026-04-12T07:33:45.993Z</time></trkpt><trkpt lat="42.422313" lon="12.2686185"><ele>302.0</ele><time>2026-04-12T07:33:46.992Z</time></trkpt><trkpt lat="42.4223441" lon="12.2685047"><ele>301.0</ele><time>2026-04-12T07:33:47.993Z</time></trkpt><trkpt lat="42.4223953" lon="12.2683793"><ele>300.0</ele><time>2026-04-12T07:33:48.993Z</time></trkpt><trkpt lat="42.4224607" lon="12.2682504"><ele>299.0</ele><time>2026-04-12T07:33:49.993Z</time></trkpt><trkpt lat="42.422542" lon="12.2681153"><ele>299.2</ele><time>2026-04-12T07:33:50.993Z</time></trkpt><trkpt lat="42.4226148" lon="12.2679938"><ele>299.4</ele><time>2026-04-12T07:33:51.993Z</time></trkpt><trkpt lat="42.4226837" lon="12.2678529"><ele>299.6</ele><time>2026-04-12T07:33:52.993Z</time></trkpt><trkpt lat="42.4227495" lon="12.2677434"><ele>299.8</ele><time>2026-04-12T07:33:53.993Z</time></trkpt><trkpt lat="42.4228042" lon="12.2676402"><ele>300.0</ele><time>2026-04-12T07:33:54.993Z</time></trkpt><trkpt lat="42.4228398" lon="12.2675371"><ele>300.0</ele><time>2026-04-12T07:33:55.993Z</time></trkpt><trkpt lat="42.4228437" lon="12.2674249"><ele>300.0</ele><time>2026-04-12T07:33:56.992Z</time></trkpt><trkpt lat="42.4228214" lon="12.2673041"><ele>300.0</ele><time>2026-04-12T07:33:57.992Z</time></trkpt><trkpt lat="42.4227896" lon="12.2671816"><ele>300.0</ele><time>2026-04-12T07:33:58.993Z</time></trkpt><trkpt lat="42.4227639" lon="12.2670471"><ele>300.0</ele><time>2026-04-12T07:33:59.993Z</time></trkpt><trkpt lat="42.4226955" lon="12.2669457"><ele>300.8</ele><time>2026-04-12T07:34:00.992Z</time></trkpt><trkpt lat="42.4225616" lon="12.2668611"><ele>301.6</ele><time>2026-04-12T07:34:01.993Z</time></trkpt><trkpt lat="42.4224957" lon="12.2667624"><ele>302.4</ele><time>2026-04-12T07:34:02.993Z</time></trkpt><trkpt lat="42.4224201" lon="12.2666772"><ele>303.2</ele><time>2026-04-12T07:34:03.993Z</time></trkpt><trkpt lat="42.4223513" lon="12.2665932"><ele>304.0</ele><time>2026-04-12T07:34:04.993Z</time></trkpt><trkpt lat="42.4222996" lon="12.2665054"><ele>305.0</ele><time>2026-04-12T07:34:05.993Z</time></trkpt><trkpt lat="42.4222705" lon="12.2664041"><ele>306.0</ele><time>2026-04-12T07:34:06.993Z</time></trkpt><trkpt lat="42.4222529" lon="12.2663061"><ele>307.0</ele><time>2026-04-12T07:34:07.992Z</time></trkpt><trkpt lat="42.4222352" lon="12.2661985"><ele>308.0</ele><time>2026-04-12T07:34:08.993Z</time></trkpt><trkpt lat="42.4222377" lon="12.2660391"><ele>309.0</ele><time>2026-04-12T07:34:09.993Z</time></trkpt><trkpt lat="42.4222351" lon="12.2658822"><ele>309.0</ele><time>2026-04-12T07:34:10.992Z</time></trkpt><trkpt lat="42.422236" lon="12.2657111"><ele>309.0</ele><time>2026-04-12T07:34:11.993Z</time></trkpt><trkpt lat="42.422237" lon="12.2655027"><ele>309.0</ele><time>2026-04-12T07:34:12.993Z</time></trkpt><trkpt lat="42.4222333" lon="12.2653238"><ele>309.0</ele><time>2026-04-12T07:34:13.993Z</time></trkpt><trkpt lat="42.4222242" lon="12.2651329"><ele>309.75</ele><time>2026-04-12T07:34:14.993Z</time></trkpt><trkpt lat="42.4222092" lon="12.2649374"><ele>310.5</ele><time>2026-04-12T07:34:15.993Z</time></trkpt><trkpt lat="42.4221946" lon="12.2647633"><ele>311.25</ele><time>2026-04-12T07:34:16.992Z</time></trkpt><trkpt lat="42.422192" lon="12.2645964"><ele>312.0</ele><time>2026-04-12T07:34:17.992Z</time></trkpt><trkpt lat="42.422191" lon="12.2644381"><ele>312.6</ele><time>2026-04-12T07:34:18.993Z</time></trkpt><trkpt lat="42.4221884" lon="12.264295"><ele>313.2</ele><time>2026-04-12T07:34:19.993Z</time></trkpt><trkpt lat="42.4221909" lon="12.2641593"><ele>313.8</ele><time>2026-04-12T07:34:20.993Z</time></trkpt><trkpt lat="42.4221897" lon="12.2640238"><ele>314.4</ele><time>2026-04-12T07:34:21.993Z</time></trkpt><trkpt lat="42.4221803" lon="12.263868"><ele>315.0</ele><time>2026-04-12T07:34:22.993Z</time></trkpt><trkpt lat="42.4221668" lon="12.2636997"><ele>315.0</ele><time>2026-04-12T07:34:23.993Z</time></trkpt><trkpt lat="42.4221362" lon="12.2635345"><ele>315.0</ele><time>2026-04-12T07:34:24.993Z</time></trkpt><trkpt lat="42.422085" lon="12.2633677"><ele>315.0</ele><time>2026-04-12T07:34:25.993Z</time></trkpt><trkpt lat="42.4220181" lon="12.2631899"><ele>315.0</ele><time>2026-04-12T07:34:26.993Z</time></trkpt><trkpt lat="42.4219522" lon="12.2630266"><ele>315.6666666666667</ele><time>2026-04-12T07:34:27.993Z</time></trkpt><trkpt lat="42.4218677" lon="12.2628169"><ele>316.33333333333337</ele><time>2026-04-12T07:34:28.993Z</time></trkpt><trkpt lat="42.4217941" lon="12.2626367"><ele>317.0</ele><time>2026-04-12T07:34:29.992Z</time></trkpt><trkpt lat="42.4217359" lon="12.2624453"><ele>317.0</ele><time>2026-04-12T07:34:30.992Z</time></trkpt><trkpt lat="42.4216915" lon="12.2622822"><ele>317.0</ele><time>2026-04-12T07:34:31.993Z</time></trkpt><trkpt lat="42.4216532" lon="12.2621282"><ele>317.0</ele><time>2026-04-12T07:34:32.993Z</time></trkpt><trkpt lat="42.4215908" lon="12.2619282"><ele>317.0</ele><time>2026-04-12T07:34:33.992Z</time></trkpt><trkpt lat="42.4215652" lon="12.261832"><ele>317.0</ele><time>2026-04-12T07:34:34.992Z</time></trkpt><trkpt lat="42.4215038" lon="12.2617142"><ele>317.0</ele><time>2026-04-12T07:34:36.993Z</time></trkpt><trkpt lat="42.4214525" lon="12.2616334"><ele>317.0</ele><time>2026-04-12T07:34:37.992Z</time></trkpt><trkpt lat="42.4213858" lon="12.2614757"><ele>317.0</ele><time>2026-04-12T07:34:38.993Z</time></trkpt><trkpt lat="42.4213234" lon="12.2613156"><ele>317.25</ele><time>2026-04-12T07:34:39.992Z</time></trkpt><trkpt lat="42.4212646" lon="12.2611656"><ele>317.5</ele><time>2026-04-12T07:34:40.993Z</time></trkpt><trkpt lat="42.4212113" lon="12.2610108"><ele>317.75</ele><time>2026-04-12T07:34:41.993Z</time></trkpt><trkpt lat="42.4211624" lon="12.2608415"><ele>318.0</ele><time>2026-04-12T07:34:42.993Z</time></trkpt><trkpt lat="42.4211101" lon="12.2606628"><ele>318.0</ele><time>2026-04-12T07:34:43.992Z</time></trkpt><trkpt lat="42.421056" lon="12.2604918"><ele>318.0</ele><time>2026-04-12T07:34:44.992Z</time></trkpt><trkpt lat="42.4210215" lon="12.260362"><ele>318.0</ele><time>2026-04-12T07:34:45.993Z</time></trkpt><trkpt lat="42.4209795" lon="12.2602157"><ele>318.0</ele><time>2026-04-12T07:34:46.993Z</time></trkpt><trkpt lat="42.420938" lon="12.2600812"><ele>318.0</ele><time>2026-04-12T07:34:47.993Z</time></trkpt><trkpt lat="42.4208933" lon="12.2599522"><ele>318.0</ele><time>2026-04-12T07:34:48.993Z</time></trkpt><trkpt lat="42.4208531" lon="12.2598313"><ele>318.0</ele><time>2026-04-12T07:34:49.993Z</time></trkpt><trkpt lat="42.4208138" lon="12.2597098"><ele>318.0</ele><time>2026-04-12T07:34:50.993Z</time></trkpt><trkpt lat="42.4207709" lon="12.2595773"><ele>318.0</ele><time>2026-04-12T07:34:51.993Z</time></trkpt><trkpt lat="42.4207227" lon="12.259433"><ele>317.75</ele><time>2026-04-12T07:34:52.993Z</time></trkpt><trkpt lat="42.4206872" lon="12.2592629"><ele>317.5</ele><time>2026-04-12T07:34:53.992Z</time></trkpt><trkpt lat="42.4206572" lon="12.2590745"><ele>317.25</ele><time>2026-04-12T07:34:54.992Z</time></trkpt><trkpt lat="42.4206188" lon="12.2588961"><ele>317.0</ele><time>2026-04-12T07:34:55.993Z</time></trkpt><trkpt lat="42.420579" lon="12.2587086"><ele>317.25</ele><time>2026-04-12T07:34:56.992Z</time></trkpt><trkpt lat="42.4205423" lon="12.258512"><ele>317.5</ele><time>2026-04-12T07:34:57.993Z</time></trkpt><trkpt lat="42.4205123" lon="12.2583131"><ele>317.75</ele><time>2026-04-12T07:34:58.993Z</time></trkpt><trkpt lat="42.4204702" lon="12.2581221"><ele>318.0</ele><time>2026-04-12T07:34:59.992Z</time></trkpt><trkpt lat="42.4204343" lon="12.2579454"><ele>318.5</ele><time>2026-04-12T07:35:00.993Z</time></trkpt><trkpt lat="42.420398" lon="12.2577677"><ele>319.0</ele><time>2026-04-12T07:35:01.993Z</time></trkpt><trkpt lat="42.4203597" lon="12.2575833"><ele>319.5</ele><time>2026-04-12T07:35:02.993Z</time></trkpt><trkpt lat="42.4203177" lon="12.2574081"><ele>320.0</ele><time>2026-04-12T07:35:03.992Z</time></trkpt><trkpt lat="42.4202605" lon="12.2572682"><ele>320.2</ele><time>2026-04-12T07:35:04.993Z</time></trkpt><trkpt lat="42.4201951" lon="12.2571454"><ele>320.4</ele><time>2026-04-12T07:35:05.993Z</time></trkpt><trkpt lat="42.4201528" lon="12.2570202"><ele>320.6</ele><time>2026-04-12T07:35:06.993Z</time></trkpt><trkpt lat="42.4201073" lon="12.2568701"><ele>320.8</ele><time>2026-04-12T07:35:07.992Z</time></trkpt><trkpt lat="42.420089" lon="12.2567443"><ele>321.0</ele><time>2026-04-12T07:35:08.993Z</time></trkpt><trkpt lat="42.4200722" lon="12.2566198"><ele>321.0</ele><time>2026-04-12T07:35:09.993Z</time></trkpt><trkpt lat="42.4200438" lon="12.2565189"><ele>321.0</ele><time>2026-04-12T07:35:10.993Z</time></trkpt><trkpt lat="42.4200005" lon="12.2564252"><ele>321.0</ele><time>2026-04-12T07:35:11.993Z</time></trkpt><trkpt lat="42.4199508" lon="12.2563207"><ele>321.0</ele><time>2026-04-12T07:35:12.993Z</time></trkpt><trkpt lat="42.4198857" lon="12.2562123"><ele>321.0</ele><time>2026-04-12T07:35:13.993Z</time></trkpt><trkpt lat="42.4198148" lon="12.2560975"><ele>321.0</ele><time>2026-04-12T07:35:14.993Z</time></trkpt><trkpt lat="42.4197416" lon="12.2559649"><ele>321.0</ele><time>2026-04-12T07:35:15.992Z</time></trkpt><trkpt lat="42.4196829" lon="12.2558405"><ele>321.0</ele><time>2026-04-12T07:35:16.993Z</time></trkpt><trkpt lat="42.4196386" lon="12.2557175"><ele>321.0</ele><time>2026-04-12T07:35:17.993Z</time></trkpt><trkpt lat="42.4196075" lon="12.2555687"><ele>321.0</ele><time>2026-04-12T07:35:18.993Z</time></trkpt><trkpt lat="42.4195992" lon="12.2554019"><ele>322.25</ele><time>2026-04-12T07:35:19.993Z</time></trkpt><trkpt lat="42.4195869" lon="12.2552279"><ele>323.5</ele><time>2026-04-12T07:35:20.992Z</time></trkpt><trkpt lat="42.4195608" lon="12.2550448"><ele>324.75</ele><time>2026-04-12T07:35:21.992Z</time></trkpt><trkpt lat="42.4195292" lon="12.2548581"><ele>326.0</ele><time>2026-04-12T07:35:22.993Z</time></trkpt><trkpt lat="42.4195173" lon="12.2546636"><ele>326.75</ele><time>2026-04-12T07:35:23.992Z</time></trkpt><trkpt lat="42.4194978" lon="12.2544658"><ele>327.5</ele><time>2026-04-12T07:35:24.993Z</time></trkpt><trkpt lat="42.4194573" lon="12.2542741"><ele>328.25</ele><time>2026-04-12T07:35:25.993Z</time></trkpt><trkpt lat="42.4194205" lon="12.2540829"><ele>329.0</ele><time>2026-04-12T07:35:26.993Z</time></trkpt><trkpt lat="42.4193701" lon="12.2539081"><ele>330.25</ele><time>2026-04-12T07:35:27.993Z</time></trkpt><trkpt lat="42.4193289" lon="12.2537361"><ele>331.5</ele><time>2026-04-12T07:35:28.992Z</time></trkpt><trkpt lat="42.4192939" lon="12.2535776"><ele>332.75</ele><time>2026-04-12T07:35:29.993Z</time></trkpt><trkpt lat="42.4192649" lon="12.2534155"><ele>334.0</ele><time>2026-04-12T07:35:30.992Z</time></trkpt><trkpt lat="42.4192425" lon="12.2532521"><ele>335.0</ele><time>2026-04-12T07:35:31.992Z</time></trkpt><trkpt lat="42.4192221" lon="12.2530863"><ele>336.0</ele><time>2026-04-12T07:35:32.992Z</time></trkpt><trkpt lat="42.4191929" lon="12.2529245"><ele>337.0</ele><time>2026-04-12T07:35:33.993Z</time></trkpt><trkpt lat="42.4191525" lon="12.252758"><ele>338.0</ele><time>2026-04-12T07:35:34.993Z</time></trkpt><trkpt lat="42.4190992" lon="12.2525888"><ele>338.0</ele><time>2026-04-12T07:35:35.993Z</time></trkpt><trkpt lat="42.4190502" lon="12.2524119"><ele>338.0</ele><time>2026-04-12T07:35:36.993Z</time></trkpt><trkpt lat="42.419006" lon="12.2522312"><ele>338.0</ele><time>2026-04-12T07:35:37.993Z</time></trkpt><trkpt lat="42.4189185" lon="12.2518927"><ele>338.75</ele><time>2026-04-12T07:35:39.992Z</time></trkpt><trkpt lat="42.4188833" lon="12.2517221"><ele>339.5</ele><time>2026-04-12T07:35:40.992Z</time></trkpt><trkpt lat="42.4188426" lon="12.2515875"><ele>340.25</ele><time>2026-04-12T07:35:41.992Z</time></trkpt><trkpt lat="42.418806" lon="12.2514417"><ele>341.0</ele><time>2026-04-12T07:35:42.993Z</time></trkpt><trkpt lat="42.4187832" lon="12.2512885"><ele>341.6666666666667</ele><time>2026-04-12T07:35:43.993Z</time></trkpt><trkpt lat="42.418757" lon="12.2511314"><ele>342.3333333333333</ele><time>2026-04-12T07:35:44.993Z</time></trkpt><trkpt lat="42.4187375" lon="12.2508297"><ele>343.0</ele><time>2026-04-12T07:35:46.993Z</time></trkpt><trkpt lat="42.4187491" lon="12.2506774"><ele>344.0</ele><time>2026-04-12T07:35:47.993Z</time></trkpt><trkpt lat="42.4187727" lon="12.2505093"><ele>345.0</ele><time>2026-04-12T07:35:48.993Z</time></trkpt><trkpt lat="42.4188024" lon="12.2503494"><ele>346.0</ele><time>2026-04-12T07:35:49.993Z</time></trkpt><trkpt lat="42.4188429" lon="12.2501814"><ele>347.0</ele><time>2026-04-12T07:35:50.992Z</time></trkpt><trkpt lat="42.41888" lon="12.2500162"><ele>347.75</ele><time>2026-04-12T07:35:51.993Z</time></trkpt><trkpt lat="42.4189173" lon="12.2498278"><ele>348.5</ele><time>2026-04-12T07:35:52.993Z</time></trkpt><trkpt lat="42.4189404" lon="12.2496559"><ele>349.25</ele><time>2026-04-12T07:35:53.993Z</time></trkpt><trkpt lat="42.4189515" lon="12.249472"><ele>350.0</ele><time>2026-04-12T07:35:54.992Z</time></trkpt><trkpt lat="42.4189654" lon="12.2492822"><ele>350.33333333333337</ele><time>2026-04-12T07:35:55.993Z</time></trkpt><trkpt lat="42.4189669" lon="12.2490753"><ele>350.6666666666667</ele><time>2026-04-12T07:35:56.993Z</time></trkpt><trkpt lat="42.4189735" lon="12.2488655"><ele>351.0</ele><time>2026-04-12T07:35:57.993Z</time></trkpt><trkpt lat="42.418977" lon="12.2486677"><ele>352.0</ele><time>2026-04-12T07:35:58.992Z</time></trkpt><trkpt lat="42.4189752" lon="12.2484953"><ele>353.0</ele><time>2026-04-12T07:35:59.993Z</time></trkpt><trkpt lat="42.4189846" lon="12.2483218"><ele>354.0</ele><time>2026-04-12T07:36:00.993Z</time></trkpt><trkpt lat="42.4190004" lon="12.2481359"><ele>355.0</ele><time>2026-04-12T07:36:01.992Z</time></trkpt><trkpt lat="42.4190287" lon="12.2479378"><ele>356.0</ele><time>2026-04-12T07:36:02.993Z</time></trkpt><trkpt lat="42.4190577" lon="12.2477357"><ele>357.0</ele><time>2026-04-12T07:36:03.993Z</time></trkpt><trkpt lat="42.4190894" lon="12.2475317"><ele>358.0</ele><time>2026-04-12T07:36:04.993Z</time></trkpt><trkpt lat="42.4191261" lon="12.2473248"><ele>358.75</ele><time>2026-04-12T07:36:05.992Z</time></trkpt><trkpt lat="42.4191524" lon="12.247124"><ele>359.5</ele><time>2026-04-12T07:36:06.993Z</time></trkpt><trkpt lat="42.419155" lon="12.2469339"><ele>360.25</ele><time>2026-04-12T07:36:07.993Z</time></trkpt><trkpt lat="42.4191717" lon="12.2467742"><ele>361.0</ele><time>2026-04-12T07:36:08.993Z</time></trkpt><trkpt lat="42.4191865" lon="12.2466263"><ele>361.0</ele><time>2026-04-12T07:36:09.992Z</time></trkpt><trkpt lat="42.4191661" lon="12.2465168"><ele>361.0</ele><time>2026-04-12T07:36:10.993Z</time></trkpt><trkpt lat="42.419203" lon="12.2463712"><ele>361.0</ele><time>2026-04-12T07:36:11.993Z</time></trkpt><trkpt lat="42.4191423" lon="12.2462416"><ele>361.0</ele><time>2026-04-12T07:36:12.993Z</time></trkpt><trkpt lat="42.4191248" lon="12.2460788"><ele>361.0</ele><time>2026-04-12T07:36:13.993Z</time></trkpt><trkpt lat="42.41904" lon="12.2459056"><ele>360.0</ele><time>2026-04-12T07:36:14.993Z</time></trkpt><trkpt lat="42.4189735" lon="12.2457469"><ele>359.0</ele><time>2026-04-12T07:36:15.993Z</time></trkpt><trkpt lat="42.4189195" lon="12.2455801"><ele>358.0</ele><time>2026-04-12T07:36:16.992Z</time></trkpt><trkpt lat="42.4188911" lon="12.2454035"><ele>357.0</ele><time>2026-04-12T07:36:17.992Z</time></trkpt><trkpt lat="42.4188918" lon="12.2451992"><ele>358.25</ele><time>2026-04-12T07:36:18.993Z</time></trkpt><trkpt lat="42.4188628" lon="12.2449992"><ele>359.5</ele><time>2026-04-12T07:36:19.993Z</time></trkpt><trkpt lat="42.4188096" lon="12.2448185"><ele>360.75</ele><time>2026-04-12T07:36:20.993Z</time></trkpt><trkpt lat="42.418773" lon="12.2446377"><ele>362.0</ele><time>2026-04-12T07:36:21.993Z</time></trkpt><trkpt lat="42.4187318" lon="12.2444764"><ele>362.0</ele><time>2026-04-12T07:36:22.993Z</time></trkpt><trkpt lat="42.4187072" lon="12.2443326"><ele>362.0</ele><time>2026-04-12T07:36:23.992Z</time></trkpt><trkpt lat="42.4187011" lon="12.2441887"><ele>362.0</ele><time>2026-04-12T07:36:24.993Z</time></trkpt><trkpt lat="42.4187105" lon="12.2440344"><ele>362.0</ele><time>2026-04-12T07:36:25.993Z</time></trkpt><trkpt lat="42.4187447" lon="12.2438844"><ele>362.0</ele><time>2026-04-12T07:36:26.992Z</time></trkpt><trkpt lat="42.4187797" lon="12.2437446"><ele>362.8</ele><time>2026-04-12T07:36:27.992Z</time></trkpt><trkpt lat="42.4188075" lon="12.2436088"><ele>363.6</ele><time>2026-04-12T07:36:28.992Z</time></trkpt><trkpt lat="42.4188033" lon="12.2434752"><ele>364.40000000000003</ele><time>2026-04-12T07:36:29.993Z</time></trkpt><trkpt lat="42.4187853" lon="12.2433212"><ele>365.20000000000005</ele><time>2026-04-12T07:36:30.992Z</time></trkpt><trkpt lat="42.41874" lon="12.2431662"><ele>366.0</ele><time>2026-04-12T07:36:31.993Z</time></trkpt><trkpt lat="42.4187268" lon="12.2430082"><ele>367.5</ele><time>2026-04-12T07:36:32.993Z</time></trkpt><trkpt lat="42.4187265" lon="12.2428372"><ele>369.0</ele><time>2026-04-12T07:36:33.992Z</time></trkpt><trkpt lat="42.4186981" lon="12.2426881"><ele>370.5</ele><time>2026-04-12T07:36:34.991Z</time></trkpt><trkpt lat="42.4186727" lon="12.2425346"><ele>372.0</ele><time>2026-04-12T07:36:35.993Z</time></trkpt><trkpt lat="42.4185518" lon="12.2424"><ele>374.0</ele><time>2026-04-12T07:36:36.992Z</time></trkpt><trkpt lat="42.4184877" lon="12.2422633"><ele>376.0</ele><time>2026-04-12T07:36:37.993Z</time></trkpt><trkpt lat="42.4184221" lon="12.2421227"><ele>378.0</ele><time>2026-04-12T07:36:38.993Z</time></trkpt><trkpt lat="42.4183678" lon="12.2419662"><ele>380.0</ele><time>2026-04-12T07:36:39.993Z</time></trkpt><trkpt lat="42.4183454" lon="12.2418258"><ele>380.0</ele><time>2026-04-12T07:36:40.993Z</time></trkpt><trkpt lat="42.418329" lon="12.2416723"><ele>380.0</ele><time>2026-04-12T07:36:41.993Z</time></trkpt><trkpt lat="42.4183337" lon="12.2415449"><ele>380.0</ele><time>2026-04-12T07:36:42.993Z</time></trkpt><trkpt lat="42.4183382" lon="12.2414308"><ele>380.0</ele><time>2026-04-12T07:36:43.992Z</time></trkpt><trkpt lat="42.4183461" lon="12.2413216"><ele>380.0</ele><time>2026-04-12T07:36:44.994Z</time></trkpt><trkpt lat="42.4183499" lon="12.2412004"><ele>381.0</ele><time>2026-04-12T07:36:45.992Z</time></trkpt><trkpt lat="42.4183433" lon="12.241069"><ele>382.0</ele><time>2026-04-12T07:36:46.993Z</time></trkpt><trkpt lat="42.4183464" lon="12.2409256"><ele>383.0</ele><time>2026-04-12T07:36:47.992Z</time></trkpt><trkpt lat="42.4183554" lon="12.2407731"><ele>384.0</ele><time>2026-04-12T07:36:48.993Z</time></trkpt><trkpt lat="42.4183847" lon="12.2406236"><ele>385.0</ele><time>2026-04-12T07:36:49.993Z</time></trkpt><trkpt lat="42.4184299" lon="12.2402877"><ele>387.0</ele><time>2026-04-12T07:36:51.993Z</time></trkpt><trkpt lat="42.4184449" lon="12.2401076"><ele>389.0</ele><time>2026-04-12T07:36:52.993Z</time></trkpt><trkpt lat="42.4184517" lon="12.2399421"><ele>391.0</ele><time>2026-04-12T07:36:53.993Z</time></trkpt><trkpt lat="42.4184533" lon="12.2397939"><ele>393.0</ele><time>2026-04-12T07:36:54.992Z</time></trkpt><trkpt lat="42.4184534" lon="12.2396634"><ele>394.0</ele><time>2026-04-12T07:36:55.993Z</time></trkpt><trkpt lat="42.4184469" lon="12.2395366"><ele>395.0</ele><time>2026-04-12T07:36:56.993Z</time></trkpt><trkpt lat="42.4184202" lon="12.2394305"><ele>396.0</ele><time>2026-04-12T07:36:57.993Z</time></trkpt><trkpt lat="42.4183745" lon="12.2393066"><ele>397.0</ele><time>2026-04-12T07:36:58.993Z</time></trkpt><trkpt lat="42.4183145" lon="12.2391865"><ele>398.0</ele><time>2026-04-12T07:36:59.993Z</time></trkpt><trkpt lat="42.4182523" lon="12.2390651"><ele>399.5</ele><time>2026-04-12T07:37:00.992Z</time></trkpt><trkpt lat="42.4181812" lon="12.2389379"><ele>401.0</ele><time>2026-04-12T07:37:01.992Z</time></trkpt><trkpt lat="42.4181094" lon="12.2388047"><ele>402.5</ele><time>2026-04-12T07:37:02.993Z</time></trkpt><trkpt lat="42.4180396" lon="12.2386681"><ele>404.0</ele><time>2026-04-12T07:37:03.993Z</time></trkpt><trkpt lat="42.41797" lon="12.2385298"><ele>409.75</ele><time>2026-04-12T07:37:04.993Z</time></trkpt><trkpt lat="42.4179553" lon="12.2383882"><ele>415.5</ele><time>2026-04-12T07:37:05.992Z</time></trkpt><trkpt lat="42.4179204" lon="12.2382404"><ele>421.25</ele><time>2026-04-12T07:37:06.993Z</time></trkpt><trkpt lat="42.4178882" lon="12.2380848"><ele>427.0</ele><time>2026-04-12T07:37:07.993Z</time></trkpt><trkpt lat="42.4178538" lon="12.2379322"><ele>427.25</ele><time>2026-04-12T07:37:08.991Z</time></trkpt><trkpt lat="42.4178145" lon="12.2377814"><ele>427.5</ele><time>2026-04-12T07:37:09.993Z</time></trkpt><trkpt lat="42.417778" lon="12.2376257"><ele>427.75</ele><time>2026-04-12T07:37:10.993Z</time></trkpt><trkpt lat="42.4177391" lon="12.2374838"><ele>428.0</ele><time>2026-04-12T07:37:11.993Z</time></trkpt><trkpt lat="42.4177008" lon="12.237328"><ele>428.75</ele><time>2026-04-12T07:37:12.993Z</time></trkpt><trkpt lat="42.4176695" lon="12.2371643"><ele>429.5</ele><time>2026-04-12T07:37:13.993Z</time></trkpt><trkpt lat="42.4176336" lon="12.236989"><ele>430.25</ele><time>2026-04-12T07:37:14.992Z</time></trkpt><trkpt lat="42.4176062" lon="12.236832"><ele>431.0</ele><time>2026-04-12T07:37:15.993Z</time></trkpt><trkpt lat="42.4175822" lon="12.2366663"><ele>431.0</ele><time>2026-04-12T07:37:16.992Z</time></trkpt><trkpt lat="42.417563" lon="12.2365028"><ele>431.0</ele><time>2026-04-12T07:37:17.992Z</time></trkpt><trkpt lat="42.4175452" lon="12.2363333"><ele>431.0</ele><time>2026-04-12T07:37:18.993Z</time></trkpt><trkpt lat="42.4175314" lon="12.2361694"><ele>431.0</ele><time>2026-04-12T07:37:19.993Z</time></trkpt><trkpt lat="42.4175088" lon="12.2360024"><ele>430.99999999999994</ele><time>2026-04-12T07:37:20.993Z</time></trkpt><trkpt lat="42.4175005" lon="12.2358463"><ele>431.0</ele><time>2026-04-12T07:37:21.992Z</time></trkpt><trkpt lat="42.417499" lon="12.2357131"><ele>431.0</ele><time>2026-04-12T07:37:22.993Z</time></trkpt><trkpt lat="42.4175133" lon="12.2356013"><ele>431.0</ele><time>2026-04-12T07:37:23.992Z</time></trkpt><trkpt lat="42.417545" lon="12.2355118"><ele>430.99999999999994</ele><time>2026-04-12T07:37:24.993Z</time></trkpt><trkpt lat="42.4175998" lon="12.2354431"><ele>431.0</ele><time>2026-04-12T07:37:25.993Z</time></trkpt><trkpt lat="42.4176591" lon="12.2353866"><ele>433.4</ele><time>2026-04-12T07:37:26.993Z</time></trkpt><trkpt lat="42.4177375" lon="12.2354091"><ele>435.8</ele><time>2026-04-12T07:37:27.993Z</time></trkpt><trkpt lat="42.4178228" lon="12.2354417"><ele>438.19999999999993</ele><time>2026-04-12T07:37:28.993Z</time></trkpt><trkpt lat="42.4179004" lon="12.2354833"><ele>440.59999999999997</ele><time>2026-04-12T07:37:29.993Z</time></trkpt><trkpt lat="42.4179992" lon="12.2355667"><ele>443.0</ele><time>2026-04-12T07:37:30.992Z</time></trkpt><trkpt lat="42.418082" lon="12.2356389"><ele>443.0</ele><time>2026-04-12T07:37:31.993Z</time></trkpt><trkpt lat="42.4181491" lon="12.235705"><ele>442.99999999999994</ele><time>2026-04-12T07:37:32.993Z</time></trkpt><trkpt lat="42.4182389" lon="12.2358096"><ele>442.99999999999994</ele><time>2026-04-12T07:38:03.992Z</time></trkpt><trkpt lat="42.4183338" lon="12.2358876"><ele>443.0</ele><time>2026-04-12T07:38:05.992Z</time></trkpt><trkpt lat="42.4184301" lon="12.2359634"><ele>443.0</ele><time>2026-04-12T07:38:07.993Z</time></trkpt><trkpt lat="42.4184796" lon="12.236089"><ele>443.0</ele><time>2026-04-12T07:38:08.993Z</time></trkpt><trkpt lat="42.4185578" lon="12.2363648"><ele>443.0</ele><time>2026-04-12T07:38:09.993Z</time></trkpt><trkpt lat="42.4186541" lon="12.2365278"><ele>443.0</ele><time>2026-04-12T07:38:10.993Z</time></trkpt><trkpt lat="42.4187146" lon="12.236663"><ele>445.5</ele><time>2026-04-12T07:38:11.992Z</time></trkpt><trkpt lat="42.4188307" lon="12.2368499"><ele>448.0</ele><time>2026-04-12T07:38:12.993Z</time></trkpt><trkpt lat="42.4189339" lon="12.2369791"><ele>450.5</ele><time>2026-04-12T07:38:13.992Z</time></trkpt><trkpt lat="42.4190364" lon="12.2370817"><ele>453.0</ele><time>2026-04-12T07:38:14.992Z</time></trkpt><trkpt lat="42.419125" lon="12.2371382"><ele>453.0</ele><time>2026-04-12T07:38:15.992Z</time></trkpt><trkpt lat="42.4192103" lon="12.237193"><ele>452.99999999999994</ele><time>2026-04-12T07:38:16.992Z</time></trkpt><trkpt lat="42.4193067" lon="12.2372571"><ele>452.99999999999994</ele><time>2026-04-12T07:38:17.992Z</time></trkpt><trkpt lat="42.4193913" lon="12.2373166"><ele>453.0</ele><time>2026-04-12T07:38:18.993Z</time></trkpt><trkpt lat="42.4194964" lon="12.2373095"><ele>453.0</ele><time>2026-04-12T07:38:19.992Z</time></trkpt><trkpt lat="42.4196188" lon="12.2372998"><ele>455.2</ele><time>2026-04-12T07:38:20.993Z</time></trkpt><trkpt lat="42.4197367" lon="12.2373071"><ele>457.4</ele><time>2026-04-12T07:38:21.992Z</time></trkpt><trkpt lat="42.419842" lon="12.2373036"><ele>459.59999999999997</ele><time>2026-04-12T07:38:22.993Z</time></trkpt><trkpt lat="42.4199467" lon="12.2372886"><ele>461.79999999999995</ele><time>2026-04-12T07:38:23.993Z</time></trkpt><trkpt lat="42.4200415" lon="12.2372812"><ele>464.0</ele><time>2026-04-12T07:38:24.992Z</time></trkpt><trkpt lat="42.4201142" lon="12.2372375"><ele>463.99999999999994</ele><time>2026-04-12T07:38:25.992Z</time></trkpt><trkpt lat="42.4201953" lon="12.2372043"><ele>464.0</ele><time>2026-04-12T07:38:26.993Z</time></trkpt><trkpt lat="42.4202705" lon="12.2371787"><ele>464.0</ele><time>2026-04-12T07:38:27.993Z</time></trkpt><trkpt lat="42.4203399" lon="12.2371423"><ele>464.0</ele><time>2026-04-12T07:38:28.993Z</time></trkpt><trkpt lat="42.4203965" lon="12.2371019"><ele>463.99999999999994</ele><time>2026-04-12T07:38:29.993Z</time></trkpt><trkpt lat="42.4204941" lon="12.2370109"><ele>464.0</ele><time>2026-04-12T07:38:31.993Z</time></trkpt><trkpt lat="42.4205735" lon="12.2369098"><ele>460.66666666666663</ele><time>2026-04-12T07:38:33.993Z</time></trkpt><trkpt lat="42.4206119" lon="12.2368282"><ele>457.3333333333333</ele><time>2026-04-12T07:38:34.993Z</time></trkpt><trkpt lat="42.4206572" lon="12.2367144"><ele>454.0</ele><time>2026-04-12T07:38:35.992Z</time></trkpt><trkpt lat="42.4206906" lon="12.2366175"><ele>450.66666666666663</ele><time>2026-04-12T07:38:36.993Z</time></trkpt><trkpt lat="42.42073" lon="12.2365153"><ele>447.3333333333333</ele><time>2026-04-12T07:38:37.993Z</time></trkpt><trkpt lat="42.4207648" lon="12.2364292"><ele>444.0</ele><time>2026-04-12T07:38:38.993Z</time></trkpt><trkpt lat="42.4208125" lon="12.2363113"><ele>444.0</ele><time>2026-04-12T07:38:40.993Z</time></trkpt><trkpt lat="42.4208262" lon="12.2362236"><ele>444.0</ele><time>2026-04-12T07:38:45.993Z</time></trkpt><trkpt lat="42.4208516" lon="12.2361255"><ele>444.0</ele><time>2026-04-12T07:39:28.993Z</time></trkpt><trkpt lat="42.4208592" lon="12.2359936"><ele>444.0</ele><time>2026-04-12T07:39:29.993Z</time></trkpt><trkpt lat="42.4208701" lon="12.2358788"><ele>444.0</ele><time>2026-04-12T07:39:30.992Z</time></trkpt><trkpt lat="42.4208304" lon="12.2357246"><ele>444.0</ele><time>2026-04-12T07:39:31.993Z</time></trkpt><trkpt lat="42.4208125" lon="12.2355779"><ele>443.6</ele><time>2026-04-12T07:39:32.992Z</time></trkpt><trkpt lat="42.4207981" lon="12.2354496"><ele>443.2</ele><time>2026-04-12T07:39:33.993Z</time></trkpt><trkpt lat="42.4207695" lon="12.2353247"><ele>442.80000000000007</ele><time>2026-04-12T07:39:34.993Z</time></trkpt><trkpt lat="42.4207559" lon="12.2351983"><ele>442.40000000000003</ele><time>2026-04-12T07:39:35.991Z</time></trkpt><trkpt lat="42.4207392" lon="12.2350682"><ele>442.0</ele><time>2026-04-12T07:39:36.993Z</time></trkpt><trkpt lat="42.4207208" lon="12.2349519"><ele>442.0</ele><time>2026-04-12T07:39:37.992Z</time></trkpt><trkpt lat="42.4207001" lon="12.2348514"><ele>442.00000000000006</ele><time>2026-04-12T07:39:38.992Z</time></trkpt><trkpt lat="42.4206867" lon="12.2347525"><ele>442.00000000000006</ele><time>2026-04-12T07:39:41.992Z</time></trkpt><trkpt lat="42.4206471" lon="12.2345653"><ele>442.0</ele><time>2026-04-12T07:39:43.993Z</time></trkpt><trkpt lat="42.4206121" lon="12.2344297"><ele>442.0</ele><time>2026-04-12T07:39:44.993Z</time></trkpt><trkpt lat="42.4205507" lon="12.2342718"><ele>442.25</ele><time>2026-04-12T07:39:45.992Z</time></trkpt><trkpt lat="42.4204829" lon="12.2341029"><ele>442.5</ele><time>2026-04-12T07:39:46.992Z</time></trkpt><trkpt lat="42.4204108" lon="12.2339439"><ele>442.75</ele><time>2026-04-12T07:39:47.992Z</time></trkpt><trkpt lat="42.4203434" lon="12.2337944"><ele>443.0</ele><time>2026-04-12T07:39:48.993Z</time></trkpt><trkpt lat="42.4202722" lon="12.2336655"><ele>443.0</ele><time>2026-04-12T07:39:49.993Z</time></trkpt><trkpt lat="42.4201853" lon="12.2335608"><ele>443.0</ele><time>2026-04-12T07:39:50.993Z</time></trkpt><trkpt lat="42.4200923" lon="12.2334861"><ele>443.0</ele><time>2026-04-12T07:39:51.992Z</time></trkpt><trkpt lat="42.4199756" lon="12.2334477"><ele>443.0</ele><time>2026-04-12T07:39:52.992Z</time></trkpt><trkpt lat="42.4198638" lon="12.2334199"><ele>443.0</ele><time>2026-04-12T07:39:53.993Z</time></trkpt><trkpt lat="42.4197525" lon="12.233398"><ele>443.0</ele><time>2026-04-12T07:39:54.993Z</time></trkpt><trkpt lat="42.4196435" lon="12.2333357"><ele>443.0</ele><time>2026-04-12T07:39:55.993Z</time></trkpt><trkpt lat="42.4195338" lon="12.233292"><ele>443.0</ele><time>2026-04-12T07:39:56.993Z</time></trkpt><trkpt lat="42.4194261" lon="12.2332632"><ele>444.8333333333333</ele><time>2026-04-12T07:39:57.992Z</time></trkpt><trkpt lat="42.4193225" lon="12.2332457"><ele>446.66666666666663</ele><time>2026-04-12T07:39:58.993Z</time></trkpt><trkpt lat="42.4192467" lon="12.233241"><ele>448.5</ele><time>2026-04-12T07:39:59.993Z</time></trkpt><trkpt lat="42.4191583" lon="12.2332263"><ele>450.33333333333337</ele><time>2026-04-12T07:40:00.993Z</time></trkpt><trkpt lat="42.4190987" lon="12.2331886"><ele>452.1666666666667</ele><time>2026-04-12T07:40:01.993Z</time></trkpt><trkpt lat="42.4190036" lon="12.2331844"><ele>454.0</ele><time>2026-04-12T07:40:03.993Z</time></trkpt><trkpt lat="42.4191529" lon="12.2330178"><ele>455.0</ele><time>2026-04-12T07:40:05.993Z</time></trkpt><trkpt lat="42.419305" lon="12.2328701"><ele>456.0</ele><time>2026-04-12T07:40:06.992Z</time></trkpt><trkpt lat="42.41947" lon="12.2327353"><ele>457.0</ele><time>2026-04-12T07:40:07.992Z</time></trkpt><trkpt lat="42.4195766" lon="12.2326269"><ele>453.5</ele><time>2026-04-12T07:40:08.993Z</time></trkpt><trkpt lat="42.4196857" lon="12.2325192"><ele>450.0</ele><time>2026-04-12T07:40:09.993Z</time></trkpt><trkpt lat="42.4197875" lon="12.2324178"><ele>446.5</ele><time>2026-04-12T07:40:10.992Z</time></trkpt><trkpt lat="42.4198918" lon="12.2323157"><ele>443.0</ele><time>2026-04-12T07:40:11.992Z</time></trkpt><trkpt lat="42.4200013" lon="12.2322453"><ele>443.0</ele><time>2026-04-12T07:40:12.992Z</time></trkpt><trkpt lat="42.4201173" lon="12.2322082"><ele>442.99999999999994</ele><time>2026-04-12T07:40:13.993Z</time></trkpt><trkpt lat="42.4202349" lon="12.232186"><ele>442.99999999999994</ele><time>2026-04-12T07:40:14.993Z</time></trkpt><trkpt lat="42.4203421" lon="12.23219"><ele>443.0</ele><time>2026-04-12T07:40:15.993Z</time></trkpt><trkpt lat="42.4204362" lon="12.23221"><ele>443.0</ele><time>2026-04-12T07:40:16.993Z</time></trkpt><trkpt lat="42.4205295" lon="12.2322922"><ele>441.5</ele><time>2026-04-12T07:40:17.992Z</time></trkpt><trkpt lat="42.4206379" lon="12.2323718"><ele>440.0</ele><time>2026-04-12T07:40:18.993Z</time></trkpt><trkpt lat="42.4207615" lon="12.2324456"><ele>438.5</ele><time>2026-04-12T07:40:19.993Z</time></trkpt><trkpt lat="42.4208749" lon="12.2325092"><ele>437.0</ele><time>2026-04-12T07:40:20.993Z</time></trkpt><trkpt lat="42.4209955" lon="12.2325838"><ele>437.0</ele><time>2026-04-12T07:40:21.993Z</time></trkpt><trkpt lat="42.4211115" lon="12.2326449"><ele>437.0</ele><time>2026-04-12T07:40:22.992Z</time></trkpt><trkpt lat="42.4212405" lon="12.2326837"><ele>437.0</ele><time>2026-04-12T07:40:23.992Z</time></trkpt><trkpt lat="42.4213749" lon="12.2327292"><ele>437.0</ele><time>2026-04-12T07:40:24.993Z</time></trkpt><trkpt lat="42.4215212" lon="12.2327617"><ele>440.66666666666663</ele><time>2026-04-12T07:40:25.993Z</time></trkpt><trkpt lat="42.42167" lon="12.2327906"><ele>444.33333333333337</ele><time>2026-04-12T07:40:26.993Z</time></trkpt><trkpt lat="42.4218263" lon="12.2328165"><ele>448.0</ele><time>2026-04-12T07:40:27.993Z</time></trkpt><trkpt lat="42.4219903" lon="12.2328372"><ele>448.0</ele><time>2026-04-12T07:40:28.993Z</time></trkpt><trkpt lat="42.4221459" lon="12.2328576"><ele>448.0</ele><time>2026-04-12T07:40:29.992Z</time></trkpt><trkpt lat="42.422281" lon="12.2328939"><ele>448.0</ele><time>2026-04-12T07:40:30.992Z</time></trkpt><trkpt lat="42.4224042" lon="12.2329522"><ele>448.0</ele><time>2026-04-12T07:40:31.993Z</time></trkpt><trkpt lat="42.4225057" lon="12.2330228"><ele>449.79999999999995</ele><time>2026-04-12T07:40:32.993Z</time></trkpt><trkpt lat="42.4226091" lon="12.2330876"><ele>451.59999999999997</ele><time>2026-04-12T07:40:33.993Z</time></trkpt><trkpt lat="42.4226961" lon="12.2331276"><ele>453.40000000000003</ele><time>2026-04-12T07:40:34.992Z</time></trkpt><trkpt lat="42.4227352" lon="12.2330052"><ele>455.20000000000005</ele><time>2026-04-12T07:40:35.992Z</time></trkpt><trkpt lat="42.4228051" lon="12.232952"><ele>457.0</ele><time>2026-04-12T07:40:36.992Z</time></trkpt><trkpt lat="42.4228628" lon="12.2328807"><ele>457.0</ele><time>2026-04-12T07:40:37.993Z</time></trkpt><trkpt lat="42.4229051" lon="12.2327083"><ele>457.0</ele><time>2026-04-12T07:40:38.992Z</time></trkpt><trkpt lat="42.422982" lon="12.2326303"><ele>457.0</ele><time>2026-04-12T07:40:39.992Z</time></trkpt><trkpt lat="42.4230805" lon="12.2325406"><ele>457.0</ele><time>2026-04-12T07:40:40.992Z</time></trkpt><trkpt lat="42.4231936" lon="12.2324721"><ele>456.5</ele><time>2026-04-12T07:40:41.993Z</time></trkpt><trkpt lat="42.4232924" lon="12.232404"><ele>456.0</ele><time>2026-04-12T07:40:42.992Z</time></trkpt><trkpt lat="42.4233963" lon="12.2323434"><ele>455.5</ele><time>2026-04-12T07:40:43.993Z</time></trkpt><trkpt lat="42.4235109" lon="12.2322793"><ele>455.0</ele><time>2026-04-12T07:40:44.994Z</time></trkpt><trkpt lat="42.423619" lon="12.2322142"><ele>456.25</ele><time>2026-04-12T07:40:45.993Z</time></trkpt><trkpt lat="42.4237341" lon="12.2321464"><ele>457.5</ele><time>2026-04-12T07:40:46.993Z</time></trkpt><trkpt lat="42.4238474" lon="12.2320805"><ele>458.75</ele><time>2026-04-12T07:40:47.994Z</time></trkpt><trkpt lat="42.4239569" lon="12.232023"><ele>460.0</ele><time>2026-04-12T07:40:48.994Z</time></trkpt><trkpt lat="42.4240687" lon="12.2319564"><ele>460.0</ele><time>2026-04-12T07:40:49.994Z</time></trkpt><trkpt lat="42.4241677" lon="12.2319049"><ele>460.0</ele><time>2026-04-12T07:40:50.993Z</time></trkpt><trkpt lat="42.4242668" lon="12.2318548"><ele>460.0</ele><time>2026-04-12T07:40:51.994Z</time></trkpt><trkpt lat="42.4243661" lon="12.2318016"><ele>460.0</ele><time>2026-04-12T07:40:52.994Z</time></trkpt><trkpt lat="42.4244775" lon="12.2317577"><ele>460.0</ele><time>2026-04-12T07:40:53.992Z</time></trkpt><trkpt lat="42.4245975" lon="12.2317215"><ele>458.8</ele><time>2026-04-12T07:40:54.993Z</time></trkpt><trkpt lat="42.4247113" lon="12.2316892"><ele>457.6</ele><time>2026-04-12T07:40:55.994Z</time></trkpt><trkpt lat="42.4248195" lon="12.2316587"><ele>456.4</ele><time>2026-04-12T07:40:56.994Z</time></trkpt><trkpt lat="42.4249274" lon="12.2316326"><ele>455.2</ele><time>2026-04-12T07:40:57.993Z</time></trkpt><trkpt lat="42.4250317" lon="12.2315931"><ele>454.0</ele><time>2026-04-12T07:40:58.994Z</time></trkpt><trkpt lat="42.4251229" lon="12.2315324"><ele>453.6</ele><time>2026-04-12T07:40:59.994Z</time></trkpt><trkpt lat="42.4252007" lon="12.2314473"><ele>453.2</ele><time>2026-04-12T07:41:00.994Z</time></trkpt><trkpt lat="42.4252568" lon="12.2313321"><ele>452.80000000000007</ele><time>2026-04-12T07:41:01.994Z</time></trkpt><trkpt lat="42.4252713" lon="12.2312077"><ele>452.40000000000003</ele><time>2026-04-12T07:41:02.994Z</time></trkpt><trkpt lat="42.425244" lon="12.2310779"><ele>452.0</ele><time>2026-04-12T07:41:03.994Z</time></trkpt><trkpt lat="42.42518" lon="12.2309416"><ele>452.0</ele><time>2026-04-12T07:41:04.993Z</time></trkpt><trkpt lat="42.4250762" lon="12.2308011"><ele>452.0</ele><time>2026-04-12T07:41:05.994Z</time></trkpt><trkpt lat="42.424947" lon="12.2306612"><ele>452.0</ele><time>2026-04-12T07:41:06.994Z</time></trkpt><trkpt lat="42.4248118" lon="12.230498"><ele>454.0</ele><time>2026-04-12T07:41:07.993Z</time></trkpt><trkpt lat="42.424674" lon="12.2303404"><ele>456.0</ele><time>2026-04-12T07:41:08.994Z</time></trkpt><trkpt lat="42.4245619" lon="12.2302007"><ele>458.0</ele><time>2026-04-12T07:41:09.993Z</time></trkpt><trkpt lat="42.4244689" lon="12.2300748"><ele>458.0</ele><time>2026-04-12T07:41:10.993Z</time></trkpt><trkpt lat="42.4244185" lon="12.2299458"><ele>457.99999999999994</ele><time>2026-04-12T07:41:11.994Z</time></trkpt><trkpt lat="42.4243989" lon="12.2298164"><ele>457.99999999999994</ele><time>2026-04-12T07:41:12.993Z</time></trkpt><trkpt lat="42.4244022" lon="12.2296973"><ele>458.0</ele><time>2026-04-12T07:41:13.994Z</time></trkpt><trkpt lat="42.424434" lon="12.2295775"><ele>458.0</ele><time>2026-04-12T07:41:14.994Z</time></trkpt><trkpt lat="42.4244781" lon="12.2294174"><ele>456.0</ele><time>2026-04-12T07:41:15.994Z</time></trkpt><trkpt lat="42.4244766" lon="12.2292757"><ele>453.99999999999994</ele><time>2026-04-12T07:41:16.993Z</time></trkpt><trkpt lat="42.4244805" lon="12.2291384"><ele>451.99999999999994</ele><time>2026-04-12T07:41:17.994Z</time></trkpt><trkpt lat="42.424464" lon="12.2289808"><ele>450.0</ele><time>2026-04-12T07:41:18.994Z</time></trkpt><trkpt lat="42.4244028" lon="12.2288398"><ele>448.0</ele><time>2026-04-12T07:41:19.994Z</time></trkpt><trkpt lat="42.4241356" lon="12.2286819"><ele>445.25</ele><time>2026-04-12T07:41:20.994Z</time></trkpt><trkpt lat="42.4239885" lon="12.2285457"><ele>442.5</ele><time>2026-04-12T07:41:21.993Z</time></trkpt><trkpt lat="42.4239166" lon="12.228437"><ele>439.75</ele><time>2026-04-12T07:41:22.994Z</time></trkpt><trkpt lat="42.4238782" lon="12.2283146"><ele>437.0</ele><time>2026-04-12T07:41:23.994Z</time></trkpt><trkpt lat="42.4238518" lon="12.228179"><ele>439.0</ele><time>2026-04-12T07:41:24.993Z</time></trkpt><trkpt lat="42.4238385" lon="12.2280526"><ele>441.0</ele><time>2026-04-12T07:41:25.994Z</time></trkpt><trkpt lat="42.4239233" lon="12.2279388"><ele>443.0</ele><time>2026-04-12T07:41:26.994Z</time></trkpt><trkpt lat="42.4239812" lon="12.2278301"><ele>445.0</ele><time>2026-04-12T07:41:27.993Z</time></trkpt><trkpt lat="42.4240874" lon="12.2276951"><ele>445.0</ele><time>2026-04-12T07:41:28.994Z</time></trkpt><trkpt lat="42.4242022" lon="12.2276323"><ele>445.0</ele><time>2026-04-12T07:41:29.994Z</time></trkpt><trkpt lat="42.4244005" lon="12.2276121"><ele>445.0</ele><time>2026-04-12T07:41:30.993Z</time></trkpt><trkpt lat="42.4247168" lon="12.2277404"><ele>444.33333333333337</ele><time>2026-04-12T07:41:31.993Z</time></trkpt><trkpt lat="42.4249128" lon="12.2277564"><ele>443.66666666666663</ele><time>2026-04-12T07:41:32.994Z</time></trkpt><trkpt lat="42.4251102" lon="12.2277622"><ele>443.0</ele><time>2026-04-12T07:41:33.994Z</time></trkpt><trkpt lat="42.4252837" lon="12.2277647"><ele>443.0</ele><time>2026-04-12T07:41:34.994Z</time></trkpt><trkpt lat="42.425457" lon="12.2277638"><ele>443.0</ele><time>2026-04-12T07:41:35.993Z</time></trkpt><trkpt lat="42.4256162" lon="12.2277535"><ele>443.0</ele><time>2026-04-12T07:41:36.994Z</time></trkpt><trkpt lat="42.4257716" lon="12.2277458"><ele>441.3333333333333</ele><time>2026-04-12T07:41:37.993Z</time></trkpt><trkpt lat="42.4259249" lon="12.227723"><ele>439.66666666666663</ele><time>2026-04-12T07:41:38.993Z</time></trkpt><trkpt lat="42.4260729" lon="12.2277013"><ele>438.0</ele><time>2026-04-12T07:41:39.994Z</time></trkpt><trkpt lat="42.4262233" lon="12.2276815"><ele>436.0</ele><time>2026-04-12T07:41:40.994Z</time></trkpt><trkpt lat="42.4263716" lon="12.2276496"><ele>434.0</ele><time>2026-04-12T07:41:41.994Z</time></trkpt><trkpt lat="42.4265255" lon="12.2276206"><ele>432.0</ele><time>2026-04-12T07:41:42.994Z</time></trkpt><trkpt lat="42.4266716" lon="12.2275614"><ele>432.0</ele><time>2026-04-12T07:41:43.993Z</time></trkpt><trkpt lat="42.4268241" lon="12.2274684"><ele>432.0</ele><time>2026-04-12T07:41:44.993Z</time></trkpt><trkpt lat="42.426963" lon="12.2273668"><ele>432.0</ele><time>2026-04-12T07:41:45.993Z</time></trkpt><trkpt lat="42.427097" lon="12.2272423"><ele>431.66666666666663</ele><time>2026-04-12T07:41:46.994Z</time></trkpt><trkpt lat="42.4272295" lon="12.2271244"><ele>431.3333333333333</ele><time>2026-04-12T07:41:47.994Z</time></trkpt><trkpt lat="42.427357" lon="12.2270148"><ele>431.0</ele><time>2026-04-12T07:41:48.992Z</time></trkpt><trkpt lat="42.4274853" lon="12.2269027"><ele>431.0</ele><time>2026-04-12T07:41:49.994Z</time></trkpt><trkpt lat="42.4276113" lon="12.2267926"><ele>431.0</ele><time>2026-04-12T07:41:50.993Z</time></trkpt><trkpt lat="42.4277309" lon="12.2266822"><ele>431.0</ele><time>2026-04-12T07:41:51.993Z</time></trkpt><trkpt lat="42.4278509" lon="12.2265704"><ele>431.0</ele><time>2026-04-12T07:41:52.994Z</time></trkpt><trkpt lat="42.4279656" lon="12.2264486"><ele>429.0</ele><time>2026-04-12T07:41:53.993Z</time></trkpt><trkpt lat="42.4280786" lon="12.2263148"><ele>427.0</ele><time>2026-04-12T07:41:54.993Z</time></trkpt><trkpt lat="42.4281862" lon="12.2261746"><ele>425.0</ele><time>2026-04-12T07:41:55.994Z</time></trkpt><trkpt lat="42.4282906" lon="12.2260273"><ele>425.0</ele><time>2026-04-12T07:41:56.994Z</time></trkpt><trkpt lat="42.428394" lon="12.2258655"><ele>425.0</ele><time>2026-04-12T07:41:57.994Z</time></trkpt><trkpt lat="42.4284943" lon="12.2257089"><ele>425.0</ele><time>2026-04-12T07:41:58.993Z</time></trkpt><trkpt lat="42.4285886" lon="12.2255483"><ele>426.3333333333333</ele><time>2026-04-12T07:41:59.994Z</time></trkpt><trkpt lat="42.428683" lon="12.2253796"><ele>427.66666666666663</ele><time>2026-04-12T07:42:00.994Z</time></trkpt><trkpt lat="42.4287695" lon="12.2252071"><ele>429.0</ele><time>2026-04-12T07:42:01.994Z</time></trkpt><trkpt lat="42.4288544" lon="12.2250299"><ele>426.33333333333337</ele><time>2026-04-12T07:42:02.994Z</time></trkpt><trkpt lat="42.4289344" lon="12.2248464"><ele>423.6666666666667</ele><time>2026-04-12T07:42:03.993Z</time></trkpt><trkpt lat="42.429015" lon="12.2246606"><ele>421.0</ele><time>2026-04-12T07:42:04.994Z</time></trkpt><trkpt lat="42.4291064" lon="12.2245136"><ele>420.33333333333337</ele><time>2026-04-12T07:42:05.993Z</time></trkpt><trkpt lat="42.4292007" lon="12.2243462"><ele>419.66666666666663</ele><time>2026-04-12T07:42:06.993Z</time></trkpt><trkpt lat="42.4293134" lon="12.2242052"><ele>419.0</ele><time>2026-04-12T07:42:07.993Z</time></trkpt><trkpt lat="42.4294221" lon="12.2240457"><ele>420.3333333333333</ele><time>2026-04-12T07:42:08.993Z</time></trkpt><trkpt lat="42.4295185" lon="12.2238751"><ele>421.66666666666663</ele><time>2026-04-12T07:42:09.994Z</time></trkpt><trkpt lat="42.4296208" lon="12.223725"><ele>423.0</ele><time>2026-04-12T07:42:10.993Z</time></trkpt><trkpt lat="42.4297308" lon="12.2236015"><ele>423.0</ele><time>2026-04-12T07:42:11.993Z</time></trkpt><trkpt lat="42.4298475" lon="12.2234935"><ele>423.0</ele><time>2026-04-12T07:42:12.994Z</time></trkpt><trkpt lat="42.429973" lon="12.2234067"><ele>423.0</ele><time>2026-04-12T07:42:13.994Z</time></trkpt><trkpt lat="42.4300938" lon="12.2233654"><ele>423.0</ele><time>2026-04-12T07:42:14.994Z</time></trkpt><trkpt lat="42.4304163" lon="12.2234309"><ele>421.0</ele><time>2026-04-12T07:42:16.993Z</time></trkpt><trkpt lat="42.4305548" lon="12.223433"><ele>419.0</ele><time>2026-04-12T07:42:17.994Z</time></trkpt><trkpt lat="42.4306879" lon="12.2234148"><ele>417.0</ele><time>2026-04-12T07:42:18.994Z</time></trkpt><trkpt lat="42.4308035" lon="12.2233497"><ele>415.0</ele><time>2026-04-12T07:42:19.994Z</time></trkpt><trkpt lat="42.4309118" lon="12.2232757"><ele>415.0</ele><time>2026-04-12T07:42:20.993Z</time></trkpt><trkpt lat="42.4309865" lon="12.2231632"><ele>415.0</ele><time>2026-04-12T07:42:21.994Z</time></trkpt><trkpt lat="42.4310474" lon="12.2230391"><ele>415.0</ele><time>2026-04-12T07:42:22.994Z</time></trkpt><trkpt lat="42.4310773" lon="12.2228889"><ele>415.0</ele><time>2026-04-12T07:42:23.993Z</time></trkpt><trkpt lat="42.4310373" lon="12.2225511"><ele>416.5</ele><time>2026-04-12T07:42:24.993Z</time></trkpt><trkpt lat="42.4310434" lon="12.22235"><ele>418.0</ele><time>2026-04-12T07:42:25.993Z</time></trkpt><trkpt lat="42.4310563" lon="12.2221759"><ele>419.5</ele><time>2026-04-12T07:42:26.994Z</time></trkpt><trkpt lat="42.431066" lon="12.2220039"><ele>421.0</ele><time>2026-04-12T07:42:27.994Z</time></trkpt><trkpt lat="42.4310917" lon="12.2218818"><ele>421.8</ele><time>2026-04-12T07:42:28.994Z</time></trkpt><trkpt lat="42.4311702" lon="12.2217902"><ele>422.6</ele><time>2026-04-12T07:42:29.994Z</time></trkpt><trkpt lat="42.4312826" lon="12.2217196"><ele>423.4</ele><time>2026-04-12T07:42:30.994Z</time></trkpt><trkpt lat="42.4313664" lon="12.2216305"><ele>424.2</ele><time>2026-04-12T07:42:31.993Z</time></trkpt><trkpt lat="42.4314584" lon="12.2216076"><ele>425.0</ele><time>2026-04-12T07:42:32.994Z</time></trkpt><trkpt lat="42.4315514" lon="12.221609"><ele>422.25</ele><time>2026-04-12T07:42:33.994Z</time></trkpt><trkpt lat="42.4316352" lon="12.2216465"><ele>419.5</ele><time>2026-04-12T07:42:34.994Z</time></trkpt><trkpt lat="42.4317658" lon="12.2217261"><ele>416.75</ele><time>2026-04-12T07:42:35.994Z</time></trkpt><trkpt lat="42.4319429" lon="12.2218735"><ele>414.0</ele><time>2026-04-12T07:42:36.994Z</time></trkpt><trkpt lat="42.4320712" lon="12.2219712"><ele>413.75</ele><time>2026-04-12T07:42:37.994Z</time></trkpt><trkpt lat="42.4321978" lon="12.2220734"><ele>413.5</ele><time>2026-04-12T07:42:38.994Z</time></trkpt><trkpt lat="42.4323185" lon="12.2221676"><ele>413.25</ele><time>2026-04-12T07:42:39.994Z</time></trkpt><trkpt lat="42.4324515" lon="12.2222741"><ele>413.0</ele><time>2026-04-12T07:42:40.992Z</time></trkpt><trkpt lat="42.4325922" lon="12.2223706"><ele>413.0</ele><time>2026-04-12T07:42:41.994Z</time></trkpt><trkpt lat="42.432715" lon="12.2224648"><ele>413.0</ele><time>2026-04-12T07:42:42.993Z</time></trkpt><trkpt lat="42.4328337" lon="12.222533"><ele>413.0</ele><time>2026-04-12T07:42:43.994Z</time></trkpt><trkpt lat="42.4329644" lon="12.2225664"><ele>413.0</ele><time>2026-04-12T07:42:44.994Z</time></trkpt><trkpt lat="42.4331055" lon="12.2225603"><ele>415.25</ele><time>2026-04-12T07:42:45.994Z</time></trkpt><trkpt lat="42.4332488" lon="12.2225126"><ele>417.5</ele><time>2026-04-12T07:42:46.993Z</time></trkpt><trkpt lat="42.4333791" lon="12.2224402"><ele>419.75</ele><time>2026-04-12T07:42:47.993Z</time></trkpt><trkpt lat="42.4334968" lon="12.2223692"><ele>422.0</ele><time>2026-04-12T07:42:48.993Z</time></trkpt><trkpt lat="42.433615" lon="12.2222982"><ele>426.25</ele><time>2026-04-12T07:42:49.994Z</time></trkpt><trkpt lat="42.4337295" lon="12.2222287"><ele>430.5</ele><time>2026-04-12T07:42:50.994Z</time></trkpt><trkpt lat="42.4338455" lon="12.2221637"><ele>434.75</ele><time>2026-04-12T07:42:51.993Z</time></trkpt><trkpt lat="42.4339658" lon="12.2221176"><ele>439.0</ele><time>2026-04-12T07:42:52.994Z</time></trkpt><trkpt lat="42.4341" lon="12.2221133"><ele>439.0</ele><time>2026-04-12T07:42:53.994Z</time></trkpt><trkpt lat="42.4342438" lon="12.2221477"><ele>439.0</ele><time>2026-04-12T07:42:54.993Z</time></trkpt><trkpt lat="42.4343909" lon="12.2222036"><ele>439.0</ele><time>2026-04-12T07:42:55.994Z</time></trkpt><trkpt lat="42.43453" lon="12.2222718"><ele>439.0</ele><time>2026-04-12T07:42:56.993Z</time></trkpt><trkpt lat="42.434656" lon="12.222335"><ele>436.5</ele><time>2026-04-12T07:42:57.994Z</time></trkpt><trkpt lat="42.4347798" lon="12.2223921"><ele>434.0</ele><time>2026-04-12T07:42:58.994Z</time></trkpt><trkpt lat="42.4349096" lon="12.2224371"><ele>431.5</ele><time>2026-04-12T07:42:59.993Z</time></trkpt><trkpt lat="42.4350424" lon="12.2224448"><ele>429.0</ele><time>2026-04-12T07:43:00.993Z</time></trkpt><trkpt lat="42.4351656" lon="12.2224135"><ele>429.0</ele><time>2026-04-12T07:43:01.994Z</time></trkpt><trkpt lat="42.4352753" lon="12.2223332"><ele>429.0</ele><time>2026-04-12T07:43:02.993Z</time></trkpt><trkpt lat="42.4353634" lon="12.2222059"><ele>429.0</ele><time>2026-04-12T07:43:03.993Z</time></trkpt><trkpt lat="42.4354405" lon="12.2220606"><ele>429.0</ele><time>2026-04-12T07:43:04.994Z</time></trkpt><trkpt lat="42.4355243" lon="12.2218707"><ele>429.0</ele><time>2026-04-12T07:43:05.994Z</time></trkpt><trkpt lat="42.4356068" lon="12.2216954"><ele>429.0</ele><time>2026-04-12T07:43:06.993Z</time></trkpt><trkpt lat="42.4356821" lon="12.2215286"><ele>429.0</ele><time>2026-04-12T07:43:07.994Z</time></trkpt><trkpt lat="42.4357595" lon="12.2213626"><ele>429.0</ele><time>2026-04-12T07:43:08.994Z</time></trkpt><trkpt lat="42.4358313" lon="12.2211824"><ele>431.0</ele><time>2026-04-12T07:43:09.994Z</time></trkpt><trkpt lat="42.435889" lon="12.2209891"><ele>433.0</ele><time>2026-04-12T07:43:10.994Z</time></trkpt><trkpt lat="42.4359272" lon="12.2207825"><ele>435.0</ele><time>2026-04-12T07:43:11.994Z</time></trkpt><trkpt lat="42.4359498" lon="12.2205643"><ele>436.33333333333337</ele><time>2026-04-12T07:43:12.994Z</time></trkpt><trkpt lat="42.4359665" lon="12.2203501"><ele>437.6666666666667</ele><time>2026-04-12T07:43:13.994Z</time></trkpt><trkpt lat="42.4359814" lon="12.2201412"><ele>439.0</ele><time>2026-04-12T07:43:14.994Z</time></trkpt><trkpt lat="42.4360014" lon="12.219941"><ele>439.5</ele><time>2026-04-12T07:43:15.993Z</time></trkpt><trkpt lat="42.4360292" lon="12.2197538"><ele>440.0</ele><time>2026-04-12T07:43:16.994Z</time></trkpt><trkpt lat="42.4360705" lon="12.2195811"><ele>440.5</ele><time>2026-04-12T07:43:17.994Z</time></trkpt><trkpt lat="42.4361231" lon="12.2194189"><ele>441.0</ele><time>2026-04-12T07:43:18.993Z</time></trkpt><trkpt lat="42.4361816" lon="12.2192597"><ele>441.0</ele><time>2026-04-12T07:43:19.994Z</time></trkpt><trkpt lat="42.4362501" lon="12.2190946"><ele>441.0</ele><time>2026-04-12T07:43:20.994Z</time></trkpt><trkpt lat="42.4363225" lon="12.218934"><ele>441.0</ele><time>2026-04-12T07:43:21.993Z</time></trkpt><trkpt lat="42.4364356" lon="12.2188254"><ele>441.0</ele><time>2026-04-12T07:43:22.993Z</time></trkpt><trkpt lat="42.4365952" lon="12.2187732"><ele>440.66666666666663</ele><time>2026-04-12T07:43:23.994Z</time></trkpt><trkpt lat="42.4367121" lon="12.2186856"><ele>440.3333333333333</ele><time>2026-04-12T07:43:24.994Z</time></trkpt><trkpt lat="42.4368887" lon="12.2186297"><ele>440.0</ele><time>2026-04-12T07:43:25.994Z</time></trkpt><trkpt lat="42.4369687" lon="12.2184561"><ele>440.0</ele><time>2026-04-12T07:43:26.993Z</time></trkpt><trkpt lat="42.4370631" lon="12.2182855"><ele>440.0</ele><time>2026-04-12T07:43:27.993Z</time></trkpt><trkpt lat="42.4371483" lon="12.2181403"><ele>440.0</ele><time>2026-04-12T07:43:28.994Z</time></trkpt><trkpt lat="42.4372258" lon="12.2180066"><ele>440.0</ele><time>2026-04-12T07:43:29.994Z</time></trkpt><trkpt lat="42.4373037" lon="12.2178739"><ele>438.75</ele><time>2026-04-12T07:43:30.994Z</time></trkpt><trkpt lat="42.4373759" lon="12.2177325"><ele>437.5</ele><time>2026-04-12T07:43:31.994Z</time></trkpt><trkpt lat="42.4374477" lon="12.2176038"><ele>436.25</ele><time>2026-04-12T07:43:32.994Z</time></trkpt><trkpt lat="42.4375256" lon="12.217486"><ele>435.0</ele><time>2026-04-12T07:43:33.994Z</time></trkpt><trkpt lat="42.4376133" lon="12.2174005"><ele>435.0</ele><time>2026-04-12T07:43:34.994Z</time></trkpt><trkpt lat="42.4377137" lon="12.217343"><ele>435.0</ele><time>2026-04-12T07:43:35.993Z</time></trkpt><trkpt lat="42.4378205" lon="12.2173374"><ele>435.0</ele><time>2026-04-12T07:43:36.994Z</time></trkpt><trkpt lat="42.4379305" lon="12.2173642"><ele>435.0</ele><time>2026-04-12T07:43:37.994Z</time></trkpt><trkpt lat="42.4380387" lon="12.2174266"><ele>435.0</ele><time>2026-04-12T07:43:38.994Z</time></trkpt><trkpt lat="42.4381574" lon="12.2175245"><ele>433.0</ele><time>2026-04-12T07:43:39.994Z</time></trkpt><trkpt lat="42.4383095" lon="12.2175662"><ele>431.0</ele><time>2026-04-12T07:43:40.994Z</time></trkpt><trkpt lat="42.4384496" lon="12.217671"><ele>429.0</ele><time>2026-04-12T07:43:41.994Z</time></trkpt><trkpt lat="42.4386158" lon="12.2176638"><ele>429.0</ele><time>2026-04-12T07:43:42.994Z</time></trkpt><trkpt lat="42.4387498" lon="12.2176644"><ele>429.0</ele><time>2026-04-12T07:43:43.994Z</time></trkpt><trkpt lat="42.4388555" lon="12.2176395"><ele>429.0</ele><time>2026-04-12T07:43:44.994Z</time></trkpt><trkpt lat="42.4389384" lon="12.2175507"><ele>429.0</ele><time>2026-04-12T07:43:45.994Z</time></trkpt><trkpt lat="42.4389934" lon="12.217412"><ele>426.66666666666663</ele><time>2026-04-12T07:43:46.993Z</time></trkpt><trkpt lat="42.4390487" lon="12.2172703"><ele>424.3333333333333</ele><time>2026-04-12T07:43:47.993Z</time></trkpt><trkpt lat="42.4390588" lon="12.2170114"><ele>422.0</ele><time>2026-04-12T07:43:48.994Z</time></trkpt><trkpt lat="42.4390914" lon="12.2168187"><ele>422.0</ele><time>2026-04-12T07:43:49.994Z</time></trkpt><trkpt lat="42.4391319" lon="12.2166322"><ele>422.0</ele><time>2026-04-12T07:43:50.994Z</time></trkpt><trkpt lat="42.4391974" lon="12.2164587"><ele>422.0</ele><time>2026-04-12T07:43:51.994Z</time></trkpt><trkpt lat="42.4392901" lon="12.2163086"><ele>422.0</ele><time>2026-04-12T07:43:52.992Z</time></trkpt><trkpt lat="42.4394128" lon="12.2161772"><ele>424.25</ele><time>2026-04-12T07:43:53.994Z</time></trkpt><trkpt lat="42.4395253" lon="12.2160566"><ele>426.5</ele><time>2026-04-12T07:43:54.994Z</time></trkpt><trkpt lat="42.4396291" lon="12.2159372"><ele>428.75</ele><time>2026-04-12T07:43:55.994Z</time></trkpt><trkpt lat="42.4397205" lon="12.215822"><ele>431.0</ele><time>2026-04-12T07:43:56.994Z</time></trkpt><trkpt lat="42.4397839" lon="12.2156813"><ele>427.8</ele><time>2026-04-12T07:43:57.994Z</time></trkpt><trkpt lat="42.4398199" lon="12.2155195"><ele>424.6</ele><time>2026-04-12T07:43:58.994Z</time></trkpt><trkpt lat="42.4398407" lon="12.2153831"><ele>421.4</ele><time>2026-04-12T07:43:59.993Z</time></trkpt><trkpt lat="42.4398456" lon="12.2152411"><ele>418.2</ele><time>2026-04-12T07:44:00.994Z</time></trkpt><trkpt lat="42.4398451" lon="12.2151008"><ele>415.0</ele><time>2026-04-12T07:44:01.994Z</time></trkpt><trkpt lat="42.4398482" lon="12.2149532"><ele>413.4</ele><time>2026-04-12T07:44:02.993Z</time></trkpt><trkpt lat="42.4398498" lon="12.2147771"><ele>411.8</ele><time>2026-04-12T07:44:03.994Z</time></trkpt><trkpt lat="42.4398489" lon="12.2146075"><ele>410.20000000000005</ele><time>2026-04-12T07:44:04.994Z</time></trkpt><trkpt lat="42.4398693" lon="12.2144904"><ele>408.6</ele><time>2026-04-12T07:44:05.994Z</time></trkpt><trkpt lat="42.4398071" lon="12.214378"><ele>407.0</ele><time>2026-04-12T07:44:06.994Z</time></trkpt><trkpt lat="42.4397455" lon="12.2142454"><ele>407.0</ele><time>2026-04-12T07:44:07.994Z</time></trkpt><trkpt lat="42.4396603" lon="12.2141241"><ele>407.0</ele><time>2026-04-12T07:44:08.994Z</time></trkpt><trkpt lat="42.4395569" lon="12.2140149"><ele>407.0</ele><time>2026-04-12T07:44:09.993Z</time></trkpt><trkpt lat="42.4394435" lon="12.2139232"><ele>407.0</ele><time>2026-04-12T07:44:10.994Z</time></trkpt><trkpt lat="42.4393488" lon="12.2138243"><ele>407.75</ele><time>2026-04-12T07:44:11.994Z</time></trkpt><trkpt lat="42.4392724" lon="12.2136989"><ele>408.5</ele><time>2026-04-12T07:44:12.994Z</time></trkpt><trkpt lat="42.439228" lon="12.2135574"><ele>409.25</ele><time>2026-04-12T07:44:13.994Z</time></trkpt><trkpt lat="42.4392175" lon="12.2133592"><ele>410.0</ele><time>2026-04-12T07:44:14.993Z</time></trkpt><trkpt lat="42.4391582" lon="12.2131809"><ele>406.0</ele><time>2026-04-12T07:44:15.994Z</time></trkpt><trkpt lat="42.4390646" lon="12.2130094"><ele>402.0</ele><time>2026-04-12T07:44:16.993Z</time></trkpt><trkpt lat="42.438955" lon="12.2128501"><ele>398.0</ele><time>2026-04-12T07:44:17.994Z</time></trkpt><trkpt lat="42.4388474" lon="12.2127082"><ele>397.75</ele><time>2026-04-12T07:44:18.993Z</time></trkpt><trkpt lat="42.438739" lon="12.2125701"><ele>397.5</ele><time>2026-04-12T07:44:19.992Z</time></trkpt><trkpt lat="42.4386332" lon="12.2124438"><ele>397.25</ele><time>2026-04-12T07:44:20.994Z</time></trkpt><trkpt lat="42.4385229" lon="12.212318"><ele>397.0</ele><time>2026-04-12T07:44:21.993Z</time></trkpt><trkpt lat="42.4384086" lon="12.2121909"><ele>397.0</ele><time>2026-04-12T07:44:22.994Z</time></trkpt><trkpt lat="42.4382877" lon="12.2120565"><ele>397.0</ele><time>2026-04-12T07:44:23.994Z</time></trkpt><trkpt lat="42.4381687" lon="12.2119149"><ele>397.0</ele><time>2026-04-12T07:44:24.994Z</time></trkpt><trkpt lat="42.4380401" lon="12.2117756"><ele>399.0</ele><time>2026-04-12T07:44:25.993Z</time></trkpt><trkpt lat="42.4379257" lon="12.2116419"><ele>401.0</ele><time>2026-04-12T07:44:26.993Z</time></trkpt><trkpt lat="42.4378074" lon="12.2115103"><ele>403.0</ele><time>2026-04-12T07:44:27.994Z</time></trkpt><trkpt lat="42.4376927" lon="12.2113805"><ele>399.0</ele><time>2026-04-12T07:44:28.993Z</time></trkpt><trkpt lat="42.4375823" lon="12.2112514"><ele>395.0</ele><time>2026-04-12T07:44:29.994Z</time></trkpt><trkpt lat="42.4374767" lon="12.2111245"><ele>391.0</ele><time>2026-04-12T07:44:30.994Z</time></trkpt><trkpt lat="42.4373686" lon="12.2110058"><ele>387.0</ele><time>2026-04-12T07:44:31.994Z</time></trkpt><trkpt lat="42.4372702" lon="12.2108946"><ele>387.0</ele><time>2026-04-12T07:44:32.994Z</time></trkpt><trkpt lat="42.4371634" lon="12.2108004"><ele>387.0</ele><time>2026-04-12T07:44:33.992Z</time></trkpt><trkpt lat="42.4370525" lon="12.2107191"><ele>387.0</ele><time>2026-04-12T07:44:34.994Z</time></trkpt><trkpt lat="42.4369148" lon="12.2106644"><ele>387.0</ele><time>2026-04-12T07:44:35.994Z</time></trkpt><trkpt lat="42.436773" lon="12.2106047"><ele>387.5</ele><time>2026-04-12T07:44:36.994Z</time></trkpt><trkpt lat="42.4366358" lon="12.210547"><ele>388.0</ele><time>2026-04-12T07:44:37.993Z</time></trkpt><trkpt lat="42.436504" lon="12.2104869"><ele>388.5</ele><time>2026-04-12T07:44:38.993Z</time></trkpt><trkpt lat="42.4363891" lon="12.2104069"><ele>389.0</ele><time>2026-04-12T07:44:39.994Z</time></trkpt><trkpt lat="42.436307" lon="12.2103303"><ele>390.79999999999995</ele><time>2026-04-12T07:44:40.994Z</time></trkpt><trkpt lat="42.4362172" lon="12.2102447"><ele>392.59999999999997</ele><time>2026-04-12T07:44:41.994Z</time></trkpt><trkpt lat="42.4361733" lon="12.2101653"><ele>394.4</ele><time>2026-04-12T07:44:42.994Z</time></trkpt><trkpt lat="42.4361964" lon="12.2100064"><ele>396.2</ele><time>2026-04-12T07:44:43.994Z</time></trkpt><trkpt lat="42.4362416" lon="12.2098879"><ele>398.0</ele><time>2026-04-12T07:44:44.993Z</time></trkpt><trkpt lat="42.4363" lon="12.2097732"><ele>400.5</ele><time>2026-04-12T07:44:45.994Z</time></trkpt><trkpt lat="42.4363759" lon="12.2096888"><ele>403.0</ele><time>2026-04-12T07:44:46.994Z</time></trkpt><trkpt lat="42.4364975" lon="12.2096097"><ele>405.5</ele><time>2026-04-12T07:44:47.994Z</time></trkpt><trkpt lat="42.4367038" lon="12.2095717"><ele>408.0</ele><time>2026-04-12T07:44:48.993Z</time></trkpt><trkpt lat="42.4368883" lon="12.2095044"><ele>408.0</ele><time>2026-04-12T07:44:49.994Z</time></trkpt><trkpt lat="42.4370481" lon="12.2094216"><ele>408.0</ele><time>2026-04-12T07:44:50.994Z</time></trkpt><trkpt lat="42.4372075" lon="12.2093195"><ele>408.0</ele><time>2026-04-12T07:44:51.994Z</time></trkpt><trkpt lat="42.4375059" lon="12.2089501"><ele>410.33333333333337</ele><time>2026-04-12T07:44:53.994Z</time></trkpt><trkpt lat="42.4376465" lon="12.2087416"><ele>412.6666666666667</ele><time>2026-04-12T07:44:54.993Z</time></trkpt><trkpt lat="42.4377957" lon="12.2085164"><ele>415.0</ele><time>2026-04-12T07:44:55.993Z</time></trkpt><trkpt lat="42.4379556" lon="12.2082977"><ele>412.6666666666667</ele><time>2026-04-12T07:44:56.994Z</time></trkpt><trkpt lat="42.4381193" lon="12.2080995"><ele>410.33333333333337</ele><time>2026-04-12T07:44:57.994Z</time></trkpt><trkpt lat="42.4382816" lon="12.2079029"><ele>408.0</ele><time>2026-04-12T07:44:58.994Z</time></trkpt><trkpt lat="42.4384396" lon="12.2077389"><ele>408.0</ele><time>2026-04-12T07:44:59.992Z</time></trkpt><trkpt lat="42.4385785" lon="12.2075858"><ele>408.0</ele><time>2026-04-12T07:45:00.994Z</time></trkpt><trkpt lat="42.4387239" lon="12.207413"><ele>408.0</ele><time>2026-04-12T07:45:01.994Z</time></trkpt><trkpt lat="42.4388596" lon="12.207248"><ele>404.0</ele><time>2026-04-12T07:45:02.994Z</time></trkpt><trkpt lat="42.4389902" lon="12.2070903"><ele>400.0</ele><time>2026-04-12T07:45:03.994Z</time></trkpt><trkpt lat="42.4391175" lon="12.2069276"><ele>396.0</ele><time>2026-04-12T07:45:04.994Z</time></trkpt><trkpt lat="42.4392428" lon="12.2067855"><ele>396.0</ele><time>2026-04-12T07:45:05.994Z</time></trkpt><trkpt lat="42.439362" lon="12.2066379"><ele>396.0</ele><time>2026-04-12T07:45:06.994Z</time></trkpt><trkpt lat="42.4394785" lon="12.2064877"><ele>396.0</ele><time>2026-04-12T07:45:07.993Z</time></trkpt><trkpt lat="42.4395886" lon="12.2063466"><ele>392.25</ele><time>2026-04-12T07:45:08.994Z</time></trkpt><trkpt lat="42.4396946" lon="12.2062066"><ele>388.5</ele><time>2026-04-12T07:45:09.994Z</time></trkpt><trkpt lat="42.4397916" lon="12.2060603"><ele>384.75</ele><time>2026-04-12T07:45:10.994Z</time></trkpt><trkpt lat="42.4398709" lon="12.2059054"><ele>381.0</ele><time>2026-04-12T07:45:11.994Z</time></trkpt><trkpt lat="42.4399284" lon="12.2057552"><ele>381.6</ele><time>2026-04-12T07:45:12.994Z</time></trkpt><trkpt lat="42.4399704" lon="12.2056207"><ele>382.20000000000005</ele><time>2026-04-12T07:45:13.994Z</time></trkpt><trkpt lat="42.4400008" lon="12.2055175"><ele>382.79999999999995</ele><time>2026-04-12T07:45:14.994Z</time></trkpt><trkpt lat="42.4400478" lon="12.2053867"><ele>383.4</ele><time>2026-04-12T07:45:16.993Z</time></trkpt><trkpt lat="42.440114" lon="12.2053052"><ele>384.0</ele><time>2026-04-12T07:45:18.994Z</time></trkpt><trkpt lat="42.4401597" lon="12.2052279"><ele>384.0</ele><time>2026-04-12T07:45:19.993Z</time></trkpt><trkpt lat="42.4402169" lon="12.2051239"><ele>384.0</ele><time>2026-04-12T07:45:20.994Z</time></trkpt><trkpt lat="42.4402715" lon="12.2050038"><ele>384.0</ele><time>2026-04-12T07:45:21.994Z</time></trkpt><trkpt lat="42.4403089" lon="12.2048535"><ele>384.0</ele><time>2026-04-12T07:45:22.994Z</time></trkpt><trkpt lat="42.4403172" lon="12.2046959"><ele>384.0</ele><time>2026-04-12T07:45:23.994Z</time></trkpt><trkpt lat="42.4402889" lon="12.2045346"><ele>382.75</ele><time>2026-04-12T07:45:24.993Z</time></trkpt><trkpt lat="42.4402345" lon="12.2043833"><ele>381.5</ele><time>2026-04-12T07:45:25.993Z</time></trkpt><trkpt lat="42.440146" lon="12.2042891"><ele>380.25</ele><time>2026-04-12T07:45:26.994Z</time></trkpt><trkpt lat="42.4400417" lon="12.20422"><ele>379.0</ele><time>2026-04-12T07:45:27.994Z</time></trkpt><trkpt lat="42.4398525" lon="12.2041574"><ele>379.0</ele><time>2026-04-12T07:45:29.993Z</time></trkpt><trkpt lat="42.4397732" lon="12.2040799"><ele>379.0</ele><time>2026-04-12T07:45:30.993Z</time></trkpt><trkpt lat="42.4397052" lon="12.2039724"><ele>379.0</ele><time>2026-04-12T07:45:31.994Z</time></trkpt><trkpt lat="42.4396481" lon="12.2037915"><ele>379.0</ele><time>2026-04-12T07:45:32.992Z</time></trkpt><trkpt lat="42.4395942" lon="12.2036457"><ele>378.4</ele><time>2026-04-12T07:45:33.994Z</time></trkpt><trkpt lat="42.4395408" lon="12.2035127"><ele>377.79999999999995</ele><time>2026-04-12T07:45:34.994Z</time></trkpt><trkpt lat="42.4394545" lon="12.2034452"><ele>377.20000000000005</ele><time>2026-04-12T07:45:35.993Z</time></trkpt><trkpt lat="42.4393644" lon="12.2033757"><ele>376.6</ele><time>2026-04-12T07:45:36.994Z</time></trkpt><trkpt lat="42.4392714" lon="12.203331"><ele>376.0</ele><time>2026-04-12T07:45:37.993Z</time></trkpt><trkpt lat="42.4391928" lon="12.2032914"><ele>376.0</ele><time>2026-04-12T07:45:38.993Z</time></trkpt><trkpt lat="42.4391122" lon="12.2032525"><ele>376.0</ele><time>2026-04-12T07:45:39.994Z</time></trkpt><trkpt lat="42.439055" lon="12.2031675"><ele>376.0</ele><time>2026-04-12T07:45:40.994Z</time></trkpt><trkpt lat="42.4390065" lon="12.2030849"><ele>376.0</ele><time>2026-04-12T07:45:41.994Z</time></trkpt><trkpt lat="42.4389705" lon="12.2029779"><ele>376.0</ele><time>2026-04-12T07:45:42.993Z</time></trkpt><trkpt lat="42.4389501" lon="12.2028728"><ele>376.0</ele><time>2026-04-12T07:45:43.994Z</time></trkpt><trkpt lat="42.4389055" lon="12.2027555"><ele>376.0</ele><time>2026-04-12T07:45:45.994Z</time></trkpt><trkpt lat="42.4388333" lon="12.2027453"><ele>376.0</ele><time>2026-04-12T07:45:48.994Z</time></trkpt><trkpt lat="42.4387673" lon="12.2027872"><ele>376.0</ele><time>2026-04-12T07:45:50.993Z</time></trkpt><trkpt lat="42.4386732" lon="12.202873"><ele>376.0</ele><time>2026-04-12T07:45:52.993Z</time></trkpt><trkpt lat="42.4386141" lon="12.2029151"><ele>376.0</ele><time>2026-04-12T07:45:53.994Z</time></trkpt><trkpt lat="42.4385465" lon="12.2029885"><ele>376.0</ele><time>2026-04-12T07:45:55.993Z</time></trkpt><trkpt lat="42.438548" lon="12.2030831"><ele>377.0</ele><time>2026-04-12T07:47:00.993Z</time></trkpt><trkpt lat="42.4384875" lon="12.2030176"><ele>378.0</ele><time>2026-04-12T07:50:37.994Z</time></trkpt><trkpt lat="42.4384174" lon="12.2031831"><ele>379.0</ele><time>2026-04-12T07:50:40.994Z</time></trkpt><trkpt lat="42.4383701" lon="12.2032798"><ele>380.0</ele><time>2026-04-12T07:50:42.993Z</time></trkpt><trkpt lat="42.4383088" lon="12.2033528"><ele>381.0</ele><time>2026-04-12T07:50:44.993Z</time></trkpt><trkpt lat="42.4382001" lon="12.203453"><ele>381.0</ele><time>2026-04-12T07:50:46.994Z</time></trkpt><trkpt lat="42.4381242" lon="12.2035478"><ele>381.0</ele><time>2026-04-12T07:50:48.994Z</time></trkpt><trkpt lat="42.4380767" lon="12.2036205"><ele>381.0</ele><time>2026-04-12T07:50:50.994Z</time></trkpt><trkpt lat="42.4380692" lon="12.203738"><ele>381.0</ele><time>2026-04-12T07:50:53.994Z</time></trkpt><trkpt lat="42.4380222" lon="12.2038015"><ele>381.0</ele><time>2026-04-12T07:50:55.993Z</time></trkpt><trkpt lat="42.4379442" lon="12.2038517"><ele>381.0</ele><time>2026-04-12T07:50:57.994Z</time></trkpt><trkpt lat="42.4378921" lon="12.2039043"><ele>384.1666666666667</ele><time>2026-04-12T07:50:58.993Z</time></trkpt><trkpt lat="42.4378148" lon="12.2039821"><ele>387.33333333333337</ele><time>2026-04-12T07:51:00.994Z</time></trkpt><trkpt lat="42.4377487" lon="12.2040518"><ele>390.5</ele><time>2026-04-12T07:51:02.994Z</time></trkpt><trkpt lat="42.4376989" lon="12.2041193"><ele>393.6666666666667</ele><time>2026-04-12T07:51:04.994Z</time></trkpt><trkpt lat="42.4376349" lon="12.2041911"><ele>396.83333333333337</ele><time>2026-04-12T07:51:07.994Z</time></trkpt><trkpt lat="42.4375701" lon="12.2042564"><ele>400.0</ele><time>2026-04-12T07:51:09.993Z</time></trkpt><trkpt lat="42.4375064" lon="12.2043175"><ele>400.0</ele><time>2026-04-12T07:51:11.994Z</time></trkpt><trkpt lat="42.4374487" lon="12.2043763"><ele>400.0</ele><time>2026-04-12T07:51:13.994Z</time></trkpt><trkpt lat="42.4373863" lon="12.2044306"><ele>400.0</ele><time>2026-04-12T07:51:15.994Z</time></trkpt><trkpt lat="42.4373141" lon="12.2044692"><ele>400.0</ele><time>2026-04-12T07:51:16.994Z</time></trkpt><trkpt lat="42.4371965" lon="12.2045508"><ele>400.0</ele><time>2026-04-12T07:51:18.994Z</time></trkpt><trkpt lat="42.4370984" lon="12.2046445"><ele>402.4</ele><time>2026-04-12T07:51:20.994Z</time></trkpt><trkpt lat="42.437005" lon="12.2047178"><ele>404.8</ele><time>2026-04-12T07:51:22.993Z</time></trkpt><trkpt lat="42.4369132" lon="12.2047871"><ele>407.20000000000005</ele><time>2026-04-12T07:51:24.993Z</time></trkpt><trkpt lat="42.4368744" lon="12.2048714"><ele>409.6</ele><time>2026-04-12T07:51:25.994Z</time></trkpt><trkpt lat="42.43683" lon="12.2049791"><ele>412.0</ele><time>2026-04-12T07:51:27.994Z</time></trkpt><trkpt lat="42.4367923" lon="12.2050789"><ele>412.0</ele><time>2026-04-12T07:51:29.993Z</time></trkpt><trkpt lat="42.4367251" lon="12.2051467"><ele>412.0</ele><time>2026-04-12T07:51:31.994Z</time></trkpt><trkpt lat="42.4366485" lon="12.2051708"><ele>412.0</ele><time>2026-04-12T07:51:32.994Z</time></trkpt><trkpt lat="42.436565" lon="12.2051977"><ele>412.0</ele><time>2026-04-12T07:51:34.994Z</time></trkpt><trkpt lat="42.4364925" lon="12.2052895"><ele>412.0</ele><time>2026-04-12T07:51:36.994Z</time></trkpt><trkpt lat="42.4363822" lon="12.2053769"><ele>412.40000000000003</ele><time>2026-04-12T07:51:38.994Z</time></trkpt><trkpt lat="42.4362872" lon="12.2054537"><ele>412.8</ele><time>2026-04-12T07:51:40.993Z</time></trkpt><trkpt lat="42.4362383" lon="12.2055417"><ele>413.2</ele><time>2026-04-12T07:51:42.993Z</time></trkpt><trkpt lat="42.4361388" lon="12.2056201"><ele>413.6</ele><time>2026-04-12T07:51:44.993Z</time></trkpt><trkpt lat="42.4360775" lon="12.2057031"><ele>414.0</ele><time>2026-04-12T07:51:46.993Z</time></trkpt><trkpt lat="42.4360069" lon="12.2057259"><ele>414.0</ele><time>2026-04-12T07:51:48.993Z</time></trkpt><trkpt lat="42.4359469" lon="12.2056937"><ele>414.0</ele><time>2026-04-12T07:52:05.993Z</time></trkpt><trkpt lat="42.4358587" lon="12.2058117"><ele>414.0</ele><time>2026-04-12T07:52:18.993Z</time></trkpt><trkpt lat="42.4357917" lon="12.2058809"><ele>414.0</ele><time>2026-04-12T07:52:20.994Z</time></trkpt><trkpt lat="42.4357375" lon="12.2059287"><ele>414.0</ele><time>2026-04-12T07:52:22.994Z</time></trkpt><trkpt lat="42.4356747" lon="12.205996"><ele>414.0</ele><time>2026-04-12T07:52:24.993Z</time></trkpt><trkpt lat="42.4355931" lon="12.2060219"><ele>414.0</ele><time>2026-04-12T07:52:27.994Z</time></trkpt><trkpt lat="42.4355304" lon="12.2059836"><ele>414.0</ele><time>2026-04-12T07:52:29.994Z</time></trkpt><trkpt lat="42.4354287" lon="12.2059791"><ele>414.0</ele><time>2026-04-12T07:52:32.994Z</time></trkpt><trkpt lat="42.4353474" lon="12.2060185"><ele>414.0</ele><time>2026-04-12T07:52:34.993Z</time></trkpt><trkpt lat="42.4352936" lon="12.2060816"><ele>414.0</ele><time>2026-04-12T07:52:36.994Z</time></trkpt><trkpt lat="42.4352349" lon="12.2061405"><ele>414.0</ele><time>2026-04-12T07:52:38.994Z</time></trkpt><trkpt lat="42.4351498" lon="12.2062113"><ele>416.14285714285717</ele><time>2026-04-12T07:52:40.994Z</time></trkpt><trkpt lat="42.4351153" lon="12.2062828"><ele>418.2857142857143</ele><time>2026-04-12T07:52:42.993Z</time></trkpt><trkpt lat="42.4350634" lon="12.2063632"><ele>420.42857142857144</ele><time>2026-04-12T07:52:45.994Z</time></trkpt><trkpt lat="42.4349949" lon="12.2064072"><ele>422.57142857142856</ele><time>2026-04-12T07:52:48.993Z</time></trkpt><trkpt lat="42.4349225" lon="12.2064269"><ele>424.7142857142857</ele><time>2026-04-12T07:52:50.993Z</time></trkpt><trkpt lat="42.4348511" lon="12.2064335"><ele>426.8571428571429</ele><time>2026-04-12T07:52:52.994Z</time></trkpt><trkpt lat="42.4347718" lon="12.2064367"><ele>429.0</ele><time>2026-04-12T07:52:54.994Z</time></trkpt><trkpt lat="42.4346955" lon="12.2064335"><ele>432.0</ele><time>2026-04-12T07:52:56.994Z</time></trkpt><trkpt lat="42.4346229" lon="12.2064437"><ele>435.0</ele><time>2026-04-12T07:52:58.994Z</time></trkpt><trkpt lat="42.4345491" lon="12.2064688"><ele>438.0</ele><time>2026-04-12T07:53:00.994Z</time></trkpt><trkpt lat="42.4344749" lon="12.2064836"><ele>441.0</ele><time>2026-04-12T07:53:03.994Z</time></trkpt><trkpt lat="42.4344121" lon="12.2064606"><ele>444.0</ele><time>2026-04-12T07:53:05.992Z</time></trkpt><trkpt lat="42.4343352" lon="12.2064263"><ele>447.00000000000006</ele><time>2026-04-12T07:53:09.994Z</time></trkpt><trkpt lat="42.4342576" lon="12.206413"><ele>450.00000000000006</ele><time>2026-04-12T07:53:23.994Z</time></trkpt><trkpt lat="42.434178" lon="12.2064158"><ele>450.0</ele><time>2026-04-12T07:53:25.994Z</time></trkpt><trkpt lat="42.4341074" lon="12.2063814"><ele>450.0</ele><time>2026-04-12T07:53:28.994Z</time></trkpt><trkpt lat="42.4339713" lon="12.2064189"><ele>450.0</ele><time>2026-04-12T07:53:31.994Z</time></trkpt><trkpt lat="42.4339122" lon="12.2063595"><ele>450.0</ele><time>2026-04-12T07:53:43.994Z</time></trkpt><trkpt lat="42.4338807" lon="12.206269"><ele>450.0</ele><time>2026-04-12T07:53:45.994Z</time></trkpt><trkpt lat="42.4338444" lon="12.2061722"><ele>450.0</ele><time>2026-04-12T07:53:47.994Z</time></trkpt><trkpt lat="42.4338095" lon="12.2060858"><ele>452.6666666666667</ele><time>2026-04-12T07:53:49.994Z</time></trkpt><trkpt lat="42.4337583" lon="12.2059727"><ele>455.33333333333337</ele><time>2026-04-12T07:53:52.994Z</time></trkpt><trkpt lat="42.4336717" lon="12.2058763"><ele>458.0</ele><time>2026-04-12T07:53:55.994Z</time></trkpt><trkpt lat="42.4336067" lon="12.2058285"><ele>460.6666666666667</ele><time>2026-04-12T07:53:57.992Z</time></trkpt><trkpt lat="42.4335464" lon="12.2057792"><ele>463.33333333333337</ele><time>2026-04-12T07:53:59.994Z</time></trkpt><trkpt lat="42.4334908" lon="12.205722"><ele>466.0</ele><time>2026-04-12T07:54:01.994Z</time></trkpt><trkpt lat="42.4334271" lon="12.2056507"><ele>467.50000000000006</ele><time>2026-04-12T07:54:03.994Z</time></trkpt><trkpt lat="42.4333655" lon="12.2055669"><ele>469.0</ele><time>2026-04-12T07:54:05.993Z</time></trkpt><trkpt lat="42.4333089" lon="12.2055116"><ele>470.5</ele><time>2026-04-12T07:54:07.994Z</time></trkpt><trkpt lat="42.4332465" lon="12.205457"><ele>472.0</ele><time>2026-04-12T07:54:09.994Z</time></trkpt><trkpt lat="42.4331857" lon="12.2053757"><ele>473.50000000000006</ele><time>2026-04-12T07:54:11.993Z</time></trkpt><trkpt lat="42.4331329" lon="12.2053118"><ele>475.0</ele><time>2026-04-12T07:54:13.994Z</time></trkpt><trkpt lat="42.4330992" lon="12.2052134"><ele>475.00000000000006</ele><time>2026-04-12T07:54:15.993Z</time></trkpt><trkpt lat="42.4330594" lon="12.2051326"><ele>475.0</ele><time>2026-04-12T07:54:17.994Z</time></trkpt><trkpt lat="42.4329983" lon="12.205054"><ele>475.0</ele><time>2026-04-12T07:54:19.994Z</time></trkpt><trkpt lat="42.4329214" lon="12.2049881"><ele>475.0</ele><time>2026-04-12T07:54:21.993Z</time></trkpt><trkpt lat="42.4328415" lon="12.2049609"><ele>475.00000000000006</ele><time>2026-04-12T07:54:23.994Z</time></trkpt><trkpt lat="42.4327746" lon="12.2049281"><ele>475.0</ele><time>2026-04-12T07:54:25.994Z</time></trkpt><trkpt lat="42.4327038" lon="12.2049014"><ele>476.33333333333337</ele><time>2026-04-12T07:54:27.993Z</time></trkpt><trkpt lat="42.4326342" lon="12.2048861"><ele>477.6666666666667</ele><time>2026-04-12T07:54:30.994Z</time></trkpt><trkpt lat="42.4325937" lon="12.2048106"><ele>479.0</ele><time>2026-04-12T07:54:39.994Z</time></trkpt><trkpt lat="42.4325235" lon="12.2048143"><ele>480.33333333333337</ele><time>2026-04-12T07:54:42.994Z</time></trkpt><trkpt lat="42.4324111" lon="12.2048438"><ele>481.6666666666667</ele><time>2026-04-12T07:54:45.994Z</time></trkpt><trkpt lat="42.4323472" lon="12.2048549"><ele>483.0</ele><time>2026-04-12T07:54:47.993Z</time></trkpt><trkpt lat="42.43226" lon="12.2048364"><ele>483.0</ele><time>2026-04-12T07:54:49.994Z</time></trkpt><trkpt lat="42.4321917" lon="12.204872"><ele>483.0</ele><time>2026-04-12T07:54:51.993Z</time></trkpt><trkpt lat="42.4321242" lon="12.2048448"><ele>483.0</ele><time>2026-04-12T07:54:54.993Z</time></trkpt><trkpt lat="42.4320851" lon="12.2047557"><ele>483.0</ele><time>2026-04-12T07:54:56.994Z</time></trkpt><trkpt lat="42.4320483" lon="12.2046683"><ele>483.0</ele><time>2026-04-12T07:54:59.994Z</time></trkpt><trkpt lat="42.4319923" lon="12.2045965"><ele>483.0</ele><time>2026-04-12T07:55:01.993Z</time></trkpt><trkpt lat="42.431946" lon="12.2045158"><ele>483.0</ele><time>2026-04-12T07:55:03.994Z</time></trkpt><trkpt lat="42.4318877" lon="12.2044476"><ele>485.2857142857143</ele><time>2026-04-12T07:55:05.993Z</time></trkpt><trkpt lat="42.4318234" lon="12.2044431"><ele>487.57142857142856</ele><time>2026-04-12T07:55:06.994Z</time></trkpt><trkpt lat="42.4317669" lon="12.204487"><ele>489.8571428571429</ele><time>2026-04-12T07:55:08.994Z</time></trkpt><trkpt lat="42.4318296" lon="12.204473"><ele>492.14285714285717</ele><time>2026-04-12T07:55:10.994Z</time></trkpt><trkpt lat="42.43174" lon="12.2043812"><ele>494.42857142857144</ele><time>2026-04-12T07:55:16.995Z</time></trkpt><trkpt lat="42.4316713" lon="12.2044102"><ele>496.7142857142858</ele><time>2026-04-12T07:55:17.994Z</time></trkpt><trkpt lat="42.4316112" lon="12.2044429"><ele>499.00000000000006</ele><time>2026-04-12T07:55:19.994Z</time></trkpt><trkpt lat="42.4315536" lon="12.2043492"><ele>499.00000000000006</ele><time>2026-04-12T07:55:24.994Z</time></trkpt><trkpt lat="42.4315006" lon="12.2042968"><ele>499.0</ele><time>2026-04-12T07:55:26.995Z</time></trkpt><trkpt lat="42.4314559" lon="12.2042114"><ele>499.00000000000006</ele><time>2026-04-12T07:55:29.994Z</time></trkpt><trkpt lat="42.4314293" lon="12.2041314"><ele>499.00000000000006</ele><time>2026-04-12T07:55:33.995Z</time></trkpt><trkpt lat="42.4314001" lon="12.2040444"><ele>499.0</ele><time>2026-04-12T07:55:39.994Z</time></trkpt><trkpt lat="42.4313929" lon="12.203944"><ele>499.00000000000006</ele><time>2026-04-12T07:55:41.995Z</time></trkpt><trkpt lat="42.4313455" lon="12.2038367"><ele>499.00000000000006</ele><time>2026-04-12T07:55:43.995Z</time></trkpt><trkpt lat="42.4312996" lon="12.2037686"><ele>500.6666666666667</ele><time>2026-04-12T07:55:45.994Z</time></trkpt><trkpt lat="42.4312632" lon="12.2036898"><ele>502.33333333333337</ele><time>2026-04-12T07:55:49.995Z</time></trkpt><trkpt lat="42.4312355" lon="12.2035987"><ele>504.0</ele><time>2026-04-12T07:55:55.995Z</time></trkpt><trkpt lat="42.4312199" lon="12.2034738"><ele>505.66666666666663</ele><time>2026-04-12T07:55:57.994Z</time></trkpt><trkpt lat="42.431172" lon="12.2033212"><ele>507.3333333333333</ele><time>2026-04-12T07:55:59.995Z</time></trkpt><trkpt lat="42.4311436" lon="12.2032409"><ele>509.0</ele><time>2026-04-12T07:56:01.995Z</time></trkpt><trkpt lat="42.4311184" lon="12.203159"><ele>508.99999999999994</ele><time>2026-04-12T07:56:04.995Z</time></trkpt><trkpt lat="42.4310642" lon="12.2030638"><ele>509.0</ele><time>2026-04-12T07:56:07.994Z</time></trkpt><trkpt lat="42.4310027" lon="12.2030039"><ele>509.0</ele><time>2026-04-12T07:56:13.995Z</time></trkpt><trkpt lat="42.4309366" lon="12.2029949"><ele>509.0</ele><time>2026-04-12T07:56:26.994Z</time></trkpt><trkpt lat="42.4308687" lon="12.2030344"><ele>508.99999999999994</ele><time>2026-04-12T07:56:29.995Z</time></trkpt><trkpt lat="42.4307955" lon="12.2031023"><ele>509.0</ele><time>2026-04-12T07:56:31.995Z</time></trkpt><trkpt lat="42.4307444" lon="12.20318"><ele>510.8333333333333</ele><time>2026-04-12T07:56:33.994Z</time></trkpt><trkpt lat="42.4307116" lon="12.2032837"><ele>512.6666666666666</ele><time>2026-04-12T07:56:35.994Z</time></trkpt><trkpt lat="42.4307088" lon="12.2033697"><ele>514.5</ele><time>2026-04-12T07:56:37.995Z</time></trkpt><trkpt lat="42.4306898" lon="12.2034812"><ele>516.3333333333334</ele><time>2026-04-12T07:56:39.995Z</time></trkpt><trkpt lat="42.430679" lon="12.2035939"><ele>518.1666666666667</ele><time>2026-04-12T07:56:42.995Z</time></trkpt><trkpt lat="42.430629" lon="12.2036548"><ele>520.0</ele><time>2026-04-12T07:56:47.123Z</time></trkpt><trkpt lat="42.4305553" lon="12.2036832"><ele>520.0</ele><time>2026-04-12T07:56:50.169Z</time></trkpt><trkpt lat="42.4304797" lon="12.2038018"><ele>520.0</ele><time>2026-04-12T07:56:53.091Z</time></trkpt><trkpt lat="42.4303894" lon="12.2038537"><ele>520.0</ele><time>2026-04-12T07:56:54.995Z</time></trkpt><trkpt lat="42.4303768" lon="12.2039876"><ele>520.0</ele><time>2026-04-12T07:56:57.995Z</time></trkpt><trkpt lat="42.43033" lon="12.2040941"><ele>520.0</ele><time>2026-04-12T07:57:41.995Z</time></trkpt><trkpt lat="42.430266" lon="12.2040997"><ele>522.5714285714287</ele><time>2026-04-12T08:00:37.994Z</time></trkpt><trkpt lat="42.4303261" lon="12.2040736"><ele>525.1428571428571</ele><time>2026-04-12T08:03:25.995Z</time></trkpt><trkpt lat="42.4302672" lon="12.2040316"><ele>527.7142857142858</ele><time>2026-04-12T08:11:29.995Z</time></trkpt><trkpt lat="42.4302023" lon="12.2040323"><ele>530.2857142857143</ele><time>2026-04-12T08:11:38.994Z</time></trkpt><trkpt lat="42.4301319" lon="12.2040187"><ele>532.8571428571429</ele><time>2026-04-12T08:11:45.995Z</time></trkpt><trkpt lat="42.4300702" lon="12.2039924"><ele>535.4285714285714</ele><time>2026-04-12T08:12:16.994Z</time></trkpt><trkpt lat="42.430003" lon="12.2040044"><ele>538.0</ele><time>2026-04-12T08:12:18.994Z</time></trkpt><trkpt lat="42.429908" lon="12.2040048"><ele>538.0</ele><time>2026-04-12T08:12:29.994Z</time></trkpt><trkpt lat="42.4298407" lon="12.2039587"><ele>538.0</ele><time>2026-04-12T08:14:33.995Z</time></trkpt><trkpt lat="42.4299003" lon="12.2040196"><ele>538.0</ele><time>2026-04-12T08:14:56.996Z</time></trkpt><trkpt lat="42.4299312" lon="12.2039452"><ele>538.0</ele><time>2026-04-12T08:15:33.995Z</time></trkpt><trkpt lat="42.4299945" lon="12.2039763"><ele>538.0</ele><time>2026-04-12T08:15:45.996Z</time></trkpt><trkpt lat="42.4299327" lon="12.2039957"><ele>538.0</ele><time>2026-04-12T08:16:36.996Z</time></trkpt><trkpt lat="42.4298703" lon="12.2040142"><ele>538.0</ele><time>2026-04-12T08:16:48.996Z</time></trkpt><trkpt lat="42.4299002" lon="12.2039338"><ele>538.0</ele><time>2026-04-12T08:22:34.995Z</time></trkpt><trkpt lat="42.4298489" lon="12.2040015"><ele>538.0</ele><time>2026-04-12T08:22:58.996Z</time></trkpt><trkpt lat="42.4297668" lon="12.2039553"><ele>538.0</ele><time>2026-04-12T08:23:02.995Z</time></trkpt><trkpt lat="42.4296884" lon="12.2039101"><ele>538.0</ele><time>2026-04-12T08:23:05.996Z</time></trkpt><trkpt lat="42.4296011" lon="12.2038841"><ele>538.0</ele><time>2026-04-12T08:23:07.995Z</time></trkpt><trkpt lat="42.429528" lon="12.2038804"><ele>538.0</ele><time>2026-04-12T08:23:09.996Z</time></trkpt><trkpt lat="42.4294375" lon="12.2039214"><ele>542.1999999999999</ele><time>2026-04-12T08:23:11.996Z</time></trkpt><trkpt lat="42.4292974" lon="12.2038476"><ele>546.4</ele><time>2026-04-12T08:23:14.996Z</time></trkpt><trkpt lat="42.4292259" lon="12.2038369"><ele>550.5999999999999</ele><time>2026-04-12T08:23:15.995Z</time></trkpt><trkpt lat="42.4290938" lon="12.2038147"><ele>554.8</ele><time>2026-04-12T08:23:17.996Z</time></trkpt><trkpt lat="42.4290269" lon="12.2038329"><ele>559.0</ele><time>2026-04-12T08:23:19.995Z</time></trkpt><trkpt lat="42.4289417" lon="12.2038438"><ele>559.0</ele><time>2026-04-12T08:23:21.995Z</time></trkpt><trkpt lat="42.4288742" lon="12.2038354"><ele>559.0</ele><time>2026-04-12T08:23:23.996Z</time></trkpt><trkpt lat="42.428807" lon="12.2038385"><ele>559.0</ele><time>2026-04-12T08:23:25.995Z</time></trkpt><trkpt lat="42.4287378" lon="12.2038671"><ele>559.0</ele><time>2026-04-12T08:23:27.996Z</time></trkpt><trkpt lat="42.4286377" lon="12.2039298"><ele>559.0</ele><time>2026-04-12T08:23:29.995Z</time></trkpt><trkpt lat="42.4284854" lon="12.2039969"><ele>566.6</ele><time>2026-04-12T08:23:31.994Z</time></trkpt><trkpt lat="42.4284412" lon="12.2040695"><ele>574.2</ele><time>2026-04-12T08:23:32.996Z</time></trkpt><trkpt lat="42.4284022" lon="12.2041789"><ele>581.8000000000001</ele><time>2026-04-12T08:23:34.996Z</time></trkpt><trkpt lat="42.428332" lon="12.2042311"><ele>589.4</ele><time>2026-04-12T08:23:37.996Z</time></trkpt><trkpt lat="42.4282455" lon="12.2042933"><ele>597.0</ele><time>2026-04-12T08:23:48.995Z</time></trkpt><trkpt lat="42.4280846" lon="12.2044289"><ele>597.0</ele><time>2026-04-12T08:23:50.996Z</time></trkpt><trkpt lat="42.4279837" lon="12.2044767"><ele>597.0</ele><time>2026-04-12T08:23:51.996Z</time></trkpt><trkpt lat="42.4279269" lon="12.2045163"><ele>597.0</ele><time>2026-04-12T08:23:53.995Z</time></trkpt><trkpt lat="42.427959" lon="12.2045933"><ele>597.0</ele><time>2026-04-12T08:23:55.996Z</time></trkpt><trkpt lat="42.427884" lon="12.2045737"><ele>597.0</ele><time>2026-04-12T08:24:55.994Z</time></trkpt><trkpt lat="42.4278375" lon="12.2044878"><ele>597.0</ele><time>2026-04-12T08:24:58.996Z</time></trkpt><trkpt lat="42.4277998" lon="12.2043425"><ele>600.6666666666666</ele><time>2026-04-12T08:25:00.996Z</time></trkpt><trkpt lat="42.4277705" lon="12.2042627"><ele>604.3333333333334</ele><time>2026-04-12T08:25:01.996Z</time></trkpt><trkpt lat="42.4277078" lon="12.2041051"><ele>608.0</ele><time>2026-04-12T08:25:03.995Z</time></trkpt><trkpt lat="42.4276765" lon="12.2040282"><ele>611.6666666666667</ele><time>2026-04-12T08:25:04.996Z</time></trkpt><trkpt lat="42.427624" lon="12.2039254"><ele>615.3333333333334</ele><time>2026-04-12T08:25:06.996Z</time></trkpt><trkpt lat="42.4275957" lon="12.2038433"><ele>619.0</ele><time>2026-04-12T08:25:07.995Z</time></trkpt><trkpt lat="42.4275575" lon="12.203731"><ele>619.0</ele><time>2026-04-12T08:25:09.996Z</time></trkpt><trkpt lat="42.4275343" lon="12.2036088"><ele>619.0</ele><time>2026-04-12T08:25:11.996Z</time></trkpt><trkpt lat="42.4275294" lon="12.2034759"><ele>619.0</ele><time>2026-04-12T08:25:13.997Z</time></trkpt><trkpt lat="42.4275406" lon="12.203327"><ele>619.0</ele><time>2026-04-12T08:25:15.997Z</time></trkpt><trkpt lat="42.4275682" lon="12.2031591"><ele>619.0</ele><time>2026-04-12T08:25:17.996Z</time></trkpt><trkpt lat="42.4275716" lon="12.2030082"><ele>617.5</ele><time>2026-04-12T08:25:19.995Z</time></trkpt><trkpt lat="42.4275241" lon="12.2028792"><ele>616.0</ele><time>2026-04-12T08:25:21.996Z</time></trkpt><trkpt lat="42.4274828" lon="12.2028147"><ele>614.5</ele><time>2026-04-12T08:25:22.996Z</time></trkpt><trkpt lat="42.4274289" lon="12.2027244"><ele>613.0</ele><time>2026-04-12T08:25:23.997Z</time></trkpt><trkpt lat="42.4273713" lon="12.2026304"><ele>611.5</ele><time>2026-04-12T08:25:24.995Z</time></trkpt><trkpt lat="42.4273138" lon="12.2025277"><ele>610.0</ele><time>2026-04-12T08:25:25.996Z</time></trkpt><trkpt lat="42.427257" lon="12.2024191"><ele>607.3333333333334</ele><time>2026-04-12T08:25:26.996Z</time></trkpt><trkpt lat="42.4272253" lon="12.2023184"><ele>604.6666666666667</ele><time>2026-04-12T08:25:27.996Z</time></trkpt><trkpt lat="42.4271889" lon="12.2022289"><ele>602.0</ele><time>2026-04-12T08:25:28.996Z</time></trkpt><trkpt lat="42.4271833" lon="12.2021379"><ele>599.3333333333334</ele><time>2026-04-12T08:25:29.995Z</time></trkpt><trkpt lat="42.4271899" lon="12.2020381"><ele>596.6666666666666</ele><time>2026-04-12T08:25:30.996Z</time></trkpt><trkpt lat="42.4272236" lon="12.2019492"><ele>594.0</ele><time>2026-04-12T08:25:31.995Z</time></trkpt><trkpt lat="42.4272804" lon="12.2018225"><ele>594.0</ele><time>2026-04-12T08:25:32.996Z</time></trkpt><trkpt lat="42.4273076" lon="12.2017145"><ele>594.0</ele><time>2026-04-12T08:25:33.995Z</time></trkpt><trkpt lat="42.4273036" lon="12.2016098"><ele>594.0</ele><time>2026-04-12T08:25:34.995Z</time></trkpt><trkpt lat="42.4272989" lon="12.2015149"><ele>594.0</ele><time>2026-04-12T08:25:35.995Z</time></trkpt><trkpt lat="42.4272178" lon="12.2013524"><ele>594.0</ele><time>2026-04-12T08:25:37.996Z</time></trkpt><trkpt lat="42.4271525" lon="12.2012895"><ele>595.5</ele><time>2026-04-12T08:25:38.995Z</time></trkpt><trkpt lat="42.4270767" lon="12.2012399"><ele>597.0</ele><time>2026-04-12T08:25:39.996Z</time></trkpt><trkpt lat="42.4270125" lon="12.201177"><ele>598.5</ele><time>2026-04-12T08:25:40.996Z</time></trkpt><trkpt lat="42.4269444" lon="12.2011037"><ele>600.0</ele><time>2026-04-12T08:25:41.996Z</time></trkpt><trkpt lat="42.42688" lon="12.2010237"><ele>601.5</ele><time>2026-04-12T08:25:42.996Z</time></trkpt><trkpt lat="42.426816" lon="12.2009525"><ele>603.0</ele><time>2026-04-12T08:25:43.996Z</time></trkpt><trkpt lat="42.426745" lon="12.2009002"><ele>603.0</ele><time>2026-04-12T08:25:44.996Z</time></trkpt><trkpt lat="42.4266734" lon="12.2008642"><ele>603.0</ele><time>2026-04-12T08:25:45.995Z</time></trkpt><trkpt lat="42.4266083" lon="12.2008101"><ele>603.0</ele><time>2026-04-12T08:25:46.995Z</time></trkpt><trkpt lat="42.4265559" lon="12.2007523"><ele>603.0</ele><time>2026-04-12T08:25:47.996Z</time></trkpt><trkpt lat="42.4265122" lon="12.2006861"><ele>603.0</ele><time>2026-04-12T08:25:48.996Z</time></trkpt><trkpt lat="42.4264734" lon="12.2006003"><ele>603.0</ele><time>2026-04-12T08:25:49.995Z</time></trkpt><trkpt lat="42.4264513" lon="12.2004838"><ele>603.0</ele><time>2026-04-12T08:25:50.996Z</time></trkpt><trkpt lat="42.4264548" lon="12.2003758"><ele>600.1999999999999</ele><time>2026-04-12T08:25:51.996Z</time></trkpt><trkpt lat="42.4264496" lon="12.2002193"><ele>597.4</ele><time>2026-04-12T08:25:52.996Z</time></trkpt><trkpt lat="42.4264713" lon="12.2001013"><ele>594.5999999999999</ele><time>2026-04-12T08:25:53.995Z</time></trkpt><trkpt lat="42.426509" lon="12.1999862"><ele>591.8</ele><time>2026-04-12T08:25:54.996Z</time></trkpt><trkpt lat="42.4265283" lon="12.1998704"><ele>589.0</ele><time>2026-04-12T08:25:55.996Z</time></trkpt><trkpt lat="42.4265244" lon="12.1997649"><ele>587.8</ele><time>2026-04-12T08:25:56.996Z</time></trkpt><trkpt lat="42.4265081" lon="12.1996508"><ele>586.5999999999999</ele><time>2026-04-12T08:25:57.995Z</time></trkpt><trkpt lat="42.4264787" lon="12.1995409"><ele>585.4</ele><time>2026-04-12T08:25:58.996Z</time></trkpt><trkpt lat="42.4264299" lon="12.1994324"><ele>584.1999999999999</ele><time>2026-04-12T08:25:59.996Z</time></trkpt><trkpt lat="42.4263681" lon="12.1993391"><ele>583.0</ele><time>2026-04-12T08:26:00.996Z</time></trkpt><trkpt lat="42.4262962" lon="12.1992434"><ele>585.5</ele><time>2026-04-12T08:26:01.995Z</time></trkpt><trkpt lat="42.4262169" lon="12.199158"><ele>588.0</ele><time>2026-04-12T08:26:02.996Z</time></trkpt><trkpt lat="42.4261434" lon="12.199066"><ele>590.5</ele><time>2026-04-12T08:26:03.996Z</time></trkpt><trkpt lat="42.4260939" lon="12.1989794"><ele>593.0</ele><time>2026-04-12T08:26:04.995Z</time></trkpt><trkpt lat="42.4260457" lon="12.198898"><ele>595.5</ele><time>2026-04-12T08:26:05.996Z</time></trkpt><trkpt lat="42.4260061" lon="12.198822"><ele>598.0</ele><time>2026-04-12T08:26:06.996Z</time></trkpt><trkpt lat="42.4260306" lon="12.1986929"><ele>598.0</ele><time>2026-04-12T08:26:07.996Z</time></trkpt><trkpt lat="42.4260342" lon="12.1985955"><ele>598.0</ele><time>2026-04-12T08:26:08.996Z</time></trkpt><trkpt lat="42.4260788" lon="12.1984899"><ele>598.0</ele><time>2026-04-12T08:26:09.995Z</time></trkpt><trkpt lat="42.4261283" lon="12.1983472"><ele>598.0</ele><time>2026-04-12T08:26:10.996Z</time></trkpt><trkpt lat="42.426129" lon="12.1982236"><ele>598.0</ele><time>2026-04-12T08:26:11.996Z</time></trkpt><trkpt lat="42.4261202" lon="12.198124"><ele>598.0</ele><time>2026-04-12T08:26:12.996Z</time></trkpt><trkpt lat="42.4260873" lon="12.1980276"><ele>595.1666666666667</ele><time>2026-04-12T08:26:13.996Z</time></trkpt><trkpt lat="42.4260421" lon="12.1979173"><ele>592.3333333333334</ele><time>2026-04-12T08:26:14.996Z</time></trkpt><trkpt lat="42.4259812" lon="12.1978387"><ele>589.5</ele><time>2026-04-12T08:26:15.996Z</time></trkpt><trkpt lat="42.4259114" lon="12.1977823"><ele>586.6666666666666</ele><time>2026-04-12T08:26:16.995Z</time></trkpt><trkpt lat="42.4258259" lon="12.1977606"><ele>583.8333333333333</ele><time>2026-04-12T08:26:17.995Z</time></trkpt><trkpt lat="42.4257308" lon="12.1977419"><ele>581.0</ele><time>2026-04-12T08:26:18.994Z</time></trkpt><trkpt lat="42.425639" lon="12.1977351"><ele>581.0</ele><time>2026-04-12T08:26:19.996Z</time></trkpt><trkpt lat="42.4255481" lon="12.1977272"><ele>581.0</ele><time>2026-04-12T08:26:20.996Z</time></trkpt><trkpt lat="42.4254384" lon="12.197725"><ele>581.0</ele><time>2026-04-12T08:26:21.995Z</time></trkpt><trkpt lat="42.4253388" lon="12.1977"><ele>581.0</ele><time>2026-04-12T08:26:22.996Z</time></trkpt><trkpt lat="42.4252313" lon="12.197673"><ele>581.0</ele><time>2026-04-12T08:26:23.995Z</time></trkpt><trkpt lat="42.4251631" lon="12.1976494"><ele>585.5</ele><time>2026-04-12T08:26:24.996Z</time></trkpt><trkpt lat="42.4250744" lon="12.1975415"><ele>590.0</ele><time>2026-04-12T08:26:26.996Z</time></trkpt><trkpt lat="42.4252341" lon="12.1973278"><ele>594.5</ele><time>2026-04-12T08:26:27.996Z</time></trkpt><trkpt lat="42.425274" lon="12.1972065"><ele>599.0</ele><time>2026-04-12T08:26:28.996Z</time></trkpt><trkpt lat="42.4253091" lon="12.1970491"><ele>599.25</ele><time>2026-04-12T08:26:29.996Z</time></trkpt><trkpt lat="42.4253374" lon="12.1968842"><ele>599.5</ele><time>2026-04-12T08:26:30.995Z</time></trkpt><trkpt lat="42.425345" lon="12.1967198"><ele>599.75</ele><time>2026-04-12T08:26:31.996Z</time></trkpt><trkpt lat="42.4253528" lon="12.1965555"><ele>600.0</ele><time>2026-04-12T08:26:32.995Z</time></trkpt><trkpt lat="42.425377" lon="12.1963964"><ele>600.0</ele><time>2026-04-12T08:26:33.996Z</time></trkpt><trkpt lat="42.4254014" lon="12.196248"><ele>600.0</ele><time>2026-04-12T08:26:34.996Z</time></trkpt><trkpt lat="42.4254582" lon="12.1960697"><ele>600.0</ele><time>2026-04-12T08:26:35.996Z</time></trkpt><trkpt lat="42.4254985" lon="12.195952"><ele>600.0</ele><time>2026-04-12T08:26:36.995Z</time></trkpt><trkpt lat="42.4255408" lon="12.1958257"><ele>599.6</ele><time>2026-04-12T08:26:37.996Z</time></trkpt><trkpt lat="42.4255757" lon="12.1957083"><ele>599.2</ele><time>2026-04-12T08:26:38.994Z</time></trkpt><trkpt lat="42.4256317" lon="12.1955956"><ele>598.8</ele><time>2026-04-12T08:26:40.996Z</time></trkpt><trkpt lat="42.4256166" lon="12.1954906"><ele>598.4</ele><time>2026-04-12T08:26:48.995Z</time></trkpt><trkpt lat="42.4255304" lon="12.1953787"><ele>598.0</ele><time>2026-04-12T08:26:50.996Z</time></trkpt><trkpt lat="42.4254019" lon="12.1952266"><ele>598.0</ele><time>2026-04-12T08:26:52.996Z</time></trkpt><trkpt lat="42.4253165" lon="12.1951347"><ele>598.0</ele><time>2026-04-12T08:26:53.995Z</time></trkpt><trkpt lat="42.4252244" lon="12.1950385"><ele>598.0</ele><time>2026-04-12T08:26:55.996Z</time></trkpt><trkpt lat="42.4251271" lon="12.1950114"><ele>598.0</ele><time>2026-04-12T08:26:57.995Z</time></trkpt><trkpt lat="42.4250383" lon="12.1950167"><ele>598.0</ele><time>2026-04-12T08:26:59.995Z</time></trkpt><trkpt lat="42.4249822" lon="12.1950794"><ele>598.0</ele><time>2026-04-12T08:27:00.995Z</time></trkpt><trkpt lat="42.4249312" lon="12.1951874"><ele>598.0</ele><time>2026-04-12T08:27:01.996Z</time></trkpt><trkpt lat="42.4248762" lon="12.195274"><ele>598.0</ele><time>2026-04-12T08:27:02.995Z</time></trkpt><trkpt lat="42.4248185" lon="12.1954544"><ele>598.0</ele><time>2026-04-12T08:27:03.995Z</time></trkpt><trkpt lat="42.4247734" lon="12.1955861"><ele>598.0</ele><time>2026-04-12T08:27:04.996Z</time></trkpt><trkpt lat="42.4247675" lon="12.1957789"><ele>598.4</ele><time>2026-04-12T08:27:05.995Z</time></trkpt><trkpt lat="42.4247534" lon="12.1959359"><ele>598.8</ele><time>2026-04-12T08:27:06.996Z</time></trkpt><trkpt lat="42.424733" lon="12.1961033"><ele>599.2</ele><time>2026-04-12T08:27:07.996Z</time></trkpt><trkpt lat="42.4247131" lon="12.1962384"><ele>599.6</ele><time>2026-04-12T08:27:08.995Z</time></trkpt><trkpt lat="42.4246931" lon="12.1963571"><ele>600.0</ele><time>2026-04-12T08:27:09.996Z</time></trkpt><trkpt lat="42.4246604" lon="12.1965044"><ele>602.2</ele><time>2026-04-12T08:27:10.996Z</time></trkpt><trkpt lat="42.4246222" lon="12.1965975"><ele>604.4</ele><time>2026-04-12T08:27:11.996Z</time></trkpt><trkpt lat="42.4246054" lon="12.1967282"><ele>606.6</ele><time>2026-04-12T08:27:12.996Z</time></trkpt><trkpt lat="42.4245666" lon="12.1968431"><ele>608.8</ele><time>2026-04-12T08:27:13.996Z</time></trkpt><trkpt lat="42.424516" lon="12.1969645"><ele>611.0</ele><time>2026-04-12T08:27:14.996Z</time></trkpt><trkpt lat="42.4244827" lon="12.1970926"><ele>611.0</ele><time>2026-04-12T08:27:15.995Z</time></trkpt><trkpt lat="42.4244528" lon="12.1972077"><ele>611.0</ele><time>2026-04-12T08:27:16.995Z</time></trkpt><trkpt lat="42.4244222" lon="12.1973169"><ele>611.0</ele><time>2026-04-12T08:27:17.996Z</time></trkpt><trkpt lat="42.4243828" lon="12.1973954"><ele>611.0</ele><time>2026-04-12T08:27:18.996Z</time></trkpt><trkpt lat="42.4243615" lon="12.1974798"><ele>611.0</ele><time>2026-04-12T08:27:19.995Z</time></trkpt><trkpt lat="42.424323" lon="12.1975508"><ele>611.0</ele><time>2026-04-12T08:27:20.996Z</time></trkpt><trkpt lat="42.4242494" lon="12.1976071"><ele>613.0</ele><time>2026-04-12T08:27:22.996Z</time></trkpt><trkpt lat="42.4241673" lon="12.1975909"><ele>615.0</ele><time>2026-04-12T08:27:24.996Z</time></trkpt><trkpt lat="42.4241297" lon="12.1974432"><ele>617.0</ele><time>2026-04-12T08:27:25.996Z</time></trkpt><trkpt lat="42.4240378" lon="12.1973971"><ele>619.0</ele><time>2026-04-12T08:27:27.994Z</time></trkpt><trkpt lat="42.4239071" lon="12.1973651"><ele>621.0</ele><time>2026-04-12T08:27:29.996Z</time></trkpt><trkpt lat="42.4236983" lon="12.1973971"><ele>618.8</ele><time>2026-04-12T08:27:30.996Z</time></trkpt><trkpt lat="42.4236285" lon="12.1973421"><ele>616.6</ele><time>2026-04-12T08:27:32.995Z</time></trkpt><trkpt lat="42.4236" lon="12.1972606"><ele>614.4</ele><time>2026-04-12T08:27:38.996Z</time></trkpt><trkpt lat="42.423541" lon="12.197197"><ele>612.2</ele><time>2026-04-12T08:27:41.996Z</time></trkpt><trkpt lat="42.4236456" lon="12.1973295"><ele>610.0</ele><time>2026-04-12T08:27:48.996Z</time></trkpt><trkpt lat="42.4237555" lon="12.1973591"><ele>612.2</ele><time>2026-04-12T08:27:50.995Z</time></trkpt><trkpt lat="42.4238175" lon="12.1973843"><ele>614.4</ele><time>2026-04-12T08:27:51.996Z</time></trkpt><trkpt lat="42.4239154" lon="12.1974068"><ele>616.6</ele><time>2026-04-12T08:27:52.996Z</time></trkpt><trkpt lat="42.42399" lon="12.1974033"><ele>618.8</ele><time>2026-04-12T08:27:53.996Z</time></trkpt><trkpt lat="42.424112" lon="12.1974046"><ele>621.0</ele><time>2026-04-12T08:27:55.996Z</time></trkpt><trkpt lat="42.4241988" lon="12.1974904"><ele>621.0</ele><time>2026-04-12T08:27:57.995Z</time></trkpt><trkpt lat="42.4242734" lon="12.197567"><ele>621.0</ele><time>2026-04-12T08:27:59.996Z</time></trkpt><trkpt lat="42.4243667" lon="12.1974143"><ele>621.0</ele><time>2026-04-12T08:28:02.995Z</time></trkpt><trkpt lat="42.4244316" lon="12.1973346"><ele>621.0</ele><time>2026-04-12T08:28:03.995Z</time></trkpt><trkpt lat="42.424486" lon="12.1971303"><ele>618.5</ele><time>2026-04-12T08:28:04.996Z</time></trkpt><trkpt lat="42.4245428" lon="12.1969762"><ele>616.0</ele><time>2026-04-12T08:28:05.996Z</time></trkpt><trkpt lat="42.4246344" lon="12.1967704"><ele>613.5</ele><time>2026-04-12T08:28:07.995Z</time></trkpt><trkpt lat="42.4246922" lon="12.1965952"><ele>611.0</ele><time>2026-04-12T08:28:09.996Z</time></trkpt><trkpt lat="42.4247258" lon="12.1964767"><ele>608.8</ele><time>2026-04-12T08:28:10.996Z</time></trkpt><trkpt lat="42.4247672" lon="12.1963545"><ele>606.6</ele><time>2026-04-12T08:28:11.995Z</time></trkpt><trkpt lat="42.4247892" lon="12.1962423"><ele>604.4</ele><time>2026-04-12T08:28:12.995Z</time></trkpt><trkpt lat="42.424821" lon="12.1961232"><ele>602.2</ele><time>2026-04-12T08:28:13.996Z</time></trkpt><trkpt lat="42.4248371" lon="12.1959977"><ele>600.0</ele><time>2026-04-12T08:28:14.995Z</time></trkpt><trkpt lat="42.4248571" lon="12.1958651"><ele>600.0</ele><time>2026-04-12T08:28:15.996Z</time></trkpt><trkpt lat="42.4248798" lon="12.1957416"><ele>600.0</ele><time>2026-04-12T08:28:16.995Z</time></trkpt><trkpt lat="42.4249041" lon="12.1956211"><ele>600.0</ele><time>2026-04-12T08:28:17.995Z</time></trkpt><trkpt lat="42.4249283" lon="12.1955106"><ele>600.0</ele><time>2026-04-12T08:28:18.996Z</time></trkpt><trkpt lat="42.4249605" lon="12.1954168"><ele>600.0</ele><time>2026-04-12T08:28:19.994Z</time></trkpt><trkpt lat="42.4250028" lon="12.195323"><ele>600.0</ele><time>2026-04-12T08:28:20.996Z</time></trkpt><trkpt lat="42.4250423" lon="12.1952272"><ele>599.6</ele><time>2026-04-12T08:28:21.995Z</time></trkpt><trkpt lat="42.4250984" lon="12.1951245"><ele>599.2</ele><time>2026-04-12T08:28:23.995Z</time></trkpt><trkpt lat="42.4251748" lon="12.1950616"><ele>598.8</ele><time>2026-04-12T08:28:25.995Z</time></trkpt><trkpt lat="42.4252532" lon="12.1950987"><ele>598.4</ele><time>2026-04-12T08:28:27.996Z</time></trkpt><trkpt lat="42.4253204" lon="12.1951873"><ele>598.0</ele><time>2026-04-12T08:28:28.996Z</time></trkpt><trkpt lat="42.4254111" lon="12.1952973"><ele>598.0</ele><time>2026-04-12T08:28:29.995Z</time></trkpt><trkpt lat="42.425467" lon="12.1953655"><ele>598.0</ele><time>2026-04-12T08:28:30.995Z</time></trkpt><trkpt lat="42.4255523" lon="12.1954671"><ele>598.0</ele><time>2026-04-12T08:28:32.996Z</time></trkpt><trkpt lat="42.4256112" lon="12.1955032"><ele>598.0</ele><time>2026-04-12T08:28:34.996Z</time></trkpt><trkpt lat="42.4256725" lon="12.1954152"><ele>598.0</ele><time>2026-04-12T08:28:37.996Z</time></trkpt><trkpt lat="42.425681" lon="12.1952892"><ele>598.0</ele><time>2026-04-12T08:28:38.995Z</time></trkpt><trkpt lat="42.4256981" lon="12.1951609"><ele>596.8</ele><time>2026-04-12T08:28:39.996Z</time></trkpt><trkpt lat="42.4257152" lon="12.1950056"><ele>595.5999999999999</ele><time>2026-04-12T08:28:40.995Z</time></trkpt><trkpt lat="42.4257317" lon="12.194862"><ele>594.4000000000001</ele><time>2026-04-12T08:28:41.995Z</time></trkpt><trkpt lat="42.4257426" lon="12.1947486"><ele>593.2</ele><time>2026-04-12T08:28:42.996Z</time></trkpt><trkpt lat="42.4257469" lon="12.1946474"><ele>592.0</ele><time>2026-04-12T08:28:43.995Z</time></trkpt><trkpt lat="42.4257289" lon="12.1945381"><ele>591.6666666666667</ele><time>2026-04-12T08:28:44.995Z</time></trkpt><trkpt lat="42.4257037" lon="12.1944419"><ele>591.3333333333334</ele><time>2026-04-12T08:28:45.996Z</time></trkpt><trkpt lat="42.4256733" lon="12.1943518"><ele>591.0</ele><time>2026-04-12T08:28:46.995Z</time></trkpt><trkpt lat="42.4256423" lon="12.1942697"><ele>590.6666666666666</ele><time>2026-04-12T08:28:47.996Z</time></trkpt><trkpt lat="42.4255771" lon="12.1941407"><ele>590.3333333333333</ele><time>2026-04-12T08:28:49.996Z</time></trkpt><trkpt lat="42.4255037" lon="12.1940255"><ele>590.0</ele><time>2026-04-12T08:28:51.996Z</time></trkpt><trkpt lat="42.425402" lon="12.1939639"><ele>589.0</ele><time>2026-04-12T08:28:53.996Z</time></trkpt><trkpt lat="42.4252894" lon="12.1939492"><ele>588.0</ele><time>2026-04-12T08:28:55.996Z</time></trkpt><trkpt lat="42.4251988" lon="12.1939857"><ele>587.0</ele><time>2026-04-12T08:28:57.996Z</time></trkpt><trkpt lat="42.4251305" lon="12.1940002"><ele>586.0</ele><time>2026-04-12T08:28:58.996Z</time></trkpt><trkpt lat="42.4249593" lon="12.194065"><ele>586.0</ele><time>2026-04-12T08:29:00.995Z</time></trkpt><trkpt lat="42.4248788" lon="12.1941124"><ele>586.0</ele><time>2026-04-12T08:29:01.995Z</time></trkpt><trkpt lat="42.4247719" lon="12.194136"><ele>586.0</ele><time>2026-04-12T08:29:02.996Z</time></trkpt><trkpt lat="42.4246887" lon="12.1941815"><ele>586.0</ele><time>2026-04-12T08:29:03.996Z</time></trkpt><trkpt lat="42.4246059" lon="12.1942507"><ele>586.0</ele><time>2026-04-12T08:29:04.996Z</time></trkpt><trkpt lat="42.4245415" lon="12.1943142"><ele>583.6</ele><time>2026-04-12T08:29:05.995Z</time></trkpt><trkpt lat="42.4244738" lon="12.1944334"><ele>581.2</ele><time>2026-04-12T08:29:06.997Z</time></trkpt><trkpt lat="42.4243873" lon="12.1945009"><ele>578.8</ele><time>2026-04-12T08:29:07.995Z</time></trkpt><trkpt lat="42.4243172" lon="12.1945585"><ele>576.4</ele><time>2026-04-12T08:29:08.994Z</time></trkpt><trkpt lat="42.4242547" lon="12.1946449"><ele>574.0</ele><time>2026-04-12T08:29:09.995Z</time></trkpt><trkpt lat="42.4242151" lon="12.1947484"><ele>574.0</ele><time>2026-04-12T08:29:10.995Z</time></trkpt><trkpt lat="42.4241245" lon="12.1948346"><ele>574.0</ele><time>2026-04-12T08:29:11.995Z</time></trkpt><trkpt lat="42.4240191" lon="12.1949113"><ele>574.0</ele><time>2026-04-12T08:29:12.995Z</time></trkpt><trkpt lat="42.4239487" lon="12.1949923"><ele>574.0</ele><time>2026-04-12T08:29:13.995Z</time></trkpt><trkpt lat="42.4238967" lon="12.1951206"><ele>574.0</ele><time>2026-04-12T08:29:14.996Z</time></trkpt><trkpt lat="42.423851" lon="12.195217"><ele>576.4</ele><time>2026-04-12T08:29:15.996Z</time></trkpt><trkpt lat="42.4238018" lon="12.1953373"><ele>578.8</ele><time>2026-04-12T08:29:16.996Z</time></trkpt><trkpt lat="42.4237183" lon="12.1954617"><ele>581.2</ele><time>2026-04-12T08:29:18.996Z</time></trkpt><trkpt lat="42.4236682" lon="12.1955463"><ele>583.6</ele><time>2026-04-12T08:29:19.995Z</time></trkpt><trkpt lat="42.4236229" lon="12.1956778"><ele>586.0</ele><time>2026-04-12T08:29:20.995Z</time></trkpt><trkpt lat="42.423555" lon="12.1957135"><ele>585.9999999999999</ele><time>2026-04-12T08:29:21.996Z</time></trkpt><trkpt lat="42.4234962" lon="12.1957574"><ele>586.0</ele><time>2026-04-12T08:29:31.996Z</time></trkpt><trkpt lat="42.4234276" lon="12.1957376"><ele>586.0</ele><time>2026-04-12T08:29:32.995Z</time></trkpt><trkpt lat="42.4233435" lon="12.1957498"><ele>586.0</ele><time>2026-04-12T08:29:52.997Z</time></trkpt><trkpt lat="42.4232692" lon="12.1957241"><ele>586.0</ele><time>2026-04-12T08:29:55.997Z</time></trkpt><trkpt lat="42.4231862" lon="12.1957245"><ele>585.9999999999999</ele><time>2026-04-12T08:30:24.997Z</time></trkpt><trkpt lat="42.4231275" lon="12.1956834"><ele>586.0</ele><time>2026-04-12T08:30:27.997Z</time></trkpt><trkpt lat="42.4231257" lon="12.1953449"><ele>586.0</ele><time>2026-04-12T08:30:29.997Z</time></trkpt><trkpt lat="42.4231499" lon="12.1951455"><ele>586.0</ele><time>2026-04-12T08:30:30.997Z</time></trkpt><trkpt lat="42.4231908" lon="12.1949109"><ele>586.0</ele><time>2026-04-12T08:30:31.997Z</time></trkpt><trkpt lat="42.4232092" lon="12.1947883"><ele>586.0</ele><time>2026-04-12T08:30:32.997Z</time></trkpt><trkpt lat="42.4232181" lon="12.1946818"><ele>585.6666666666667</ele><time>2026-04-12T08:30:33.997Z</time></trkpt><trkpt lat="42.4232128" lon="12.1945798"><ele>585.3333333333334</ele><time>2026-04-12T08:30:34.997Z</time></trkpt><trkpt lat="42.4231962" lon="12.1944831"><ele>585.0</ele><time>2026-04-12T08:30:35.996Z</time></trkpt><trkpt lat="42.4231537" lon="12.1943209"><ele>584.6666666666666</ele><time>2026-04-12T08:30:36.997Z</time></trkpt><trkpt lat="42.4231038" lon="12.1942178"><ele>584.3333333333333</ele><time>2026-04-12T08:30:37.997Z</time></trkpt><trkpt lat="42.4230525" lon="12.1941612"><ele>584.0</ele><time>2026-04-12T08:30:38.997Z</time></trkpt><trkpt lat="42.4230011" lon="12.1940955"><ele>586.2</ele><time>2026-04-12T08:30:39.996Z</time></trkpt><trkpt lat="42.4229309" lon="12.1940436"><ele>588.4</ele><time>2026-04-12T08:30:40.996Z</time></trkpt><trkpt lat="42.4228448" lon="12.1940029"><ele>590.6</ele><time>2026-04-12T08:30:41.996Z</time></trkpt><trkpt lat="42.4227576" lon="12.1939698"><ele>592.8</ele><time>2026-04-12T08:30:42.997Z</time></trkpt><trkpt lat="42.422656" lon="12.1939117"><ele>595.0</ele><time>2026-04-12T08:30:43.997Z</time></trkpt><trkpt lat="42.4225818" lon="12.1938813"><ele>595.0</ele><time>2026-04-12T08:30:44.997Z</time></trkpt><trkpt lat="42.422485" lon="12.1938567"><ele>595.0</ele><time>2026-04-12T08:30:45.995Z</time></trkpt><trkpt lat="42.422394" lon="12.1938067"><ele>595.0</ele><time>2026-04-12T08:30:46.997Z</time></trkpt><trkpt lat="42.4223004" lon="12.1937819"><ele>595.0</ele><time>2026-04-12T08:30:47.997Z</time></trkpt><trkpt lat="42.4222163" lon="12.1937467"><ele>595.0</ele><time>2026-04-12T08:30:48.997Z</time></trkpt><trkpt lat="42.4221616" lon="12.193682"><ele>601.25</ele><time>2026-04-12T08:30:49.997Z</time></trkpt><trkpt lat="42.4220402" lon="12.1936098"><ele>607.5</ele><time>2026-04-12T08:30:51.995Z</time></trkpt><trkpt lat="42.4219388" lon="12.1935247"><ele>613.75</ele><time>2026-04-12T08:30:52.997Z</time></trkpt><trkpt lat="42.4218592" lon="12.1934443"><ele>620.0</ele><time>2026-04-12T08:30:53.997Z</time></trkpt><trkpt lat="42.4217669" lon="12.1933763"><ele>620.0</ele><time>2026-04-12T08:30:54.997Z</time></trkpt><trkpt lat="42.4216828" lon="12.1933071"><ele>620.0</ele><time>2026-04-12T08:30:55.997Z</time></trkpt><trkpt lat="42.4216036" lon="12.1932367"><ele>620.0</ele><time>2026-04-12T08:30:56.996Z</time></trkpt><trkpt lat="42.4215217" lon="12.1931805"><ele>620.0</ele><time>2026-04-12T08:30:57.997Z</time></trkpt><trkpt lat="42.4214329" lon="12.1931301"><ele>620.0</ele><time>2026-04-12T08:30:58.997Z</time></trkpt><trkpt lat="42.4213353" lon="12.193102"><ele>617.8</ele><time>2026-04-12T08:30:59.997Z</time></trkpt><trkpt lat="42.4212681" lon="12.193081"><ele>615.6</ele><time>2026-04-12T08:31:00.996Z</time></trkpt><trkpt lat="42.4211958" lon="12.1930552"><ele>613.4</ele><time>2026-04-12T08:31:01.997Z</time></trkpt><trkpt lat="42.4210744" lon="12.1930492"><ele>611.2</ele><time>2026-04-12T08:31:02.997Z</time></trkpt><trkpt lat="42.4209538" lon="12.1930263"><ele>609.0</ele><time>2026-04-12T08:31:03.997Z</time></trkpt><trkpt lat="42.4208451" lon="12.1930062"><ele>609.0</ele><time>2026-04-12T08:31:04.996Z</time></trkpt><trkpt lat="42.4207462" lon="12.1930129"><ele>609.0</ele><time>2026-04-12T08:31:05.997Z</time></trkpt><trkpt lat="42.4206366" lon="12.1930108"><ele>609.0</ele><time>2026-04-12T08:31:06.997Z</time></trkpt><trkpt lat="42.4205609" lon="12.1929869"><ele>609.0</ele><time>2026-04-12T08:31:07.996Z</time></trkpt><trkpt lat="42.4204715" lon="12.192967"><ele>609.0</ele><time>2026-04-12T08:31:08.997Z</time></trkpt><trkpt lat="42.4203907" lon="12.1929699"><ele>611.8333333333334</ele><time>2026-04-12T08:31:09.996Z</time></trkpt><trkpt lat="42.4203253" lon="12.1929806"><ele>614.6666666666666</ele><time>2026-04-12T08:31:10.997Z</time></trkpt><trkpt lat="42.4202442" lon="12.192979"><ele>617.5</ele><time>2026-04-12T08:31:11.997Z</time></trkpt><trkpt lat="42.420177" lon="12.1930014"><ele>620.3333333333333</ele><time>2026-04-12T08:31:12.996Z</time></trkpt><trkpt lat="42.4200855" lon="12.1930533"><ele>623.1666666666666</ele><time>2026-04-12T08:31:13.997Z</time></trkpt><trkpt lat="42.4200233" lon="12.1931508"><ele>626.0</ele><time>2026-04-12T08:31:14.996Z</time></trkpt><trkpt lat="42.4199577" lon="12.193215"><ele>627.6666666666666</ele><time>2026-04-12T08:31:15.996Z</time></trkpt><trkpt lat="42.4198928" lon="12.1932742"><ele>629.3333333333333</ele><time>2026-04-12T08:31:16.997Z</time></trkpt><trkpt lat="42.4198236" lon="12.1933327"><ele>631.0</ele><time>2026-04-12T08:31:17.997Z</time></trkpt><trkpt lat="42.4197571" lon="12.1934028"><ele>632.6666666666666</ele><time>2026-04-12T08:31:18.996Z</time></trkpt><trkpt lat="42.4196826" lon="12.1934329"><ele>634.3333333333334</ele><time>2026-04-12T08:31:19.997Z</time></trkpt><trkpt lat="42.4196062" lon="12.1933871"><ele>636.0</ele><time>2026-04-12T08:31:21.996Z</time></trkpt><trkpt lat="42.4195168" lon="12.1932383"><ele>638.0</ele><time>2026-04-12T08:31:23.997Z</time></trkpt><trkpt lat="42.4195324" lon="12.1931332"><ele>640.0</ele><time>2026-04-12T08:31:24.996Z</time></trkpt><trkpt lat="42.4195371" lon="12.1930273"><ele>642.0</ele><time>2026-04-12T08:31:25.997Z</time></trkpt><trkpt lat="42.4195363" lon="12.1929003"><ele>644.0</ele><time>2026-04-12T08:31:26.997Z</time></trkpt><trkpt lat="42.4195523" lon="12.1926953"><ele>646.0</ele><time>2026-04-12T08:31:27.996Z</time></trkpt><trkpt lat="42.4195574" lon="12.1925625"><ele>646.0</ele><time>2026-04-12T08:31:28.997Z</time></trkpt><trkpt lat="42.4195506" lon="12.192444"><ele>646.0</ele><time>2026-04-12T08:31:29.996Z</time></trkpt><trkpt lat="42.4195413" lon="12.1923466"><ele>646.0</ele><time>2026-04-12T08:31:30.997Z</time></trkpt><trkpt lat="42.4194575" lon="12.1921741"><ele>646.0</ele><time>2026-04-12T08:31:32.996Z</time></trkpt><trkpt lat="42.4193603" lon="12.1921359"><ele>646.0</ele><time>2026-04-12T08:31:34.997Z</time></trkpt><trkpt lat="42.4192801" lon="12.1921282"><ele>646.0</ele><time>2026-04-12T08:31:35.997Z</time></trkpt><trkpt lat="42.4192159" lon="12.1921277"><ele>646.0</ele><time>2026-04-12T08:31:36.996Z</time></trkpt><trkpt lat="42.4191421" lon="12.1921298"><ele>646.0</ele><time>2026-04-12T08:31:37.997Z</time></trkpt><trkpt lat="42.419088" lon="12.1921986"><ele>646.0</ele><time>2026-04-12T08:31:38.997Z</time></trkpt><trkpt lat="42.4190192" lon="12.1923011"><ele>646.0</ele><time>2026-04-12T08:31:39.997Z</time></trkpt><trkpt lat="42.4189619" lon="12.1924197"><ele>646.0</ele><time>2026-04-12T08:31:40.995Z</time></trkpt><trkpt lat="42.4188887" lon="12.1925135"><ele>647.8333333333334</ele><time>2026-04-12T08:31:41.997Z</time></trkpt><trkpt lat="42.4188014" lon="12.1925352"><ele>649.6666666666667</ele><time>2026-04-12T08:31:42.996Z</time></trkpt><trkpt lat="42.4187345" lon="12.1925203"><ele>651.5</ele><time>2026-04-12T08:31:43.996Z</time></trkpt><trkpt lat="42.41867" lon="12.1925342"><ele>653.3333333333334</ele><time>2026-04-12T08:31:44.996Z</time></trkpt><trkpt lat="42.4185643" lon="12.1925566"><ele>655.1666666666666</ele><time>2026-04-12T08:31:46.997Z</time></trkpt><trkpt lat="42.4184773" lon="12.1925336"><ele>657.0</ele><time>2026-04-12T08:31:47.996Z</time></trkpt><trkpt lat="42.4183644" lon="12.192547"><ele>657.0</ele><time>2026-04-12T08:31:49.996Z</time></trkpt><trkpt lat="42.4182774" lon="12.1925598"><ele>657.0</ele><time>2026-04-12T08:31:51.997Z</time></trkpt><trkpt lat="42.418221" lon="12.1925988"><ele>657.0</ele><time>2026-04-12T08:31:59.997Z</time></trkpt><trkpt lat="42.4183476" lon="12.1926833"><ele>657.0</ele><time>2026-04-12T08:32:00.996Z</time></trkpt><trkpt lat="42.4184148" lon="12.1927118"><ele>657.0</ele><time>2026-04-12T08:32:01.996Z</time></trkpt><trkpt lat="42.4184784" lon="12.1927374"><ele>657.0</ele><time>2026-04-12T08:32:02.996Z</time></trkpt><trkpt lat="42.4185371" lon="12.1927689"><ele>657.0</ele><time>2026-04-12T08:32:03.997Z</time></trkpt><trkpt lat="42.4186358" lon="12.1928601"><ele>657.0</ele><time>2026-04-12T08:32:05.997Z</time></trkpt><trkpt lat="42.4186997" lon="12.1928874"><ele>657.0</ele><time>2026-04-12T08:32:06.997Z</time></trkpt><trkpt lat="42.418777" lon="12.1929181"><ele>657.0</ele><time>2026-04-12T08:32:07.996Z</time></trkpt><trkpt lat="42.418941" lon="12.1930439"><ele>656.1666666666666</ele><time>2026-04-12T08:32:09.997Z</time></trkpt><trkpt lat="42.4189999" lon="12.1930916"><ele>655.3333333333334</ele><time>2026-04-12T08:32:10.997Z</time></trkpt><trkpt lat="42.4190313" lon="12.1932026"><ele>654.5</ele><time>2026-04-12T08:32:11.997Z</time></trkpt><trkpt lat="42.4190187" lon="12.1933435"><ele>653.6666666666667</ele><time>2026-04-12T08:32:13.997Z</time></trkpt><trkpt lat="42.4190326" lon="12.1934349"><ele>652.8333333333334</ele><time>2026-04-12T08:32:14.997Z</time></trkpt><trkpt lat="42.4190359" lon="12.1935429"><ele>652.0</ele><time>2026-04-12T08:32:15.997Z</time></trkpt><trkpt lat="42.4190193" lon="12.1936585"><ele>652.0</ele><time>2026-04-12T08:32:16.996Z</time></trkpt><trkpt lat="42.4190159" lon="12.1937626"><ele>652.0</ele><time>2026-04-12T08:32:17.997Z</time></trkpt><trkpt lat="42.4190045" lon="12.1938499"><ele>652.0</ele><time>2026-04-12T08:32:18.996Z</time></trkpt><trkpt lat="42.4189986" lon="12.1940038"><ele>652.0</ele><time>2026-04-12T08:32:19.997Z</time></trkpt><trkpt lat="42.4189878" lon="12.1941359"><ele>652.0</ele><time>2026-04-12T08:32:20.996Z</time></trkpt><trkpt lat="42.4189674" lon="12.1943172"><ele>654.0</ele><time>2026-04-12T08:32:22.997Z</time></trkpt><trkpt lat="42.4189754" lon="12.1944774"><ele>656.0</ele><time>2026-04-12T08:32:24.997Z</time></trkpt><trkpt lat="42.4189945" lon="12.1945666"><ele>658.0</ele><time>2026-04-12T08:32:25.997Z</time></trkpt><trkpt lat="42.4190706" lon="12.194692"><ele>660.0</ele><time>2026-04-12T08:32:27.997Z</time></trkpt><trkpt lat="42.4192424" lon="12.1946543"><ele>660.0</ele><time>2026-04-12T08:32:28.997Z</time></trkpt><trkpt lat="42.4193456" lon="12.1945997"><ele>660.0</ele><time>2026-04-12T08:32:30.996Z</time></trkpt><trkpt lat="42.4194313" lon="12.1946048"><ele>660.0</ele><time>2026-04-12T08:32:33.997Z</time></trkpt><trkpt lat="42.4195216" lon="12.1945652"><ele>660.0</ele><time>2026-04-12T08:32:35.997Z</time></trkpt><trkpt lat="42.4196105" lon="12.1945067"><ele>660.0</ele><time>2026-04-12T08:32:36.998Z</time></trkpt><trkpt lat="42.4196915" lon="12.1945064"><ele>659.6666666666666</ele><time>2026-04-12T08:32:37.997Z</time></trkpt><trkpt lat="42.4197598" lon="12.1944801"><ele>659.3333333333334</ele><time>2026-04-12T08:32:38.996Z</time></trkpt><trkpt lat="42.4198212" lon="12.1944589"><ele>659.0</ele><time>2026-04-12T08:32:39.997Z</time></trkpt><trkpt lat="42.4198841" lon="12.1944489"><ele>658.6666666666667</ele><time>2026-04-12T08:32:40.997Z</time></trkpt><trkpt lat="42.4199627" lon="12.1944278"><ele>658.3333333333334</ele><time>2026-04-12T08:32:41.997Z</time></trkpt><trkpt lat="42.420053" lon="12.1944542"><ele>658.0</ele><time>2026-04-12T08:32:43.997Z</time></trkpt><trkpt lat="42.4201568" lon="12.1944812"><ele>658.0</ele><time>2026-04-12T08:32:45.997Z</time></trkpt><trkpt lat="42.4202522" lon="12.1945266"><ele>658.0</ele><time>2026-04-12T08:32:47.996Z</time></trkpt><trkpt lat="42.4203539" lon="12.194596"><ele>658.0</ele><time>2026-04-12T08:32:49.996Z</time></trkpt><trkpt lat="42.420429" lon="12.1946158"><ele>658.0</ele><time>2026-04-12T08:32:50.997Z</time></trkpt><trkpt lat="42.420506" lon="12.1946438"><ele>658.0</ele><time>2026-04-12T08:32:51.995Z</time></trkpt><trkpt lat="42.4206172" lon="12.1946863"><ele>658.5999999999999</ele><time>2026-04-12T08:32:53.997Z</time></trkpt><trkpt lat="42.4207185" lon="12.1947217"><ele>659.1999999999999</ele><time>2026-04-12T08:32:55.996Z</time></trkpt><trkpt lat="42.420769" lon="12.1947895"><ele>659.8</ele><time>2026-04-12T08:32:58.996Z</time></trkpt><trkpt lat="42.4208697" lon="12.1949022"><ele>660.4</ele><time>2026-04-12T08:33:00.997Z</time></trkpt><trkpt lat="42.4209416" lon="12.1950462"><ele>661.0</ele><time>2026-04-12T08:33:01.997Z</time></trkpt><trkpt lat="42.4209884" lon="12.1951451"><ele>667.25</ele><time>2026-04-12T08:33:02.996Z</time></trkpt><trkpt lat="42.4210557" lon="12.1952509"><ele>673.5</ele><time>2026-04-12T08:33:03.997Z</time></trkpt><trkpt lat="42.4211037" lon="12.1953383"><ele>679.75</ele><time>2026-04-12T08:33:04.997Z</time></trkpt><trkpt lat="42.4211812" lon="12.1955194"><ele>686.0</ele><time>2026-04-12T08:33:06.997Z</time></trkpt><trkpt lat="42.421244" lon="12.1957137"><ele>683.6666666666666</ele><time>2026-04-12T08:33:08.996Z</time></trkpt><trkpt lat="42.4212569" lon="12.1958403"><ele>681.3333333333333</ele><time>2026-04-12T08:33:09.996Z</time></trkpt><trkpt lat="42.4212743" lon="12.1959262"><ele>679.0</ele><time>2026-04-12T08:33:10.997Z</time></trkpt><trkpt lat="42.4213426" lon="12.1959884"><ele>676.6666666666666</ele><time>2026-04-12T08:33:11.997Z</time></trkpt><trkpt lat="42.4213516" lon="12.1961285"><ele>674.3333333333334</ele><time>2026-04-12T08:33:13.996Z</time></trkpt><trkpt lat="42.4213359" lon="12.1962611"><ele>672.0</ele><time>2026-04-12T08:33:14.997Z</time></trkpt><trkpt lat="42.4213256" lon="12.1963756"><ele>685.0</ele><time>2026-04-12T08:33:15.997Z</time></trkpt><trkpt lat="42.4213051" lon="12.1965191"><ele>698.0</ele><time>2026-04-12T08:33:17.997Z</time></trkpt><trkpt lat="42.4212469" lon="12.1966049"><ele>711.0</ele><time>2026-04-12T08:33:18.997Z</time></trkpt><trkpt lat="42.4211794" lon="12.1967866"><ele>724.0</ele><time>2026-04-12T08:33:19.997Z</time></trkpt><trkpt lat="42.4211582" lon="12.1969673"><ele>724.0</ele><time>2026-04-12T08:33:21.997Z</time></trkpt><trkpt lat="42.4211305" lon="12.1971303"><ele>724.0</ele><time>2026-04-12T08:33:23.997Z</time></trkpt><trkpt lat="42.4211329" lon="12.1972291"><ele>724.0</ele><time>2026-04-12T08:33:24.997Z</time></trkpt><trkpt lat="42.421108" lon="12.1973931"><ele>724.0</ele><time>2026-04-12T08:33:26.996Z</time></trkpt><trkpt lat="42.4210974" lon="12.1975772"><ele>724.0</ele><time>2026-04-12T08:33:28.997Z</time></trkpt><trkpt lat="42.4210982" lon="12.1977028"><ele>724.0</ele><time>2026-04-12T08:33:29.997Z</time></trkpt><trkpt lat="42.421076" lon="12.1978577"><ele>724.0</ele><time>2026-04-12T08:33:31.996Z</time></trkpt><trkpt lat="42.4210711" lon="12.1979478"><ele>724.0</ele><time>2026-04-12T08:33:32.997Z</time></trkpt><trkpt lat="42.4210402" lon="12.1980444"><ele>724.0</ele><time>2026-04-12T08:33:33.997Z</time></trkpt><trkpt lat="42.4210336" lon="12.1981338"><ele>724.0</ele><time>2026-04-12T08:33:34.996Z</time></trkpt><trkpt lat="42.4210281" lon="12.1982537"><ele>721.5</ele><time>2026-04-12T08:33:36.997Z</time></trkpt><trkpt lat="42.420956" lon="12.1983852"><ele>719.0</ele><time>2026-04-12T08:33:38.997Z</time></trkpt><trkpt lat="42.4208852" lon="12.1985227"><ele>716.5</ele><time>2026-04-12T08:33:40.997Z</time></trkpt><trkpt lat="42.4208156" lon="12.1986761"><ele>714.0</ele><time>2026-04-12T08:33:42.996Z</time></trkpt><trkpt lat="42.4207661" lon="12.1987958"><ele>714.0</ele><time>2026-04-12T08:33:44.997Z</time></trkpt><trkpt lat="42.4207397" lon="12.1988755"><ele>714.0</ele><time>2026-04-12T08:33:46.997Z</time></trkpt><trkpt lat="42.4207097" lon="12.1989912"><ele>714.0</ele><time>2026-04-12T08:33:48.996Z</time></trkpt><trkpt lat="42.4206259" lon="12.1991314"><ele>714.0</ele><time>2026-04-12T08:33:50.997Z</time></trkpt><trkpt lat="42.4205646" lon="12.1991884"><ele>714.0</ele><time>2026-04-12T08:33:51.997Z</time></trkpt><trkpt lat="42.4204882" lon="12.1992312"><ele>714.0</ele><time>2026-04-12T08:33:53.997Z</time></trkpt><trkpt lat="42.4204294" lon="12.1993501"><ele>715.8000000000001</ele><time>2026-04-12T08:33:55.997Z</time></trkpt><trkpt lat="42.4203848" lon="12.1994464"><ele>717.6</ele><time>2026-04-12T08:33:56.997Z</time></trkpt><trkpt lat="42.4202844" lon="12.1995396"><ele>719.4</ele><time>2026-04-12T08:33:57.997Z</time></trkpt><trkpt lat="42.4202363" lon="12.1996061"><ele>721.2</ele><time>2026-04-12T08:33:58.997Z</time></trkpt><trkpt lat="42.4201254" lon="12.1996848"><ele>723.0</ele><time>2026-04-12T08:34:00.997Z</time></trkpt><trkpt lat="42.420039" lon="12.199813"><ele>722.0</ele><time>2026-04-12T08:34:02.997Z</time></trkpt><trkpt lat="42.4199878" lon="12.1998669"><ele>721.0</ele><time>2026-04-12T08:34:03.996Z</time></trkpt><trkpt lat="42.4199541" lon="12.199986"><ele>720.0</ele><time>2026-04-12T08:34:05.997Z</time></trkpt><trkpt lat="42.4199053" lon="12.2000776"><ele>719.0</ele><time>2026-04-12T08:34:08.995Z</time></trkpt><trkpt lat="42.4198544" lon="12.200156"><ele>718.0</ele><time>2026-04-12T08:34:10.996Z</time></trkpt><trkpt lat="42.41976" lon="12.2002436"><ele>717.0</ele><time>2026-04-12T08:34:13.997Z</time></trkpt><trkpt lat="42.4196093" lon="12.2002692"><ele>723.2</ele><time>2026-04-12T08:34:14.997Z</time></trkpt><trkpt lat="42.4195355" lon="12.2003747"><ele>729.4000000000001</ele><time>2026-04-12T08:34:16.997Z</time></trkpt><trkpt lat="42.4194621" lon="12.2004457"><ele>735.5999999999999</ele><time>2026-04-12T08:34:18.997Z</time></trkpt><trkpt lat="42.4194162" lon="12.2005213"><ele>741.8</ele><time>2026-04-12T08:34:33.997Z</time></trkpt><trkpt lat="42.4194703" lon="12.2006037"><ele>748.0</ele><time>2026-04-12T08:34:36.997Z</time></trkpt><trkpt lat="42.4195746" lon="12.2006991"><ele>744.8</ele><time>2026-04-12T08:34:37.997Z</time></trkpt><trkpt lat="42.4196865" lon="12.2007463"><ele>741.5999999999999</ele><time>2026-04-12T08:34:38.997Z</time></trkpt><trkpt lat="42.4197743" lon="12.2007629"><ele>738.4000000000001</ele><time>2026-04-12T08:34:39.997Z</time></trkpt><trkpt lat="42.4198497" lon="12.2007794"><ele>735.2</ele><time>2026-04-12T08:34:40.997Z</time></trkpt><trkpt lat="42.4199416" lon="12.2007768"><ele>732.0</ele><time>2026-04-12T08:34:41.997Z</time></trkpt><trkpt lat="42.4200263" lon="12.2007699"><ele>732.0</ele><time>2026-04-12T08:34:42.997Z</time></trkpt><trkpt lat="42.4200874" lon="12.2007947"><ele>732.0</ele><time>2026-04-12T08:34:43.997Z</time></trkpt><trkpt lat="42.4201872" lon="12.200746"><ele>732.0</ele><time>2026-04-12T08:34:45.997Z</time></trkpt><trkpt lat="42.4202436" lon="12.2006996"><ele>732.0</ele><time>2026-04-12T08:34:46.997Z</time></trkpt><trkpt lat="42.4203302" lon="12.2006568"><ele>732.0</ele><time>2026-04-12T08:34:48.997Z</time></trkpt><trkpt lat="42.4204377" lon="12.2006893"><ele>732.0</ele><time>2026-04-12T08:34:50.997Z</time></trkpt><trkpt lat="42.4205511" lon="12.2007722"><ele>730.2</ele><time>2026-04-12T08:34:51.997Z</time></trkpt><trkpt lat="42.4206061" lon="12.2008199"><ele>728.4000000000001</ele><time>2026-04-12T08:34:52.997Z</time></trkpt><trkpt lat="42.4207129" lon="12.2009667"><ele>726.5999999999999</ele><time>2026-04-12T08:34:54.997Z</time></trkpt><trkpt lat="42.4207991" lon="12.2010933"><ele>724.8</ele><time>2026-04-12T08:34:56.997Z</time></trkpt><trkpt lat="42.4208475" lon="12.2011593"><ele>723.0</ele><time>2026-04-12T08:34:57.996Z</time></trkpt><trkpt lat="42.4207793" lon="12.2011643"><ele>723.0</ele><time>2026-04-12T08:35:39.998Z</time></trkpt><trkpt lat="42.4207549" lon="12.2012908"><ele>723.0</ele><time>2026-04-12T08:35:42.997Z</time></trkpt><trkpt lat="42.4207362" lon="12.2014857"><ele>723.0</ele><time>2026-04-12T08:35:44.997Z</time></trkpt><trkpt lat="42.4207343" lon="12.201599"><ele>723.0</ele><time>2026-04-12T08:35:45.997Z</time></trkpt><trkpt lat="42.4207029" lon="12.2017364"><ele>723.0</ele><time>2026-04-12T08:35:47.997Z</time></trkpt><trkpt lat="42.4206362" lon="12.2017515"><ele>727.25</ele><time>2026-04-12T08:35:48.997Z</time></trkpt><trkpt lat="42.4205345" lon="12.2018588"><ele>731.5</ele><time>2026-04-12T08:35:50.997Z</time></trkpt><trkpt lat="42.4203947" lon="12.2018852"><ele>735.75</ele><time>2026-04-12T08:35:51.996Z</time></trkpt><trkpt lat="42.4203327" lon="12.2019751"><ele>740.0</ele><time>2026-04-12T08:35:53.996Z</time></trkpt><trkpt lat="42.4201953" lon="12.2020751"><ele>742.8</ele><time>2026-04-12T08:35:55.997Z</time></trkpt><trkpt lat="42.4200947" lon="12.2021168"><ele>745.6</ele><time>2026-04-12T08:35:57.997Z</time></trkpt><trkpt lat="42.4199859" lon="12.2021751"><ele>748.4000000000001</ele><time>2026-04-12T08:35:59.996Z</time></trkpt><trkpt lat="42.4198666" lon="12.2022449"><ele>751.2</ele><time>2026-04-12T08:36:01.996Z</time></trkpt><trkpt lat="42.4197755" lon="12.2022875"><ele>754.0</ele><time>2026-04-12T08:36:03.996Z</time></trkpt><trkpt lat="42.4197013" lon="12.2022689"><ele>753.9999999999999</ele><time>2026-04-12T08:36:05.997Z</time></trkpt><trkpt lat="42.4196254" lon="12.2023333"><ele>754.0</ele><time>2026-04-12T08:36:08.997Z</time></trkpt><trkpt lat="42.4196961" lon="12.2023144"><ele>754.0</ele><time>2026-04-12T08:36:19.998Z</time></trkpt><trkpt lat="42.4196434" lon="12.2023704"><ele>754.0</ele><time>2026-04-12T08:36:36.997Z</time></trkpt><trkpt lat="42.4196045" lon="12.2024505"><ele>754.0</ele><time>2026-04-12T08:37:14.996Z</time></trkpt><trkpt lat="42.4196583" lon="12.2025147"><ele>753.9999999999999</ele><time>2026-04-12T08:37:32.996Z</time></trkpt><trkpt lat="42.4196927" lon="12.2026059"><ele>754.0</ele><time>2026-04-12T08:38:11.997Z</time></trkpt><trkpt lat="42.4197257" lon="12.2027034"><ele>756.1428571428571</ele><time>2026-04-12T08:38:26.996Z</time></trkpt><trkpt lat="42.419721" lon="12.2027892"><ele>758.2857142857142</ele><time>2026-04-12T08:38:33.997Z</time></trkpt><trkpt lat="42.4197496" lon="12.2028655"><ele>760.4285714285713</ele><time>2026-04-12T08:38:46.996Z</time></trkpt><trkpt lat="42.4197955" lon="12.2029294"><ele>762.5714285714286</ele><time>2026-04-12T08:38:59.997Z</time></trkpt><trkpt lat="42.4198518" lon="12.2029718"><ele>764.7142857142858</ele><time>2026-04-12T08:39:03.997Z</time></trkpt><trkpt lat="42.4199291" lon="12.2029725"><ele>766.8571428571428</ele><time>2026-04-12T08:39:06.997Z</time></trkpt><trkpt lat="42.4198586" lon="12.2029262"><ele>769.0</ele><time>2026-04-12T08:39:45.997Z</time></trkpt><trkpt lat="42.419799" lon="12.2028916"><ele>768.9999999999999</ele><time>2026-04-12T08:39:53.996Z</time></trkpt><trkpt lat="42.4197381" lon="12.2028479"><ele>769.0</ele><time>2026-04-12T08:40:25.996Z</time></trkpt><trkpt lat="42.4197053" lon="12.2027617"><ele>769.0</ele><time>2026-04-12T08:40:28.997Z</time></trkpt><trkpt lat="42.4196477" lon="12.2026551"><ele>769.0</ele><time>2026-04-12T08:40:37.997Z</time></trkpt><trkpt lat="42.4195972" lon="12.2025832"><ele>768.9999999999999</ele><time>2026-04-12T08:40:47.997Z</time></trkpt><trkpt lat="42.4195281" lon="12.2025025"><ele>769.0</ele><time>2026-04-12T08:41:12.996Z</time></trkpt><trkpt lat="42.4194742" lon="12.2024475"><ele>770.1428571428571</ele><time>2026-04-12T08:41:33.997Z</time></trkpt><trkpt lat="42.4194437" lon="12.2023711"><ele>771.2857142857143</ele><time>2026-04-12T08:41:37.997Z</time></trkpt><trkpt lat="42.4194221" lon="12.2022855"><ele>772.4285714285714</ele><time>2026-04-12T08:41:53.123Z</time></trkpt><trkpt lat="42.4193809" lon="12.2021984"><ele>773.5714285714286</ele><time>2026-04-12T08:42:04.213Z</time></trkpt><trkpt lat="42.4192953" lon="12.2021675"><ele>774.7142857142858</ele><time>2026-04-12T08:42:06.997Z</time></trkpt><trkpt lat="42.4192213" lon="12.2021625"><ele>775.8571428571429</ele><time>2026-04-12T08:42:08.997Z</time></trkpt><trkpt lat="42.4191517" lon="12.2021588"><ele>777.0</ele><time>2026-04-12T08:42:11.997Z</time></trkpt><trkpt lat="42.4190874" lon="12.2021168"><ele>777.0</ele><time>2026-04-12T08:42:16.997Z</time></trkpt><trkpt lat="42.41902" lon="12.2020918"><ele>777.0</ele><time>2026-04-12T08:42:54.996Z</time></trkpt><trkpt lat="42.4189449" lon="12.2020401"><ele>777.0</ele><time>2026-04-12T08:43:00.996Z</time></trkpt><trkpt lat="42.418844" lon="12.2020144"><ele>777.0</ele><time>2026-04-12T08:43:02.997Z</time></trkpt><trkpt lat="42.4187562" lon="12.2020082"><ele>777.0</ele><time>2026-04-12T08:43:04.997Z</time></trkpt><trkpt lat="42.4187078" lon="12.2020651"><ele>777.0</ele><time>2026-04-12T08:43:08.996Z</time></trkpt><trkpt lat="42.4187261" lon="12.2021558"><ele>780.3333333333334</ele><time>2026-04-12T08:43:14.996Z</time></trkpt><trkpt lat="42.4187938" lon="12.202233"><ele>783.6666666666667</ele><time>2026-04-12T08:43:17.997Z</time></trkpt><trkpt lat="42.4188266" lon="12.2023375"><ele>787.0</ele><time>2026-04-12T08:43:19.997Z</time></trkpt><trkpt lat="42.41884" lon="12.2024651"><ele>790.3333333333334</ele><time>2026-04-12T08:43:21.996Z</time></trkpt><trkpt lat="42.4188185" lon="12.2025734"><ele>793.6666666666667</ele><time>2026-04-12T08:43:23.996Z</time></trkpt><trkpt lat="42.4188077" lon="12.2026635"><ele>797.0</ele><time>2026-04-12T08:43:26.996Z</time></trkpt><trkpt lat="42.4187871" lon="12.202772"><ele>802.6666666666667</ele><time>2026-04-12T08:43:31.997Z</time></trkpt><trkpt lat="42.4187063" lon="12.2028303"><ele>808.3333333333334</ele><time>2026-04-12T08:43:56.997Z</time></trkpt><trkpt lat="42.4187208" lon="12.2029343"><ele>814.0</ele><time>2026-04-12T08:44:01.997Z</time></trkpt><trkpt lat="42.4187385" lon="12.203027"><ele>819.6666666666667</ele><time>2026-04-12T08:44:05.997Z</time></trkpt><trkpt lat="42.4187606" lon="12.2031186"><ele>825.3333333333334</ele><time>2026-04-12T08:44:10.997Z</time></trkpt><trkpt lat="42.4187778" lon="12.2032388"><ele>831.0</ele><time>2026-04-12T08:44:31.997Z</time></trkpt><trkpt lat="42.4187958" lon="12.2033394"><ele>827.8333333333334</ele><time>2026-04-12T08:44:48.997Z</time></trkpt><trkpt lat="42.4188355" lon="12.2034363"><ele>824.6666666666667</ele><time>2026-04-12T08:44:52.997Z</time></trkpt><trkpt lat="42.4188653" lon="12.2035211"><ele>821.5</ele><time>2026-04-12T08:44:55.995Z</time></trkpt><trkpt lat="42.4187989" lon="12.2034949"><ele>818.3333333333334</ele><time>2026-04-12T08:45:00.996Z</time></trkpt><trkpt lat="42.4186939" lon="12.2034689"><ele>815.1666666666667</ele><time>2026-04-12T08:45:02.996Z</time></trkpt><trkpt lat="42.4186327" lon="12.2034244"><ele>812.0</ele><time>2026-04-12T08:45:04.997Z</time></trkpt><trkpt lat="42.4185306" lon="12.2034001"><ele>815.1666666666667</ele><time>2026-04-12T08:45:18.997Z</time></trkpt><trkpt lat="42.4184666" lon="12.2033217"><ele>818.3333333333334</ele><time>2026-04-12T08:45:20.996Z</time></trkpt><trkpt lat="42.4184392" lon="12.2032214"><ele>821.5</ele><time>2026-04-12T08:45:22.996Z</time></trkpt><trkpt lat="42.4184003" lon="12.2031198"><ele>824.6666666666667</ele><time>2026-04-12T08:45:24.996Z</time></trkpt><trkpt lat="42.4183327" lon="12.2029998"><ele>827.8333333333334</ele><time>2026-04-12T08:45:26.997Z</time></trkpt><trkpt lat="42.4182774" lon="12.2029159"><ele>831.0</ele><time>2026-04-12T08:45:28.997Z</time></trkpt><trkpt lat="42.4182437" lon="12.2028211"><ele>830.9999999999999</ele><time>2026-04-12T08:45:48.997Z</time></trkpt><trkpt lat="42.4182148" lon="12.2027313"><ele>831.0</ele><time>2026-04-12T08:45:52.997Z</time></trkpt><trkpt lat="42.4181893" lon="12.2026302"><ele>831.0</ele><time>2026-04-12T08:46:17.998Z</time></trkpt><trkpt lat="42.4181284" lon="12.2026603"><ele>831.0</ele><time>2026-04-12T08:46:22.927Z</time></trkpt><trkpt lat="42.4180613" lon="12.2026897"><ele>831.0</ele><time>2026-04-12T08:46:27.998Z</time></trkpt><trkpt lat="42.4179881" lon="12.2027287"><ele>830.9999999999999</ele><time>2026-04-12T08:46:34.998Z</time></trkpt><trkpt lat="42.4180017" lon="12.2028288"><ele>831.0</ele><time>2026-04-12T08:46:38.998Z</time></trkpt><trkpt lat="42.4180107" lon="12.2029152"><ele>831.0</ele><time>2026-04-12T08:46:42.998Z</time></trkpt><trkpt lat="42.4180447" lon="12.2030135"><ele>831.0</ele><time>2026-04-12T08:46:51.997Z</time></trkpt><trkpt lat="42.418061" lon="12.2031059"><ele>831.0</ele><time>2026-04-12T08:46:54.998Z</time></trkpt><trkpt lat="42.4180701" lon="12.203198"><ele>831.0</ele><time>2026-04-12T08:46:56.998Z</time></trkpt><trkpt lat="42.4180805" lon="12.2032886"><ele>831.0</ele><time>2026-04-12T08:47:40.997Z</time></trkpt><trkpt lat="42.4180979" lon="12.2034711"><ele>831.0</ele><time>2026-04-12T08:47:45.998Z</time></trkpt><trkpt lat="42.4180925" lon="12.2035758"><ele>834.8</ele><time>2026-04-12T08:47:47.998Z</time></trkpt><trkpt lat="42.4180908" lon="12.2037028"><ele>838.5999999999999</ele><time>2026-04-12T08:47:50.998Z</time></trkpt><trkpt lat="42.4180739" lon="12.2038142"><ele>842.4</ele><time>2026-04-12T08:47:52.998Z</time></trkpt><trkpt lat="42.4180537" lon="12.2040035"><ele>846.2</ele><time>2026-04-12T08:47:54.998Z</time></trkpt><trkpt lat="42.4180401" lon="12.2040969"><ele>850.0</ele><time>2026-04-12T08:47:55.998Z</time></trkpt><trkpt lat="42.4179974" lon="12.2041663"><ele>854.4999999999999</ele><time>2026-04-12T08:47:57.998Z</time></trkpt><trkpt lat="42.4179419" lon="12.2042248"><ele>859.0</ele><time>2026-04-12T08:48:00.998Z</time></trkpt><trkpt lat="42.4179068" lon="12.204308"><ele>863.5</ele><time>2026-04-12T08:48:03.998Z</time></trkpt><trkpt lat="42.4178215" lon="12.2043467"><ele>868.0</ele><time>2026-04-12T08:48:06.998Z</time></trkpt><trkpt lat="42.417747" lon="12.2043811"><ele>872.4999999999999</ele><time>2026-04-12T08:48:08.998Z</time></trkpt><trkpt lat="42.4176608" lon="12.2043991"><ele>877.0</ele><time>2026-04-12T08:48:10.997Z</time></trkpt><trkpt lat="42.4175916" lon="12.204411"><ele>876.9999999999999</ele><time>2026-04-12T08:48:12.998Z</time></trkpt><trkpt lat="42.4175067" lon="12.2044066"><ele>877.0</ele><time>2026-04-12T08:48:14.997Z</time></trkpt><trkpt lat="42.41741" lon="12.2044136"><ele>877.0</ele><time>2026-04-12T08:48:16.998Z</time></trkpt><trkpt lat="42.4173274" lon="12.2044265"><ele>877.0</ele><time>2026-04-12T08:48:18.998Z</time></trkpt><trkpt lat="42.4172712" lon="12.2043472"><ele>876.9999999999999</ele><time>2026-04-12T08:48:20.996Z</time></trkpt><trkpt lat="42.4172145" lon="12.2042838"><ele>877.0</ele><time>2026-04-12T08:48:22.998Z</time></trkpt><trkpt lat="42.4171304" lon="12.2042501"><ele>878.6</ele><time>2026-04-12T08:48:25.998Z</time></trkpt><trkpt lat="42.4170327" lon="12.2043035"><ele>880.2</ele><time>2026-04-12T08:48:28.998Z</time></trkpt><trkpt lat="42.416962" lon="12.2043994"><ele>881.8</ele><time>2026-04-12T08:48:30.998Z</time></trkpt><trkpt lat="42.4168983" lon="12.2044601"><ele>883.4</ele><time>2026-04-12T08:48:33.998Z</time></trkpt><trkpt lat="42.4168507" lon="12.2046332"><ele>885.0</ele><time>2026-04-12T08:48:35.998Z</time></trkpt><trkpt lat="42.4167659" lon="12.2046713"><ele>885.0</ele><time>2026-04-12T08:48:37.998Z</time></trkpt><trkpt lat="42.4167002" lon="12.2047159"><ele>885.0</ele><time>2026-04-12T08:48:39.998Z</time></trkpt><trkpt lat="42.4166327" lon="12.2047801"><ele>885.0</ele><time>2026-04-12T08:48:41.997Z</time></trkpt><trkpt lat="42.416582" lon="12.2048628"><ele>885.0</ele><time>2026-04-12T08:48:43.998Z</time></trkpt><trkpt lat="42.4165246" lon="12.2049285"><ele>885.0</ele><time>2026-04-12T08:48:53.997Z</time></trkpt><trkpt lat="42.416451" lon="12.2049617"><ele>885.0</ele><time>2026-04-12T08:48:56.998Z</time></trkpt><trkpt lat="42.4163743" lon="12.2049741"><ele>888.0</ele><time>2026-04-12T08:49:01.997Z</time></trkpt><trkpt lat="42.4162564" lon="12.2049232"><ele>891.0</ele><time>2026-04-12T08:49:03.998Z</time></trkpt><trkpt lat="42.4161965" lon="12.2048947"><ele>894.0</ele><time>2026-04-12T08:49:04.998Z</time></trkpt><trkpt lat="42.4161343" lon="12.2049239"><ele>897.0</ele><time>2026-04-12T08:49:06.997Z</time></trkpt><trkpt lat="42.4160599" lon="12.2049568"><ele>900.0</ele><time>2026-04-12T08:49:59.998Z</time></trkpt><trkpt lat="42.4160259" lon="12.2050492"><ele>903.0</ele><time>2026-04-12T08:50:02.998Z</time></trkpt><trkpt lat="42.4160912" lon="12.2052249"><ele>903.0</ele><time>2026-04-12T08:50:03.998Z</time></trkpt><trkpt lat="42.4161287" lon="12.2053234"><ele>903.0</ele><time>2026-04-12T08:50:04.998Z</time></trkpt><trkpt lat="42.4161718" lon="12.2054365"><ele>903.0</ele><time>2026-04-12T08:50:05.998Z</time></trkpt><trkpt lat="42.4162178" lon="12.2055577"><ele>903.0</ele><time>2026-04-12T08:50:06.998Z</time></trkpt><trkpt lat="42.4162541" lon="12.2056963"><ele>903.0</ele><time>2026-04-12T08:50:07.998Z</time></trkpt><trkpt lat="42.4162969" lon="12.2058649"><ele>902.8</ele><time>2026-04-12T08:50:08.998Z</time></trkpt><trkpt lat="42.416334" lon="12.205989"><ele>902.5999999999999</ele><time>2026-04-12T08:50:09.998Z</time></trkpt><trkpt lat="42.4163127" lon="12.2061304"><ele>902.4000000000001</ele><time>2026-04-12T08:50:10.997Z</time></trkpt><trkpt lat="42.4163724" lon="12.2062835"><ele>902.2</ele><time>2026-04-12T08:50:11.998Z</time></trkpt><trkpt lat="42.4164051" lon="12.2063992"><ele>902.0</ele><time>2026-04-12T08:50:12.998Z</time></trkpt><trkpt lat="42.4164243" lon="12.2065128"><ele>897.0</ele><time>2026-04-12T08:50:13.998Z</time></trkpt><trkpt lat="42.4164701" lon="12.2065932"><ele>892.0</ele><time>2026-04-12T08:50:15.998Z</time></trkpt><trkpt lat="42.4164721" lon="12.2067077"><ele>887.0</ele><time>2026-04-12T08:50:38.996Z</time></trkpt><trkpt lat="42.4164825" lon="12.2068577"><ele>882.0</ele><time>2026-04-12T08:50:40.998Z</time></trkpt><trkpt lat="42.4164857" lon="12.2069854"><ele>877.0</ele><time>2026-04-12T08:50:41.998Z</time></trkpt><trkpt lat="42.4166049" lon="12.2072773"><ele>876.0</ele><time>2026-04-12T08:50:42.997Z</time></trkpt><trkpt lat="42.4165789" lon="12.2074301"><ele>875.0</ele><time>2026-04-12T08:50:43.998Z</time></trkpt><trkpt lat="42.4166056" lon="12.2076072"><ele>874.0</ele><time>2026-04-12T08:50:44.997Z</time></trkpt><trkpt lat="42.4165822" lon="12.2077753"><ele>873.0</ele><time>2026-04-12T08:50:45.997Z</time></trkpt><trkpt lat="42.4165727" lon="12.2079054"><ele>873.0</ele><time>2026-04-12T08:50:46.997Z</time></trkpt><trkpt lat="42.4165472" lon="12.2080487"><ele>873.0</ele><time>2026-04-12T08:50:47.997Z</time></trkpt><trkpt lat="42.4165262" lon="12.2081467"><ele>873.0</ele><time>2026-04-12T08:50:48.997Z</time></trkpt><trkpt lat="42.4165147" lon="12.2082315"><ele>873.0</ele><time>2026-04-12T08:50:49.998Z</time></trkpt><trkpt lat="42.4162966" lon="12.2083407"><ele>875.0</ele><time>2026-04-12T08:50:50.998Z</time></trkpt><trkpt lat="42.4162372" lon="12.2084481"><ele>877.0</ele><time>2026-04-12T08:50:51.997Z</time></trkpt><trkpt lat="42.4161804" lon="12.2085697"><ele>879.0</ele><time>2026-04-12T08:50:52.998Z</time></trkpt><trkpt lat="42.4161559" lon="12.208704"><ele>881.0</ele><time>2026-04-12T08:50:53.998Z</time></trkpt><trkpt lat="42.4161438" lon="12.2088247"><ele>883.0</ele><time>2026-04-12T08:50:54.998Z</time></trkpt><trkpt lat="42.4161823" lon="12.2090552"><ele>883.0</ele><time>2026-04-12T08:50:55.998Z</time></trkpt><trkpt lat="42.4162097" lon="12.2091768"><ele>883.0</ele><time>2026-04-12T08:50:56.998Z</time></trkpt><trkpt lat="42.4163576" lon="12.2093883"><ele>883.0</ele><time>2026-04-12T08:50:57.998Z</time></trkpt><trkpt lat="42.4164119" lon="12.209541"><ele>883.0</ele><time>2026-04-12T08:50:58.997Z</time></trkpt><trkpt lat="42.4164721" lon="12.209693"><ele>878.4</ele><time>2026-04-12T08:50:59.998Z</time></trkpt><trkpt lat="42.4165297" lon="12.2098121"><ele>873.8</ele><time>2026-04-12T08:51:00.998Z</time></trkpt><trkpt lat="42.4165928" lon="12.2099542"><ele>869.2</ele><time>2026-04-12T08:51:01.998Z</time></trkpt><trkpt lat="42.4166535" lon="12.2100921"><ele>864.6</ele><time>2026-04-12T08:51:02.997Z</time></trkpt><trkpt lat="42.4167028" lon="12.2101853"><ele>860.0</ele><time>2026-04-12T08:51:03.997Z</time></trkpt><trkpt lat="42.4167597" lon="12.2103178"><ele>860.0</ele><time>2026-04-12T08:51:04.997Z</time></trkpt><trkpt lat="42.4168096" lon="12.2104394"><ele>860.0</ele><time>2026-04-12T08:51:05.998Z</time></trkpt><trkpt lat="42.4168734" lon="12.210653"><ele>860.0</ele><time>2026-04-12T08:51:06.998Z</time></trkpt><trkpt lat="42.4169021" lon="12.2107792"><ele>860.0</ele><time>2026-04-12T08:51:07.997Z</time></trkpt><trkpt lat="42.4169273" lon="12.2109094"><ele>859.8</ele><time>2026-04-12T08:51:08.997Z</time></trkpt><trkpt lat="42.4168873" lon="12.2110447"><ele>859.6</ele><time>2026-04-12T08:51:09.997Z</time></trkpt><trkpt lat="42.4168492" lon="12.2111662"><ele>859.4000000000001</ele><time>2026-04-12T08:51:10.997Z</time></trkpt><trkpt lat="42.4167966" lon="12.2112788"><ele>859.2</ele><time>2026-04-12T08:51:11.998Z</time></trkpt><trkpt lat="42.4166652" lon="12.2113592"><ele>859.0</ele><time>2026-04-12T08:51:12.998Z</time></trkpt><trkpt lat="42.4165063" lon="12.2113989"><ele>859.0</ele><time>2026-04-12T08:51:13.998Z</time></trkpt><trkpt lat="42.4163932" lon="12.2114182"><ele>859.0</ele><time>2026-04-12T08:51:14.997Z</time></trkpt><trkpt lat="42.4162572" lon="12.2114326"><ele>859.0</ele><time>2026-04-12T08:51:15.997Z</time></trkpt><trkpt lat="42.4161216" lon="12.21142"><ele>859.0</ele><time>2026-04-12T08:51:16.998Z</time></trkpt><trkpt lat="42.4159909" lon="12.2114124"><ele>861.0</ele><time>2026-04-12T08:51:17.998Z</time></trkpt><trkpt lat="42.4158605" lon="12.2114021"><ele>863.0</ele><time>2026-04-12T08:51:18.998Z</time></trkpt><trkpt lat="42.4157404" lon="12.2113834"><ele>865.0</ele><time>2026-04-12T08:51:19.997Z</time></trkpt><trkpt lat="42.4156284" lon="12.2113688"><ele>867.0</ele><time>2026-04-12T08:51:20.998Z</time></trkpt><trkpt lat="42.4155189" lon="12.2113759"><ele>863.6</ele><time>2026-04-12T08:51:21.998Z</time></trkpt><trkpt lat="42.4154116" lon="12.2113554"><ele>860.2</ele><time>2026-04-12T08:51:22.997Z</time></trkpt><trkpt lat="42.4153081" lon="12.2113407"><ele>856.8</ele><time>2026-04-12T08:51:23.998Z</time></trkpt><trkpt lat="42.4152168" lon="12.2112858"><ele>853.4</ele><time>2026-04-12T08:51:24.997Z</time></trkpt><trkpt lat="42.4151416" lon="12.2111949"><ele>850.0</ele><time>2026-04-12T08:51:25.998Z</time></trkpt><trkpt lat="42.4150599" lon="12.2111224"><ele>850.0</ele><time>2026-04-12T08:51:26.998Z</time></trkpt><trkpt lat="42.4149806" lon="12.2110604"><ele>850.0</ele><time>2026-04-12T08:51:27.998Z</time></trkpt><trkpt lat="42.4149058" lon="12.2109949"><ele>850.0</ele><time>2026-04-12T08:51:28.998Z</time></trkpt><trkpt lat="42.4148097" lon="12.21088"><ele>850.0</ele><time>2026-04-12T08:51:29.997Z</time></trkpt><trkpt lat="42.4147377" lon="12.2108399"><ele>850.0</ele><time>2026-04-12T08:51:30.998Z</time></trkpt><trkpt lat="42.4146713" lon="12.2108335"><ele>850.4</ele><time>2026-04-12T08:51:31.998Z</time></trkpt><trkpt lat="42.4146057" lon="12.2108669"><ele>850.8</ele><time>2026-04-12T08:51:32.996Z</time></trkpt><trkpt lat="42.41455" lon="12.2109082"><ele>851.2</ele><time>2026-04-12T08:51:33.998Z</time></trkpt><trkpt lat="42.4144702" lon="12.2110521"><ele>851.6</ele><time>2026-04-12T08:51:35.996Z</time></trkpt><trkpt lat="42.4144821" lon="12.211162"><ele>852.0</ele><time>2026-04-12T08:51:36.997Z</time></trkpt><trkpt lat="42.4145782" lon="12.2114127"><ele>851.25</ele><time>2026-04-12T08:51:37.998Z</time></trkpt><trkpt lat="42.414633" lon="12.2116265"><ele>850.5</ele><time>2026-04-12T08:51:38.998Z</time></trkpt><trkpt lat="42.414657" lon="12.2117731"><ele>849.75</ele><time>2026-04-12T08:51:39.998Z</time></trkpt><trkpt lat="42.4146907" lon="12.2119242"><ele>849.0</ele><time>2026-04-12T08:51:40.997Z</time></trkpt><trkpt lat="42.4147243" lon="12.2120742"><ele>844.8000000000001</ele><time>2026-04-12T08:51:41.997Z</time></trkpt><trkpt lat="42.4147458" lon="12.2122234"><ele>840.6</ele><time>2026-04-12T08:51:42.998Z</time></trkpt><trkpt lat="42.414761" lon="12.2123694"><ele>836.4</ele><time>2026-04-12T08:51:43.998Z</time></trkpt><trkpt lat="42.4147966" lon="12.2125083"><ele>832.2</ele><time>2026-04-12T08:51:44.998Z</time></trkpt><trkpt lat="42.4148238" lon="12.2126613"><ele>828.0</ele><time>2026-04-12T08:51:45.998Z</time></trkpt><trkpt lat="42.4148432" lon="12.2128299"><ele>826.2</ele><time>2026-04-12T08:51:46.998Z</time></trkpt><trkpt lat="42.4148609" lon="12.212977"><ele>824.4</ele><time>2026-04-12T08:51:47.997Z</time></trkpt><trkpt lat="42.4148675" lon="12.2131043"><ele>822.6</ele><time>2026-04-12T08:51:48.997Z</time></trkpt><trkpt lat="42.4148624" lon="12.2132205"><ele>820.8000000000001</ele><time>2026-04-12T08:51:49.998Z</time></trkpt><trkpt lat="42.4148223" lon="12.2133007"><ele>819.0</ele><time>2026-04-12T08:51:50.997Z</time></trkpt><trkpt lat="42.4146459" lon="12.2133815"><ele>819.0</ele><time>2026-04-12T08:51:52.998Z</time></trkpt><trkpt lat="42.4145403" lon="12.2134007"><ele>819.0</ele><time>2026-04-12T08:51:53.998Z</time></trkpt><trkpt lat="42.4144145" lon="12.2133975"><ele>819.0</ele><time>2026-04-12T08:51:54.997Z</time></trkpt><trkpt lat="42.4142873" lon="12.213406"><ele>819.0</ele><time>2026-04-12T08:51:55.998Z</time></trkpt><trkpt lat="42.4141458" lon="12.2134084"><ele>819.0</ele><time>2026-04-12T08:51:56.998Z</time></trkpt><trkpt lat="42.4139291" lon="12.2135102"><ele>819.0</ele><time>2026-04-12T08:51:58.998Z</time></trkpt><trkpt lat="42.413833" lon="12.2136046"><ele>819.0</ele><time>2026-04-12T08:51:59.998Z</time></trkpt><trkpt lat="42.4137744" lon="12.2137106"><ele>819.0</ele><time>2026-04-12T08:52:00.998Z</time></trkpt><trkpt lat="42.4137114" lon="12.2138223"><ele>816.8000000000001</ele><time>2026-04-12T08:52:01.998Z</time></trkpt><trkpt lat="42.4136604" lon="12.213959"><ele>814.6</ele><time>2026-04-12T08:52:02.998Z</time></trkpt><trkpt lat="42.4135972" lon="12.2140615"><ele>812.4</ele><time>2026-04-12T08:52:03.998Z</time></trkpt><trkpt lat="42.4135283" lon="12.2141856"><ele>810.2</ele><time>2026-04-12T08:52:04.998Z</time></trkpt><trkpt lat="42.4134225" lon="12.2142678"><ele>808.0</ele><time>2026-04-12T08:52:05.998Z</time></trkpt><trkpt lat="42.4132908" lon="12.2143072"><ele>808.0</ele><time>2026-04-12T08:52:06.998Z</time></trkpt><trkpt lat="42.4131938" lon="12.2143932"><ele>808.0</ele><time>2026-04-12T08:52:07.998Z</time></trkpt><trkpt lat="42.4130998" lon="12.2144826"><ele>808.0</ele><time>2026-04-12T08:52:08.998Z</time></trkpt><trkpt lat="42.4130415" lon="12.2145853"><ele>808.0</ele><time>2026-04-12T08:52:09.997Z</time></trkpt><trkpt lat="42.4130353" lon="12.2146849"><ele>808.0</ele><time>2026-04-12T08:52:10.998Z</time></trkpt><trkpt lat="42.4130826" lon="12.2148958"><ele>804.75</ele><time>2026-04-12T08:52:12.998Z</time></trkpt><trkpt lat="42.4131089" lon="12.2150442"><ele>801.5</ele><time>2026-04-12T08:52:13.998Z</time></trkpt><trkpt lat="42.4131917" lon="12.2151885"><ele>798.25</ele><time>2026-04-12T08:52:14.998Z</time></trkpt><trkpt lat="42.413272" lon="12.2153951"><ele>795.0</ele><time>2026-04-12T08:52:15.998Z</time></trkpt><trkpt lat="42.4133051" lon="12.2155506"><ele>794.5</ele><time>2026-04-12T08:52:16.998Z</time></trkpt><trkpt lat="42.4134173" lon="12.2157397"><ele>794.0</ele><time>2026-04-12T08:52:17.998Z</time></trkpt><trkpt lat="42.413421" lon="12.2158359"><ele>793.5</ele><time>2026-04-12T08:52:18.998Z</time></trkpt><trkpt lat="42.4134497" lon="12.2159722"><ele>793.0</ele><time>2026-04-12T08:52:19.998Z</time></trkpt><trkpt lat="42.4135183" lon="12.2161258"><ele>793.0</ele><time>2026-04-12T08:52:20.997Z</time></trkpt><trkpt lat="42.4135536" lon="12.2162607"><ele>793.0</ele><time>2026-04-12T08:52:21.998Z</time></trkpt><trkpt lat="42.4135605" lon="12.2165083"><ele>793.0</ele><time>2026-04-12T08:52:22.998Z</time></trkpt><trkpt lat="42.4135343" lon="12.2166406"><ele>793.0</ele><time>2026-04-12T08:52:23.998Z</time></trkpt><trkpt lat="42.4133564" lon="12.216761"><ele>793.25</ele><time>2026-04-12T08:52:24.998Z</time></trkpt><trkpt lat="42.4132054" lon="12.2168009"><ele>793.5</ele><time>2026-04-12T08:52:25.997Z</time></trkpt><trkpt lat="42.413105" lon="12.2168632"><ele>793.75</ele><time>2026-04-12T08:52:26.998Z</time></trkpt><trkpt lat="42.413004" lon="12.2169201"><ele>794.0</ele><time>2026-04-12T08:52:27.998Z</time></trkpt><trkpt lat="42.4128912" lon="12.21697"><ele>794.0</ele><time>2026-04-12T08:52:28.997Z</time></trkpt><trkpt lat="42.4127922" lon="12.2170255"><ele>794.0</ele><time>2026-04-12T08:52:29.997Z</time></trkpt><trkpt lat="42.412688" lon="12.2170798"><ele>794.0</ele><time>2026-04-12T08:52:30.997Z</time></trkpt><trkpt lat="42.412591" lon="12.2171338"><ele>794.0</ele><time>2026-04-12T08:52:31.998Z</time></trkpt><trkpt lat="42.4125124" lon="12.2171903"><ele>794.0</ele><time>2026-04-12T08:52:32.996Z</time></trkpt><trkpt lat="42.4124249" lon="12.2172518"><ele>789.75</ele><time>2026-04-12T08:52:33.998Z</time></trkpt><trkpt lat="42.412336" lon="12.2173553"><ele>785.5</ele><time>2026-04-12T08:52:34.998Z</time></trkpt><trkpt lat="42.4122522" lon="12.2174724"><ele>781.25</ele><time>2026-04-12T08:52:35.998Z</time></trkpt><trkpt lat="42.412186" lon="12.2175936"><ele>777.0</ele><time>2026-04-12T08:52:36.998Z</time></trkpt><trkpt lat="42.4121268" lon="12.2177233"><ele>777.0</ele><time>2026-04-12T08:52:37.997Z</time></trkpt><trkpt lat="42.4120768" lon="12.21785"><ele>777.0</ele><time>2026-04-12T08:52:38.998Z</time></trkpt><trkpt lat="42.4120262" lon="12.2179682"><ele>777.0</ele><time>2026-04-12T08:52:39.998Z</time></trkpt><trkpt lat="42.4119373" lon="12.2180715"><ele>777.0</ele><time>2026-04-12T08:52:40.998Z</time></trkpt><trkpt lat="42.4118604" lon="12.2181526"><ele>777.0</ele><time>2026-04-12T08:52:41.997Z</time></trkpt><trkpt lat="42.4117212" lon="12.2182198"><ele>773.4000000000001</ele><time>2026-04-12T08:52:42.998Z</time></trkpt><trkpt lat="42.4115954" lon="12.2182436"><ele>769.8000000000001</ele><time>2026-04-12T08:52:43.998Z</time></trkpt><trkpt lat="42.411494" lon="12.2182397"><ele>766.2</ele><time>2026-04-12T08:52:44.998Z</time></trkpt><trkpt lat="42.4113495" lon="12.2183004"><ele>762.6</ele><time>2026-04-12T08:52:45.998Z</time></trkpt><trkpt lat="42.4113133" lon="12.2182229"><ele>759.0</ele><time>2026-04-12T08:52:46.998Z</time></trkpt><trkpt lat="42.4112473" lon="12.2181989"><ele>760.0</ele><time>2026-04-12T08:52:47.998Z</time></trkpt><trkpt lat="42.4112262" lon="12.218108"><ele>761.0</ele><time>2026-04-12T08:52:48.997Z</time></trkpt><trkpt lat="42.4111953" lon="12.2180178"><ele>762.0</ele><time>2026-04-12T08:52:57.997Z</time></trkpt><trkpt lat="42.4111193" lon="12.2179473"><ele>763.0</ele><time>2026-04-12T08:53:00.998Z</time></trkpt><trkpt lat="42.4110619" lon="12.2178469"><ele>764.0</ele><time>2026-04-12T08:53:01.998Z</time></trkpt><trkpt lat="42.4109927" lon="12.2177615"><ele>765.0</ele><time>2026-04-12T08:53:02.997Z</time></trkpt><trkpt lat="42.4109145" lon="12.2177236"><ele>765.0</ele><time>2026-04-12T08:53:03.998Z</time></trkpt><trkpt lat="42.4108248" lon="12.2177527"><ele>765.0</ele><time>2026-04-12T08:53:04.998Z</time></trkpt><trkpt lat="42.4107477" lon="12.2177594"><ele>765.0</ele><time>2026-04-12T08:53:05.998Z</time></trkpt><trkpt lat="42.4106713" lon="12.2177877"><ele>765.0</ele><time>2026-04-12T08:53:06.997Z</time></trkpt><trkpt lat="42.4105978" lon="12.2178222"><ele>765.0</ele><time>2026-04-12T08:53:07.998Z</time></trkpt><trkpt lat="42.4105219" lon="12.2178413"><ele>765.0</ele><time>2026-04-12T08:53:08.997Z</time></trkpt><trkpt lat="42.4104364" lon="12.2178649"><ele>765.0</ele><time>2026-04-12T08:53:09.998Z</time></trkpt><trkpt lat="42.410351" lon="12.2178923"><ele>765.0</ele><time>2026-04-12T08:53:10.998Z</time></trkpt><trkpt lat="42.410257" lon="12.2179096"><ele>765.0</ele><time>2026-04-12T08:53:11.998Z</time></trkpt><trkpt lat="42.4101746" lon="12.2179301"><ele>765.0</ele><time>2026-04-12T08:53:12.998Z</time></trkpt><trkpt lat="42.410106" lon="12.2178419"><ele>765.0</ele><time>2026-04-12T08:53:13.998Z</time></trkpt><trkpt lat="42.41003" lon="12.217818"><ele>765.0</ele><time>2026-04-12T08:53:14.998Z</time></trkpt><trkpt lat="42.4099628" lon="12.2177818"><ele>765.0</ele><time>2026-04-12T08:53:15.997Z</time></trkpt><trkpt lat="42.4098888" lon="12.2177537"><ele>765.0</ele><time>2026-04-12T08:53:16.998Z</time></trkpt><trkpt lat="42.4098227" lon="12.2177491"><ele>765.0</ele><time>2026-04-12T08:53:17.998Z</time></trkpt><trkpt lat="42.409734" lon="12.2177785"><ele>765.0</ele><time>2026-04-12T08:53:18.998Z</time></trkpt><trkpt lat="42.409637" lon="12.21784"><ele>765.0</ele><time>2026-04-12T08:53:19.998Z</time></trkpt><trkpt lat="42.4095022" lon="12.218003"><ele>763.0</ele><time>2026-04-12T08:53:20.997Z</time></trkpt><trkpt lat="42.4094014" lon="12.2181639"><ele>761.0</ele><time>2026-04-12T08:53:21.998Z</time></trkpt><trkpt lat="42.4093236" lon="12.2183282"><ele>759.0</ele><time>2026-04-12T08:53:22.997Z</time></trkpt><trkpt lat="42.4092513" lon="12.2184571"><ele>757.0</ele><time>2026-04-12T08:53:23.998Z</time></trkpt><trkpt lat="42.4091799" lon="12.2185924"><ele>757.0</ele><time>2026-04-12T08:53:24.997Z</time></trkpt><trkpt lat="42.4090987" lon="12.2187287"><ele>757.0</ele><time>2026-04-12T08:53:25.996Z</time></trkpt><trkpt lat="42.408997" lon="12.2188254"><ele>757.0</ele><time>2026-04-12T08:53:26.997Z</time></trkpt><trkpt lat="42.4089131" lon="12.2188832"><ele>757.0</ele><time>2026-04-12T08:53:27.997Z</time></trkpt><trkpt lat="42.4087889" lon="12.2188766"><ele>758.4000000000001</ele><time>2026-04-12T08:53:28.998Z</time></trkpt><trkpt lat="42.4086571" lon="12.2188643"><ele>759.8000000000001</ele><time>2026-04-12T08:53:29.998Z</time></trkpt><trkpt lat="42.4085287" lon="12.2188057"><ele>761.2</ele><time>2026-04-12T08:53:30.997Z</time></trkpt><trkpt lat="42.4084253" lon="12.2188184"><ele>762.6</ele><time>2026-04-12T08:53:31.998Z</time></trkpt><trkpt lat="42.408352" lon="12.2187999"><ele>764.0</ele><time>2026-04-12T08:53:32.996Z</time></trkpt><trkpt lat="42.4082755" lon="12.2188073"><ele>764.0</ele><time>2026-04-12T08:53:33.997Z</time></trkpt><trkpt lat="42.4081587" lon="12.2188206"><ele>764.0</ele><time>2026-04-12T08:53:35.998Z</time></trkpt><trkpt lat="42.4080493" lon="12.2188384"><ele>764.0</ele><time>2026-04-12T08:53:37.998Z</time></trkpt><trkpt lat="42.4079296" lon="12.2188815"><ele>764.0</ele><time>2026-04-12T08:53:39.998Z</time></trkpt><trkpt lat="42.4078662" lon="12.2189101"><ele>764.0</ele><time>2026-04-12T08:53:40.997Z</time></trkpt><trkpt lat="42.407757" lon="12.2188993"><ele>764.5</ele><time>2026-04-12T08:53:41.996Z</time></trkpt><trkpt lat="42.4076899" lon="12.2189478"><ele>765.0</ele><time>2026-04-12T08:53:42.998Z</time></trkpt><trkpt lat="42.407636" lon="12.2189992"><ele>765.5</ele><time>2026-04-12T08:53:43.998Z</time></trkpt><trkpt lat="42.4075998" lon="12.2191095"><ele>766.0</ele><time>2026-04-12T08:53:44.997Z</time></trkpt><trkpt lat="42.4075622" lon="12.2192033"><ele>766.5</ele><time>2026-04-12T08:53:45.996Z</time></trkpt><trkpt lat="42.4075507" lon="12.219303"><ele>767.0</ele><time>2026-04-12T08:53:46.998Z</time></trkpt><trkpt lat="42.407554" lon="12.2194775"><ele>764.75</ele><time>2026-04-12T08:53:47.997Z</time></trkpt><trkpt lat="42.4075773" lon="12.2196718"><ele>762.5</ele><time>2026-04-12T08:53:48.998Z</time></trkpt><trkpt lat="42.4076226" lon="12.2198183"><ele>760.25</ele><time>2026-04-12T08:53:49.998Z</time></trkpt><trkpt lat="42.4076632" lon="12.219975"><ele>758.0</ele><time>2026-04-12T08:53:50.997Z</time></trkpt><trkpt lat="42.4077392" lon="12.2203007"><ele>758.0</ele><time>2026-04-12T08:53:51.997Z</time></trkpt><trkpt lat="42.407775" lon="12.2204781"><ele>758.0</ele><time>2026-04-12T08:53:52.997Z</time></trkpt><trkpt lat="42.4077935" lon="12.2206434"><ele>758.0</ele><time>2026-04-12T08:53:53.998Z</time></trkpt><trkpt lat="42.4077946" lon="12.2207771"><ele>758.0</ele><time>2026-04-12T08:53:54.998Z</time></trkpt><trkpt lat="42.407772" lon="12.2209231"><ele>756.6666666666666</ele><time>2026-04-12T08:53:55.998Z</time></trkpt><trkpt lat="42.4076952" lon="12.2210741"><ele>755.3333333333334</ele><time>2026-04-12T08:53:56.997Z</time></trkpt><trkpt lat="42.4075906" lon="12.2212381"><ele>754.0</ele><time>2026-04-12T08:53:57.997Z</time></trkpt><trkpt lat="42.4075008" lon="12.2214186"><ele>751.75</ele><time>2026-04-12T08:53:58.998Z</time></trkpt><trkpt lat="42.4074127" lon="12.2215906"><ele>749.5</ele><time>2026-04-12T08:53:59.998Z</time></trkpt><trkpt lat="42.4073291" lon="12.2217582"><ele>747.25</ele><time>2026-04-12T08:54:00.998Z</time></trkpt><trkpt lat="42.4072542" lon="12.2218915"><ele>745.0</ele><time>2026-04-12T08:54:01.997Z</time></trkpt><trkpt lat="42.407161" lon="12.222017"><ele>745.4</ele><time>2026-04-12T08:54:02.997Z</time></trkpt><trkpt lat="42.4070666" lon="12.2221241"><ele>745.8</ele><time>2026-04-12T08:54:03.998Z</time></trkpt><trkpt lat="42.4069749" lon="12.2222032"><ele>746.2</ele><time>2026-04-12T08:54:04.997Z</time></trkpt><trkpt lat="42.4068738" lon="12.22224"><ele>746.6</ele><time>2026-04-12T08:54:05.998Z</time></trkpt><trkpt lat="42.406781" lon="12.2222986"><ele>747.0</ele><time>2026-04-12T08:54:06.998Z</time></trkpt><trkpt lat="42.4066953" lon="12.2223316"><ele>747.0</ele><time>2026-04-12T08:54:07.998Z</time></trkpt><trkpt lat="42.406607" lon="12.2223713"><ele>747.0</ele><time>2026-04-12T08:54:09.998Z</time></trkpt><trkpt lat="42.4065214" lon="12.222417"><ele>747.0</ele><time>2026-04-12T08:54:11.997Z</time></trkpt><trkpt lat="42.4064527" lon="12.2224473"><ele>747.0</ele><time>2026-04-12T08:54:14.998Z</time></trkpt><trkpt lat="42.4063772" lon="12.2223862"><ele>747.0</ele><time>2026-04-12T08:54:19.998Z</time></trkpt><trkpt lat="42.4063373" lon="12.2223082"><ele>747.0</ele><time>2026-04-12T08:54:20.998Z</time></trkpt><trkpt lat="42.4062829" lon="12.2221988"><ele>749.5</ele><time>2026-04-12T08:54:23.997Z</time></trkpt><trkpt lat="42.4062955" lon="12.2220856"><ele>752.0</ele><time>2026-04-12T08:54:25.998Z</time></trkpt><trkpt lat="42.4063337" lon="12.2219581"><ele>754.5</ele><time>2026-04-12T08:54:27.998Z</time></trkpt><trkpt lat="42.4063526" lon="12.2218228"><ele>757.0</ele><time>2026-04-12T08:54:29.998Z</time></trkpt><trkpt lat="42.4063809" lon="12.2217462"><ele>759.5</ele><time>2026-04-12T08:54:31.998Z</time></trkpt><trkpt lat="42.4064182" lon="12.2216765"><ele>762.0</ele><time>2026-04-12T08:54:33.998Z</time></trkpt><trkpt lat="42.4064584" lon="12.2215935"><ele>762.0</ele><time>2026-04-12T08:54:35.998Z</time></trkpt><trkpt lat="42.406506" lon="12.2215128"><ele>762.0</ele><time>2026-04-12T08:54:37.998Z</time></trkpt><trkpt lat="42.4065588" lon="12.2214256"><ele>762.0</ele><time>2026-04-12T08:54:39.998Z</time></trkpt><trkpt lat="42.4066161" lon="12.221356"><ele>762.0</ele><time>2026-04-12T08:54:41.998Z</time></trkpt><trkpt lat="42.4067039" lon="12.2212297"><ele>762.0</ele><time>2026-04-12T08:54:43.996Z</time></trkpt><trkpt lat="42.4067554" lon="12.2211234"><ele>765.1666666666666</ele><time>2026-04-12T08:54:45.997Z</time></trkpt><trkpt lat="42.4068025" lon="12.220993"><ele>768.3333333333333</ele><time>2026-04-12T08:54:47.997Z</time></trkpt><trkpt lat="42.4068275" lon="12.2209051"><ele>771.5</ele><time>2026-04-12T08:54:48.998Z</time></trkpt><trkpt lat="42.406857" lon="12.2208166"><ele>774.6666666666666</ele><time>2026-04-12T08:54:49.997Z</time></trkpt><trkpt lat="42.4068871" lon="12.2207076"><ele>777.8333333333333</ele><time>2026-04-12T08:54:50.998Z</time></trkpt><trkpt lat="42.4069313" lon="12.2206157"><ele>781.0</ele><time>2026-04-12T08:54:51.998Z</time></trkpt><trkpt lat="42.4069657" lon="12.2205052"><ele>783.8</ele><time>2026-04-12T08:54:52.998Z</time></trkpt><trkpt lat="42.4070042" lon="12.2204148"><ele>786.5999999999999</ele><time>2026-04-12T08:54:53.998Z</time></trkpt><trkpt lat="42.4070335" lon="12.2202998"><ele>789.4</ele><time>2026-04-12T08:54:54.998Z</time></trkpt><trkpt lat="42.4070687" lon="12.2201623"><ele>792.2</ele><time>2026-04-12T08:54:57.998Z</time></trkpt><trkpt lat="42.4070325" lon="12.2200261"><ele>795.0</ele><time>2026-04-12T08:54:59.998Z</time></trkpt><trkpt lat="42.4069952" lon="12.2198782"><ele>795.6</ele><time>2026-04-12T08:55:00.998Z</time></trkpt><trkpt lat="42.4069619" lon="12.2197749"><ele>796.2</ele><time>2026-04-12T08:55:01.998Z</time></trkpt><trkpt lat="42.4069214" lon="12.2196793"><ele>796.8</ele><time>2026-04-12T08:55:02.998Z</time></trkpt><trkpt lat="42.4069173" lon="12.2195436"><ele>797.4</ele><time>2026-04-12T08:55:03.998Z</time></trkpt><trkpt lat="42.4068852" lon="12.2194497"><ele>798.0</ele><time>2026-04-12T08:55:04.997Z</time></trkpt><trkpt lat="42.4068661" lon="12.2192803"><ele>798.0</ele><time>2026-04-12T08:55:06.998Z</time></trkpt><trkpt lat="42.4068203" lon="12.2192089"><ele>798.0</ele><time>2026-04-12T08:55:07.997Z</time></trkpt><trkpt lat="42.4067946" lon="12.219119"><ele>798.0</ele><time>2026-04-12T08:55:08.997Z</time></trkpt><trkpt lat="42.4066787" lon="12.219056"><ele>798.0</ele><time>2026-04-12T08:55:10.998Z</time></trkpt><trkpt lat="42.4066067" lon="12.2189789"><ele>798.0</ele><time>2026-04-12T08:55:11.998Z</time></trkpt><trkpt lat="42.4065309" lon="12.2189276"><ele>798.0</ele><time>2026-04-12T08:55:12.998Z</time></trkpt><trkpt lat="42.4064699" lon="12.2188556"><ele>798.6666666666666</ele><time>2026-04-12T08:55:13.998Z</time></trkpt><trkpt lat="42.4064752" lon="12.2187344"><ele>799.3333333333333</ele><time>2026-04-12T08:55:14.998Z</time></trkpt><trkpt lat="42.4064639" lon="12.2186387"><ele>800.0</ele><time>2026-04-12T08:55:15.999Z</time></trkpt><trkpt lat="42.4064536" lon="12.2185178"><ele>800.6666666666666</ele><time>2026-04-12T08:55:16.998Z</time></trkpt><trkpt lat="42.4064703" lon="12.2184335"><ele>801.3333333333333</ele><time>2026-04-12T08:55:17.998Z</time></trkpt><trkpt lat="42.4065155" lon="12.2183175"><ele>802.0</ele><time>2026-04-12T08:55:18.998Z</time></trkpt><trkpt lat="42.4065493" lon="12.2181775"><ele>803.9999999999999</ele><time>2026-04-12T08:55:20.998Z</time></trkpt><trkpt lat="42.4065432" lon="12.218082"><ele>806.0</ele><time>2026-04-12T08:55:21.997Z</time></trkpt><trkpt lat="42.4065407" lon="12.2178951"><ele>808.0</ele><time>2026-04-12T08:55:23.998Z</time></trkpt><trkpt lat="42.4065684" lon="12.2177912"><ele>810.0</ele><time>2026-04-12T08:55:24.998Z</time></trkpt><trkpt lat="42.4066064" lon="12.2177007"><ele>811.9999999999999</ele><time>2026-04-12T08:55:25.998Z</time></trkpt><trkpt lat="42.4066367" lon="12.217608"><ele>814.0</ele><time>2026-04-12T08:55:26.998Z</time></trkpt><trkpt lat="42.4066838" lon="12.217431"><ele>814.0</ele><time>2026-04-12T08:55:28.998Z</time></trkpt><trkpt lat="42.4067097" lon="12.2173389"><ele>814.0</ele><time>2026-04-12T08:55:29.998Z</time></trkpt><trkpt lat="42.4067573" lon="12.2171833"><ele>814.0</ele><time>2026-04-12T08:55:31.997Z</time></trkpt><trkpt lat="42.4068045" lon="12.2170253"><ele>814.0</ele><time>2026-04-12T08:55:33.998Z</time></trkpt><trkpt lat="42.4067969" lon="12.2168497"><ele>816.4000000000001</ele><time>2026-04-12T08:55:35.998Z</time></trkpt><trkpt lat="42.4068282" lon="12.2166923"><ele>818.8</ele><time>2026-04-12T08:55:36.998Z</time></trkpt><trkpt lat="42.406832" lon="12.2165819"><ele>821.2</ele><time>2026-04-12T08:55:37.998Z</time></trkpt><trkpt lat="42.4068545" lon="12.2164683"><ele>823.5999999999999</ele><time>2026-04-12T08:55:38.998Z</time></trkpt><trkpt lat="42.4068862" lon="12.2163118"><ele>826.0</ele><time>2026-04-12T08:55:40.998Z</time></trkpt><trkpt lat="42.4068904" lon="12.2162207"><ele>828.4</ele><time>2026-04-12T08:55:41.998Z</time></trkpt><trkpt lat="42.4068894" lon="12.216062"><ele>830.8</ele><time>2026-04-12T08:55:43.997Z</time></trkpt><trkpt lat="42.406855" lon="12.2159327"><ele>833.1999999999999</ele><time>2026-04-12T08:55:45.998Z</time></trkpt><trkpt lat="42.4067944" lon="12.2158385"><ele>835.5999999999999</ele><time>2026-04-12T08:55:47.998Z</time></trkpt><trkpt lat="42.4067148" lon="12.2157468"><ele>838.0</ele><time>2026-04-12T08:55:49.997Z</time></trkpt><trkpt lat="42.4066815" lon="12.2156328"><ele>840.5999999999999</ele><time>2026-04-12T08:55:51.998Z</time></trkpt><trkpt lat="42.4066098" lon="12.215513"><ele>843.1999999999999</ele><time>2026-04-12T08:55:53.998Z</time></trkpt><trkpt lat="42.4065652" lon="12.215409"><ele>845.8</ele><time>2026-04-12T08:55:55.997Z</time></trkpt><trkpt lat="42.4065467" lon="12.2153117"><ele>848.4</ele><time>2026-04-12T08:55:57.997Z</time></trkpt><trkpt lat="42.4065101" lon="12.2151803"><ele>851.0</ele><time>2026-04-12T08:55:59.998Z</time></trkpt><trkpt lat="42.4065038" lon="12.215082"><ele>851.0000000000001</ele><time>2026-04-12T08:56:01.997Z</time></trkpt><trkpt lat="42.4064689" lon="12.2149937"><ele>851.0</ele><time>2026-04-12T08:56:03.997Z</time></trkpt><trkpt lat="42.4064619" lon="12.2148383"><ele>851.0</ele><time>2026-04-12T08:56:05.998Z</time></trkpt><trkpt lat="42.4064462" lon="12.2147468"><ele>851.0</ele><time>2026-04-12T08:56:06.997Z</time></trkpt><trkpt lat="42.406483" lon="12.2146587"><ele>851.0000000000001</ele><time>2026-04-12T08:56:07.998Z</time></trkpt><trkpt lat="42.4064772" lon="12.2145061"><ele>851.0</ele><time>2026-04-12T08:56:09.997Z</time></trkpt><trkpt lat="42.4064421" lon="12.2143673"><ele>853.6666666666667</ele><time>2026-04-12T08:56:11.997Z</time></trkpt><trkpt lat="42.4064401" lon="12.2142561"><ele>856.3333333333334</ele><time>2026-04-12T08:56:13.998Z</time></trkpt><trkpt lat="42.4064537" lon="12.2141716"><ele>859.0</ele><time>2026-04-12T08:56:14.998Z</time></trkpt><trkpt lat="42.4064424" lon="12.2140815"><ele>861.6666666666667</ele><time>2026-04-12T08:56:16.997Z</time></trkpt><trkpt lat="42.406473" lon="12.2139269"><ele>864.3333333333334</ele><time>2026-04-12T08:56:18.998Z</time></trkpt><trkpt lat="42.4064424" lon="12.2138093"><ele>867.0</ele><time>2026-04-12T08:56:20.998Z</time></trkpt><trkpt lat="42.4064247" lon="12.2136316"><ele>870.6</ele><time>2026-04-12T08:56:23.998Z</time></trkpt><trkpt lat="42.4063557" lon="12.2135428"><ele>874.2</ele><time>2026-04-12T08:56:25.998Z</time></trkpt><trkpt lat="42.4063556" lon="12.2134312"><ele>877.8</ele><time>2026-04-12T08:56:27.997Z</time></trkpt><trkpt lat="42.4063931" lon="12.2133198"><ele>881.4</ele><time>2026-04-12T08:56:29.996Z</time></trkpt><trkpt lat="42.4064509" lon="12.2131728"><ele>885.0</ele><time>2026-04-12T08:56:31.998Z</time></trkpt><trkpt lat="42.4064823" lon="12.2130967"><ele>889.0</ele><time>2026-04-12T08:56:32.997Z</time></trkpt><trkpt lat="42.4065244" lon="12.2129823"><ele>893.0</ele><time>2026-04-12T08:56:34.998Z</time></trkpt><trkpt lat="42.4065706" lon="12.2129225"><ele>897.0</ele><time>2026-04-12T08:56:35.998Z</time></trkpt><trkpt lat="42.4066364" lon="12.2127784"><ele>901.0</ele><time>2026-04-12T08:56:37.998Z</time></trkpt><trkpt lat="42.4066889" lon="12.2126283"><ele>905.0</ele><time>2026-04-12T08:56:39.998Z</time></trkpt><trkpt lat="42.4067013" lon="12.2125141"><ele>905.0000000000001</ele><time>2026-04-12T08:56:42.997Z</time></trkpt><trkpt lat="42.4066675" lon="12.2124289"><ele>905.0</ele><time>2026-04-12T08:56:44.998Z</time></trkpt><trkpt lat="42.4066447" lon="12.2123355"><ele>905.0</ele><time>2026-04-12T08:56:45.998Z</time></trkpt><trkpt lat="42.4067281" lon="12.2121927"><ele>905.0</ele><time>2026-04-12T08:56:47.998Z</time></trkpt><trkpt lat="42.4068227" lon="12.2121355"><ele>905.0000000000001</ele><time>2026-04-12T08:56:49.997Z</time></trkpt><trkpt lat="42.4068719" lon="12.2120732"><ele>905.0</ele><time>2026-04-12T08:56:52.998Z</time></trkpt><trkpt lat="42.4068582" lon="12.2121906"><ele>907.8333333333334</ele><time>2026-04-12T08:57:09.998Z</time></trkpt><trkpt lat="42.4069234" lon="12.2121275"><ele>910.6666666666667</ele><time>2026-04-12T08:57:14.998Z</time></trkpt><trkpt lat="42.4069659" lon="12.2120103"><ele>913.5</ele><time>2026-04-12T08:57:16.997Z</time></trkpt><trkpt lat="42.4069958" lon="12.2118939"><ele>916.3333333333333</ele><time>2026-04-12T08:57:18.998Z</time></trkpt><trkpt lat="42.4069702" lon="12.211801"><ele>919.1666666666666</ele><time>2026-04-12T08:57:22.998Z</time></trkpt><trkpt lat="42.406961" lon="12.2117115"><ele>922.0</ele><time>2026-04-12T08:57:23.998Z</time></trkpt><trkpt lat="42.4069586" lon="12.2115773"><ele>923.5714285714287</ele><time>2026-04-12T08:57:25.998Z</time></trkpt><trkpt lat="42.4069775" lon="12.2114753"><ele>925.1428571428572</ele><time>2026-04-12T08:57:26.997Z</time></trkpt><trkpt lat="42.406969" lon="12.2113802"><ele>926.7142857142858</ele><time>2026-04-12T08:57:27.997Z</time></trkpt><trkpt lat="42.4069441" lon="12.2112967"><ele>928.2857142857142</ele><time>2026-04-12T08:57:28.998Z</time></trkpt><trkpt lat="42.4069297" lon="12.2112004"><ele>929.8571428571428</ele><time>2026-04-12T08:57:29.997Z</time></trkpt><trkpt lat="42.4068746" lon="12.2110973"><ele>931.4285714285713</ele><time>2026-04-12T08:57:30.997Z</time></trkpt><trkpt lat="42.4068776" lon="12.2110107"><ele>933.0</ele><time>2026-04-12T08:57:32.997Z</time></trkpt><trkpt lat="42.4069261" lon="12.2109462"><ele>933.0</ele><time>2026-04-12T08:58:40.997Z</time></trkpt><trkpt lat="42.4069858" lon="12.2108062"><ele>933.0</ele><time>2026-04-12T08:58:41.998Z</time></trkpt><trkpt lat="42.4070425" lon="12.2107101"><ele>933.0</ele><time>2026-04-12T08:58:42.998Z</time></trkpt><trkpt lat="42.4070947" lon="12.2105342"><ele>933.0</ele><time>2026-04-12T08:58:43.997Z</time></trkpt><trkpt lat="42.4071026" lon="12.2103956"><ele>935.5</ele><time>2026-04-12T08:58:45.997Z</time></trkpt><trkpt lat="42.4071236" lon="12.2103096"><ele>938.0</ele><time>2026-04-12T08:58:46.998Z</time></trkpt><trkpt lat="42.4071791" lon="12.2101545"><ele>940.5</ele><time>2026-04-12T08:58:48.997Z</time></trkpt><trkpt lat="42.4072076" lon="12.2100696"><ele>943.0</ele><time>2026-04-12T08:58:49.998Z</time></trkpt><trkpt lat="42.4073351" lon="12.2098721"><ele>946.0</ele><time>2026-04-12T08:58:51.998Z</time></trkpt><trkpt lat="42.4074423" lon="12.2098609"><ele>949.0</ele><time>2026-04-12T08:58:52.998Z</time></trkpt><trkpt lat="42.4075219" lon="12.2097983"><ele>952.0</ele><time>2026-04-12T08:58:53.998Z</time></trkpt><trkpt lat="42.4075712" lon="12.2096777"><ele>955.0</ele><time>2026-04-12T08:58:54.998Z</time></trkpt><trkpt lat="42.4075809" lon="12.2095917"><ele>958.0</ele><time>2026-04-12T08:58:55.998Z</time></trkpt><trkpt lat="42.4076049" lon="12.2094467"><ele>960.25</ele><time>2026-04-12T08:58:57.998Z</time></trkpt><trkpt lat="42.4075558" lon="12.2093839"><ele>962.5</ele><time>2026-04-12T08:59:03.998Z</time></trkpt><trkpt lat="42.4075589" lon="12.2092664"><ele>964.75</ele><time>2026-04-12T08:59:07.998Z</time></trkpt><trkpt lat="42.4076282" lon="12.2092687"><ele>967.0</ele><time>2026-04-12T08:59:10.998Z</time></trkpt><trkpt lat="42.407765" lon="12.2095584"><ele>967.0</ele><time>2026-04-12T08:59:12.998Z</time></trkpt><trkpt lat="42.4077513" lon="12.2096618"><ele>967.0</ele><time>2026-04-12T08:59:13.997Z</time></trkpt><trkpt lat="42.4077678" lon="12.2098016"><ele>967.0</ele><time>2026-04-12T08:59:14.998Z</time></trkpt><trkpt lat="42.4078039" lon="12.2099175"><ele>967.0</ele><time>2026-04-12T08:59:15.998Z</time></trkpt><trkpt lat="42.4079122" lon="12.2100871"><ele>967.0</ele><time>2026-04-12T08:59:18.998Z</time></trkpt><trkpt lat="42.4079663" lon="12.2101779"><ele>969.8</ele><time>2026-04-12T08:59:20.997Z</time></trkpt><trkpt lat="42.4080727" lon="12.2102081"><ele>972.6</ele><time>2026-04-12T08:59:23.998Z</time></trkpt><trkpt lat="42.4081328" lon="12.2102818"><ele>975.3999999999999</ele><time>2026-04-12T08:59:24.998Z</time></trkpt><trkpt lat="42.4082338" lon="12.210379"><ele>978.1999999999999</ele><time>2026-04-12T08:59:26.998Z</time></trkpt><trkpt lat="42.408351" lon="12.2104137"><ele>981.0</ele><time>2026-04-12T08:59:28.998Z</time></trkpt><trkpt lat="42.4084239" lon="12.210484"><ele>981.0</ele><time>2026-04-12T08:59:29.998Z</time></trkpt><trkpt lat="42.4084987" lon="12.2105212"><ele>981.0</ele><time>2026-04-12T08:59:31.999Z</time></trkpt><trkpt lat="42.4085609" lon="12.2104886"><ele>981.0</ele><time>2026-04-12T08:59:56.998Z</time></trkpt><trkpt lat="42.4086683" lon="12.2104835"><ele>981.0</ele><time>2026-04-12T08:59:58.998Z</time></trkpt><trkpt lat="42.4087521" lon="12.2104322"><ele>981.0</ele><time>2026-04-12T08:59:59.997Z</time></trkpt><trkpt lat="42.4088277" lon="12.2104598"><ele>981.0</ele><time>2026-04-12T09:00:00.998Z</time></trkpt><trkpt lat="42.4089924" lon="12.210407"><ele>983.0</ele><time>2026-04-12T09:00:01.998Z</time></trkpt><trkpt lat="42.4091692" lon="12.2104331"><ele>985.0</ele><time>2026-04-12T09:00:03.998Z</time></trkpt><trkpt lat="42.4092797" lon="12.2104762"><ele>987.0</ele><time>2026-04-12T09:00:05.998Z</time></trkpt><trkpt lat="42.4093622" lon="12.2104783"><ele>989.0</ele><time>2026-04-12T09:00:06.998Z</time></trkpt><trkpt lat="42.409434" lon="12.2105053"><ele>989.0000000000001</ele><time>2026-04-12T09:00:07.997Z</time></trkpt><trkpt lat="42.4095363" lon="12.2105303"><ele>989.0</ele><time>2026-04-12T09:00:09.997Z</time></trkpt><trkpt lat="42.4096095" lon="12.2105177"><ele>989.0</ele><time>2026-04-12T09:00:11.997Z</time></trkpt><trkpt lat="42.409669" lon="12.2104754"><ele>989.0</ele><time>2026-04-12T09:00:12.998Z</time></trkpt><trkpt lat="42.409732" lon="12.2104467"><ele>989.0000000000001</ele><time>2026-04-12T09:00:13.998Z</time></trkpt><trkpt lat="42.4098319" lon="12.2103418"><ele>989.0</ele><time>2026-04-12T09:00:15.998Z</time></trkpt><trkpt lat="42.4098777" lon="12.2102193"><ele>988.2857142857142</ele><time>2026-04-12T09:00:17.997Z</time></trkpt><trkpt lat="42.409909" lon="12.2101452"><ele>987.5714285714284</ele><time>2026-04-12T09:00:18.997Z</time></trkpt><trkpt lat="42.4099753" lon="12.2101211"><ele>986.8571428571429</ele><time>2026-04-12T09:00:23.998Z</time></trkpt><trkpt lat="42.4100465" lon="12.2101569"><ele>986.1428571428571</ele><time>2026-04-12T09:00:27.997Z</time></trkpt><trkpt lat="42.4101292" lon="12.2101519"><ele>985.4285714285714</ele><time>2026-04-12T09:00:30.998Z</time></trkpt><trkpt lat="42.4102078" lon="12.2101623"><ele>984.7142857142858</ele><time>2026-04-12T09:00:32.997Z</time></trkpt><trkpt lat="42.4102847" lon="12.2101345"><ele>984.0000000000001</ele><time>2026-04-12T09:00:34.997Z</time></trkpt><trkpt lat="42.4103533" lon="12.210147"><ele>984.0000000000001</ele><time>2026-04-12T09:00:38.998Z</time></trkpt><trkpt lat="42.4104014" lon="12.2100845"><ele>984.0</ele><time>2026-04-12T09:00:39.998Z</time></trkpt><trkpt lat="42.4104179" lon="12.2099872"><ele>984.0000000000001</ele><time>2026-04-12T09:00:41.998Z</time></trkpt><trkpt lat="42.4104517" lon="12.2099124"><ele>984.0000000000001</ele><time>2026-04-12T09:00:43.997Z</time></trkpt><trkpt lat="42.4105148" lon="12.2098725"><ele>984.0</ele><time>2026-04-12T09:00:45.998Z</time></trkpt><trkpt lat="42.4105613" lon="12.2097833"><ele>984.0000000000001</ele><time>2026-04-12T09:00:46.998Z</time></trkpt><trkpt lat="42.4106376" lon="12.2097542"><ele>984.0000000000001</ele><time>2026-04-12T09:00:49.998Z</time></trkpt><trkpt lat="42.4107127" lon="12.2096962"><ele>980.8000000000001</ele><time>2026-04-12T09:00:52.998Z</time></trkpt><trkpt lat="42.4107259" lon="12.209522"><ele>977.6000000000001</ele><time>2026-04-12T09:00:53.998Z</time></trkpt><trkpt lat="42.4107898" lon="12.2094436"><ele>974.4</ele><time>2026-04-12T09:00:55.998Z</time></trkpt><trkpt lat="42.4108723" lon="12.2094586"><ele>971.2</ele><time>2026-04-12T09:00:59.998Z</time></trkpt><trkpt lat="42.410957" lon="12.209423"><ele>968.0</ele><time>2026-04-12T09:01:02.998Z</time></trkpt><trkpt lat="42.4110026" lon="12.2093133"><ele>968.0</ele><time>2026-04-12T09:01:03.998Z</time></trkpt><trkpt lat="42.4110414" lon="12.2092077"><ele>968.0</ele><time>2026-04-12T09:01:05.998Z</time></trkpt><trkpt lat="42.4110599" lon="12.2091037"><ele>968.0</ele><time>2026-04-12T09:01:07.998Z</time></trkpt><trkpt lat="42.4111073" lon="12.2090249"><ele>968.0</ele><time>2026-04-12T09:01:09.997Z</time></trkpt><trkpt lat="42.4111788" lon="12.2088757"><ele>968.0</ele><time>2026-04-12T09:01:11.998Z</time></trkpt><trkpt lat="42.4112382" lon="12.2087485"><ele>970.3333333333334</ele><time>2026-04-12T09:01:13.998Z</time></trkpt><trkpt lat="42.4112673" lon="12.2086708"><ele>972.6666666666667</ele><time>2026-04-12T09:01:14.998Z</time></trkpt><trkpt lat="42.4113088" lon="12.2085766"><ele>975.0</ele><time>2026-04-12T09:01:16.998Z</time></trkpt><trkpt lat="42.4113733" lon="12.2084705"><ele>977.3333333333333</ele><time>2026-04-12T09:01:18.998Z</time></trkpt><trkpt lat="42.411435" lon="12.2083879"><ele>979.6666666666666</ele><time>2026-04-12T09:01:24.998Z</time></trkpt><trkpt lat="42.4114467" lon="12.2082671"><ele>982.0</ele><time>2026-04-12T09:01:26.997Z</time></trkpt><trkpt lat="42.4114924" lon="12.2081848"><ele>980.4999999999999</ele><time>2026-04-12T09:01:28.998Z</time></trkpt><trkpt lat="42.4115747" lon="12.2081175"><ele>979.0</ele><time>2026-04-12T09:01:30.997Z</time></trkpt><trkpt lat="42.4116447" lon="12.2080697"><ele>977.5</ele><time>2026-04-12T09:01:32.998Z</time></trkpt><trkpt lat="42.4117067" lon="12.2079826"><ele>976.0</ele><time>2026-04-12T09:01:34.999Z</time></trkpt><trkpt lat="42.4117822" lon="12.2079076"><ele>974.4999999999999</ele><time>2026-04-12T09:01:36.998Z</time></trkpt><trkpt lat="42.4118522" lon="12.2078741"><ele>973.0</ele><time>2026-04-12T09:01:38.998Z</time></trkpt><trkpt lat="42.4119139" lon="12.2077949"><ele>972.9999999999999</ele><time>2026-04-12T09:01:41.998Z</time></trkpt><trkpt lat="42.4119761" lon="12.2077223"><ele>973.0</ele><time>2026-04-12T09:01:43.998Z</time></trkpt><trkpt lat="42.4120207" lon="12.207634"><ele>973.0</ele><time>2026-04-12T09:01:46.998Z</time></trkpt><trkpt lat="42.4120477" lon="12.2075263"><ele>973.0</ele><time>2026-04-12T09:01:48.998Z</time></trkpt><trkpt lat="42.4120902" lon="12.2074285"><ele>972.9999999999999</ele><time>2026-04-12T09:01:50.998Z</time></trkpt><trkpt lat="42.4121356" lon="12.2073584"><ele>973.0</ele><time>2026-04-12T09:01:54.997Z</time></trkpt><trkpt lat="42.4122025" lon="12.2073056"><ele>969.2</ele><time>2026-04-12T09:01:57.998Z</time></trkpt><trkpt lat="42.412248" lon="12.2072439"><ele>965.4</ele><time>2026-04-12T09:01:59.998Z</time></trkpt><trkpt lat="42.412261" lon="12.2071261"><ele>961.6000000000001</ele><time>2026-04-12T09:02:00.998Z</time></trkpt><trkpt lat="42.4122748" lon="12.206984"><ele>957.8000000000001</ele><time>2026-04-12T09:02:02.998Z</time></trkpt><trkpt lat="42.4123105" lon="12.2067644"><ele>954.0</ele><time>2026-04-12T09:02:04.997Z</time></trkpt><trkpt lat="42.4122615" lon="12.2067094"><ele>954.0</ele><time>2026-04-12T09:02:06.998Z</time></trkpt><trkpt lat="42.4122462" lon="12.2066106"><ele>954.0</ele><time>2026-04-12T09:02:08.998Z</time></trkpt><trkpt lat="42.4122568" lon="12.2065168"><ele>954.0</ele><time>2026-04-12T09:02:10.998Z</time></trkpt><trkpt lat="42.4122576" lon="12.20634"><ele>954.0</ele><time>2026-04-12T09:02:12.997Z</time></trkpt><trkpt lat="42.4122659" lon="12.2062336"><ele>954.0</ele><time>2026-04-12T09:02:14.997Z</time></trkpt><trkpt lat="42.4123291" lon="12.2062711"><ele>954.0</ele><time>2026-04-12T09:02:17.998Z</time></trkpt><trkpt lat="42.4124191" lon="12.2062557"><ele>958.2</ele><time>2026-04-12T09:02:21.998Z</time></trkpt><trkpt lat="42.4125255" lon="12.2062216"><ele>962.4000000000001</ele><time>2026-04-12T09:02:23.998Z</time></trkpt><trkpt lat="42.4126154" lon="12.2061598"><ele>966.6</ele><time>2026-04-12T09:02:25.998Z</time></trkpt><trkpt lat="42.4127309" lon="12.2060714"><ele>970.8</ele><time>2026-04-12T09:02:26.997Z</time></trkpt><trkpt lat="42.4128141" lon="12.2060609"><ele>975.0</ele><time>2026-04-12T09:02:28.998Z</time></trkpt><trkpt lat="42.4128758" lon="12.2060405"><ele>975.0</ele><time>2026-04-12T09:02:29.998Z</time></trkpt><trkpt lat="42.4129262" lon="12.2059727"><ele>975.0</ele><time>2026-04-12T09:02:30.998Z</time></trkpt><trkpt lat="42.4129873" lon="12.2059394"><ele>975.0</ele><time>2026-04-12T09:02:31.998Z</time></trkpt><trkpt lat="42.4130772" lon="12.205925"><ele>975.0</ele><time>2026-04-12T09:02:34.999Z</time></trkpt><trkpt lat="42.4131588" lon="12.2058623"><ele>975.0</ele><time>2026-04-12T09:02:36.998Z</time></trkpt><trkpt lat="42.4132529" lon="12.2058258"><ele>975.0</ele><time>2026-04-12T09:02:40.998Z</time></trkpt><trkpt lat="42.413329" lon="12.2057527"><ele>971.6666666666666</ele><time>2026-04-12T09:02:42.999Z</time></trkpt><trkpt lat="42.413406" lon="12.205684"><ele>968.3333333333333</ele><time>2026-04-12T09:02:44.999Z</time></trkpt><trkpt lat="42.4134872" lon="12.2056667"><ele>965.0</ele><time>2026-04-12T09:02:46.999Z</time></trkpt><trkpt lat="42.4135487" lon="12.2057198"><ele>961.6666666666666</ele><time>2026-04-12T09:02:48.999Z</time></trkpt><trkpt lat="42.4135927" lon="12.2057855"><ele>958.3333333333333</ele><time>2026-04-12T09:02:50.998Z</time></trkpt><trkpt lat="42.4136805" lon="12.2058105"><ele>955.0</ele><time>2026-04-12T09:02:52.999Z</time></trkpt><trkpt lat="42.4138023" lon="12.2058962"><ele>952.8</ele><time>2026-04-12T09:02:54.998Z</time></trkpt><trkpt lat="42.4138571" lon="12.2059418"><ele>950.6</ele><time>2026-04-12T09:02:55.997Z</time></trkpt><trkpt lat="42.4139874" lon="12.2060859"><ele>948.4000000000001</ele><time>2026-04-12T09:02:57.999Z</time></trkpt><trkpt lat="42.4140395" lon="12.2061913"><ele>946.2</ele><time>2026-04-12T09:03:00.999Z</time></trkpt><trkpt lat="42.4140951" lon="12.2062745"><ele>944.0</ele><time>2026-04-12T09:03:02.999Z</time></trkpt><trkpt lat="42.4141935" lon="12.2063528"><ele>944.0</ele><time>2026-04-12T09:03:04.999Z</time></trkpt><trkpt lat="42.414348" lon="12.2064257"><ele>944.0000000000001</ele><time>2026-04-12T09:03:05.998Z</time></trkpt><trkpt lat="42.4144127" lon="12.2064842"><ele>944.0000000000001</ele><time>2026-04-12T09:03:06.998Z</time></trkpt><trkpt lat="42.4144669" lon="12.2065547"><ele>944.0</ele><time>2026-04-12T09:03:07.998Z</time></trkpt><trkpt lat="42.4145228" lon="12.2065941"><ele>944.0</ele><time>2026-04-12T09:03:08.998Z</time></trkpt><trkpt lat="42.4145903" lon="12.2066424"><ele>941.0000000000001</ele><time>2026-04-12T09:03:10.999Z</time></trkpt><trkpt lat="42.4146558" lon="12.206732"><ele>938.0</ele><time>2026-04-12T09:03:12.999Z</time></trkpt><trkpt lat="42.4147257" lon="12.206726"><ele>935.0</ele><time>2026-04-12T09:03:15.997Z</time></trkpt><trkpt lat="42.4147772" lon="12.2067881"><ele>932.0</ele><time>2026-04-12T09:03:46.999Z</time></trkpt><trkpt lat="42.4148637" lon="12.2068585"><ele>929.0000000000001</ele><time>2026-04-12T09:03:49.999Z</time></trkpt><trkpt lat="42.4149352" lon="12.2069046"><ele>926.0</ele><time>2026-04-12T09:03:51.999Z</time></trkpt><trkpt lat="42.414987" lon="12.2069672"><ele>926.0</ele><time>2026-04-12T09:03:53.998Z</time></trkpt><trkpt lat="42.4150651" lon="12.2070573"><ele>925.9999999999999</ele><time>2026-04-12T09:03:55.998Z</time></trkpt><trkpt lat="42.4152038" lon="12.2070977"><ele>925.9999999999999</ele><time>2026-04-12T09:03:56.999Z</time></trkpt><trkpt lat="42.4152883" lon="12.2071051"><ele>926.0</ele><time>2026-04-12T09:03:59.999Z</time></trkpt><trkpt lat="42.4153647" lon="12.2071621"><ele>926.0</ele><time>2026-04-12T09:04:02.998Z</time></trkpt><trkpt lat="42.4154472" lon="12.2071633"><ele>922.1666666666667</ele><time>2026-04-12T09:04:05.998Z</time></trkpt><trkpt lat="42.4155111" lon="12.2071902"><ele>918.3333333333334</ele><time>2026-04-12T09:04:08.999Z</time></trkpt><trkpt lat="42.4155692" lon="12.2072231"><ele>914.5</ele><time>2026-04-12T09:04:10.999Z</time></trkpt><trkpt lat="42.4156434" lon="12.2072945"><ele>910.6666666666667</ele><time>2026-04-12T09:04:12.999Z</time></trkpt><trkpt lat="42.4157004" lon="12.2073842"><ele>906.8333333333334</ele><time>2026-04-12T09:04:14.998Z</time></trkpt><trkpt lat="42.4157531" lon="12.2074647"><ele>903.0</ele><time>2026-04-12T09:04:16.999Z</time></trkpt><trkpt lat="42.415843" lon="12.2074882"><ele>903.0</ele><time>2026-04-12T09:04:19.999Z</time></trkpt><trkpt lat="42.4159053" lon="12.2074412"><ele>903.0</ele><time>2026-04-12T09:04:21.999Z</time></trkpt><trkpt lat="42.4159767" lon="12.2073993"><ele>903.0</ele><time>2026-04-12T09:04:23.998Z</time></trkpt><trkpt lat="42.4160353" lon="12.2073515"><ele>903.0</ele><time>2026-04-12T09:04:25.999Z</time></trkpt><trkpt lat="42.4160372" lon="12.2071805"><ele>903.0</ele><time>2026-04-12T09:04:27.998Z</time></trkpt><trkpt lat="42.4160679" lon="12.2070367"><ele>903.0</ele><time>2026-04-12T09:04:30.999Z</time></trkpt><trkpt lat="42.4161281" lon="12.2069154"><ele>903.0</ele><time>2026-04-12T09:04:33.998Z</time></trkpt><trkpt lat="42.4161899" lon="12.2068655"><ele>903.0</ele><time>2026-04-12T09:04:35.998Z</time></trkpt><trkpt lat="42.4162655" lon="12.2068179"><ele>903.0</ele><time>2026-04-12T09:04:37.999Z</time></trkpt><trkpt lat="42.4163279" lon="12.2067753"><ele>903.0</ele><time>2026-04-12T09:04:39.998Z</time></trkpt><trkpt lat="42.4164258" lon="12.2067012"><ele>903.0</ele><time>2026-04-12T09:05:03.999Z</time></trkpt><trkpt lat="42.4164085" lon="12.2068032"><ele>903.0</ele><time>2026-04-12T09:05:06.998Z</time></trkpt><trkpt lat="42.4163597" lon="12.2069536"><ele>903.0</ele><time>2026-04-12T09:05:07.999Z</time></trkpt><trkpt lat="42.4163388" lon="12.2070774"><ele>903.0</ele><time>2026-04-12T09:05:08.999Z</time></trkpt><trkpt lat="42.4163021" lon="12.2072191"><ele>903.0</ele><time>2026-04-12T09:05:09.999Z</time></trkpt><trkpt lat="42.4162644" lon="12.2073802"><ele>902.5999999999999</ele><time>2026-04-12T09:05:10.999Z</time></trkpt><trkpt lat="42.4162319" lon="12.2074946"><ele>902.1999999999999</ele><time>2026-04-12T09:05:11.999Z</time></trkpt><trkpt lat="42.4161936" lon="12.2076257"><ele>901.8</ele><time>2026-04-12T09:05:12.998Z</time></trkpt><trkpt lat="42.4161569" lon="12.2077242"><ele>901.4</ele><time>2026-04-12T09:05:13.998Z</time></trkpt><trkpt lat="42.4161305" lon="12.2078126"><ele>901.0</ele><time>2026-04-12T09:05:14.999Z</time></trkpt><trkpt lat="42.4160569" lon="12.2079129"><ele>901.0</ele><time>2026-04-12T09:05:15.999Z</time></trkpt><trkpt lat="42.4159487" lon="12.2079928"><ele>900.9999999999999</ele><time>2026-04-12T09:05:16.999Z</time></trkpt><trkpt lat="42.415883" lon="12.2080866"><ele>900.9999999999999</ele><time>2026-04-12T09:05:17.999Z</time></trkpt><trkpt lat="42.4158234" lon="12.2081847"><ele>901.0</ele><time>2026-04-12T09:05:18.999Z</time></trkpt><trkpt lat="42.4157711" lon="12.2082835"><ele>901.0</ele><time>2026-04-12T09:05:19.998Z</time></trkpt><trkpt lat="42.415752" lon="12.2083987"><ele>898.4</ele><time>2026-04-12T09:05:20.999Z</time></trkpt><trkpt lat="42.4157024" lon="12.2085223"><ele>895.8</ele><time>2026-04-12T09:05:21.998Z</time></trkpt><trkpt lat="42.4156581" lon="12.2086307"><ele>893.1999999999999</ele><time>2026-04-12T09:05:22.999Z</time></trkpt><trkpt lat="42.4156562" lon="12.2087709"><ele>890.5999999999999</ele><time>2026-04-12T09:05:23.999Z</time></trkpt><trkpt lat="42.4156227" lon="12.2088859"><ele>888.0</ele><time>2026-04-12T09:05:24.999Z</time></trkpt><trkpt lat="42.4156766" lon="12.2090461"><ele>887.0</ele><time>2026-04-12T09:05:25.999Z</time></trkpt><trkpt lat="42.4156879" lon="12.209176"><ele>886.0</ele><time>2026-04-12T09:05:26.999Z</time></trkpt><trkpt lat="42.415701" lon="12.2093478"><ele>885.0</ele><time>2026-04-12T09:05:27.999Z</time></trkpt><trkpt lat="42.415724" lon="12.209483"><ele>884.0</ele><time>2026-04-12T09:05:28.999Z</time></trkpt><trkpt lat="42.4157822" lon="12.2095639"><ele>883.0</ele><time>2026-04-12T09:05:29.999Z</time></trkpt><trkpt lat="42.4158121" lon="12.2096725"><ele>882.4999999999999</ele><time>2026-04-12T09:05:30.999Z</time></trkpt><trkpt lat="42.415879" lon="12.2098331"><ele>882.0</ele><time>2026-04-12T09:05:31.999Z</time></trkpt><trkpt lat="42.4159138" lon="12.2099064"><ele>881.5</ele><time>2026-04-12T09:05:32.999Z</time></trkpt><trkpt lat="42.4159097" lon="12.2100061"><ele>881.0</ele><time>2026-04-12T09:05:33.999Z</time></trkpt><trkpt lat="42.4159209" lon="12.2100968"><ele>880.4999999999999</ele><time>2026-04-12T09:05:34.999Z</time></trkpt><trkpt lat="42.4158797" lon="12.2102057"><ele>880.0</ele><time>2026-04-12T09:05:35.998Z</time></trkpt><trkpt lat="42.4158563" lon="12.2103551"><ele>880.0</ele><time>2026-04-12T09:05:37.999Z</time></trkpt><trkpt lat="42.4157702" lon="12.210466"><ele>880.0</ele><time>2026-04-12T09:05:39.999Z</time></trkpt><trkpt lat="42.4156402" lon="12.2104515"><ele>880.0</ele><time>2026-04-12T09:05:41.999Z</time></trkpt><trkpt lat="42.4155296" lon="12.2103831"><ele>880.0</ele><time>2026-04-12T09:05:42.999Z</time></trkpt><trkpt lat="42.4154582" lon="12.2103492"><ele>880.0</ele><time>2026-04-12T09:05:43.998Z</time></trkpt><trkpt lat="42.4153764" lon="12.2103308"><ele>878.3333333333333</ele><time>2026-04-12T09:05:44.998Z</time></trkpt><trkpt lat="42.4153145" lon="12.2102493"><ele>876.6666666666666</ele><time>2026-04-12T09:05:45.999Z</time></trkpt><trkpt lat="42.4152348" lon="12.2101874"><ele>875.0</ele><time>2026-04-12T09:05:46.999Z</time></trkpt><trkpt lat="42.4151653" lon="12.2101261"><ele>873.3333333333333</ele><time>2026-04-12T09:05:47.998Z</time></trkpt><trkpt lat="42.4151111" lon="12.2100582"><ele>871.6666666666666</ele><time>2026-04-12T09:05:48.999Z</time></trkpt><trkpt lat="42.4150313" lon="12.2099805"><ele>870.0</ele><time>2026-04-12T09:05:49.999Z</time></trkpt><trkpt lat="42.4149679" lon="12.2098896"><ele>873.0</ele><time>2026-04-12T09:05:50.999Z</time></trkpt><trkpt lat="42.4149023" lon="12.2097819"><ele>876.0</ele><time>2026-04-12T09:05:51.998Z</time></trkpt><trkpt lat="42.414846" lon="12.2096875"><ele>879.0</ele><time>2026-04-12T09:05:52.999Z</time></trkpt><trkpt lat="42.4147863" lon="12.2095848"><ele>882.0</ele><time>2026-04-12T09:05:53.998Z</time></trkpt><trkpt lat="42.4147429" lon="12.2094876"><ele>885.0</ele><time>2026-04-12T09:05:54.999Z</time></trkpt><trkpt lat="42.4146583" lon="12.2094831"><ele>883.3333333333334</ele><time>2026-04-12T09:05:55.999Z</time></trkpt><trkpt lat="42.4145905" lon="12.2094175"><ele>881.6666666666667</ele><time>2026-04-12T09:05:56.998Z</time></trkpt><trkpt lat="42.41451" lon="12.2094202"><ele>880.0</ele><time>2026-04-12T09:05:57.998Z</time></trkpt><trkpt lat="42.4144323" lon="12.2094481"><ele>878.3333333333334</ele><time>2026-04-12T09:05:58.998Z</time></trkpt><trkpt lat="42.41435" lon="12.2094828"><ele>876.6666666666667</ele><time>2026-04-12T09:05:59.999Z</time></trkpt><trkpt lat="42.4142549" lon="12.2094802"><ele>875.0</ele><time>2026-04-12T09:06:00.999Z</time></trkpt><trkpt lat="42.414154" lon="12.2094952"><ele>875.0</ele><time>2026-04-12T09:06:01.999Z</time></trkpt><trkpt lat="42.4140755" lon="12.2095687"><ele>875.0</ele><time>2026-04-12T09:06:02.999Z</time></trkpt><trkpt lat="42.4139738" lon="12.2096341"><ele>875.0</ele><time>2026-04-12T09:06:03.999Z</time></trkpt><trkpt lat="42.4138767" lon="12.2096902"><ele>875.0</ele><time>2026-04-12T09:06:04.998Z</time></trkpt><trkpt lat="42.4138082" lon="12.209738"><ele>875.0</ele><time>2026-04-12T09:06:05.998Z</time></trkpt><trkpt lat="42.4137529" lon="12.209796"><ele>876.4</ele><time>2026-04-12T09:06:06.999Z</time></trkpt><trkpt lat="42.413712" lon="12.2098674"><ele>877.8</ele><time>2026-04-12T09:06:07.998Z</time></trkpt><trkpt lat="42.4136838" lon="12.2099712"><ele>879.2</ele><time>2026-04-12T09:06:08.999Z</time></trkpt><trkpt lat="42.4136627" lon="12.2101089"><ele>880.6</ele><time>2026-04-12T09:06:09.999Z</time></trkpt><trkpt lat="42.4136377" lon="12.2101987"><ele>882.0</ele><time>2026-04-12T09:06:10.999Z</time></trkpt><trkpt lat="42.4135996" lon="12.2103948"><ele>882.0</ele><time>2026-04-12T09:06:12.999Z</time></trkpt><trkpt lat="42.4135593" lon="12.2104836"><ele>882.0</ele><time>2026-04-12T09:06:13.999Z</time></trkpt><trkpt lat="42.4135233" lon="12.2105659"><ele>882.0</ele><time>2026-04-12T09:06:14.998Z</time></trkpt><trkpt lat="42.4134984" lon="12.2107077"><ele>882.0</ele><time>2026-04-12T09:06:15.999Z</time></trkpt><trkpt lat="42.4134259" lon="12.2108186"><ele>882.0</ele><time>2026-04-12T09:06:16.999Z</time></trkpt><trkpt lat="42.413436" lon="12.2109692"><ele>880.5</ele><time>2026-04-12T09:06:18.999Z</time></trkpt><trkpt lat="42.4134471" lon="12.2110644"><ele>879.0</ele><time>2026-04-12T09:06:19.999Z</time></trkpt><trkpt lat="42.4134827" lon="12.2111632"><ele>877.5</ele><time>2026-04-12T09:06:20.999Z</time></trkpt><trkpt lat="42.4135184" lon="12.2112474"><ele>876.0</ele><time>2026-04-12T09:06:21.998Z</time></trkpt><trkpt lat="42.4135826" lon="12.2113135"><ele>874.5</ele><time>2026-04-12T09:06:22.998Z</time></trkpt><trkpt lat="42.4137095" lon="12.2113387"><ele>873.0</ele><time>2026-04-12T09:06:23.999Z</time></trkpt><trkpt lat="42.4137822" lon="12.2113584"><ele>869.5</ele><time>2026-04-12T09:06:24.999Z</time></trkpt><trkpt lat="42.4138486" lon="12.2113949"><ele>866.0</ele><time>2026-04-12T09:06:25.999Z</time></trkpt><trkpt lat="42.4139365" lon="12.2115043"><ele>862.5</ele><time>2026-04-12T09:06:26.999Z</time></trkpt><trkpt lat="42.4140007" lon="12.211582"><ele>859.0</ele><time>2026-04-12T09:06:27.999Z</time></trkpt><trkpt lat="42.4140354" lon="12.2116797"><ele>855.5</ele><time>2026-04-12T09:06:28.997Z</time></trkpt><trkpt lat="42.4140573" lon="12.2117678"><ele>852.0</ele><time>2026-04-12T09:06:29.999Z</time></trkpt><trkpt lat="42.414104" lon="12.2119234"><ele>851.25</ele><time>2026-04-12T09:06:31.998Z</time></trkpt><trkpt lat="42.4141145" lon="12.2120525"><ele>850.5</ele><time>2026-04-12T09:06:33.999Z</time></trkpt><trkpt lat="42.4141001" lon="12.2121684"><ele>849.75</ele><time>2026-04-12T09:06:34.999Z</time></trkpt><trkpt lat="42.4140114" lon="12.2122428"><ele>849.0</ele><time>2026-04-12T09:06:36.998Z</time></trkpt><trkpt lat="42.4138336" lon="12.2122698"><ele>850.2</ele><time>2026-04-12T09:06:37.998Z</time></trkpt><trkpt lat="42.4137483" lon="12.2123017"><ele>851.4000000000001</ele><time>2026-04-12T09:06:38.999Z</time></trkpt><trkpt lat="42.4136124" lon="12.2123681"><ele>852.6</ele><time>2026-04-12T09:06:40.998Z</time></trkpt><trkpt lat="42.4135293" lon="12.2124287"><ele>853.8</ele><time>2026-04-12T09:06:41.999Z</time></trkpt><trkpt lat="42.4134724" lon="12.212473"><ele>855.0</ele><time>2026-04-12T09:06:42.998Z</time></trkpt><trkpt lat="42.4134066" lon="12.2125238"><ele>855.0</ele><time>2026-04-12T09:06:43.998Z</time></trkpt><trkpt lat="42.4133294" lon="12.2125725"><ele>855.0</ele><time>2026-04-12T09:06:44.999Z</time></trkpt><trkpt lat="42.4133269" lon="12.2127244"><ele>855.0</ele><time>2026-04-12T09:06:46.999Z</time></trkpt><trkpt lat="42.4133177" lon="12.2128437"><ele>855.0</ele><time>2026-04-12T09:06:47.998Z</time></trkpt><trkpt lat="42.4133105" lon="12.2129495"><ele>855.0</ele><time>2026-04-12T09:06:48.999Z</time></trkpt><trkpt lat="42.413305" lon="12.2130739"><ele>852.8333333333334</ele><time>2026-04-12T09:06:49.999Z</time></trkpt><trkpt lat="42.4132876" lon="12.2131635"><ele>850.6666666666667</ele><time>2026-04-12T09:06:50.998Z</time></trkpt><trkpt lat="42.4132675" lon="12.2132584"><ele>848.5</ele><time>2026-04-12T09:06:51.998Z</time></trkpt><trkpt lat="42.413209" lon="12.2133567"><ele>846.3333333333334</ele><time>2026-04-12T09:06:53.998Z</time></trkpt><trkpt lat="42.4131474" lon="12.2134024"><ele>844.1666666666667</ele><time>2026-04-12T09:06:54.999Z</time></trkpt><trkpt lat="42.4130486" lon="12.2133752"><ele>842.0</ele><time>2026-04-12T09:06:55.999Z</time></trkpt><trkpt lat="42.4129705" lon="12.2133882"><ele>842.0</ele><time>2026-04-12T09:06:56.999Z</time></trkpt><trkpt lat="42.4128947" lon="12.2134114"><ele>842.0</ele><time>2026-04-12T09:06:57.998Z</time></trkpt><trkpt lat="42.4127961" lon="12.2134317"><ele>842.0</ele><time>2026-04-12T09:06:58.998Z</time></trkpt><trkpt lat="42.4126864" lon="12.2134505"><ele>842.0</ele><time>2026-04-12T09:06:59.999Z</time></trkpt><trkpt lat="42.412558" lon="12.2134871"><ele>842.0</ele><time>2026-04-12T09:07:00.999Z</time></trkpt><trkpt lat="42.4124315" lon="12.2135914"><ele>842.0000000000001</ele><time>2026-04-12T09:07:02.997Z</time></trkpt><trkpt lat="42.4123962" lon="12.2136848"><ele>842.0</ele><time>2026-04-12T09:07:03.999Z</time></trkpt><trkpt lat="42.4123461" lon="12.2137742"><ele>842.0</ele><time>2026-04-12T09:07:04.999Z</time></trkpt><trkpt lat="42.4122971" lon="12.2138784"><ele>842.0</ele><time>2026-04-12T09:07:05.999Z</time></trkpt><trkpt lat="42.4122801" lon="12.2140156"><ele>842.0000000000001</ele><time>2026-04-12T09:07:06.998Z</time></trkpt><trkpt lat="42.4123255" lon="12.2141131"><ele>842.0</ele><time>2026-04-12T09:07:07.999Z</time></trkpt><trkpt lat="42.4123412" lon="12.2142925"><ele>839.4000000000001</ele><time>2026-04-12T09:07:08.999Z</time></trkpt><trkpt lat="42.4123584" lon="12.2144266"><ele>836.8000000000001</ele><time>2026-04-12T09:07:09.999Z</time></trkpt><trkpt lat="42.4124409" lon="12.2145227"><ele>834.2</ele><time>2026-04-12T09:07:10.999Z</time></trkpt><trkpt lat="42.412486" lon="12.2146513"><ele>831.6</ele><time>2026-04-12T09:07:11.998Z</time></trkpt><trkpt lat="42.41254" lon="12.2147663"><ele>829.0</ele><time>2026-04-12T09:07:12.999Z</time></trkpt><trkpt lat="42.4126206" lon="12.2148885"><ele>828.6666666666666</ele><time>2026-04-12T09:07:13.999Z</time></trkpt><trkpt lat="42.4126536" lon="12.2149999"><ele>828.3333333333333</ele><time>2026-04-12T09:07:14.999Z</time></trkpt><trkpt lat="42.4126742" lon="12.2151163"><ele>828.0</ele><time>2026-04-12T09:07:15.999Z</time></trkpt><trkpt lat="42.4127019" lon="12.2152386"><ele>827.6666666666667</ele><time>2026-04-12T09:07:16.999Z</time></trkpt><trkpt lat="42.41274" lon="12.2153191"><ele>827.3333333333334</ele><time>2026-04-12T09:07:17.998Z</time></trkpt><trkpt lat="42.4127732" lon="12.2154299"><ele>827.0</ele><time>2026-04-12T09:07:18.999Z</time></trkpt><trkpt lat="42.4128195" lon="12.2155438"><ele>825.5000000000001</ele><time>2026-04-12T09:07:19.999Z</time></trkpt><trkpt lat="42.4128391" lon="12.2157058"><ele>824.0</ele><time>2026-04-12T09:07:21.999Z</time></trkpt><trkpt lat="42.4128424" lon="12.2158019"><ele>822.5</ele><time>2026-04-12T09:07:22.999Z</time></trkpt><trkpt lat="42.4128197" lon="12.2158921"><ele>821.0</ele><time>2026-04-12T09:07:23.999Z</time></trkpt><trkpt lat="42.4127891" lon="12.2160248"><ele>819.5000000000001</ele><time>2026-04-12T09:07:25.998Z</time></trkpt><trkpt lat="42.412733" lon="12.2160796"><ele>818.0</ele><time>2026-04-12T09:07:26.999Z</time></trkpt><trkpt lat="42.4126582" lon="12.2161589"><ele>818.0</ele><time>2026-04-12T09:07:27.998Z</time></trkpt><trkpt lat="42.4125644" lon="12.2162296"><ele>818.0</ele><time>2026-04-12T09:07:28.999Z</time></trkpt><trkpt lat="42.4124968" lon="12.2162866"><ele>818.0</ele><time>2026-04-12T09:07:29.999Z</time></trkpt><trkpt lat="42.4124189" lon="12.2163418"><ele>818.0</ele><time>2026-04-12T09:07:30.999Z</time></trkpt><trkpt lat="42.4123552" lon="12.2164086"><ele>818.0</ele><time>2026-04-12T09:07:31.999Z</time></trkpt><trkpt lat="42.4122704" lon="12.2164777"><ele>815.1666666666667</ele><time>2026-04-12T09:07:32.999Z</time></trkpt><trkpt lat="42.4121962" lon="12.216542"><ele>812.3333333333334</ele><time>2026-04-12T09:07:33.998Z</time></trkpt><trkpt lat="42.4121254" lon="12.2166015"><ele>809.5</ele><time>2026-04-12T09:07:34.999Z</time></trkpt><trkpt lat="42.412051" lon="12.2166649"><ele>806.6666666666667</ele><time>2026-04-12T09:07:35.999Z</time></trkpt><trkpt lat="42.411991" lon="12.2167236"><ele>803.8333333333334</ele><time>2026-04-12T09:07:36.998Z</time></trkpt><trkpt lat="42.4119354" lon="12.2167848"><ele>801.0</ele><time>2026-04-12T09:07:37.999Z</time></trkpt><trkpt lat="42.4118761" lon="12.2168605"><ele>801.0</ele><time>2026-04-12T09:07:38.998Z</time></trkpt><trkpt lat="42.4118137" lon="12.2168982"><ele>801.0</ele><time>2026-04-12T09:07:39.999Z</time></trkpt><trkpt lat="42.4117358" lon="12.2169424"><ele>801.0</ele><time>2026-04-12T09:07:40.999Z</time></trkpt><trkpt lat="42.4116448" lon="12.2169617"><ele>801.0</ele><time>2026-04-12T09:07:41.999Z</time></trkpt><trkpt lat="42.4115827" lon="12.216977"><ele>801.0</ele><time>2026-04-12T09:07:42.998Z</time></trkpt><trkpt lat="42.4115104" lon="12.2169702"><ele>801.0</ele><time>2026-04-12T09:07:43.998Z</time></trkpt><trkpt lat="42.4114409" lon="12.2169585"><ele>801.0</ele><time>2026-04-12T09:07:44.999Z</time></trkpt><trkpt lat="42.4113619" lon="12.2169166"><ele>801.0</ele><time>2026-04-12T09:07:45.998Z</time></trkpt><trkpt lat="42.4112776" lon="12.2168774"><ele>801.0</ele><time>2026-04-12T09:07:46.998Z</time></trkpt><trkpt lat="42.4111898" lon="12.2168149"><ele>801.0</ele><time>2026-04-12T09:07:47.999Z</time></trkpt><trkpt lat="42.4110966" lon="12.2167633"><ele>801.0</ele><time>2026-04-12T09:07:48.999Z</time></trkpt><trkpt lat="42.4109849" lon="12.2166228"><ele>802.5999999999999</ele><time>2026-04-12T09:07:49.999Z</time></trkpt><trkpt lat="42.4108973" lon="12.2165459"><ele>804.2</ele><time>2026-04-12T09:07:50.999Z</time></trkpt><trkpt lat="42.4108089" lon="12.2164889"><ele>805.8</ele><time>2026-04-12T09:07:51.999Z</time></trkpt><trkpt lat="42.4107162" lon="12.2164204"><ele>807.4000000000001</ele><time>2026-04-12T09:07:52.998Z</time></trkpt><trkpt lat="42.4106229" lon="12.2163496"><ele>809.0</ele><time>2026-04-12T09:07:53.998Z</time></trkpt><trkpt lat="42.4105625" lon="12.2162968"><ele>808.5000000000001</ele><time>2026-04-12T09:07:54.999Z</time></trkpt><trkpt lat="42.4104867" lon="12.2162504"><ele>808.0</ele><time>2026-04-12T09:07:55.999Z</time></trkpt><trkpt lat="42.4104236" lon="12.216316"><ele>807.5</ele><time>2026-04-12T09:07:58.999Z</time></trkpt><trkpt lat="42.410349" lon="12.2163828"><ele>807.0</ele><time>2026-04-12T09:08:56.999Z</time></trkpt><trkpt lat="42.4102777" lon="12.2164703"><ele>806.5000000000001</ele><time>2026-04-12T09:09:00.998Z</time></trkpt><trkpt lat="42.4102112" lon="12.2165539"><ele>806.0</ele><time>2026-04-12T09:09:01.999Z</time></trkpt><trkpt lat="42.4101651" lon="12.2166208"><ele>802.4</ele><time>2026-04-12T09:09:02.999Z</time></trkpt><trkpt lat="42.410199" lon="12.2167868"><ele>798.8</ele><time>2026-04-12T09:09:03.999Z</time></trkpt><trkpt lat="42.4102162" lon="12.2168926"><ele>795.1999999999999</ele><time>2026-04-12T09:09:04.999Z</time></trkpt><trkpt lat="42.4102257" lon="12.2169968"><ele>791.5999999999999</ele><time>2026-04-12T09:09:07.999Z</time></trkpt><trkpt lat="42.410313" lon="12.2171356"><ele>788.0</ele><time>2026-04-12T09:09:09.999Z</time></trkpt><trkpt lat="42.4104222" lon="12.2171999"><ele>787.4</ele><time>2026-04-12T09:09:10.998Z</time></trkpt><trkpt lat="42.4105029" lon="12.2172808"><ele>786.8</ele><time>2026-04-12T09:09:11.998Z</time></trkpt><trkpt lat="42.4106038" lon="12.2173964"><ele>786.2</ele><time>2026-04-12T09:09:12.998Z</time></trkpt><trkpt lat="42.4107346" lon="12.2174588"><ele>785.6</ele><time>2026-04-12T09:09:14.998Z</time></trkpt><trkpt lat="42.4107917" lon="12.2175137"><ele>785.0</ele><time>2026-04-12T09:09:15.998Z</time></trkpt><trkpt lat="42.41086" lon="12.217572"><ele>781.6666666666667</ele><time>2026-04-12T09:09:16.999Z</time></trkpt><trkpt lat="42.4109243" lon="12.2176247"><ele>778.3333333333334</ele><time>2026-04-12T09:09:17.999Z</time></trkpt><trkpt lat="42.4110264" lon="12.2177223"><ele>775.0</ele><time>2026-04-12T09:09:19.999Z</time></trkpt><trkpt lat="42.4110941" lon="12.2178076"><ele>771.6666666666667</ele><time>2026-04-12T09:09:21.999Z</time></trkpt><trkpt lat="42.4111354" lon="12.2178737"><ele>768.3333333333334</ele><time>2026-04-12T09:09:24.998Z</time></trkpt><trkpt lat="42.4110574" lon="12.2178556"><ele>765.0</ele><time>2026-04-12T09:09:25.999Z</time></trkpt><trkpt lat="42.4109909" lon="12.2177783"><ele>765.0</ele><time>2026-04-12T09:09:26.998Z</time></trkpt><trkpt lat="42.4107854" lon="12.2177996"><ele>765.0</ele><time>2026-04-12T09:09:27.999Z</time></trkpt><trkpt lat="42.4106862" lon="12.2178159"><ele>765.0</ele><time>2026-04-12T09:09:28.999Z</time></trkpt><trkpt lat="42.4105608" lon="12.2178569"><ele>765.0</ele><time>2026-04-12T09:09:31.998Z</time></trkpt><trkpt lat="42.410497" lon="12.2178793"><ele>765.0</ele><time>2026-04-12T09:09:32.998Z</time></trkpt><trkpt lat="42.4103721" lon="12.2178617"><ele>765.0</ele><time>2026-04-12T09:09:34.999Z</time></trkpt><trkpt lat="42.4103053" lon="12.2178568"><ele>765.0</ele><time>2026-04-12T09:09:35.999Z</time></trkpt><trkpt lat="42.4102295" lon="12.2178524"><ele>765.0</ele><time>2026-04-12T09:09:36.999Z</time></trkpt><trkpt lat="42.4101583" lon="12.2178465"><ele>765.0</ele><time>2026-04-12T09:09:37.999Z</time></trkpt><trkpt lat="42.41008" lon="12.2178205"><ele>765.0</ele><time>2026-04-12T09:09:38.999Z</time></trkpt><trkpt lat="42.4099984" lon="12.2177855"><ele>765.0</ele><time>2026-04-12T09:09:39.999Z</time></trkpt><trkpt lat="42.4099148" lon="12.217769"><ele>765.0</ele><time>2026-04-12T09:09:40.999Z</time></trkpt><trkpt lat="42.4098228" lon="12.2177797"><ele>765.0</ele><time>2026-04-12T09:09:41.999Z</time></trkpt><trkpt lat="42.4097376" lon="12.2178008"><ele>765.0</ele><time>2026-04-12T09:09:42.999Z</time></trkpt><trkpt lat="42.409645" lon="12.2178307"><ele>765.0</ele><time>2026-04-12T09:09:43.998Z</time></trkpt><trkpt lat="42.4095778" lon="12.2178997"><ele>765.0</ele><time>2026-04-12T09:09:44.999Z</time></trkpt><trkpt lat="42.409512" lon="12.2179733"><ele>763.0</ele><time>2026-04-12T09:09:45.999Z</time></trkpt><trkpt lat="42.4094475" lon="12.2180539"><ele>761.0</ele><time>2026-04-12T09:09:46.999Z</time></trkpt><trkpt lat="42.4093532" lon="12.2182999"><ele>759.0</ele><time>2026-04-12T09:09:48.998Z</time></trkpt><trkpt lat="42.4092887" lon="12.2183776"><ele>757.0</ele><time>2026-04-12T09:09:49.998Z</time></trkpt><trkpt lat="42.4092357" lon="12.2184654"><ele>757.0</ele><time>2026-04-12T09:09:50.999Z</time></trkpt><trkpt lat="42.4091734" lon="12.218537"><ele>757.0</ele><time>2026-04-12T09:09:51.998Z</time></trkpt><trkpt lat="42.4091225" lon="12.2186248"><ele>757.0</ele><time>2026-04-12T09:09:52.998Z</time></trkpt><trkpt lat="42.4090694" lon="12.2187005"><ele>757.0</ele><time>2026-04-12T09:09:53.999Z</time></trkpt><trkpt lat="42.4090252" lon="12.2187704"><ele>757.0</ele><time>2026-04-12T09:09:54.998Z</time></trkpt><trkpt lat="42.4089412" lon="12.2188102"><ele>757.0</ele><time>2026-04-12T09:09:55.999Z</time></trkpt><trkpt lat="42.408852" lon="12.2188345"><ele>758.1666666666667</ele><time>2026-04-12T09:09:56.998Z</time></trkpt><trkpt lat="42.4087696" lon="12.21884"><ele>759.3333333333334</ele><time>2026-04-12T09:09:57.999Z</time></trkpt><trkpt lat="42.4086852" lon="12.2188324"><ele>760.5</ele><time>2026-04-12T09:09:58.999Z</time></trkpt><trkpt lat="42.4086023" lon="12.2188114"><ele>761.6666666666666</ele><time>2026-04-12T09:09:59.998Z</time></trkpt><trkpt lat="42.408507" lon="12.2187691"><ele>762.8333333333333</ele><time>2026-04-12T09:10:01.999Z</time></trkpt><trkpt lat="42.4084314" lon="12.2187638"><ele>764.0</ele><time>2026-04-12T09:10:03.999Z</time></trkpt><trkpt lat="42.4084973" lon="12.2188123"><ele>764.0</ele><time>2026-04-12T09:10:21.999Z</time></trkpt><trkpt lat="42.4084832" lon="12.2187276"><ele>764.0</ele><time>2026-04-12T09:10:31.999Z</time></trkpt><trkpt lat="42.4084087" lon="12.2187038"><ele>764.0</ele><time>2026-04-12T09:10:33.998Z</time></trkpt><trkpt lat="42.4082898" lon="12.2186449"><ele>764.0</ele><time>2026-04-12T09:10:35.999Z</time></trkpt><trkpt lat="42.4082067" lon="12.2186113"><ele>764.0</ele><time>2026-04-12T09:10:38.999Z</time></trkpt><trkpt lat="42.4081297" lon="12.2185525"><ele>764.0</ele><time>2026-04-12T09:10:57.998Z</time></trkpt><trkpt lat="42.4081958" lon="12.2185998"><ele>764.0</ele><time>2026-04-12T09:11:29.999Z</time></trkpt><trkpt lat="42.4082649" lon="12.2186407"><ele>764.0</ele><time>2026-04-12T09:11:31.999Z</time></trkpt><trkpt lat="42.4083375" lon="12.2186783"><ele>764.0</ele><time>2026-04-12T09:11:33.999Z</time></trkpt><trkpt lat="42.4084047" lon="12.2186968"><ele>764.0</ele><time>2026-04-12T09:11:35.999Z</time></trkpt><trkpt lat="42.4084578" lon="12.2187469"><ele>764.0</ele><time>2026-04-12T09:11:39.998Z</time></trkpt><trkpt lat="42.4083832" lon="12.2187735"><ele>764.0</ele><time>2026-04-12T09:11:43.999Z</time></trkpt><trkpt lat="42.4083147" lon="12.2187714"><ele>764.0</ele><time>2026-04-12T09:11:45.999Z</time></trkpt><trkpt lat="42.408235" lon="12.2187746"><ele>764.0</ele><time>2026-04-12T09:11:48.999Z</time></trkpt><trkpt lat="42.4081597" lon="12.2187892"><ele>764.0</ele><time>2026-04-12T09:11:51.999Z</time></trkpt><trkpt lat="42.4080935" lon="12.2188193"><ele>764.0</ele><time>2026-04-12T09:11:54.999Z</time></trkpt><trkpt lat="42.4080317" lon="12.2188448"><ele>764.0</ele><time>2026-04-12T09:12:28.999Z</time></trkpt><trkpt lat="42.4079179" lon="12.2188744"><ele>764.0</ele><time>2026-04-12T09:12:30.999Z</time></trkpt><trkpt lat="42.4077702" lon="12.2188845"><ele>762.25</ele><time>2026-04-12T09:12:31.998Z</time></trkpt><trkpt lat="42.4076865" lon="12.2190352"><ele>760.5</ele><time>2026-04-12T09:12:32.999Z</time></trkpt><trkpt lat="42.4076013" lon="12.2191184"><ele>758.75</ele><time>2026-04-12T09:12:33.999Z</time></trkpt><trkpt lat="42.4075594" lon="12.219234"><ele>757.0</ele><time>2026-04-12T09:12:34.999Z</time></trkpt><trkpt lat="42.4075471" lon="12.2193847"><ele>757.0</ele><time>2026-04-12T09:12:35.999Z</time></trkpt><trkpt lat="42.4075498" lon="12.2196041"><ele>757.0</ele><time>2026-04-12T09:12:37Z</time></trkpt><trkpt lat="42.407609" lon="12.2197852"><ele>757.0</ele><time>2026-04-12T09:12:37.998Z</time></trkpt><trkpt lat="42.4076544" lon="12.2200123"><ele>757.3333333333334</ele><time>2026-04-12T09:12:38.999Z</time></trkpt><trkpt lat="42.4077021" lon="12.2202156"><ele>757.6666666666666</ele><time>2026-04-12T09:12:39.998Z</time></trkpt><trkpt lat="42.407752" lon="12.2204352"><ele>758.0</ele><time>2026-04-12T09:12:40.999Z</time></trkpt><trkpt lat="42.4077872" lon="12.2206691"><ele>757.0</ele><time>2026-04-12T09:12:41.998Z</time></trkpt><trkpt lat="42.407819" lon="12.2208217"><ele>756.0</ele><time>2026-04-12T09:12:42.998Z</time></trkpt><trkpt lat="42.4077865" lon="12.2209611"><ele>755.0</ele><time>2026-04-12T09:12:43.999Z</time></trkpt><trkpt lat="42.4076204" lon="12.2211232"><ele>754.0</ele><time>2026-04-12T09:12:44.999Z</time></trkpt><trkpt lat="42.4075319" lon="12.2212957"><ele>754.0</ele><time>2026-04-12T09:12:45.999Z</time></trkpt><trkpt lat="42.4074475" lon="12.2214653"><ele>754.0</ele><time>2026-04-12T09:12:46.999Z</time></trkpt><trkpt lat="42.407373" lon="12.2216264"><ele>754.0</ele><time>2026-04-12T09:12:47.998Z</time></trkpt><trkpt lat="42.4073048" lon="12.2217743"><ele>754.0</ele><time>2026-04-12T09:12:48.999Z</time></trkpt><trkpt lat="42.4072349" lon="12.2219167"><ele>755.3333333333334</ele><time>2026-04-12T09:12:49.999Z</time></trkpt><trkpt lat="42.4071681" lon="12.2220035"><ele>756.6666666666667</ele><time>2026-04-12T09:12:50.998Z</time></trkpt><trkpt lat="42.4071109" lon="12.2220777"><ele>758.0</ele><time>2026-04-12T09:12:51.998Z</time></trkpt><trkpt lat="42.4070547" lon="12.2221181"><ele>759.3333333333334</ele><time>2026-04-12T09:12:52.998Z</time></trkpt><trkpt lat="42.4071213" lon="12.22213"><ele>760.6666666666666</ele><time>2026-04-12T09:13:04.999Z</time></trkpt><trkpt lat="42.4070531" lon="12.2221233"><ele>762.0</ele><time>2026-04-12T09:13:16.999Z</time></trkpt><trkpt lat="42.4069574" lon="12.2221912"><ele>762.0</ele><time>2026-04-12T09:13:17.998Z</time></trkpt><trkpt lat="42.4068871" lon="12.2222281"><ele>762.0</ele><time>2026-04-12T09:13:18.999Z</time></trkpt><trkpt lat="42.4068176" lon="12.2222633"><ele>762.0</ele><time>2026-04-12T09:13:19.999Z</time></trkpt><trkpt lat="42.4067443" lon="12.2223083"><ele>762.0</ele><time>2026-04-12T09:13:20.998Z</time></trkpt><trkpt lat="42.4066573" lon="12.2223493"><ele>762.0</ele><time>2026-04-12T09:13:21.999Z</time></trkpt><trkpt lat="42.4065783" lon="12.2223931"><ele>762.0</ele><time>2026-04-12T09:13:22.998Z</time></trkpt><trkpt lat="42.406508" lon="12.2224293"><ele>759.4000000000001</ele><time>2026-04-12T09:13:23.998Z</time></trkpt><trkpt lat="42.4063981" lon="12.2224899"><ele>756.8000000000001</ele><time>2026-04-12T09:13:25.999Z</time></trkpt><trkpt lat="42.4063407" lon="12.2225271"><ele>754.2</ele><time>2026-04-12T09:13:26.999Z</time></trkpt><trkpt lat="42.4062707" lon="12.2225664"><ele>751.6</ele><time>2026-04-12T09:13:27.999Z</time></trkpt><trkpt lat="42.40618" lon="12.2226059"><ele>749.0</ele><time>2026-04-12T09:13:28.999Z</time></trkpt><trkpt lat="42.4060794" lon="12.222654"><ele>749.0</ele><time>2026-04-12T09:13:29.998Z</time></trkpt><trkpt lat="42.40597" lon="12.2227081"><ele>749.0</ele><time>2026-04-12T09:13:30.999Z</time></trkpt><trkpt lat="42.4058562" lon="12.2227609"><ele>749.0</ele><time>2026-04-12T09:13:31.998Z</time></trkpt><trkpt lat="42.4057406" lon="12.2228135"><ele>749.0</ele><time>2026-04-12T09:13:32.998Z</time></trkpt><trkpt lat="42.4056121" lon="12.2228683"><ele>748.5</ele><time>2026-04-12T09:13:33.999Z</time></trkpt><trkpt lat="42.4054917" lon="12.2229205"><ele>748.0</ele><time>2026-04-12T09:13:34.999Z</time></trkpt><trkpt lat="42.4053688" lon="12.2229647"><ele>747.5</ele><time>2026-04-12T09:13:35.998Z</time></trkpt><trkpt lat="42.4052485" lon="12.223019"><ele>747.0</ele><time>2026-04-12T09:13:36.999Z</time></trkpt><trkpt lat="42.4051385" lon="12.2230692"><ele>747.0</ele><time>2026-04-12T09:13:37.999Z</time></trkpt><trkpt lat="42.4050445" lon="12.2231282"><ele>747.0</ele><time>2026-04-12T09:13:38.999Z</time></trkpt><trkpt lat="42.4049023" lon="12.2231794"><ele>747.0</ele><time>2026-04-12T09:13:39.998Z</time></trkpt><trkpt lat="42.4047753" lon="12.2232371"><ele>747.0</ele><time>2026-04-12T09:13:40.998Z</time></trkpt><trkpt lat="42.4046507" lon="12.2232824"><ele>743.75</ele><time>2026-04-12T09:13:41.999Z</time></trkpt><trkpt lat="42.4045247" lon="12.2233324"><ele>740.5</ele><time>2026-04-12T09:13:42.999Z</time></trkpt><trkpt lat="42.4044099" lon="12.2233705"><ele>737.25</ele><time>2026-04-12T09:13:43.998Z</time></trkpt><trkpt lat="42.404292" lon="12.2234099"><ele>734.0</ele><time>2026-04-12T09:13:44.999Z</time></trkpt><trkpt lat="42.404174" lon="12.2234156"><ele>734.0</ele><time>2026-04-12T09:13:45.999Z</time></trkpt><trkpt lat="42.4041069" lon="12.2234105"><ele>734.0</ele><time>2026-04-12T09:13:46.999Z</time></trkpt><trkpt lat="42.40404" lon="12.2233902"><ele>734.0</ele><time>2026-04-12T09:13:47.998Z</time></trkpt><trkpt lat="42.4039719" lon="12.2233675"><ele>734.0</ele><time>2026-04-12T09:13:48.999Z</time></trkpt><trkpt lat="42.4039072" lon="12.2233339"><ele>734.0</ele><time>2026-04-12T09:13:49.999Z</time></trkpt><trkpt lat="42.403801" lon="12.2232748"><ele>734.0</ele><time>2026-04-12T09:13:51.999Z</time></trkpt><trkpt lat="42.4037395" lon="12.2231971"><ele>734.5</ele><time>2026-04-12T09:13:53.999Z</time></trkpt><trkpt lat="42.4036835" lon="12.2231436"><ele>735.0</ele><time>2026-04-12T09:13:54.999Z</time></trkpt><trkpt lat="42.4036318" lon="12.2230747"><ele>735.5</ele><time>2026-04-12T09:13:55.999Z</time></trkpt><trkpt lat="42.4035583" lon="12.2230057"><ele>736.0</ele><time>2026-04-12T09:13:56.999Z</time></trkpt><trkpt lat="42.4034883" lon="12.2229146"><ele>736.5</ele><time>2026-04-12T09:13:57.998Z</time></trkpt><trkpt lat="42.403411" lon="12.2228254"><ele>737.0</ele><time>2026-04-12T09:13:58.999Z</time></trkpt><trkpt lat="42.4033333" lon="12.2227257"><ele>737.0</ele><time>2026-04-12T09:13:59.998Z</time></trkpt><trkpt lat="42.4032593" lon="12.2226252"><ele>737.0</ele><time>2026-04-12T09:14:00.999Z</time></trkpt><trkpt lat="42.403185" lon="12.2225372"><ele>737.0</ele><time>2026-04-12T09:14:01.999Z</time></trkpt><trkpt lat="42.4031201" lon="12.2224547"><ele>737.0</ele><time>2026-04-12T09:14:02.999Z</time></trkpt><trkpt lat="42.4030557" lon="12.2223596"><ele>737.0</ele><time>2026-04-12T09:14:03.999Z</time></trkpt><trkpt lat="42.4029849" lon="12.2222544"><ele>735.2</ele><time>2026-04-12T09:14:04.999Z</time></trkpt><trkpt lat="42.4029295" lon="12.2221481"><ele>733.4000000000001</ele><time>2026-04-12T09:14:05.998Z</time></trkpt><trkpt lat="42.402883" lon="12.2220381"><ele>731.5999999999999</ele><time>2026-04-12T09:14:06.998Z</time></trkpt><trkpt lat="42.402826" lon="12.2219682"><ele>729.8</ele><time>2026-04-12T09:14:07.998Z</time></trkpt><trkpt lat="42.4027714" lon="12.2218699"><ele>728.0</ele><time>2026-04-12T09:14:08.998Z</time></trkpt><trkpt lat="42.4027057" lon="12.22177"><ele>728.0</ele><time>2026-04-12T09:14:09.999Z</time></trkpt><trkpt lat="42.4026339" lon="12.2216587"><ele>728.0</ele><time>2026-04-12T09:14:10.999Z</time></trkpt><trkpt lat="42.4025539" lon="12.2215419"><ele>728.0</ele><time>2026-04-12T09:14:11.998Z</time></trkpt><trkpt lat="42.4024737" lon="12.2214151"><ele>728.0</ele><time>2026-04-12T09:14:12.999Z</time></trkpt><trkpt lat="42.4023968" lon="12.2212828"><ele>729.6666666666666</ele><time>2026-04-12T09:14:13.999Z</time></trkpt><trkpt lat="42.4022352" lon="12.2210453"><ele>731.3333333333334</ele><time>2026-04-12T09:14:15.999Z</time></trkpt><trkpt lat="42.4021413" lon="12.2209564"><ele>733.0</ele><time>2026-04-12T09:14:16.998Z</time></trkpt><trkpt lat="42.4020329" lon="12.2208822"><ele>733.0</ele><time>2026-04-12T09:14:17.998Z</time></trkpt><trkpt lat="42.4019245" lon="12.2208149"><ele>733.0</ele><time>2026-04-12T09:14:18.998Z</time></trkpt><trkpt lat="42.4018036" lon="12.2207684"><ele>733.0</ele><time>2026-04-12T09:14:19.999Z</time></trkpt><trkpt lat="42.4016819" lon="12.2207492"><ele>733.0</ele><time>2026-04-12T09:14:20.998Z</time></trkpt><trkpt lat="42.4015591" lon="12.2207412"><ele>733.0</ele><time>2026-04-12T09:14:21.998Z</time></trkpt><trkpt lat="42.4014469" lon="12.2207653"><ele>733.0</ele><time>2026-04-12T09:14:22.998Z</time></trkpt><trkpt lat="42.4013394" lon="12.2207747"><ele>733.0</ele><time>2026-04-12T09:14:23.998Z</time></trkpt><trkpt lat="42.4012472" lon="12.2207841"><ele>733.0</ele><time>2026-04-12T09:14:24.998Z</time></trkpt><trkpt lat="42.4011334" lon="12.2207859"><ele>733.0</ele><time>2026-04-12T09:14:26.999Z</time></trkpt><trkpt lat="42.4010301" lon="12.2207819"><ele>732.4</ele><time>2026-04-12T09:14:27.999Z</time></trkpt><trkpt lat="42.4009451" lon="12.2207651"><ele>731.8</ele><time>2026-04-12T09:14:28.999Z</time></trkpt><trkpt lat="42.4008559" lon="12.220749"><ele>731.2</ele><time>2026-04-12T09:14:29.999Z</time></trkpt><trkpt lat="42.4007436" lon="12.2207116"><ele>730.6</ele><time>2026-04-12T09:14:30.999Z</time></trkpt><trkpt lat="42.4006273" lon="12.2206308"><ele>730.0</ele><time>2026-04-12T09:14:31.999Z</time></trkpt><trkpt lat="42.4005061" lon="12.220561"><ele>733.25</ele><time>2026-04-12T09:14:32.997Z</time></trkpt><trkpt lat="42.4003732" lon="12.2205001"><ele>736.5</ele><time>2026-04-12T09:14:33.999Z</time></trkpt><trkpt lat="42.4002617" lon="12.2204265"><ele>739.75</ele><time>2026-04-12T09:14:34.999Z</time></trkpt><trkpt lat="42.4001496" lon="12.2203608"><ele>743.0</ele><time>2026-04-12T09:14:35.997Z</time></trkpt><trkpt lat="42.4000316" lon="12.2202964"><ele>743.0</ele><time>2026-04-12T09:14:36.998Z</time></trkpt><trkpt lat="42.3999275" lon="12.2202539"><ele>743.0</ele><time>2026-04-12T09:14:37.998Z</time></trkpt><trkpt lat="42.3998256" lon="12.220201"><ele>743.0</ele><time>2026-04-12T09:14:38.999Z</time></trkpt><trkpt lat="42.3997207" lon="12.220145"><ele>743.0</ele><time>2026-04-12T09:14:39.998Z</time></trkpt><trkpt lat="42.3996265" lon="12.2200899"><ele>743.0</ele><time>2026-04-12T09:14:40.999Z</time></trkpt><trkpt lat="42.3995255" lon="12.2200344"><ele>742.5</ele><time>2026-04-12T09:14:41.999Z</time></trkpt><trkpt lat="42.3994267" lon="12.2199649"><ele>742.0</ele><time>2026-04-12T09:14:42.999Z</time></trkpt><trkpt lat="42.3993248" lon="12.219869"><ele>741.5</ele><time>2026-04-12T09:14:43.999Z</time></trkpt><trkpt lat="42.3992325" lon="12.2197629"><ele>741.0</ele><time>2026-04-12T09:14:44.998Z</time></trkpt><trkpt lat="42.3991573" lon="12.2196387"><ele>741.0</ele><time>2026-04-12T09:14:45.998Z</time></trkpt><trkpt lat="42.3990924" lon="12.2195139"><ele>741.0</ele><time>2026-04-12T09:14:46.999Z</time></trkpt><trkpt lat="42.3990333" lon="12.2193749"><ele>741.0</ele><time>2026-04-12T09:14:47.998Z</time></trkpt><trkpt lat="42.3989887" lon="12.219234"><ele>741.0</ele><time>2026-04-12T09:14:48.999Z</time></trkpt><trkpt lat="42.3989493" lon="12.2190968"><ele>742.25</ele><time>2026-04-12T09:14:49.999Z</time></trkpt><trkpt lat="42.3989161" lon="12.2189592"><ele>743.5</ele><time>2026-04-12T09:14:50.999Z</time></trkpt><trkpt lat="42.3988852" lon="12.2188195"><ele>744.75</ele><time>2026-04-12T09:14:51.999Z</time></trkpt><trkpt lat="42.3988524" lon="12.2186679"><ele>746.0</ele><time>2026-04-12T09:14:52.999Z</time></trkpt><trkpt lat="42.3988165" lon="12.2185102"><ele>741.75</ele><time>2026-04-12T09:14:53.998Z</time></trkpt><trkpt lat="42.3987685" lon="12.218344"><ele>737.5</ele><time>2026-04-12T09:14:54.999Z</time></trkpt><trkpt lat="42.3987095" lon="12.2181773"><ele>733.25</ele><time>2026-04-12T09:14:55.999Z</time></trkpt><trkpt lat="42.3986415" lon="12.2180202"><ele>729.0</ele><time>2026-04-12T09:14:56.999Z</time></trkpt><trkpt lat="42.3985726" lon="12.2178778"><ele>729.0</ele><time>2026-04-12T09:14:57.999Z</time></trkpt><trkpt lat="42.3984956" lon="12.2177469"><ele>729.0</ele><time>2026-04-12T09:14:58.999Z</time></trkpt><trkpt lat="42.3984157" lon="12.2176172"><ele>729.0</ele><time>2026-04-12T09:14:59.999Z</time></trkpt><trkpt lat="42.3983269" lon="12.2174844"><ele>729.0</ele><time>2026-04-12T09:15:00.998Z</time></trkpt><trkpt lat="42.3982297" lon="12.2173428"><ele>728.5</ele><time>2026-04-12T09:15:01.999Z</time></trkpt><trkpt lat="42.3981221" lon="12.2171933"><ele>728.0</ele><time>2026-04-12T09:15:02.999Z</time></trkpt><trkpt lat="42.3980069" lon="12.2170734"><ele>727.5</ele><time>2026-04-12T09:15:03.999Z</time></trkpt><trkpt lat="42.397895" lon="12.2169617"><ele>727.0</ele><time>2026-04-12T09:15:04.998Z</time></trkpt><trkpt lat="42.397787" lon="12.2168511"><ele>727.0</ele><time>2026-04-12T09:15:05.999Z</time></trkpt><trkpt lat="42.3976786" lon="12.216748"><ele>727.0</ele><time>2026-04-12T09:15:06.999Z</time></trkpt><trkpt lat="42.397574" lon="12.2166454"><ele>727.0</ele><time>2026-04-12T09:15:07.999Z</time></trkpt><trkpt lat="42.3974692" lon="12.2165412"><ele>727.0</ele><time>2026-04-12T09:15:08.998Z</time></trkpt><trkpt lat="42.3973619" lon="12.2164512"><ele>726.75</ele><time>2026-04-12T09:15:09.999Z</time></trkpt><trkpt lat="42.3972535" lon="12.2163598"><ele>726.5</ele><time>2026-04-12T09:15:10.999Z</time></trkpt><trkpt lat="42.3971438" lon="12.2162794"><ele>726.25</ele><time>2026-04-12T09:15:11.998Z</time></trkpt><trkpt lat="42.397037" lon="12.2162138"><ele>726.0</ele><time>2026-04-12T09:15:12.999Z</time></trkpt><trkpt lat="42.3969336" lon="12.2161636"><ele>726.0</ele><time>2026-04-12T09:15:13.998Z</time></trkpt><trkpt lat="42.3968289" lon="12.216107"><ele>726.0</ele><time>2026-04-12T09:15:14.998Z</time></trkpt><trkpt lat="42.3967361" lon="12.2160707"><ele>726.0</ele><time>2026-04-12T09:15:15.999Z</time></trkpt><trkpt lat="42.3966406" lon="12.216025"><ele>726.0</ele><time>2026-04-12T09:15:16.999Z</time></trkpt><trkpt lat="42.3965401" lon="12.2159962"><ele>726.0</ele><time>2026-04-12T09:15:17.999Z</time></trkpt><trkpt lat="42.3964585" lon="12.2159605"><ele>727.25</ele><time>2026-04-12T09:15:18.998Z</time></trkpt><trkpt lat="42.3962895" lon="12.2159101"><ele>728.5</ele><time>2026-04-12T09:15:20.999Z</time></trkpt><trkpt lat="42.3961474" lon="12.2159444"><ele>729.75</ele><time>2026-04-12T09:15:21.998Z</time></trkpt><trkpt lat="42.3960428" lon="12.21601"><ele>731.0</ele><time>2026-04-12T09:15:22.999Z</time></trkpt><trkpt lat="42.395954" lon="12.2161167"><ele>731.0</ele><time>2026-04-12T09:15:23.999Z</time></trkpt><trkpt lat="42.3958773" lon="12.2161951"><ele>731.0</ele><time>2026-04-12T09:15:24.998Z</time></trkpt><trkpt lat="42.3957856" lon="12.2162521"><ele>731.0</ele><time>2026-04-12T09:15:25.999Z</time></trkpt><trkpt lat="42.395669" lon="12.2162687"><ele>731.0</ele><time>2026-04-12T09:15:26.999Z</time></trkpt><trkpt lat="42.3955433" lon="12.2162623"><ele>731.0</ele><time>2026-04-12T09:15:27.999Z</time></trkpt><trkpt lat="42.3954088" lon="12.2162308"><ele>730.0</ele><time>2026-04-12T09:15:28.998Z</time></trkpt><trkpt lat="42.3952476" lon="12.2161741"><ele>729.0</ele><time>2026-04-12T09:15:29.999Z</time></trkpt><trkpt lat="42.3951338" lon="12.2161042"><ele>728.0</ele><time>2026-04-12T09:15:30.999Z</time></trkpt><trkpt lat="42.3950159" lon="12.2160377"><ele>727.0</ele><time>2026-04-12T09:15:31.999Z</time></trkpt><trkpt lat="42.3948974" lon="12.215979"><ele>727.0</ele><time>2026-04-12T09:15:32.999Z</time></trkpt><trkpt lat="42.3947822" lon="12.2159161"><ele>727.0</ele><time>2026-04-12T09:15:33.998Z</time></trkpt><trkpt lat="42.3946661" lon="12.2158502"><ele>727.0</ele><time>2026-04-12T09:15:34.999Z</time></trkpt><trkpt lat="42.3945484" lon="12.2157837"><ele>727.0</ele><time>2026-04-12T09:15:35.999Z</time></trkpt><trkpt lat="42.3944386" lon="12.2157037"><ele>728.75</ele><time>2026-04-12T09:15:36.999Z</time></trkpt><trkpt lat="42.3943293" lon="12.2156007"><ele>730.5</ele><time>2026-04-12T09:15:37.999Z</time></trkpt><trkpt lat="42.3942257" lon="12.215477"><ele>732.25</ele><time>2026-04-12T09:15:38.998Z</time></trkpt><trkpt lat="42.3941383" lon="12.2153318"><ele>734.0</ele><time>2026-04-12T09:15:39.999Z</time></trkpt><trkpt lat="42.3940606" lon="12.215146"><ele>734.0</ele><time>2026-04-12T09:15:40.998Z</time></trkpt><trkpt lat="42.3939403" lon="12.2150229"><ele>734.0</ele><time>2026-04-12T09:15:41.998Z</time></trkpt><trkpt lat="42.3938152" lon="12.2149001"><ele>734.0</ele><time>2026-04-12T09:15:42.999Z</time></trkpt><trkpt lat="42.3936989" lon="12.214799"><ele>734.0</ele><time>2026-04-12T09:15:43.998Z</time></trkpt><trkpt lat="42.393577" lon="12.2147039"><ele>736.0</ele><time>2026-04-12T09:15:44.999Z</time></trkpt><trkpt lat="42.3934509" lon="12.2146475"><ele>738.0</ele><time>2026-04-12T09:15:45.998Z</time></trkpt><trkpt lat="42.3933465" lon="12.2145783"><ele>740.0</ele><time>2026-04-12T09:15:46.999Z</time></trkpt><trkpt lat="42.3932243" lon="12.2144755"><ele>742.0</ele><time>2026-04-12T09:15:47.998Z</time></trkpt><trkpt lat="42.3931275" lon="12.2143322"><ele>742.0</ele><time>2026-04-12T09:15:48.998Z</time></trkpt><trkpt lat="42.3930514" lon="12.2142025"><ele>742.0</ele><time>2026-04-12T09:15:49.999Z</time></trkpt><trkpt lat="42.3929744" lon="12.2140811"><ele>742.0</ele><time>2026-04-12T09:15:50.999Z</time></trkpt><trkpt lat="42.3928924" lon="12.2139584"><ele>742.0</ele><time>2026-04-12T09:15:51.997Z</time></trkpt><trkpt lat="42.3928143" lon="12.2138203"><ele>738.25</ele><time>2026-04-12T09:15:52.999Z</time></trkpt><trkpt lat="42.3927419" lon="12.2136778"><ele>734.5</ele><time>2026-04-12T09:15:53.999Z</time></trkpt><trkpt lat="42.3926914" lon="12.2135161"><ele>730.75</ele><time>2026-04-12T09:15:54.998Z</time></trkpt><trkpt lat="42.3926467" lon="12.2133505"><ele>727.0</ele><time>2026-04-12T09:15:55.999Z</time></trkpt><trkpt lat="42.3926211" lon="12.2131632"><ele>729.75</ele><time>2026-04-12T09:15:56.998Z</time></trkpt><trkpt lat="42.3926023" lon="12.212965"><ele>732.5</ele><time>2026-04-12T09:15:57.998Z</time></trkpt><trkpt lat="42.3925806" lon="12.2127645"><ele>735.25</ele><time>2026-04-12T09:15:58.999Z</time></trkpt><trkpt lat="42.3925604" lon="12.2125605"><ele>738.0</ele><time>2026-04-12T09:15:59.999Z</time></trkpt><trkpt lat="42.3925457" lon="12.2123663"><ele>738.6666666666666</ele><time>2026-04-12T09:16:00.999Z</time></trkpt><trkpt lat="42.3925364" lon="12.2121659"><ele>739.3333333333333</ele><time>2026-04-12T09:16:01.999Z</time></trkpt><trkpt lat="42.3925363" lon="12.2119621"><ele>740.0</ele><time>2026-04-12T09:16:02.998Z</time></trkpt><trkpt lat="42.3925505" lon="12.2117494"><ele>740.0</ele><time>2026-04-12T09:16:03.999Z</time></trkpt><trkpt lat="42.3925911" lon="12.2115362"><ele>740.0</ele><time>2026-04-12T09:16:04.999Z</time></trkpt><trkpt lat="42.392644" lon="12.2113438"><ele>740.0</ele><time>2026-04-12T09:16:05.999Z</time></trkpt><trkpt lat="42.3927092" lon="12.2111642"><ele>740.5</ele><time>2026-04-12T09:16:06.999Z</time></trkpt><trkpt lat="42.392787" lon="12.210995"><ele>741.0</ele><time>2026-04-12T09:16:07.999Z</time></trkpt><trkpt lat="42.3928593" lon="12.2108463"><ele>741.5</ele><time>2026-04-12T09:16:08.999Z</time></trkpt><trkpt lat="42.3929295" lon="12.2106957"><ele>742.0</ele><time>2026-04-12T09:16:09.999Z</time></trkpt><trkpt lat="42.3929966" lon="12.2105315"><ele>747.0</ele><time>2026-04-12T09:16:10.999Z</time></trkpt><trkpt lat="42.3930295" lon="12.2103755"><ele>752.0</ele><time>2026-04-12T09:16:11.998Z</time></trkpt><trkpt lat="42.3930521" lon="12.2102317"><ele>757.0</ele><time>2026-04-12T09:16:12.998Z</time></trkpt><trkpt lat="42.3930482" lon="12.210131"><ele>762.0</ele><time>2026-04-12T09:16:13.998Z</time></trkpt><trkpt lat="42.3930397" lon="12.2100222"><ele>767.0</ele><time>2026-04-12T09:16:14.999Z</time></trkpt><trkpt lat="42.3930194" lon="12.2099234"><ele>766.4000000000001</ele><time>2026-04-12T09:16:15.999Z</time></trkpt><trkpt lat="42.3929744" lon="12.2098291"><ele>765.8000000000001</ele><time>2026-04-12T09:16:16.999Z</time></trkpt><trkpt lat="42.3929337" lon="12.2097364"><ele>765.2</ele><time>2026-04-12T09:16:17.999Z</time></trkpt><trkpt lat="42.3928914" lon="12.209664"><ele>764.6</ele><time>2026-04-12T09:16:18.999Z</time></trkpt><trkpt lat="42.3928213" lon="12.2095346"><ele>764.0</ele><time>2026-04-12T09:16:20.999Z</time></trkpt><trkpt lat="42.3927575" lon="12.2094223"><ele>764.0</ele><time>2026-04-12T09:16:22.998Z</time></trkpt><trkpt lat="42.3926604" lon="12.2093319"><ele>764.0</ele><time>2026-04-12T09:16:24.999Z</time></trkpt><trkpt lat="42.3926161" lon="12.2092706"><ele>764.0</ele><time>2026-04-12T09:16:25.999Z</time></trkpt><trkpt lat="42.3925463" lon="12.2091611"><ele>764.0</ele><time>2026-04-12T09:16:27.998Z</time></trkpt><trkpt lat="42.392498" lon="12.2090981"><ele>764.0</ele><time>2026-04-12T09:16:28.999Z</time></trkpt><trkpt lat="42.3924299" lon="12.2090254"><ele>764.0</ele><time>2026-04-12T09:16:29.999Z</time></trkpt><trkpt lat="42.3923583" lon="12.208941"><ele>767.75</ele><time>2026-04-12T09:16:30.999Z</time></trkpt><trkpt lat="42.3922795" lon="12.2088324"><ele>771.5</ele><time>2026-04-12T09:16:31.998Z</time></trkpt><trkpt lat="42.3922061" lon="12.2087165"><ele>775.25</ele><time>2026-04-12T09:16:32.999Z</time></trkpt><trkpt lat="42.3921441" lon="12.2085759"><ele>779.0</ele><time>2026-04-12T09:16:33.999Z</time></trkpt><trkpt lat="42.3921088" lon="12.2084344"><ele>773.25</ele><time>2026-04-12T09:16:34.999Z</time></trkpt><trkpt lat="42.3920995" lon="12.2082819"><ele>767.5</ele><time>2026-04-12T09:16:35.999Z</time></trkpt><trkpt lat="42.3921271" lon="12.2080747"><ele>761.75</ele><time>2026-04-12T09:16:36.999Z</time></trkpt><trkpt lat="42.3921452" lon="12.2078992"><ele>756.0</ele><time>2026-04-12T09:16:37.999Z</time></trkpt><trkpt lat="42.3921507" lon="12.2077281"><ele>756.0</ele><time>2026-04-12T09:16:38.999Z</time></trkpt><trkpt lat="42.3921588" lon="12.2075685"><ele>756.0</ele><time>2026-04-12T09:16:39.999Z</time></trkpt><trkpt lat="42.3921757" lon="12.207429"><ele>756.0</ele><time>2026-04-12T09:16:40.999Z</time></trkpt><trkpt lat="42.3921669" lon="12.2072406"><ele>756.0</ele><time>2026-04-12T09:16:41.998Z</time></trkpt><trkpt lat="42.3921775" lon="12.2070623"><ele>762.4</ele><time>2026-04-12T09:16:42.999Z</time></trkpt><trkpt lat="42.3921869" lon="12.2069059"><ele>768.8</ele><time>2026-04-12T09:16:43.998Z</time></trkpt><trkpt lat="42.3921923" lon="12.2067728"><ele>775.1999999999999</ele><time>2026-04-12T09:16:44.999Z</time></trkpt><trkpt lat="42.3921965" lon="12.2066555"><ele>781.5999999999999</ele><time>2026-04-12T09:16:45.998Z</time></trkpt><trkpt lat="42.3921952" lon="12.206534"><ele>788.0</ele><time>2026-04-12T09:16:46.998Z</time></trkpt><trkpt lat="42.3921619" lon="12.2064163"><ele>788.1666666666667</ele><time>2026-04-12T09:16:48.999Z</time></trkpt><trkpt lat="42.3921416" lon="12.2063354"><ele>788.3333333333334</ele><time>2026-04-12T09:16:49.999Z</time></trkpt><trkpt lat="42.3920708" lon="12.20624"><ele>788.5</ele><time>2026-04-12T09:16:50.999Z</time></trkpt><trkpt lat="42.3920169" lon="12.2061607"><ele>788.6666666666667</ele><time>2026-04-12T09:16:51.999Z</time></trkpt><trkpt lat="42.3919508" lon="12.2061202"><ele>788.8333333333334</ele><time>2026-04-12T09:16:52.999Z</time></trkpt><trkpt lat="42.3918287" lon="12.2060926"><ele>789.0</ele><time>2026-04-12T09:16:53.998Z</time></trkpt><trkpt lat="42.3917293" lon="12.2060773"><ele>789.0</ele><time>2026-04-12T09:16:54.999Z</time></trkpt><trkpt lat="42.3916125" lon="12.2060908"><ele>789.0</ele><time>2026-04-12T09:16:55.999Z</time></trkpt><trkpt lat="42.3915177" lon="12.2061091"><ele>789.0</ele><time>2026-04-12T09:16:56.998Z</time></trkpt><trkpt lat="42.3914202" lon="12.2061185"><ele>789.0</ele><time>2026-04-12T09:16:57.998Z</time></trkpt><trkpt lat="42.391299" lon="12.2061116"><ele>789.0</ele><time>2026-04-12T09:16:58.998Z</time></trkpt><trkpt lat="42.3911815" lon="12.2061002"><ele>787.6</ele><time>2026-04-12T09:16:59.998Z</time></trkpt><trkpt lat="42.3910646" lon="12.2060687"><ele>786.2</ele><time>2026-04-12T09:17:00.999Z</time></trkpt><trkpt lat="42.3909693" lon="12.2060274"><ele>784.8000000000001</ele><time>2026-04-12T09:17:01.999Z</time></trkpt><trkpt lat="42.3908791" lon="12.2059789"><ele>783.4000000000001</ele><time>2026-04-12T09:17:02.999Z</time></trkpt><trkpt lat="42.3907943" lon="12.2059206"><ele>782.0</ele><time>2026-04-12T09:17:03.998Z</time></trkpt><trkpt lat="42.390681" lon="12.2057461"><ele>782.0000000000001</ele><time>2026-04-12T09:17:05.999Z</time></trkpt><trkpt lat="42.3906358" lon="12.20567"><ele>782.0</ele><time>2026-04-12T09:17:06.999Z</time></trkpt><trkpt lat="42.3905979" lon="12.2055925"><ele>782.0</ele><time>2026-04-12T09:17:07.999Z</time></trkpt><trkpt lat="42.3905272" lon="12.2054869"><ele>782.0</ele><time>2026-04-12T09:17:10Z</time></trkpt><trkpt lat="42.3904915" lon="12.2053972"><ele>782.0000000000001</ele><time>2026-04-12T09:17:11.999Z</time></trkpt><trkpt lat="42.3904325" lon="12.2053568"><ele>782.0</ele><time>2026-04-12T09:17:17.999Z</time></trkpt><trkpt lat="42.3903986" lon="12.2052836"><ele>782.0</ele><time>2026-04-12T09:17:19.999Z</time></trkpt><trkpt lat="42.3902473" lon="12.205028"><ele>782.0</ele><time>2026-04-12T09:17:21.999Z</time></trkpt><trkpt lat="42.3901673" lon="12.204899"><ele>782.0</ele><time>2026-04-12T09:17:22.998Z</time></trkpt><trkpt lat="42.3901032" lon="12.2047727"><ele>782.0</ele><time>2026-04-12T09:17:23.998Z</time></trkpt><trkpt lat="42.3900161" lon="12.2046155"><ele>782.0</ele><time>2026-04-12T09:17:24.999Z</time></trkpt><trkpt lat="42.3899319" lon="12.2044384"><ele>782.0</ele><time>2026-04-12T09:17:25.999Z</time></trkpt><trkpt lat="42.3898448" lon="12.2042709"><ele>782.0</ele><time>2026-04-12T09:17:26.999Z</time></trkpt><trkpt lat="42.3897778" lon="12.2041026"><ele>782.0</ele><time>2026-04-12T09:17:27.999Z</time></trkpt><trkpt lat="42.3897069" lon="12.2039547"><ele>782.0</ele><time>2026-04-12T09:17:28.999Z</time></trkpt><trkpt lat="42.38964" lon="12.2037087"><ele>779.0</ele><time>2026-04-12T09:17:29.998Z</time></trkpt><trkpt lat="42.3895842" lon="12.2035061"><ele>776.0</ele><time>2026-04-12T09:17:30.998Z</time></trkpt><trkpt lat="42.3895425" lon="12.2032839"><ele>773.0</ele><time>2026-04-12T09:17:31.999Z</time></trkpt><trkpt lat="42.3894901" lon="12.2031131"><ele>772.5</ele><time>2026-04-12T09:17:32.999Z</time></trkpt><trkpt lat="42.38943" lon="12.2029402"><ele>772.0</ele><time>2026-04-12T09:17:33.999Z</time></trkpt><trkpt lat="42.389384" lon="12.2027609"><ele>771.5</ele><time>2026-04-12T09:17:34.999Z</time></trkpt><trkpt lat="42.3893555" lon="12.202593"><ele>771.0</ele><time>2026-04-12T09:17:35.999Z</time></trkpt><trkpt lat="42.3893114" lon="12.2024381"><ele>770.5999999999999</ele><time>2026-04-12T09:17:36.999Z</time></trkpt><trkpt lat="42.389274" lon="12.2022974"><ele>770.2</ele><time>2026-04-12T09:17:37.998Z</time></trkpt><trkpt lat="42.3892481" lon="12.202164"><ele>769.8</ele><time>2026-04-12T09:17:38.998Z</time></trkpt><trkpt lat="42.3892146" lon="12.2020332"><ele>769.4000000000001</ele><time>2026-04-12T09:17:39.998Z</time></trkpt><trkpt lat="42.3891858" lon="12.2019073"><ele>769.0</ele><time>2026-04-12T09:17:40.999Z</time></trkpt><trkpt lat="42.3891738" lon="12.2017916"><ele>769.0</ele><time>2026-04-12T09:17:41.998Z</time></trkpt><trkpt lat="42.3891742" lon="12.20166"><ele>769.0</ele><time>2026-04-12T09:17:42.998Z</time></trkpt><trkpt lat="42.3891875" lon="12.2015163"><ele>769.0</ele><time>2026-04-12T09:17:44Z</time></trkpt><trkpt lat="42.3892036" lon="12.2013675"><ele>769.0</ele><time>2026-04-12T09:17:44.999Z</time></trkpt><trkpt lat="42.3892176" lon="12.2011931"><ele>769.0</ele><time>2026-04-12T09:17:45.999Z</time></trkpt><trkpt lat="42.3892379" lon="12.200994"><ele>769.3333333333333</ele><time>2026-04-12T09:17:46.999Z</time></trkpt><trkpt lat="42.3892676" lon="12.2007892"><ele>769.6666666666667</ele><time>2026-04-12T09:17:47.999Z</time></trkpt><trkpt lat="42.3893024" lon="12.2005799"><ele>770.0</ele><time>2026-04-12T09:17:48.998Z</time></trkpt><trkpt lat="42.3893427" lon="12.2003758"><ele>770.3333333333334</ele><time>2026-04-12T09:17:49.999Z</time></trkpt><trkpt lat="42.3894314" lon="12.2002021"><ele>770.6666666666667</ele><time>2026-04-12T09:17:50.998Z</time></trkpt><trkpt lat="42.3894942" lon="12.2000218"><ele>771.0</ele><time>2026-04-12T09:17:51.998Z</time></trkpt><trkpt lat="42.3896378" lon="12.1998843"><ele>771.5</ele><time>2026-04-12T09:17:52.999Z</time></trkpt><trkpt lat="42.3897212" lon="12.1997558"><ele>772.0</ele><time>2026-04-12T09:17:53.999Z</time></trkpt><trkpt lat="42.3898362" lon="12.1996386"><ele>772.5</ele><time>2026-04-12T09:17:54.999Z</time></trkpt><trkpt lat="42.3899322" lon="12.1995007"><ele>773.0</ele><time>2026-04-12T09:17:55.998Z</time></trkpt><trkpt lat="42.3900426" lon="12.1993823"><ele>773.0</ele><time>2026-04-12T09:17:56.998Z</time></trkpt><trkpt lat="42.3901468" lon="12.1992367"><ele>773.0</ele><time>2026-04-12T09:17:57.998Z</time></trkpt><trkpt lat="42.3902412" lon="12.1990919"><ele>773.0</ele><time>2026-04-12T09:17:58.999Z</time></trkpt><trkpt lat="42.3903315" lon="12.1989406"><ele>773.0</ele><time>2026-04-12T09:17:59.997Z</time></trkpt><trkpt lat="42.3904251" lon="12.1987973"><ele>771.6666666666667</ele><time>2026-04-12T09:18:00.999Z</time></trkpt><trkpt lat="42.3905" lon="12.1986449"><ele>770.3333333333333</ele><time>2026-04-12T09:18:01.999Z</time></trkpt><trkpt lat="42.3905443" lon="12.198427"><ele>769.0</ele><time>2026-04-12T09:18:02.999Z</time></trkpt><trkpt lat="42.3905313" lon="12.1981774"><ele>773.0</ele><time>2026-04-12T09:18:03.999Z</time></trkpt><trkpt lat="42.390555" lon="12.1979543"><ele>777.0</ele><time>2026-04-12T09:18:04.999Z</time></trkpt><trkpt lat="42.3905459" lon="12.1977141"><ele>781.0</ele><time>2026-04-12T09:18:05.999Z</time></trkpt><trkpt lat="42.3905641" lon="12.1975005"><ele>781.5</ele><time>2026-04-12T09:18:06.999Z</time></trkpt><trkpt lat="42.3905793" lon="12.1973136"><ele>782.0</ele><time>2026-04-12T09:18:07.999Z</time></trkpt><trkpt lat="42.390608" lon="12.1971023"><ele>782.5</ele><time>2026-04-12T09:18:08.999Z</time></trkpt><trkpt lat="42.390636" lon="12.1969338"><ele>783.0</ele><time>2026-04-12T09:18:09.998Z</time></trkpt><trkpt lat="42.3906881" lon="12.196753"><ele>783.0</ele><time>2026-04-12T09:18:10.999Z</time></trkpt><trkpt lat="42.3907632" lon="12.1966438"><ele>783.0</ele><time>2026-04-12T09:18:11.999Z</time></trkpt><trkpt lat="42.3908175" lon="12.1964938"><ele>783.0</ele><time>2026-04-12T09:18:12.998Z</time></trkpt><trkpt lat="42.3908768" lon="12.1963525"><ele>783.0</ele><time>2026-04-12T09:18:13.999Z</time></trkpt><trkpt lat="42.3909387" lon="12.1962193"><ele>782.4</ele><time>2026-04-12T09:18:14.998Z</time></trkpt><trkpt lat="42.3909932" lon="12.196094"><ele>781.8</ele><time>2026-04-12T09:18:15.999Z</time></trkpt><trkpt lat="42.3910491" lon="12.1959708"><ele>781.2</ele><time>2026-04-12T09:18:16.997Z</time></trkpt><trkpt lat="42.391096" lon="12.1957853"><ele>780.6</ele><time>2026-04-12T09:18:18.999Z</time></trkpt><trkpt lat="42.3911361" lon="12.1956944"><ele>780.0</ele><time>2026-04-12T09:18:19.999Z</time></trkpt><trkpt lat="42.3911523" lon="12.1954961"><ele>778.6666666666667</ele><time>2026-04-12T09:18:20.999Z</time></trkpt><trkpt lat="42.3911612" lon="12.1953229"><ele>777.3333333333334</ele><time>2026-04-12T09:18:21.998Z</time></trkpt><trkpt lat="42.3911991" lon="12.1949444"><ele>776.0</ele><time>2026-04-12T09:18:23.999Z</time></trkpt><trkpt lat="42.3911837" lon="12.1948499"><ele>774.8</ele><time>2026-04-12T09:18:24.999Z</time></trkpt><trkpt lat="42.3911829" lon="12.1947189"><ele>773.5999999999999</ele><time>2026-04-12T09:18:25.998Z</time></trkpt><trkpt lat="42.3911972" lon="12.1946085"><ele>772.4</ele><time>2026-04-12T09:18:26.999Z</time></trkpt><trkpt lat="42.3912434" lon="12.1945405"><ele>771.2</ele><time>2026-04-12T09:18:27.998Z</time></trkpt><trkpt lat="42.3913725" lon="12.1944911"><ele>770.0</ele><time>2026-04-12T09:18:29.999Z</time></trkpt><trkpt lat="42.3914418" lon="12.1944996"><ele>770.0</ele><time>2026-04-12T09:18:30.999Z</time></trkpt><trkpt lat="42.3915117" lon="12.194546"><ele>770.0</ele><time>2026-04-12T09:18:31.997Z</time></trkpt><trkpt lat="42.3917889" lon="12.1946696"><ele>770.0</ele><time>2026-04-12T09:18:33.999Z</time></trkpt><trkpt lat="42.3919323" lon="12.1947383"><ele>770.0</ele><time>2026-04-12T09:18:34.999Z</time></trkpt><trkpt lat="42.3920991" lon="12.1948079"><ele>770.0</ele><time>2026-04-12T09:18:35.999Z</time></trkpt><trkpt lat="42.3922958" lon="12.1948961"><ele>770.0</ele><time>2026-04-12T09:18:36.997Z</time></trkpt><trkpt lat="42.3924918" lon="12.1949809"><ele>773.6666666666667</ele><time>2026-04-12T09:18:37.999Z</time></trkpt><trkpt lat="42.3926909" lon="12.1950255"><ele>777.3333333333333</ele><time>2026-04-12T09:18:38.999Z</time></trkpt><trkpt lat="42.3928832" lon="12.1950525"><ele>781.0</ele><time>2026-04-12T09:18:39.999Z</time></trkpt><trkpt lat="42.3930279" lon="12.1950637"><ele>781.0</ele><time>2026-04-12T09:18:40.999Z</time></trkpt><trkpt lat="42.3931996" lon="12.19508"><ele>781.0</ele><time>2026-04-12T09:18:41.999Z</time></trkpt><trkpt lat="42.3933698" lon="12.1950993"><ele>781.0</ele><time>2026-04-12T09:18:42.998Z</time></trkpt><trkpt lat="42.3935332" lon="12.1951277"><ele>781.0</ele><time>2026-04-12T09:18:43.998Z</time></trkpt><trkpt lat="42.3936537" lon="12.1951521"><ele>781.0</ele><time>2026-04-12T09:18:44.999Z</time></trkpt><trkpt lat="42.3937911" lon="12.1951394"><ele>781.0</ele><time>2026-04-12T09:18:45.997Z</time></trkpt><trkpt lat="42.3939268" lon="12.1950959"><ele>781.0</ele><time>2026-04-12T09:18:46.998Z</time></trkpt><trkpt lat="42.3940605" lon="12.1950197"><ele>781.5</ele><time>2026-04-12T09:18:47.997Z</time></trkpt><trkpt lat="42.394186" lon="12.1949244"><ele>782.0</ele><time>2026-04-12T09:18:48.999Z</time></trkpt><trkpt lat="42.3943064" lon="12.1948188"><ele>782.5</ele><time>2026-04-12T09:18:49.999Z</time></trkpt><trkpt lat="42.3944198" lon="12.194715"><ele>783.0</ele><time>2026-04-12T09:18:50.998Z</time></trkpt><trkpt lat="42.394527" lon="12.1946243"><ele>783.5</ele><time>2026-04-12T09:18:51.998Z</time></trkpt><trkpt lat="42.3946269" lon="12.1945362"><ele>784.0</ele><time>2026-04-12T09:18:52.997Z</time></trkpt><trkpt lat="42.3947261" lon="12.1944482"><ele>784.5</ele><time>2026-04-12T09:18:53.999Z</time></trkpt><trkpt lat="42.3948165" lon="12.1943458"><ele>785.0</ele><time>2026-04-12T09:18:54.999Z</time></trkpt><trkpt lat="42.3948971" lon="12.1942421"><ele>785.0</ele><time>2026-04-12T09:18:55.999Z</time></trkpt><trkpt lat="42.3949826" lon="12.1941286"><ele>785.0</ele><time>2026-04-12T09:18:56.999Z</time></trkpt><trkpt lat="42.3950844" lon="12.1940205"><ele>785.0</ele><time>2026-04-12T09:18:57.999Z</time></trkpt><trkpt lat="42.3951991" lon="12.1939157"><ele>785.0</ele><time>2026-04-12T09:18:58.999Z</time></trkpt><trkpt lat="42.3953266" lon="12.1938078"><ele>783.25</ele><time>2026-04-12T09:18:59.999Z</time></trkpt><trkpt lat="42.3954493" lon="12.1937047"><ele>781.5</ele><time>2026-04-12T09:19:00.998Z</time></trkpt><trkpt lat="42.3955698" lon="12.1936094"><ele>779.75</ele><time>2026-04-12T09:19:01.999Z</time></trkpt><trkpt lat="42.3956945" lon="12.1935294"><ele>778.0</ele><time>2026-04-12T09:19:02.999Z</time></trkpt><trkpt lat="42.395826" lon="12.1934704"><ele>778.0</ele><time>2026-04-12T09:19:03.999Z</time></trkpt><trkpt lat="42.3959644" lon="12.1934476"><ele>778.0</ele><time>2026-04-12T09:19:04.999Z</time></trkpt><trkpt lat="42.3961033" lon="12.1934317"><ele>778.0</ele><time>2026-04-12T09:19:05.999Z</time></trkpt><trkpt lat="42.3962381" lon="12.1935185"><ele>778.0</ele><time>2026-04-12T09:19:06.998Z</time></trkpt><trkpt lat="42.3963683" lon="12.1935361"><ele>777.5</ele><time>2026-04-12T09:19:07.998Z</time></trkpt><trkpt lat="42.3965011" lon="12.1935375"><ele>777.0</ele><time>2026-04-12T09:19:08.998Z</time></trkpt><trkpt lat="42.3966267" lon="12.1935055"><ele>776.5</ele><time>2026-04-12T09:19:09.998Z</time></trkpt><trkpt lat="42.3967439" lon="12.1934352"><ele>776.0</ele><time>2026-04-12T09:19:10.998Z</time></trkpt><trkpt lat="42.3968436" lon="12.1933372"><ele>776.0</ele><time>2026-04-12T09:19:11.998Z</time></trkpt><trkpt lat="42.3969392" lon="12.1932115"><ele>776.0</ele><time>2026-04-12T09:19:12.999Z</time></trkpt><trkpt lat="42.3970326" lon="12.1930609"><ele>776.0</ele><time>2026-04-12T09:19:13.999Z</time></trkpt><trkpt lat="42.3971408" lon="12.1929408"><ele>776.0</ele><time>2026-04-12T09:19:14.998Z</time></trkpt><trkpt lat="42.3972741" lon="12.1928464"><ele>776.25</ele><time>2026-04-12T09:19:15.998Z</time></trkpt><trkpt lat="42.3974117" lon="12.1927753"><ele>776.5</ele><time>2026-04-12T09:19:16.998Z</time></trkpt><trkpt lat="42.3975428" lon="12.1927043"><ele>776.75</ele><time>2026-04-12T09:19:17.999Z</time></trkpt><trkpt lat="42.397669" lon="12.1926354"><ele>777.0</ele><time>2026-04-12T09:19:18.999Z</time></trkpt><trkpt lat="42.3977524" lon="12.1926472"><ele>777.0</ele><time>2026-04-12T09:19:20.999Z</time></trkpt><trkpt lat="42.3978151" lon="12.1926343"><ele>777.0</ele><time>2026-04-12T09:19:21.998Z</time></trkpt><trkpt lat="42.3978949" lon="12.1927022"><ele>777.0</ele><time>2026-04-12T09:19:39Z</time></trkpt><trkpt lat="42.3979545" lon="12.1927381"><ele>777.0</ele><time>2026-04-12T09:19:40Z</time></trkpt><trkpt lat="42.3980232" lon="12.1927636"><ele>777.0</ele><time>2026-04-12T09:19:42.999Z</time></trkpt><trkpt lat="42.3980858" lon="12.192847"><ele>777.0</ele><time>2026-04-12T09:19:46Z</time></trkpt><trkpt lat="42.3981603" lon="12.1929392"><ele>776.2</ele><time>2026-04-12T09:19:47Z</time></trkpt><trkpt lat="42.3982282" lon="12.1930353"><ele>775.4000000000001</ele><time>2026-04-12T09:19:48Z</time></trkpt><trkpt lat="42.3982851" lon="12.1931236"><ele>774.5999999999999</ele><time>2026-04-12T09:19:48.999Z</time></trkpt><trkpt lat="42.3983284" lon="12.193297"><ele>773.8</ele><time>2026-04-12T09:19:50Z</time></trkpt><trkpt lat="42.3983722" lon="12.1934096"><ele>773.0</ele><time>2026-04-12T09:19:50.999Z</time></trkpt><trkpt lat="42.3984092" lon="12.1935094"><ele>775.4</ele><time>2026-04-12T09:19:52Z</time></trkpt><trkpt lat="42.3984614" lon="12.1936076"><ele>777.8</ele><time>2026-04-12T09:19:53Z</time></trkpt><trkpt lat="42.3985031" lon="12.1937206"><ele>780.2</ele><time>2026-04-12T09:19:54Z</time></trkpt><trkpt lat="42.3985436" lon="12.1938317"><ele>782.6</ele><time>2026-04-12T09:19:54.999Z</time></trkpt><trkpt lat="42.3985901" lon="12.1939802"><ele>785.0</ele><time>2026-04-12T09:19:57Z</time></trkpt><trkpt lat="42.3985964" lon="12.1940841"><ele>786.8333333333334</ele><time>2026-04-12T09:19:57.999Z</time></trkpt><trkpt lat="42.3985777" lon="12.1941996"><ele>788.6666666666667</ele><time>2026-04-12T09:19:59Z</time></trkpt><trkpt lat="42.3985642" lon="12.1943114"><ele>790.5</ele><time>2026-04-12T09:20:00Z</time></trkpt><trkpt lat="42.3985403" lon="12.1944257"><ele>792.3333333333333</ele><time>2026-04-12T09:20:01Z</time></trkpt><trkpt lat="42.3985115" lon="12.1945449"><ele>794.1666666666666</ele><time>2026-04-12T09:20:02Z</time></trkpt><trkpt lat="42.3984895" lon="12.1946702"><ele>796.0</ele><time>2026-04-12T09:20:02.999Z</time></trkpt><trkpt lat="42.3984681" lon="12.194811"><ele>797.8</ele><time>2026-04-12T09:20:03.999Z</time></trkpt><trkpt lat="42.3984916" lon="12.1949811"><ele>799.5999999999999</ele><time>2026-04-12T09:20:04.999Z</time></trkpt><trkpt lat="42.3984937" lon="12.1951285"><ele>801.4</ele><time>2026-04-12T09:20:06Z</time></trkpt><trkpt lat="42.398511" lon="12.1952816"><ele>803.2</ele><time>2026-04-12T09:20:07Z</time></trkpt><trkpt lat="42.3985206" lon="12.1954079"><ele>805.0</ele><time>2026-04-12T09:20:08Z</time></trkpt><trkpt lat="42.3985257" lon="12.1955053"><ele>804.9999999999999</ele><time>2026-04-12T09:20:08.999Z</time></trkpt><trkpt lat="42.3985295" lon="12.1956118"><ele>805.0</ele><time>2026-04-12T09:20:10Z</time></trkpt><trkpt lat="42.3985818" lon="12.1956603"><ele>805.0</ele><time>2026-04-12T09:20:11.999Z</time></trkpt><trkpt lat="42.398657" lon="12.1957209"><ele>805.0</ele><time>2026-04-12T09:20:12.999Z</time></trkpt><trkpt lat="42.3987135" lon="12.1957605"><ele>804.9999999999999</ele><time>2026-04-12T09:20:14Z</time></trkpt><trkpt lat="42.3987836" lon="12.1955925"><ele>805.0</ele><time>2026-04-12T09:20:14.999Z</time></trkpt><trkpt lat="42.3989191" lon="12.1953273"><ele>804.4999999999999</ele><time>2026-04-12T09:20:16Z</time></trkpt><trkpt lat="42.3989825" lon="12.1952285"><ele>804.0</ele><time>2026-04-12T09:20:17Z</time></trkpt><trkpt lat="42.3990629" lon="12.195156"><ele>803.5</ele><time>2026-04-12T09:20:18Z</time></trkpt><trkpt lat="42.3991206" lon="12.1950906"><ele>803.0</ele><time>2026-04-12T09:20:18.999Z</time></trkpt><trkpt lat="42.3992063" lon="12.1950758"><ele>802.4999999999999</ele><time>2026-04-12T09:20:19.999Z</time></trkpt><trkpt lat="42.3992761" lon="12.1950526"><ele>802.0</ele><time>2026-04-12T09:20:20.999Z</time></trkpt><trkpt lat="42.3993678" lon="12.1951065"><ele>802.0</ele><time>2026-04-12T09:20:21.999Z</time></trkpt><trkpt lat="42.3994809" lon="12.1951744"><ele>802.0</ele><time>2026-04-12T09:20:23Z</time></trkpt><trkpt lat="42.3996084" lon="12.1952756"><ele>802.0</ele><time>2026-04-12T09:20:24Z</time></trkpt><trkpt lat="42.3997086" lon="12.1954362"><ele>802.0</ele><time>2026-04-12T09:20:24.998Z</time></trkpt><trkpt lat="42.3997848" lon="12.1955215"><ele>802.5</ele><time>2026-04-12T09:20:26Z</time></trkpt><trkpt lat="42.3998625" lon="12.1956436"><ele>803.0</ele><time>2026-04-12T09:20:27Z</time></trkpt><trkpt lat="42.3999165" lon="12.1957832"><ele>803.5</ele><time>2026-04-12T09:20:28Z</time></trkpt><trkpt lat="42.3999774" lon="12.1959247"><ele>804.0</ele><time>2026-04-12T09:20:28.999Z</time></trkpt><trkpt lat="42.4000384" lon="12.1960881"><ele>807.25</ele><time>2026-04-12T09:20:29.999Z</time></trkpt><trkpt lat="42.4000766" lon="12.1962596"><ele>810.5</ele><time>2026-04-12T09:20:31Z</time></trkpt><trkpt lat="42.4001245" lon="12.1963904"><ele>813.75</ele><time>2026-04-12T09:20:32Z</time></trkpt><trkpt lat="42.4001736" lon="12.1965377"><ele>817.0</ele><time>2026-04-12T09:20:33Z</time></trkpt><trkpt lat="42.4002136" lon="12.1966968"><ele>820.0</ele><time>2026-04-12T09:20:34Z</time></trkpt><trkpt lat="42.4002666" lon="12.1968657"><ele>823.0</ele><time>2026-04-12T09:20:35Z</time></trkpt><trkpt lat="42.4003297" lon="12.1970082"><ele>826.0</ele><time>2026-04-12T09:20:36Z</time></trkpt><trkpt lat="42.4003913" lon="12.1971651"><ele>829.0</ele><time>2026-04-12T09:20:36.999Z</time></trkpt><trkpt lat="42.4004577" lon="12.1973206"><ele>829.25</ele><time>2026-04-12T09:20:37.999Z</time></trkpt><trkpt lat="42.4005138" lon="12.1974713"><ele>829.5</ele><time>2026-04-12T09:20:39Z</time></trkpt><trkpt lat="42.4005591" lon="12.1976231"><ele>829.75</ele><time>2026-04-12T09:20:39.999Z</time></trkpt><trkpt lat="42.4006052" lon="12.1977665"><ele>830.0</ele><time>2026-04-12T09:20:41Z</time></trkpt><trkpt lat="42.4006599" lon="12.1978924"><ele>830.0</ele><time>2026-04-12T09:20:42Z</time></trkpt><trkpt lat="42.4006424" lon="12.1980716"><ele>830.0</ele><time>2026-04-12T09:20:42.999Z</time></trkpt><trkpt lat="42.4006546" lon="12.1982426"><ele>830.0</ele><time>2026-04-12T09:20:44Z</time></trkpt><trkpt lat="42.4006586" lon="12.1983786"><ele>830.0</ele><time>2026-04-12T09:20:44.999Z</time></trkpt><trkpt lat="42.400663" lon="12.1985209"><ele>831.1666666666667</ele><time>2026-04-12T09:20:45.998Z</time></trkpt><trkpt lat="42.4006738" lon="12.1986456"><ele>832.3333333333334</ele><time>2026-04-12T09:20:47Z</time></trkpt><trkpt lat="42.4006816" lon="12.1987645"><ele>833.5</ele><time>2026-04-12T09:20:47.999Z</time></trkpt><trkpt lat="42.4006963" lon="12.1988596"><ele>834.6666666666667</ele><time>2026-04-12T09:20:49Z</time></trkpt><trkpt lat="42.4007159" lon="12.1989447"><ele>835.8333333333334</ele><time>2026-04-12T09:20:49.999Z</time></trkpt><trkpt lat="42.4007372" lon="12.1990297"><ele>837.0</ele><time>2026-04-12T09:20:51Z</time></trkpt><trkpt lat="42.4007948" lon="12.1991383"><ele>838.0</ele><time>2026-04-12T09:20:54Z</time></trkpt><trkpt lat="42.4008239" lon="12.1992146"><ele>839.0</ele><time>2026-04-12T09:20:55.999Z</time></trkpt><trkpt lat="42.4008276" lon="12.1993109"><ele>840.0</ele><time>2026-04-12T09:20:58Z</time></trkpt><trkpt lat="42.4008164" lon="12.1993977"><ele>841.0</ele><time>2026-04-12T09:20:59Z</time></trkpt><trkpt lat="42.4007714" lon="12.1995621"><ele>842.0</ele><time>2026-04-12T09:21:01Z</time></trkpt><trkpt lat="42.4007325" lon="12.1996454"><ele>843.0</ele><time>2026-04-12T09:21:01.999Z</time></trkpt><trkpt lat="42.4007019" lon="12.1997293"><ele>843.0</ele><time>2026-04-12T09:21:03Z</time></trkpt><trkpt lat="42.4006072" lon="12.1997561"><ele>843.0</ele><time>2026-04-12T09:21:03.999Z</time></trkpt><trkpt lat="42.4005294" lon="12.1998175"><ele>843.0</ele><time>2026-04-12T09:21:05Z</time></trkpt><trkpt lat="42.4004384" lon="12.1998795"><ele>843.0</ele><time>2026-04-12T09:21:06Z</time></trkpt><trkpt lat="42.4002693" lon="12.1999399"><ele>846.5</ele><time>2026-04-12T09:21:07Z</time></trkpt><trkpt lat="42.4001562" lon="12.199985"><ele>850.0</ele><time>2026-04-12T09:21:08Z</time></trkpt><trkpt lat="42.400032" lon="12.2000379"><ele>853.5</ele><time>2026-04-12T09:21:09Z</time></trkpt><trkpt lat="42.3999014" lon="12.2000981"><ele>857.0</ele><time>2026-04-12T09:21:10Z</time></trkpt><trkpt lat="42.3998002" lon="12.2001649"><ele>857.0</ele><time>2026-04-12T09:21:11Z</time></trkpt><trkpt lat="42.3996977" lon="12.2002562"><ele>857.0</ele><time>2026-04-12T09:21:11.998Z</time></trkpt><trkpt lat="42.3996164" lon="12.200377"><ele>857.0</ele><time>2026-04-12T09:21:13Z</time></trkpt><trkpt lat="42.3995598" lon="12.2004834"><ele>857.0</ele><time>2026-04-12T09:21:14Z</time></trkpt><trkpt lat="42.3995087" lon="12.2005735"><ele>857.0</ele><time>2026-04-12T09:21:15Z</time></trkpt><trkpt lat="42.3994595" lon="12.200685"><ele>857.3333333333334</ele><time>2026-04-12T09:21:15.999Z</time></trkpt><trkpt lat="42.3994511" lon="12.2007803"><ele>857.6666666666667</ele><time>2026-04-12T09:21:17Z</time></trkpt><trkpt lat="42.3994315" lon="12.2008834"><ele>858.0</ele><time>2026-04-12T09:21:25.999Z</time></trkpt><trkpt lat="42.3993998" lon="12.2009701"><ele>858.3333333333333</ele><time>2026-04-12T09:21:27Z</time></trkpt><trkpt lat="42.3993533" lon="12.2010632"><ele>858.6666666666666</ele><time>2026-04-12T09:21:27.999Z</time></trkpt><trkpt lat="42.399311" lon="12.2011559"><ele>859.0</ele><time>2026-04-12T09:21:29Z</time></trkpt><trkpt lat="42.3992574" lon="12.2012447"><ele>859.0</ele><time>2026-04-12T09:21:30Z</time></trkpt><trkpt lat="42.3992103" lon="12.2013426"><ele>859.0000000000001</ele><time>2026-04-12T09:21:30.999Z</time></trkpt><trkpt lat="42.3991474" lon="12.2014375"><ele>859.0000000000001</ele><time>2026-04-12T09:21:31.999Z</time></trkpt><trkpt lat="42.3989952" lon="12.201436"><ele>859.0</ele><time>2026-04-12T09:21:33Z</time></trkpt><trkpt lat="42.3988917" lon="12.2014546"><ele>859.0</ele><time>2026-04-12T09:21:33.999Z</time></trkpt><trkpt lat="42.3987776" lon="12.2014592"><ele>858.8000000000001</ele><time>2026-04-12T09:21:35Z</time></trkpt><trkpt lat="42.3986896" lon="12.2014721"><ele>858.6000000000001</ele><time>2026-04-12T09:21:35.998Z</time></trkpt><trkpt lat="42.3986144" lon="12.2015041"><ele>858.4</ele><time>2026-04-12T09:21:37Z</time></trkpt><trkpt lat="42.3985222" lon="12.2015178"><ele>858.2</ele><time>2026-04-12T09:21:38Z</time></trkpt><trkpt lat="42.3984286" lon="12.2015465"><ele>858.0</ele><time>2026-04-12T09:21:39Z</time></trkpt><trkpt lat="42.3983817" lon="12.2016649"><ele>857.2</ele><time>2026-04-12T09:21:40Z</time></trkpt><trkpt lat="42.3983097" lon="12.2017036"><ele>856.4</ele><time>2026-04-12T09:21:41Z</time></trkpt><trkpt lat="42.3982441" lon="12.2017424"><ele>855.6000000000001</ele><time>2026-04-12T09:21:42Z</time></trkpt><trkpt lat="42.3981578" lon="12.2018388"><ele>854.8000000000001</ele><time>2026-04-12T09:21:43Z</time></trkpt><trkpt lat="42.3980721" lon="12.2019282"><ele>854.0</ele><time>2026-04-12T09:21:43.999Z</time></trkpt><trkpt lat="42.397985" lon="12.2020433"><ele>854.0</ele><time>2026-04-12T09:21:44.999Z</time></trkpt><trkpt lat="42.3979003" lon="12.2021288"><ele>854.0000000000001</ele><time>2026-04-12T09:21:46Z</time></trkpt><trkpt lat="42.3978192" lon="12.2022003"><ele>854.0000000000001</ele><time>2026-04-12T09:21:47Z</time></trkpt><trkpt lat="42.3977419" lon="12.202281"><ele>854.0</ele><time>2026-04-12T09:21:48Z</time></trkpt><trkpt lat="42.3976718" lon="12.2023811"><ele>854.0</ele><time>2026-04-12T09:21:49Z</time></trkpt><trkpt lat="42.397609" lon="12.2024792"><ele>855.1666666666667</ele><time>2026-04-12T09:21:50Z</time></trkpt><trkpt lat="42.3975514" lon="12.2025822"><ele>856.3333333333334</ele><time>2026-04-12T09:21:51Z</time></trkpt><trkpt lat="42.397496" lon="12.2026939"><ele>857.5</ele><time>2026-04-12T09:21:51.999Z</time></trkpt><trkpt lat="42.3974471" lon="12.2027874"><ele>858.6666666666667</ele><time>2026-04-12T09:21:52.999Z</time></trkpt><trkpt lat="42.3974048" lon="12.2028808"><ele>859.8333333333334</ele><time>2026-04-12T09:21:54Z</time></trkpt><trkpt lat="42.3973722" lon="12.2029613"><ele>861.0</ele><time>2026-04-12T09:21:55Z</time></trkpt><trkpt lat="42.3973593" lon="12.2030631"><ele>861.0</ele><time>2026-04-12T09:21:55.999Z</time></trkpt><trkpt lat="42.3973562" lon="12.2031633"><ele>861.0</ele><time>2026-04-12T09:21:56.999Z</time></trkpt><trkpt lat="42.397349" lon="12.2032805"><ele>861.0</ele><time>2026-04-12T09:21:58Z</time></trkpt><trkpt lat="42.3973458" lon="12.2034072"><ele>861.0</ele><time>2026-04-12T09:21:58.999Z</time></trkpt><trkpt lat="42.3973459" lon="12.2035305"><ele>861.0</ele><time>2026-04-12T09:21:59.999Z</time></trkpt><trkpt lat="42.3973411" lon="12.2036615"><ele>861.0</ele><time>2026-04-12T09:22:01Z</time></trkpt><trkpt lat="42.3973262" lon="12.2037746"><ele>862.1666666666666</ele><time>2026-04-12T09:22:01.999Z</time></trkpt><trkpt lat="42.397303" lon="12.2038828"><ele>863.3333333333333</ele><time>2026-04-12T09:22:02.999Z</time></trkpt><trkpt lat="42.397269" lon="12.2039683"><ele>864.5</ele><time>2026-04-12T09:22:04Z</time></trkpt><trkpt lat="42.3972295" lon="12.2040456"><ele>865.6666666666666</ele><time>2026-04-12T09:22:05Z</time></trkpt><trkpt lat="42.3971249" lon="12.2041176"><ele>866.8333333333333</ele><time>2026-04-12T09:22:07Z</time></trkpt><trkpt lat="42.3970258" lon="12.2040992"><ele>868.0</ele><time>2026-04-12T09:22:08Z</time></trkpt><trkpt lat="42.3969595" lon="12.2041196"><ele>868.5999999999999</ele><time>2026-04-12T09:22:09Z</time></trkpt><trkpt lat="42.3968552" lon="12.2041421"><ele>869.1999999999999</ele><time>2026-04-12T09:22:10Z</time></trkpt><trkpt lat="42.3967761" lon="12.2041584"><ele>869.8</ele><time>2026-04-12T09:22:10.999Z</time></trkpt><trkpt lat="42.3966798" lon="12.2041222"><ele>870.4</ele><time>2026-04-12T09:22:12Z</time></trkpt><trkpt lat="42.3965616" lon="12.2040633"><ele>871.0</ele><time>2026-04-12T09:22:13Z</time></trkpt><trkpt lat="42.3964775" lon="12.2040564"><ele>871.0</ele><time>2026-04-12T09:22:14Z</time></trkpt><trkpt lat="42.3963798" lon="12.2040322"><ele>871.0</ele><time>2026-04-12T09:22:15Z</time></trkpt><trkpt lat="42.3962933" lon="12.2040204"><ele>871.0</ele><time>2026-04-12T09:22:16Z</time></trkpt><trkpt lat="42.3960923" lon="12.2039856"><ele>871.0</ele><time>2026-04-12T09:22:18Z</time></trkpt><trkpt lat="42.3959919" lon="12.2039592"><ele>869.6666666666666</ele><time>2026-04-12T09:22:19Z</time></trkpt><trkpt lat="42.3959133" lon="12.2039786"><ele>868.3333333333333</ele><time>2026-04-12T09:22:20.999Z</time></trkpt><trkpt lat="42.3958392" lon="12.203975"><ele>867.0</ele><time>2026-04-12T09:22:22.999Z</time></trkpt><trkpt lat="42.3957601" lon="12.2039407"><ele>865.6666666666667</ele><time>2026-04-12T09:22:25Z</time></trkpt><trkpt lat="42.3957201" lon="12.203853"><ele>864.3333333333334</ele><time>2026-04-12T09:22:33.999Z</time></trkpt><trkpt lat="42.3956437" lon="12.2038186"><ele>863.0</ele><time>2026-04-12T09:22:44.999Z</time></trkpt><trkpt lat="42.3955568" lon="12.2037331"><ele>863.0000000000001</ele><time>2026-04-12T09:22:46.999Z</time></trkpt><trkpt lat="42.3955448" lon="12.203627"><ele>863.0</ele><time>2026-04-12T09:22:48Z</time></trkpt><trkpt lat="42.395513" lon="12.203552"><ele>863.0</ele><time>2026-04-12T09:22:49Z</time></trkpt><trkpt lat="42.3954712" lon="12.2034731"><ele>863.0</ele><time>2026-04-12T09:22:50Z</time></trkpt><trkpt lat="42.3954228" lon="12.2034071"><ele>863.0000000000001</ele><time>2026-04-12T09:22:51Z</time></trkpt><trkpt lat="42.3953427" lon="12.2033303"><ele>863.0</ele><time>2026-04-12T09:22:53Z</time></trkpt><trkpt lat="42.3952718" lon="12.2032262"><ele>862.5999999999999</ele><time>2026-04-12T09:22:55Z</time></trkpt><trkpt lat="42.3952483" lon="12.2031346"><ele>862.1999999999999</ele><time>2026-04-12T09:22:56Z</time></trkpt><trkpt lat="42.3951848" lon="12.2030567"><ele>861.8</ele><time>2026-04-12T09:22:56.999Z</time></trkpt><trkpt lat="42.3951325" lon="12.2029568"><ele>861.4</ele><time>2026-04-12T09:22:58Z</time></trkpt><trkpt lat="42.3950691" lon="12.2028647"><ele>861.0</ele><time>2026-04-12T09:22:59Z</time></trkpt><trkpt lat="42.3949657" lon="12.2028089"><ele>861.0</ele><time>2026-04-12T09:23:00Z</time></trkpt><trkpt lat="42.3948975" lon="12.2027577"><ele>861.0</ele><time>2026-04-12T09:23:00.998Z</time></trkpt><trkpt lat="42.3947948" lon="12.2027228"><ele>861.0</ele><time>2026-04-12T09:23:03Z</time></trkpt><trkpt lat="42.3947307" lon="12.202733"><ele>861.0</ele><time>2026-04-12T09:23:03.999Z</time></trkpt><trkpt lat="42.3946641" lon="12.2026914"><ele>861.0</ele><time>2026-04-12T09:23:05Z</time></trkpt><trkpt lat="42.3945918" lon="12.2026512"><ele>861.0</ele><time>2026-04-12T09:23:06Z</time></trkpt><trkpt lat="42.3945291" lon="12.2025968"><ele>858.4</ele><time>2026-04-12T09:23:06.999Z</time></trkpt><trkpt lat="42.3944621" lon="12.2025619"><ele>855.8</ele><time>2026-04-12T09:23:07.999Z</time></trkpt><trkpt lat="42.3944026" lon="12.2025282"><ele>853.1999999999999</ele><time>2026-04-12T09:23:09Z</time></trkpt><trkpt lat="42.394269" lon="12.2024786"><ele>850.5999999999999</ele><time>2026-04-12T09:23:11Z</time></trkpt><trkpt lat="42.3941993" lon="12.2024687"><ele>848.0</ele><time>2026-04-12T09:23:12Z</time></trkpt><trkpt lat="42.394082" lon="12.2024874"><ele>848.0</ele><time>2026-04-12T09:23:13Z</time></trkpt><trkpt lat="42.3940378" lon="12.2024044"><ele>848.0</ele><time>2026-04-12T09:23:14Z</time></trkpt><trkpt lat="42.393932" lon="12.2023619"><ele>848.0</ele><time>2026-04-12T09:23:15Z</time></trkpt><trkpt lat="42.3938514" lon="12.2023206"><ele>848.0</ele><time>2026-04-12T09:23:15.999Z</time></trkpt><trkpt lat="42.3937806" lon="12.20226"><ele>848.0</ele><time>2026-04-12T09:23:17Z</time></trkpt><trkpt lat="42.3937142" lon="12.2020523"><ele>844.2</ele><time>2026-04-12T09:23:19Z</time></trkpt><trkpt lat="42.3936617" lon="12.2019639"><ele>840.4</ele><time>2026-04-12T09:23:20Z</time></trkpt><trkpt lat="42.3936213" lon="12.2018714"><ele>836.6</ele><time>2026-04-12T09:23:21Z</time></trkpt><trkpt lat="42.3935588" lon="12.201734"><ele>832.8000000000001</ele><time>2026-04-12T09:23:23Z</time></trkpt><trkpt lat="42.3935419" lon="12.2016034"><ele>829.0</ele><time>2026-04-12T09:23:24.999Z</time></trkpt><trkpt lat="42.3935297" lon="12.2014576"><ele>829.0</ele><time>2026-04-12T09:23:27Z</time></trkpt><trkpt lat="42.3934878" lon="12.2013292"><ele>829.0</ele><time>2026-04-12T09:23:28Z</time></trkpt><trkpt lat="42.3934411" lon="12.2012605"><ele>829.0</ele><time>2026-04-12T09:23:29Z</time></trkpt><trkpt lat="42.3933703" lon="12.2011006"><ele>829.0</ele><time>2026-04-12T09:23:30.999Z</time></trkpt><trkpt lat="42.3933378" lon="12.2009964"><ele>829.0</ele><time>2026-04-12T09:23:32Z</time></trkpt><trkpt lat="42.393305" lon="12.2008916"><ele>829.0</ele><time>2026-04-12T09:23:33Z</time></trkpt><trkpt lat="42.3932768" lon="12.2007392"><ele>829.0</ele><time>2026-04-12T09:23:34Z</time></trkpt><trkpt lat="42.3932416" lon="12.2006063"><ele>829.0</ele><time>2026-04-12T09:23:35Z</time></trkpt><trkpt lat="42.3932056" lon="12.2004775"><ele>829.0</ele><time>2026-04-12T09:23:36Z</time></trkpt><trkpt lat="42.3931928" lon="12.2003433"><ele>829.0</ele><time>2026-04-12T09:23:37Z</time></trkpt><trkpt lat="42.3931781" lon="12.2001868"><ele>828.6666666666666</ele><time>2026-04-12T09:23:38Z</time></trkpt><trkpt lat="42.3931442" lon="12.2000683"><ele>828.3333333333333</ele><time>2026-04-12T09:23:39Z</time></trkpt><trkpt lat="42.3931079" lon="12.199976"><ele>828.0</ele><time>2026-04-12T09:23:40Z</time></trkpt><trkpt lat="42.3930983" lon="12.1998567"><ele>827.6666666666667</ele><time>2026-04-12T09:23:40.999Z</time></trkpt><trkpt lat="42.3930931" lon="12.1997513"><ele>827.3333333333334</ele><time>2026-04-12T09:23:41.999Z</time></trkpt><trkpt lat="42.393089" lon="12.1996214"><ele>827.0</ele><time>2026-04-12T09:23:42.999Z</time></trkpt><trkpt lat="42.3930901" lon="12.199495"><ele>826.1666666666667</ele><time>2026-04-12T09:23:44Z</time></trkpt><trkpt lat="42.3930933" lon="12.1993745"><ele>825.3333333333334</ele><time>2026-04-12T09:23:44.999Z</time></trkpt><trkpt lat="42.3930823" lon="12.1992788"><ele>824.5</ele><time>2026-04-12T09:23:46Z</time></trkpt><trkpt lat="42.3930847" lon="12.1991674"><ele>823.6666666666667</ele><time>2026-04-12T09:23:47Z</time></trkpt><trkpt lat="42.393062" lon="12.1990639"><ele>822.8333333333334</ele><time>2026-04-12T09:23:48Z</time></trkpt><trkpt lat="42.3930506" lon="12.1989475"><ele>822.0</ele><time>2026-04-12T09:23:48.999Z</time></trkpt><trkpt lat="42.3930305" lon="12.1988486"><ele>818.2</ele><time>2026-04-12T09:23:50Z</time></trkpt><trkpt lat="42.3930038" lon="12.1987402"><ele>814.4000000000001</ele><time>2026-04-12T09:23:50.999Z</time></trkpt><trkpt lat="42.3929589" lon="12.1986309"><ele>810.5999999999999</ele><time>2026-04-12T09:23:52Z</time></trkpt><trkpt lat="42.392899" lon="12.1985292"><ele>806.8</ele><time>2026-04-12T09:23:53Z</time></trkpt><trkpt lat="42.392817" lon="12.198415"><ele>803.0</ele><time>2026-04-12T09:23:54Z</time></trkpt><trkpt lat="42.3927528" lon="12.1983113"><ele>803.0000000000001</ele><time>2026-04-12T09:23:54.999Z</time></trkpt><trkpt lat="42.3926938" lon="12.1982224"><ele>803.0</ele><time>2026-04-12T09:23:56Z</time></trkpt><trkpt lat="42.392631" lon="12.198158"><ele>803.0</ele><time>2026-04-12T09:23:56.999Z</time></trkpt><trkpt lat="42.3925786" lon="12.1980862"><ele>803.0</ele><time>2026-04-12T09:23:58Z</time></trkpt><trkpt lat="42.392547" lon="12.1979889"><ele>803.0000000000001</ele><time>2026-04-12T09:24:00.999Z</time></trkpt><trkpt lat="42.3925146" lon="12.1978891"><ele>803.0</ele><time>2026-04-12T09:24:02.998Z</time></trkpt><trkpt lat="42.3924737" lon="12.1977941"><ele>803.4</ele><time>2026-04-12T09:24:03.998Z</time></trkpt><trkpt lat="42.3925043" lon="12.1975819"><ele>803.8</ele><time>2026-04-12T09:24:05Z</time></trkpt><trkpt lat="42.3924707" lon="12.1975023"><ele>804.2</ele><time>2026-04-12T09:24:06Z</time></trkpt><trkpt lat="42.392467" lon="12.1974096"><ele>804.6</ele><time>2026-04-12T09:24:07Z</time></trkpt><trkpt lat="42.3924308" lon="12.1973185"><ele>805.0</ele><time>2026-04-12T09:24:08Z</time></trkpt><trkpt lat="42.3923491" lon="12.1971636"><ele>803.6</ele><time>2026-04-12T09:24:09.999Z</time></trkpt><trkpt lat="42.392245" lon="12.1970458"><ele>802.2</ele><time>2026-04-12T09:24:11.999Z</time></trkpt><trkpt lat="42.392203" lon="12.196975"><ele>800.8</ele><time>2026-04-12T09:24:12.999Z</time></trkpt><trkpt lat="42.3921291" lon="12.196832"><ele>799.4</ele><time>2026-04-12T09:24:14.999Z</time></trkpt><trkpt lat="42.3921011" lon="12.1967505"><ele>798.0</ele><time>2026-04-12T09:24:16Z</time></trkpt><trkpt lat="42.3920621" lon="12.1966678"><ele>796.5999999999999</ele><time>2026-04-12T09:24:17Z</time></trkpt><trkpt lat="42.3919825" lon="12.1965313"><ele>795.1999999999999</ele><time>2026-04-12T09:24:19Z</time></trkpt><trkpt lat="42.3919079" lon="12.196463"><ele>793.8</ele><time>2026-04-12T09:24:20Z</time></trkpt><trkpt lat="42.3918573" lon="12.1963923"><ele>792.4</ele><time>2026-04-12T09:24:20.999Z</time></trkpt><trkpt lat="42.3917373" lon="12.1963102"><ele>791.0</ele><time>2026-04-12T09:24:22Z</time></trkpt><trkpt lat="42.3916561" lon="12.1962237"><ele>789.8333333333334</ele><time>2026-04-12T09:24:23Z</time></trkpt><trkpt lat="42.3915834" lon="12.1961436"><ele>788.6666666666667</ele><time>2026-04-12T09:24:24Z</time></trkpt><trkpt lat="42.3915166" lon="12.1960525"><ele>787.5</ele><time>2026-04-12T09:24:25Z</time></trkpt><trkpt lat="42.3914531" lon="12.1959744"><ele>786.3333333333333</ele><time>2026-04-12T09:24:26Z</time></trkpt><trkpt lat="42.3914143" lon="12.1958731"><ele>785.1666666666666</ele><time>2026-04-12T09:24:28Z</time></trkpt><trkpt lat="42.3913625" lon="12.1957754"><ele>784.0</ele><time>2026-04-12T09:24:29.999Z</time></trkpt><trkpt lat="42.3914281" lon="12.1957144"><ele>784.0</ele><time>2026-04-12T09:24:31Z</time></trkpt><trkpt lat="42.3913518" lon="12.1957056"><ele>784.0</ele><time>2026-04-12T09:24:36.999Z</time></trkpt><trkpt lat="42.3912231" lon="12.19573"><ele>784.0</ele><time>2026-04-12T09:24:39Z</time></trkpt><trkpt lat="42.391128" lon="12.1957603"><ele>784.0</ele><time>2026-04-12T09:24:41Z</time></trkpt><trkpt lat="42.3910561" lon="12.1958351"><ele>784.0</ele><time>2026-04-12T09:24:49Z</time></trkpt><trkpt lat="42.3910147" lon="12.1959697"><ele>783.8000000000001</ele><time>2026-04-12T09:24:50Z</time></trkpt><trkpt lat="42.3909815" lon="12.1960787"><ele>783.6</ele><time>2026-04-12T09:24:51Z</time></trkpt><trkpt lat="42.3909389" lon="12.1962048"><ele>783.4</ele><time>2026-04-12T09:24:52Z</time></trkpt><trkpt lat="42.3908756" lon="12.1963361"><ele>783.2</ele><time>2026-04-12T09:24:53Z</time></trkpt><trkpt lat="42.390828" lon="12.1964599"><ele>783.0</ele><time>2026-04-12T09:24:54Z</time></trkpt><trkpt lat="42.3907796" lon="12.1965688"><ele>783.0</ele><time>2026-04-12T09:24:55Z</time></trkpt><trkpt lat="42.3907276" lon="12.1966679"><ele>783.0</ele><time>2026-04-12T09:24:56Z</time></trkpt><trkpt lat="42.3906738" lon="12.1967745"><ele>783.0</ele><time>2026-04-12T09:24:57Z</time></trkpt><trkpt lat="42.3906238" lon="12.1968814"><ele>783.0</ele><time>2026-04-12T09:24:57.999Z</time></trkpt><trkpt lat="42.3905873" lon="12.1969749"><ele>783.0</ele><time>2026-04-12T09:24:59Z</time></trkpt><trkpt lat="42.3905384" lon="12.1970821"><ele>781.8</ele><time>2026-04-12T09:25:01Z</time></trkpt><trkpt lat="42.390449" lon="12.197099"><ele>780.5999999999999</ele><time>2026-04-12T09:27:04Z</time></trkpt><trkpt lat="42.3904182" lon="12.1969752"><ele>779.4000000000001</ele><time>2026-04-12T09:27:54.999Z</time></trkpt><trkpt lat="42.3903418" lon="12.1968168"><ele>778.2</ele><time>2026-04-12T09:27:56.999Z</time></trkpt><trkpt lat="42.3902907" lon="12.1967091"><ele>777.0</ele><time>2026-04-12T09:27:57.999Z</time></trkpt><trkpt lat="42.3902487" lon="12.1966134"><ele>777.0</ele><time>2026-04-12T09:27:59Z</time></trkpt><trkpt lat="42.3901753" lon="12.1965305"><ele>777.0</ele><time>2026-04-12T09:28:00Z</time></trkpt><trkpt lat="42.3901524" lon="12.1964093"><ele>777.0</ele><time>2026-04-12T09:28:01Z</time></trkpt><trkpt lat="42.3901145" lon="12.1963336"><ele>777.0</ele><time>2026-04-12T09:28:02Z</time></trkpt><trkpt lat="42.3900598" lon="12.1962748"><ele>777.0</ele><time>2026-04-12T09:28:03Z</time></trkpt><trkpt lat="42.3899613" lon="12.1962082"><ele>777.0</ele><time>2026-04-12T09:28:05Z</time></trkpt><trkpt lat="42.3899052" lon="12.1961104"><ele>777.1666666666666</ele><time>2026-04-12T09:28:06.999Z</time></trkpt><trkpt lat="42.3898344" lon="12.1960614"><ele>777.3333333333333</ele><time>2026-04-12T09:28:08Z</time></trkpt><trkpt lat="42.389747" lon="12.195988"><ele>777.5</ele><time>2026-04-12T09:28:10Z</time></trkpt><trkpt lat="42.3896738" lon="12.1959682"><ele>777.6666666666666</ele><time>2026-04-12T09:28:11.999Z</time></trkpt><trkpt lat="42.3896075" lon="12.1959315"><ele>777.8333333333333</ele><time>2026-04-12T09:28:15Z</time></trkpt><trkpt lat="42.3895734" lon="12.1958124"><ele>778.0</ele><time>2026-04-12T09:41:03Z</time></trkpt><trkpt lat="42.3895766" lon="12.1956951"><ele>775.5</ele><time>2026-04-12T09:41:05Z</time></trkpt><trkpt lat="42.3894797" lon="12.195546"><ele>773.0</ele><time>2026-04-12T09:41:07Z</time></trkpt><trkpt lat="42.3894245" lon="12.195473"><ele>770.5</ele><time>2026-04-12T09:41:07.998Z</time></trkpt><trkpt lat="42.3893319" lon="12.1953051"><ele>768.0</ele><time>2026-04-12T09:41:09.999Z</time></trkpt><trkpt lat="42.3889976" lon="12.1949061"><ele>766.75</ele><time>2026-04-12T09:41:11Z</time></trkpt><trkpt lat="42.3889026" lon="12.1948198"><ele>765.5</ele><time>2026-04-12T09:41:11.998Z</time></trkpt><trkpt lat="42.3888155" lon="12.1947229"><ele>764.25</ele><time>2026-04-12T09:41:12.999Z</time></trkpt><trkpt lat="42.3887208" lon="12.1946111"><ele>763.0</ele><time>2026-04-12T09:41:14Z</time></trkpt><trkpt lat="42.3886312" lon="12.1944965"><ele>762.8</ele><time>2026-04-12T09:41:15Z</time></trkpt><trkpt lat="42.388548" lon="12.1943932"><ele>762.5999999999999</ele><time>2026-04-12T09:41:16Z</time></trkpt><trkpt lat="42.3884512" lon="12.1943015"><ele>762.4000000000001</ele><time>2026-04-12T09:41:17Z</time></trkpt><trkpt lat="42.3883604" lon="12.1942229"><ele>762.2</ele><time>2026-04-12T09:41:18Z</time></trkpt><trkpt lat="42.3882797" lon="12.1941676"><ele>762.0</ele><time>2026-04-12T09:41:32Z</time></trkpt><trkpt lat="42.388196" lon="12.1941009"><ele>762.0</ele><time>2026-04-12T09:41:33Z</time></trkpt><trkpt lat="42.3881347" lon="12.194036"><ele>762.0</ele><time>2026-04-12T09:41:34Z</time></trkpt><trkpt lat="42.3880703" lon="12.1939938"><ele>762.0</ele><time>2026-04-12T09:41:35Z</time></trkpt><trkpt lat="42.3879953" lon="12.1938961"><ele>762.0</ele><time>2026-04-12T09:41:37Z</time></trkpt><trkpt lat="42.3878489" lon="12.1937572"><ele>762.0</ele><time>2026-04-12T09:41:38.999Z</time></trkpt><trkpt lat="42.3877628" lon="12.1936823"><ele>761.5</ele><time>2026-04-12T09:41:40Z</time></trkpt><trkpt lat="42.3876861" lon="12.1936132"><ele>761.0</ele><time>2026-04-12T09:41:40.999Z</time></trkpt><trkpt lat="42.3876254" lon="12.1935773"><ele>760.5</ele><time>2026-04-12T09:41:42Z</time></trkpt><trkpt lat="42.3875487" lon="12.193502"><ele>760.0</ele><time>2026-04-12T09:41:43Z</time></trkpt><trkpt lat="42.3874736" lon="12.1934137"><ele>759.5</ele><time>2026-04-12T09:41:44Z</time></trkpt><trkpt lat="42.3874191" lon="12.1933425"><ele>759.0</ele><time>2026-04-12T09:41:45Z</time></trkpt><trkpt lat="42.3873631" lon="12.1932849"><ele>759.0</ele><time>2026-04-12T09:41:46Z</time></trkpt><trkpt lat="42.387317" lon="12.1931992"><ele>759.0</ele><time>2026-04-12T09:41:47Z</time></trkpt><trkpt lat="42.3872572" lon="12.193101"><ele>759.0</ele><time>2026-04-12T09:41:49Z</time></trkpt><trkpt lat="42.3871632" lon="12.1930817"><ele>759.0</ele><time>2026-04-12T09:41:57Z</time></trkpt><trkpt lat="42.3870608" lon="12.1932191"><ele>759.0</ele><time>2026-04-12T09:41:58.999Z</time></trkpt><trkpt lat="42.3869968" lon="12.193302"><ele>759.0</ele><time>2026-04-12T09:41:59.999Z</time></trkpt><trkpt lat="42.3869323" lon="12.1934334"><ele>759.0</ele><time>2026-04-12T09:42:01Z</time></trkpt><trkpt lat="42.3868477" lon="12.1935879"><ele>759.0</ele><time>2026-04-12T09:42:02Z</time></trkpt><trkpt lat="42.3867693" lon="12.1937157"><ele>759.0</ele><time>2026-04-12T09:42:03Z</time></trkpt><trkpt lat="42.3866839" lon="12.1938614"><ele>759.0</ele><time>2026-04-12T09:42:04Z</time></trkpt><trkpt lat="42.386608" lon="12.1939736"><ele>759.0</ele><time>2026-04-12T09:42:04.999Z</time></trkpt><trkpt lat="42.3865487" lon="12.1940696"><ele>759.0</ele><time>2026-04-12T09:42:06Z</time></trkpt><trkpt lat="42.3864856" lon="12.1941609"><ele>759.0</ele><time>2026-04-12T09:42:07Z</time></trkpt><trkpt lat="42.3864272" lon="12.1942273"><ele>759.0</ele><time>2026-04-12T09:42:07.999Z</time></trkpt><trkpt lat="42.386388" lon="12.1942987"><ele>759.0</ele><time>2026-04-12T09:42:09Z</time></trkpt><trkpt lat="42.386321" lon="12.1944207"><ele>758.6</ele><time>2026-04-12T09:42:11Z</time></trkpt><trkpt lat="42.386294" lon="12.1945278"><ele>758.2</ele><time>2026-04-12T09:42:12.999Z</time></trkpt><trkpt lat="42.3862506" lon="12.1947248"><ele>757.8000000000001</ele><time>2026-04-12T09:42:15Z</time></trkpt><trkpt lat="42.386222" lon="12.1948271"><ele>757.4000000000001</ele><time>2026-04-12T09:42:15.998Z</time></trkpt><trkpt lat="42.3861963" lon="12.1949296"><ele>757.0</ele><time>2026-04-12T09:42:17Z</time></trkpt><trkpt lat="42.3861665" lon="12.1950596"><ele>756.8333333333334</ele><time>2026-04-12T09:42:18Z</time></trkpt><trkpt lat="42.3861494" lon="12.1951815"><ele>756.6666666666667</ele><time>2026-04-12T09:42:18.999Z</time></trkpt><trkpt lat="42.3861369" lon="12.1952928"><ele>756.5</ele><time>2026-04-12T09:42:20Z</time></trkpt><trkpt lat="42.3861279" lon="12.1953858"><ele>756.3333333333334</ele><time>2026-04-12T09:42:22Z</time></trkpt><trkpt lat="42.3861486" lon="12.1952992"><ele>756.1666666666666</ele><time>2026-04-12T09:42:28.999Z</time></trkpt><trkpt lat="42.3861259" lon="12.1951409"><ele>756.0</ele><time>2026-04-12T09:42:30.998Z</time></trkpt><trkpt lat="42.3862015" lon="12.1949413"><ele>756.1999999999999</ele><time>2026-04-12T09:42:32Z</time></trkpt><trkpt lat="42.3862545" lon="12.1947916"><ele>756.4</ele><time>2026-04-12T09:42:32.999Z</time></trkpt><trkpt lat="42.3863072" lon="12.1946769"><ele>756.6</ele><time>2026-04-12T09:42:34Z</time></trkpt><trkpt lat="42.3863154" lon="12.1945346"><ele>756.8</ele><time>2026-04-12T09:42:36.999Z</time></trkpt><trkpt lat="42.3862815" lon="12.1944153"><ele>757.0</ele><time>2026-04-12T09:42:40Z</time></trkpt><trkpt lat="42.3862191" lon="12.1944005"><ele>757.0</ele><time>2026-04-12T09:42:41Z</time></trkpt><trkpt lat="42.3861558" lon="12.1943867"><ele>757.0</ele><time>2026-04-12T09:42:42Z</time></trkpt><trkpt lat="42.3860324" lon="12.1943869"><ele>757.0</ele><time>2026-04-12T09:42:44Z</time></trkpt><trkpt lat="42.3859228" lon="12.1943976"><ele>757.0</ele><time>2026-04-12T09:42:46Z</time></trkpt><trkpt lat="42.3858509" lon="12.194427"><ele>757.0</ele><time>2026-04-12T09:42:49Z</time></trkpt><trkpt lat="42.3858174" lon="12.1942542"><ele>757.0</ele><time>2026-04-12T09:42:51.998Z</time></trkpt><trkpt lat="42.3857577" lon="12.1941824"><ele>757.0</ele><time>2026-04-12T09:42:55Z</time></trkpt><trkpt lat="42.385766" lon="12.1940868"><ele>757.0</ele><time>2026-04-12T09:43:04Z</time></trkpt><trkpt lat="42.3858015" lon="12.1940027"><ele>757.0</ele><time>2026-04-12T09:43:06Z</time></trkpt><trkpt lat="42.3858713" lon="12.1939778"><ele>757.0</ele><time>2026-04-12T09:43:08Z</time></trkpt><trkpt lat="42.3860392" lon="12.1941435"><ele>757.0</ele><time>2026-04-12T09:43:09Z</time></trkpt><trkpt lat="42.3860875" lon="12.1942022"><ele>757.0</ele><time>2026-04-12T09:43:10Z</time></trkpt><trkpt lat="42.3861574" lon="12.1943213"><ele>757.0</ele><time>2026-04-12T09:43:11.999Z</time></trkpt><trkpt lat="42.3862142" lon="12.1943601"><ele>757.0</ele><time>2026-04-12T09:43:13Z</time></trkpt><trkpt lat="42.3863116" lon="12.1944057"><ele>757.0</ele><time>2026-04-12T09:43:15Z</time></trkpt><trkpt lat="42.3864134" lon="12.1943247"><ele>757.4000000000001</ele><time>2026-04-12T09:43:17Z</time></trkpt><trkpt lat="42.3864837" lon="12.1942531"><ele>757.8000000000001</ele><time>2026-04-12T09:43:18Z</time></trkpt><trkpt lat="42.3865332" lon="12.1941544"><ele>758.2</ele><time>2026-04-12T09:43:19Z</time></trkpt><trkpt lat="42.3865945" lon="12.19402"><ele>758.6</ele><time>2026-04-12T09:43:20Z</time></trkpt><trkpt lat="42.3866897" lon="12.1938937"><ele>759.0</ele><time>2026-04-12T09:43:21Z</time></trkpt><trkpt lat="42.3867609" lon="12.1937911"><ele>759.0</ele><time>2026-04-12T09:43:22.001Z</time></trkpt><trkpt lat="42.3868282" lon="12.1936864"><ele>759.0</ele><time>2026-04-12T09:43:23Z</time></trkpt><trkpt lat="42.3868916" lon="12.1935921"><ele>759.0</ele><time>2026-04-12T09:43:24.001Z</time></trkpt><trkpt lat="42.3869485" lon="12.1934936"><ele>759.0</ele><time>2026-04-12T09:43:25Z</time></trkpt><trkpt lat="42.387009" lon="12.193406"><ele>759.0</ele><time>2026-04-12T09:43:26.001Z</time></trkpt><trkpt lat="42.3870589" lon="12.1933262"><ele>759.0</ele><time>2026-04-12T09:43:27.001Z</time></trkpt><trkpt lat="42.3871048" lon="12.1932277"><ele>759.0</ele><time>2026-04-12T09:43:28.001Z</time></trkpt><trkpt lat="42.3871599" lon="12.1931284"><ele>759.0</ele><time>2026-04-12T09:43:29.001Z</time></trkpt><trkpt lat="42.3872014" lon="12.1930639"><ele>759.0</ele><time>2026-04-12T09:43:30.001Z</time></trkpt><trkpt lat="42.38723" lon="12.1929635"><ele>759.0</ele><time>2026-04-12T09:43:31Z</time></trkpt><trkpt lat="42.3873269" lon="12.1928905"><ele>759.0</ele><time>2026-04-12T09:43:33.001Z</time></trkpt><trkpt lat="42.3873558" lon="12.1928084"><ele>759.0</ele><time>2026-04-12T09:43:37.001Z</time></trkpt><trkpt lat="42.3873264" lon="12.1927268"><ele>759.0</ele><time>2026-04-12T09:43:39.001Z</time></trkpt><trkpt lat="42.3872345" lon="12.1926534"><ele>759.0</ele><time>2026-04-12T09:43:40.001Z</time></trkpt><trkpt lat="42.3871713" lon="12.1925869"><ele>759.0</ele><time>2026-04-12T09:43:40.999Z</time></trkpt><trkpt lat="42.3870474" lon="12.1924867"><ele>759.0</ele><time>2026-04-12T09:43:42.001Z</time></trkpt><trkpt lat="42.3869388" lon="12.1923856"><ele>758.0</ele><time>2026-04-12T09:43:43.001Z</time></trkpt><trkpt lat="42.3868104" lon="12.1923177"><ele>757.0</ele><time>2026-04-12T09:43:44Z</time></trkpt><trkpt lat="42.3866985" lon="12.192239"><ele>756.0</ele><time>2026-04-12T09:43:45Z</time></trkpt><trkpt lat="42.3865833" lon="12.19216"><ele>755.0</ele><time>2026-04-12T09:43:46.001Z</time></trkpt><trkpt lat="42.3864683" lon="12.1920838"><ele>755.0</ele><time>2026-04-12T09:43:47.001Z</time></trkpt><trkpt lat="42.3863603" lon="12.1920133"><ele>755.0</ele><time>2026-04-12T09:43:48.001Z</time></trkpt><trkpt lat="42.3862587" lon="12.1919431"><ele>755.0</ele><time>2026-04-12T09:43:49.001Z</time></trkpt><trkpt lat="42.3861571" lon="12.191881"><ele>755.0</ele><time>2026-04-12T09:43:50.001Z</time></trkpt><trkpt lat="42.3860638" lon="12.1918201"><ele>755.0</ele><time>2026-04-12T09:43:51.001Z</time></trkpt><trkpt lat="42.3859933" lon="12.1917443"><ele>755.8333333333333</ele><time>2026-04-12T09:43:52.001Z</time></trkpt><trkpt lat="42.3859257" lon="12.1916857"><ele>756.6666666666666</ele><time>2026-04-12T09:43:53Z</time></trkpt><trkpt lat="42.385862" lon="12.191632"><ele>757.5</ele><time>2026-04-12T09:43:54Z</time></trkpt><trkpt lat="42.3857764" lon="12.1915761"><ele>758.3333333333334</ele><time>2026-04-12T09:43:56Z</time></trkpt><trkpt lat="42.3857012" lon="12.1915934"><ele>759.1666666666667</ele><time>2026-04-12T09:43:59.001Z</time></trkpt><trkpt lat="42.3856413" lon="12.1916726"><ele>760.0</ele><time>2026-04-12T09:44:02.001Z</time></trkpt><trkpt lat="42.3855759" lon="12.1917377"><ele>758.75</ele><time>2026-04-12T09:44:05.001Z</time></trkpt><trkpt lat="42.3854974" lon="12.1917416"><ele>757.5</ele><time>2026-04-12T09:44:07Z</time></trkpt><trkpt lat="42.3853068" lon="12.191779"><ele>756.25</ele><time>2026-04-12T09:44:09.001Z</time></trkpt><trkpt lat="42.3852255" lon="12.1918111"><ele>755.0</ele><time>2026-04-12T09:44:10Z</time></trkpt><trkpt lat="42.3851139" lon="12.1918354"><ele>755.0</ele><time>2026-04-12T09:44:11.001Z</time></trkpt><trkpt lat="42.3850013" lon="12.1918414"><ele>755.0</ele><time>2026-04-12T09:44:12.001Z</time></trkpt><trkpt lat="42.3848793" lon="12.1918316"><ele>755.0</ele><time>2026-04-12T09:44:13Z</time></trkpt><trkpt lat="42.384757" lon="12.1918278"><ele>755.0</ele><time>2026-04-12T09:44:14Z</time></trkpt><trkpt lat="42.3846245" lon="12.191836"><ele>755.25</ele><time>2026-04-12T09:44:15Z</time></trkpt><trkpt lat="42.38447" lon="12.1918519"><ele>755.5</ele><time>2026-04-12T09:44:16.001Z</time></trkpt><trkpt lat="42.3843521" lon="12.1918982"><ele>755.75</ele><time>2026-04-12T09:44:17.001Z</time></trkpt><trkpt lat="42.3842366" lon="12.1919707"><ele>756.0</ele><time>2026-04-12T09:44:17.999Z</time></trkpt><trkpt lat="42.3841557" lon="12.1921022"><ele>756.0</ele><time>2026-04-12T09:44:19.001Z</time></trkpt><trkpt lat="42.3840729" lon="12.1922345"><ele>756.0</ele><time>2026-04-12T09:44:20.001Z</time></trkpt><trkpt lat="42.3840058" lon="12.1923553"><ele>756.0</ele><time>2026-04-12T09:44:21.001Z</time></trkpt><trkpt lat="42.3839387" lon="12.192468"><ele>756.0</ele><time>2026-04-12T09:44:22.001Z</time></trkpt><trkpt lat="42.3838667" lon="12.1925669"><ele>756.0</ele><time>2026-04-12T09:44:23Z</time></trkpt><trkpt lat="42.3837972" lon="12.1926689"><ele>756.4</ele><time>2026-04-12T09:44:24.001Z</time></trkpt><trkpt lat="42.3837147" lon="12.1927642"><ele>756.8</ele><time>2026-04-12T09:44:25Z</time></trkpt><trkpt lat="42.3836355" lon="12.1928559"><ele>757.1999999999999</ele><time>2026-04-12T09:44:26Z</time></trkpt><trkpt lat="42.3835641" lon="12.1929432"><ele>757.5999999999999</ele><time>2026-04-12T09:44:27.001Z</time></trkpt><trkpt lat="42.3835058" lon="12.1930221"><ele>758.0</ele><time>2026-04-12T09:44:28Z</time></trkpt><trkpt lat="42.38346" lon="12.1931476"><ele>756.5</ele><time>2026-04-12T09:44:29.001Z</time></trkpt><trkpt lat="42.3834291" lon="12.1932871"><ele>755.0</ele><time>2026-04-12T09:44:30Z</time></trkpt><trkpt lat="42.3834129" lon="12.1935303"><ele>753.5</ele><time>2026-04-12T09:44:31.001Z</time></trkpt><trkpt lat="42.3833699" lon="12.1937362"><ele>752.0</ele><time>2026-04-12T09:44:32Z</time></trkpt><trkpt lat="42.3833444" lon="12.1939208"><ele>751.6</ele><time>2026-04-12T09:44:33.001Z</time></trkpt><trkpt lat="42.383336" lon="12.1940719"><ele>751.2</ele><time>2026-04-12T09:44:34.001Z</time></trkpt><trkpt lat="42.3833286" lon="12.1942222"><ele>750.8</ele><time>2026-04-12T09:44:35.001Z</time></trkpt><trkpt lat="42.3833181" lon="12.1943594"><ele>750.4</ele><time>2026-04-12T09:44:36.001Z</time></trkpt><trkpt lat="42.3832986" lon="12.1944772"><ele>750.0</ele><time>2026-04-12T09:44:37.001Z</time></trkpt><trkpt lat="42.3832308" lon="12.1945593"><ele>750.0</ele><time>2026-04-12T09:44:38Z</time></trkpt><trkpt lat="42.3831566" lon="12.1946507"><ele>750.0</ele><time>2026-04-12T09:44:39.001Z</time></trkpt><trkpt lat="42.3830756" lon="12.1947753"><ele>750.0</ele><time>2026-04-12T09:44:40.001Z</time></trkpt><trkpt lat="42.3830002" lon="12.194902"><ele>750.0</ele><time>2026-04-12T09:44:41.001Z</time></trkpt><trkpt lat="42.3829243" lon="12.19503"><ele>748.6</ele><time>2026-04-12T09:44:42.001Z</time></trkpt><trkpt lat="42.3828537" lon="12.1951516"><ele>747.2</ele><time>2026-04-12T09:44:43.001Z</time></trkpt><trkpt lat="42.3827848" lon="12.1952692"><ele>745.8</ele><time>2026-04-12T09:44:44Z</time></trkpt><trkpt lat="42.3827213" lon="12.1953802"><ele>744.4</ele><time>2026-04-12T09:44:45Z</time></trkpt><trkpt lat="42.3826685" lon="12.1954372"><ele>743.0</ele><time>2026-04-12T09:44:46.001Z</time></trkpt><trkpt lat="42.3826114" lon="12.195522"><ele>743.0</ele><time>2026-04-12T09:44:47.001Z</time></trkpt><trkpt lat="42.3825335" lon="12.1955823"><ele>743.0</ele><time>2026-04-12T09:44:48.001Z</time></trkpt><trkpt lat="42.3824547" lon="12.1956573"><ele>743.0</ele><time>2026-04-12T09:44:48.999Z</time></trkpt><trkpt lat="42.3823684" lon="12.1957304"><ele>743.0</ele><time>2026-04-12T09:44:50.001Z</time></trkpt><trkpt lat="42.3822771" lon="12.1958013"><ele>743.0</ele><time>2026-04-12T09:44:51.001Z</time></trkpt><trkpt lat="42.3822001" lon="12.1958847"><ele>743.2</ele><time>2026-04-12T09:44:52.001Z</time></trkpt><trkpt lat="42.3821477" lon="12.1959854"><ele>743.4</ele><time>2026-04-12T09:44:53Z</time></trkpt><trkpt lat="42.3821001" lon="12.1960955"><ele>743.6</ele><time>2026-04-12T09:44:54.001Z</time></trkpt><trkpt lat="42.3820789" lon="12.1962591"><ele>743.8000000000001</ele><time>2026-04-12T09:44:55.001Z</time></trkpt><trkpt lat="42.3821076" lon="12.1963606"><ele>744.0</ele><time>2026-04-12T09:44:56.001Z</time></trkpt><trkpt lat="42.3820632" lon="12.1965108"><ele>742.5</ele><time>2026-04-12T09:44:57Z</time></trkpt><trkpt lat="42.3820131" lon="12.1966663"><ele>741.0</ele><time>2026-04-12T09:44:58.001Z</time></trkpt><trkpt lat="42.3819743" lon="12.1968368"><ele>739.5</ele><time>2026-04-12T09:44:59.001Z</time></trkpt><trkpt lat="42.3819383" lon="12.1970036"><ele>738.0</ele><time>2026-04-12T09:45:00Z</time></trkpt><trkpt lat="42.3818805" lon="12.1971501"><ele>738.0</ele><time>2026-04-12T09:45:01.001Z</time></trkpt><trkpt lat="42.3818386" lon="12.1972425"><ele>738.0</ele><time>2026-04-12T09:45:02.001Z</time></trkpt><trkpt lat="42.381802" lon="12.1973484"><ele>738.0</ele><time>2026-04-12T09:45:03.001Z</time></trkpt><trkpt lat="42.3817511" lon="12.1974423"><ele>738.0</ele><time>2026-04-12T09:45:04.001Z</time></trkpt><trkpt lat="42.3816614" lon="12.1975612"><ele>738.0</ele><time>2026-04-12T09:45:06Z</time></trkpt><trkpt lat="42.3815995" lon="12.1976138"><ele>737.8333333333334</ele><time>2026-04-12T09:45:07.001Z</time></trkpt><trkpt lat="42.381504" lon="12.1976088"><ele>737.6666666666666</ele><time>2026-04-12T09:45:08Z</time></trkpt><trkpt lat="42.3814255" lon="12.1976282"><ele>737.5</ele><time>2026-04-12T09:45:09.001Z</time></trkpt><trkpt lat="42.3813367" lon="12.1976873"><ele>737.3333333333333</ele><time>2026-04-12T09:45:10.001Z</time></trkpt><trkpt lat="42.3812899" lon="12.1977804"><ele>737.1666666666666</ele><time>2026-04-12T09:45:11Z</time></trkpt><trkpt lat="42.3812202" lon="12.1978414"><ele>737.0</ele><time>2026-04-12T09:45:12.001Z</time></trkpt><trkpt lat="42.3811443" lon="12.197968"><ele>737.0</ele><time>2026-04-12T09:45:13.001Z</time></trkpt><trkpt lat="42.3810882" lon="12.1981653"><ele>737.0</ele><time>2026-04-12T09:45:14.001Z</time></trkpt><trkpt lat="42.3810314" lon="12.198266"><ele>737.0</ele><time>2026-04-12T09:45:15.001Z</time></trkpt><trkpt lat="42.3809478" lon="12.1983746"><ele>737.0</ele><time>2026-04-12T09:45:16.001Z</time></trkpt><trkpt lat="42.3808778" lon="12.1984733"><ele>735.25</ele><time>2026-04-12T09:45:17.001Z</time></trkpt><trkpt lat="42.3808126" lon="12.1985444"><ele>733.5</ele><time>2026-04-12T09:45:18Z</time></trkpt><trkpt lat="42.3806564" lon="12.198615"><ele>731.75</ele><time>2026-04-12T09:45:19.001Z</time></trkpt><trkpt lat="42.3805574" lon="12.1986599"><ele>730.0</ele><time>2026-04-12T09:45:20.001Z</time></trkpt><trkpt lat="42.3804578" lon="12.1987194"><ele>730.0</ele><time>2026-04-12T09:45:21Z</time></trkpt><trkpt lat="42.38038" lon="12.1987766"><ele>730.0</ele><time>2026-04-12T09:45:23.001Z</time></trkpt><trkpt lat="42.3803074" lon="12.1988321"><ele>730.0</ele><time>2026-04-12T09:45:25Z</time></trkpt><trkpt lat="42.3803226" lon="12.1990964"><ele>730.0</ele><time>2026-04-12T09:45:28.001Z</time></trkpt><trkpt lat="42.3803495" lon="12.1992842"><ele>730.0</ele><time>2026-04-12T09:45:29.001Z</time></trkpt><trkpt lat="42.3803572" lon="12.1995693"><ele>730.0</ele><time>2026-04-12T09:45:30.001Z</time></trkpt><trkpt lat="42.3803656" lon="12.1997328"><ele>730.0</ele><time>2026-04-12T09:45:31Z</time></trkpt><trkpt lat="42.3803549" lon="12.1998688"><ele>730.0</ele><time>2026-04-12T09:45:32.001Z</time></trkpt><trkpt lat="42.3803461" lon="12.2000012"><ele>730.0</ele><time>2026-04-12T09:45:33.001Z</time></trkpt><trkpt lat="42.380334" lon="12.2001648"><ele>730.0</ele><time>2026-04-12T09:45:34Z</time></trkpt><trkpt lat="42.3803174" lon="12.2003064"><ele>730.0</ele><time>2026-04-12T09:45:35Z</time></trkpt><trkpt lat="42.3803119" lon="12.2005175"><ele>730.0</ele><time>2026-04-12T09:45:37Z</time></trkpt><trkpt lat="42.3802625" lon="12.2006971"><ele>729.0</ele><time>2026-04-12T09:45:39.001Z</time></trkpt><trkpt lat="42.3802372" lon="12.2008398"><ele>728.0</ele><time>2026-04-12T09:45:40.001Z</time></trkpt><trkpt lat="42.3802189" lon="12.2009796"><ele>727.0</ele><time>2026-04-12T09:45:40.999Z</time></trkpt><trkpt lat="42.3802128" lon="12.2011264"><ele>726.0</ele><time>2026-04-12T09:45:42.001Z</time></trkpt><trkpt lat="42.3802345" lon="12.2012762"><ele>725.0</ele><time>2026-04-12T09:45:43.001Z</time></trkpt><trkpt lat="42.3802382" lon="12.2014211"><ele>724.2</ele><time>2026-04-12T09:45:44.001Z</time></trkpt><trkpt lat="42.3802486" lon="12.2015662"><ele>723.4</ele><time>2026-04-12T09:45:45.001Z</time></trkpt><trkpt lat="42.380252" lon="12.2017065"><ele>722.5999999999999</ele><time>2026-04-12T09:45:46Z</time></trkpt><trkpt lat="42.3802792" lon="12.2018242"><ele>721.8</ele><time>2026-04-12T09:45:47.001Z</time></trkpt><trkpt lat="42.3802971" lon="12.201969"><ele>721.0</ele><time>2026-04-12T09:45:48.001Z</time></trkpt><trkpt lat="42.3802821" lon="12.2020823"><ele>721.0</ele><time>2026-04-12T09:45:49Z</time></trkpt><trkpt lat="42.3802635" lon="12.2022235"><ele>721.0</ele><time>2026-04-12T09:45:50.001Z</time></trkpt><trkpt lat="42.380237" lon="12.2023748"><ele>721.0</ele><time>2026-04-12T09:45:51Z</time></trkpt><trkpt lat="42.3802171" lon="12.2025056"><ele>721.0</ele><time>2026-04-12T09:45:52.001Z</time></trkpt><trkpt lat="42.3802059" lon="12.2026356"><ele>721.0</ele><time>2026-04-12T09:45:53.001Z</time></trkpt><trkpt lat="42.3801988" lon="12.2027466"><ele>721.0</ele><time>2026-04-12T09:45:54.001Z</time></trkpt><trkpt lat="42.3802104" lon="12.2028709"><ele>721.0</ele><time>2026-04-12T09:45:55.001Z</time></trkpt><trkpt lat="42.3802373" lon="12.2029868"><ele>721.0</ele><time>2026-04-12T09:45:56.001Z</time></trkpt><trkpt lat="42.3802098" lon="12.2031594"><ele>721.0</ele><time>2026-04-12T09:45:57.001Z</time></trkpt><trkpt lat="42.3801943" lon="12.2032554"><ele>721.0</ele><time>2026-04-12T09:45:58.001Z</time></trkpt><trkpt lat="42.3801898" lon="12.2033819"><ele>721.0</ele><time>2026-04-12T09:45:59.001Z</time></trkpt><trkpt lat="42.3801704" lon="12.2034733"><ele>721.0</ele><time>2026-04-12T09:46:00.001Z</time></trkpt><trkpt lat="42.3801422" lon="12.203611"><ele>721.0</ele><time>2026-04-12T09:46:01Z</time></trkpt><trkpt lat="42.3801031" lon="12.2037478"><ele>721.0</ele><time>2026-04-12T09:46:02.001Z</time></trkpt><trkpt lat="42.3800732" lon="12.2038736"><ele>721.0</ele><time>2026-04-12T09:46:03Z</time></trkpt><trkpt lat="42.3800478" lon="12.2039942"><ele>719.0</ele><time>2026-04-12T09:46:04.001Z</time></trkpt><trkpt lat="42.3800047" lon="12.2041173"><ele>717.0</ele><time>2026-04-12T09:46:05.001Z</time></trkpt><trkpt lat="42.3799494" lon="12.2042591"><ele>715.0</ele><time>2026-04-12T09:46:06Z</time></trkpt><trkpt lat="42.3798842" lon="12.2043903"><ele>713.0</ele><time>2026-04-12T09:46:07.001Z</time></trkpt><trkpt lat="42.3798211" lon="12.2045063"><ele>711.0</ele><time>2026-04-12T09:46:08Z</time></trkpt><trkpt lat="42.3797682" lon="12.2046214"><ele>711.0</ele><time>2026-04-12T09:46:09.001Z</time></trkpt><trkpt lat="42.3797252" lon="12.2047381"><ele>711.0</ele><time>2026-04-12T09:46:10.001Z</time></trkpt><trkpt lat="42.3796854" lon="12.2048485"><ele>711.0</ele><time>2026-04-12T09:46:11.001Z</time></trkpt><trkpt lat="42.3796654" lon="12.2049664"><ele>711.0</ele><time>2026-04-12T09:46:12.001Z</time></trkpt><trkpt lat="42.3796591" lon="12.205094"><ele>711.0</ele><time>2026-04-12T09:46:12.999Z</time></trkpt><trkpt lat="42.3796433" lon="12.2052229"><ele>708.8</ele><time>2026-04-12T09:46:14.001Z</time></trkpt><trkpt lat="42.3796154" lon="12.2053562"><ele>706.5999999999999</ele><time>2026-04-12T09:46:15.001Z</time></trkpt><trkpt lat="42.3795883" lon="12.2054737"><ele>704.4</ele><time>2026-04-12T09:46:16Z</time></trkpt><trkpt lat="42.3795795" lon="12.2055928"><ele>702.2</ele><time>2026-04-12T09:46:17Z</time></trkpt><trkpt lat="42.3795861" lon="12.2057101"><ele>700.0</ele><time>2026-04-12T09:46:18.001Z</time></trkpt><trkpt lat="42.3795926" lon="12.2058257"><ele>697.4</ele><time>2026-04-12T09:46:18.999Z</time></trkpt><trkpt lat="42.3795945" lon="12.2059292"><ele>694.8</ele><time>2026-04-12T09:46:19.999Z</time></trkpt><trkpt lat="42.3795829" lon="12.206048"><ele>692.2</ele><time>2026-04-12T09:46:21.001Z</time></trkpt><trkpt lat="42.3795474" lon="12.2061854"><ele>689.6</ele><time>2026-04-12T09:46:22.001Z</time></trkpt><trkpt lat="42.3795137" lon="12.2063461"><ele>687.0</ele><time>2026-04-12T09:46:23.001Z</time></trkpt><trkpt lat="42.3794933" lon="12.2064945"><ele>685.5</ele><time>2026-04-12T09:46:24Z</time></trkpt><trkpt lat="42.3794836" lon="12.2066091"><ele>684.0</ele><time>2026-04-12T09:46:25.001Z</time></trkpt><trkpt lat="42.3794925" lon="12.2067404"><ele>682.5</ele><time>2026-04-12T09:46:26.999Z</time></trkpt><trkpt lat="42.379532" lon="12.2068271"><ele>681.0</ele><time>2026-04-12T09:46:28.999Z</time></trkpt><trkpt lat="42.3795961" lon="12.2069524"><ele>679.5</ele><time>2026-04-12T09:46:31.001Z</time></trkpt><trkpt lat="42.3796258" lon="12.2070277"><ele>678.0</ele><time>2026-04-12T09:46:32Z</time></trkpt><trkpt lat="42.3796439" lon="12.2071137"><ele>678.0</ele><time>2026-04-12T09:46:33.001Z</time></trkpt><trkpt lat="42.3796496" lon="12.2072095"><ele>678.0</ele><time>2026-04-12T09:46:34.001Z</time></trkpt><trkpt lat="42.37965" lon="12.2073097"><ele>678.0</ele><time>2026-04-12T09:46:35.001Z</time></trkpt><trkpt lat="42.3796502" lon="12.2074016"><ele>678.0</ele><time>2026-04-12T09:46:36.001Z</time></trkpt><trkpt lat="42.3796521" lon="12.2075626"><ele>678.0</ele><time>2026-04-12T09:46:38.001Z</time></trkpt><trkpt lat="42.3796386" lon="12.2076658"><ele>678.0</ele><time>2026-04-12T09:46:40.001Z</time></trkpt><trkpt lat="42.379609" lon="12.2077751"><ele>676.6666666666666</ele><time>2026-04-12T09:46:43.001Z</time></trkpt><trkpt lat="42.3795271" lon="12.2078376"><ele>675.3333333333334</ele><time>2026-04-12T09:46:45Z</time></trkpt><trkpt lat="42.3794479" lon="12.207932"><ele>674.0</ele><time>2026-04-12T09:46:47.001Z</time></trkpt><trkpt lat="42.3794074" lon="12.2079979"><ele>672.6666666666667</ele><time>2026-04-12T09:46:48.001Z</time></trkpt><trkpt lat="42.3793436" lon="12.2081152"><ele>671.3333333333334</ele><time>2026-04-12T09:46:50.001Z</time></trkpt><trkpt lat="42.3792875" lon="12.2081565"><ele>670.0</ele><time>2026-04-12T09:46:53.001Z</time></trkpt><trkpt lat="42.379232" lon="12.2080979"><ele>670.0</ele><time>2026-04-12T09:46:55.001Z</time></trkpt><trkpt lat="42.3791445" lon="12.207969"><ele>670.0</ele><time>2026-04-12T09:46:57.001Z</time></trkpt><trkpt lat="42.3790886" lon="12.2078818"><ele>670.0</ele><time>2026-04-12T09:46:58.001Z</time></trkpt><trkpt lat="42.379032" lon="12.2078165"><ele>670.0</ele><time>2026-04-12T09:46:59.001Z</time></trkpt><trkpt lat="42.3789801" lon="12.2077049"><ele>670.0</ele><time>2026-04-12T09:47:01.001Z</time></trkpt><trkpt lat="42.3789333" lon="12.2075922"><ele>670.0</ele><time>2026-04-12T09:47:03Z</time></trkpt><trkpt lat="42.3789151" lon="12.2074802"><ele>670.0</ele><time>2026-04-12T09:47:05.001Z</time></trkpt><trkpt lat="42.3788718" lon="12.2073485"><ele>670.0</ele><time>2026-04-12T09:47:06.001Z</time></trkpt><trkpt lat="42.3788429" lon="12.2072371"><ele>670.0</ele><time>2026-04-12T09:47:07.001Z</time></trkpt><trkpt lat="42.3788075" lon="12.2071037"><ele>670.0</ele><time>2026-04-12T09:47:08.001Z</time></trkpt><trkpt lat="42.378779" lon="12.2069898"><ele>673.6</ele><time>2026-04-12T09:47:09.001Z</time></trkpt><trkpt lat="42.378731" lon="12.2068748"><ele>677.2</ele><time>2026-04-12T09:47:10Z</time></trkpt><trkpt lat="42.3786996" lon="12.2067606"><ele>680.8</ele><time>2026-04-12T09:47:11.001Z</time></trkpt><trkpt lat="42.3786725" lon="12.2066445"><ele>684.4</ele><time>2026-04-12T09:47:12.001Z</time></trkpt><trkpt lat="42.3786657" lon="12.2065351"><ele>688.0</ele><time>2026-04-12T09:47:12.999Z</time></trkpt><trkpt lat="42.3786689" lon="12.2063916"><ele>688.0</ele><time>2026-04-12T09:47:14.001Z</time></trkpt><trkpt lat="42.3786593" lon="12.2062648"><ele>688.0</ele><time>2026-04-12T09:47:15.001Z</time></trkpt><trkpt lat="42.3786559" lon="12.2061613"><ele>688.0</ele><time>2026-04-12T09:47:15.999Z</time></trkpt><trkpt lat="42.378639" lon="12.2060522"><ele>688.0</ele><time>2026-04-12T09:47:17.001Z</time></trkpt><trkpt lat="42.3786234" lon="12.2059548"><ele>688.0</ele><time>2026-04-12T09:47:18.001Z</time></trkpt><trkpt lat="42.3785981" lon="12.2058402"><ele>688.0</ele><time>2026-04-12T09:47:19.001Z</time></trkpt><trkpt lat="42.378559" lon="12.2057568"><ele>687.6666666666667</ele><time>2026-04-12T09:47:19.999Z</time></trkpt><trkpt lat="42.3785146" lon="12.2056519"><ele>687.3333333333334</ele><time>2026-04-12T09:47:21.001Z</time></trkpt><trkpt lat="42.3785087" lon="12.2055447"><ele>687.0</ele><time>2026-04-12T09:47:22.001Z</time></trkpt><trkpt lat="42.3784655" lon="12.2054808"><ele>686.6666666666666</ele><time>2026-04-12T09:47:23Z</time></trkpt><trkpt lat="42.3784169" lon="12.2053788"><ele>686.3333333333333</ele><time>2026-04-12T09:47:24Z</time></trkpt><trkpt lat="42.3783598" lon="12.2052839"><ele>686.0</ele><time>2026-04-12T09:47:25.001Z</time></trkpt><trkpt lat="42.3782776" lon="12.2051705"><ele>686.0</ele><time>2026-04-12T09:47:26.001Z</time></trkpt><trkpt lat="42.3782018" lon="12.2050609"><ele>686.0</ele><time>2026-04-12T09:47:27Z</time></trkpt><trkpt lat="42.3781286" lon="12.2049968"><ele>686.0</ele><time>2026-04-12T09:47:28Z</time></trkpt><trkpt lat="42.3780556" lon="12.2049357"><ele>686.0</ele><time>2026-04-12T09:47:29Z</time></trkpt><trkpt lat="42.3779872" lon="12.2048973"><ele>686.0</ele><time>2026-04-12T09:47:30.001Z</time></trkpt><trkpt lat="42.3778985" lon="12.2048457"><ele>687.1999999999999</ele><time>2026-04-12T09:47:32.001Z</time></trkpt><trkpt lat="42.3778345" lon="12.2048117"><ele>688.4</ele><time>2026-04-12T09:47:34.001Z</time></trkpt><trkpt lat="42.3777425" lon="12.2048061"><ele>689.6</ele><time>2026-04-12T09:47:37Z</time></trkpt><trkpt lat="42.3776653" lon="12.2048405"><ele>690.8</ele><time>2026-04-12T09:47:39.001Z</time></trkpt><trkpt lat="42.3775772" lon="12.204919"><ele>692.0</ele><time>2026-04-12T09:47:41Z</time></trkpt><trkpt lat="42.3775584" lon="12.2050578"><ele>692.8</ele><time>2026-04-12T09:47:42Z</time></trkpt><trkpt lat="42.3775119" lon="12.2051309"><ele>693.6</ele><time>2026-04-12T09:47:43.001Z</time></trkpt><trkpt lat="42.3774625" lon="12.2052159"><ele>694.4</ele><time>2026-04-12T09:47:44Z</time></trkpt><trkpt lat="42.3773703" lon="12.2053958"><ele>695.1999999999999</ele><time>2026-04-12T09:47:46.001Z</time></trkpt><trkpt lat="42.3773509" lon="12.2054849"><ele>696.0</ele><time>2026-04-12T09:47:47.001Z</time></trkpt><trkpt lat="42.3773236" lon="12.2055787"><ele>698.0</ele><time>2026-04-12T09:47:48.001Z</time></trkpt><trkpt lat="42.3773012" lon="12.2056636"><ele>700.0</ele><time>2026-04-12T09:47:49Z</time></trkpt><trkpt lat="42.3772907" lon="12.205837"><ele>702.0</ele><time>2026-04-12T09:47:51.001Z</time></trkpt><trkpt lat="42.377277" lon="12.2059343"><ele>704.0</ele><time>2026-04-12T09:47:53.001Z</time></trkpt><trkpt lat="42.3772782" lon="12.2060318"><ele>706.0</ele><time>2026-04-12T09:47:55.001Z</time></trkpt><trkpt lat="42.3773142" lon="12.2061237"><ele>708.0</ele><time>2026-04-12T09:48:05.001Z</time></trkpt><trkpt lat="42.3773312" lon="12.2062323"><ele>708.0</ele><time>2026-04-12T09:48:07.001Z</time></trkpt><trkpt lat="42.3772885" lon="12.2063431"><ele>708.0</ele><time>2026-04-12T09:48:09Z</time></trkpt><trkpt lat="42.3772807" lon="12.2064812"><ele>708.0</ele><time>2026-04-12T09:48:11.001Z</time></trkpt><trkpt lat="42.3772798" lon="12.20662"><ele>708.0</ele><time>2026-04-12T09:48:13Z</time></trkpt><trkpt lat="42.3772756" lon="12.2067206"><ele>708.0</ele><time>2026-04-12T09:48:14.001Z</time></trkpt><trkpt lat="42.3772269" lon="12.2068306"><ele>710.0</ele><time>2026-04-12T09:48:16Z</time></trkpt><trkpt lat="42.3771907" lon="12.2069856"><ele>712.0</ele><time>2026-04-12T09:48:18.001Z</time></trkpt><trkpt lat="42.3771613" lon="12.2070717"><ele>714.0</ele><time>2026-04-12T09:48:21.001Z</time></trkpt><trkpt lat="42.3770833" lon="12.2071071"><ele>716.0</ele><time>2026-04-12T09:48:24.001Z</time></trkpt><trkpt lat="42.3769951" lon="12.2071044"><ele>718.0</ele><time>2026-04-12T09:48:28.001Z</time></trkpt><trkpt lat="42.3769016" lon="12.2070999"><ele>719.4</ele><time>2026-04-12T09:48:31.001Z</time></trkpt><trkpt lat="42.3768005" lon="12.2071453"><ele>720.8</ele><time>2026-04-12T09:48:33.001Z</time></trkpt><trkpt lat="42.3767121" lon="12.2072046"><ele>722.2</ele><time>2026-04-12T09:48:35.001Z</time></trkpt><trkpt lat="42.3766158" lon="12.2072273"><ele>723.6</ele><time>2026-04-12T09:48:38.001Z</time></trkpt><trkpt lat="42.3765518" lon="12.207249"><ele>725.0</ele><time>2026-04-12T09:48:40Z</time></trkpt><trkpt lat="42.3764664" lon="12.2072889"><ele>725.8</ele><time>2026-04-12T09:48:42Z</time></trkpt><trkpt lat="42.3764266" lon="12.2073982"><ele>726.6</ele><time>2026-04-12T09:48:45.001Z</time></trkpt><trkpt lat="42.3764189" lon="12.2075203"><ele>727.4000000000001</ele><time>2026-04-12T09:48:47.001Z</time></trkpt><trkpt lat="42.376442" lon="12.2076438"><ele>728.2</ele><time>2026-04-12T09:48:49.001Z</time></trkpt><trkpt lat="42.3764776" lon="12.2078036"><ele>729.0</ele><time>2026-04-12T09:48:51.001Z</time></trkpt><trkpt lat="42.3765094" lon="12.2078866"><ele>729.0</ele><time>2026-04-12T09:48:52Z</time></trkpt><trkpt lat="42.3765231" lon="12.2079861"><ele>729.0</ele><time>2026-04-12T09:48:53.001Z</time></trkpt><trkpt lat="42.3765309" lon="12.208104"><ele>729.0</ele><time>2026-04-12T09:48:54.001Z</time></trkpt><trkpt lat="42.3765391" lon="12.2081907"><ele>729.0</ele><time>2026-04-12T09:48:55.001Z</time></trkpt><trkpt lat="42.3765445" lon="12.2082826"><ele>729.0</ele><time>2026-04-12T09:48:56Z</time></trkpt><trkpt lat="42.3765646" lon="12.208379"><ele>729.0</ele><time>2026-04-12T09:48:57Z</time></trkpt><trkpt lat="42.376582" lon="12.2084684"><ele>729.0</ele><time>2026-04-12T09:48:58.001Z</time></trkpt><trkpt lat="42.3765898" lon="12.2085787"><ele>727.6</ele><time>2026-04-12T09:48:59.001Z</time></trkpt><trkpt lat="42.3766191" lon="12.2087084"><ele>726.2</ele><time>2026-04-12T09:49:00.001Z</time></trkpt><trkpt lat="42.3766355" lon="12.2088088"><ele>724.8000000000001</ele><time>2026-04-12T09:49:01Z</time></trkpt><trkpt lat="42.3766577" lon="12.2089188"><ele>723.4000000000001</ele><time>2026-04-12T09:49:02.001Z</time></trkpt><trkpt lat="42.3766867" lon="12.2090914"><ele>722.0</ele><time>2026-04-12T09:49:04.001Z</time></trkpt><trkpt lat="42.3766835" lon="12.2091822"><ele>720.8333333333333</ele><time>2026-04-12T09:49:05Z</time></trkpt><trkpt lat="42.3766785" lon="12.2092731"><ele>719.6666666666666</ele><time>2026-04-12T09:49:06.001Z</time></trkpt><trkpt lat="42.3766756" lon="12.2094467"><ele>718.5</ele><time>2026-04-12T09:49:08.001Z</time></trkpt><trkpt lat="42.3766754" lon="12.2095364"><ele>717.3333333333334</ele><time>2026-04-12T09:49:09Z</time></trkpt><trkpt lat="42.3766729" lon="12.2096593"><ele>716.1666666666667</ele><time>2026-04-12T09:49:10.001Z</time></trkpt><trkpt lat="42.3767058" lon="12.2097454"><ele>715.0</ele><time>2026-04-12T09:49:10.999Z</time></trkpt><trkpt lat="42.3766842" lon="12.2098344"><ele>713.8333333333334</ele><time>2026-04-12T09:49:12.001Z</time></trkpt><trkpt lat="42.3766728" lon="12.2099214"><ele>712.6666666666667</ele><time>2026-04-12T09:49:13.001Z</time></trkpt><trkpt lat="42.3767289" lon="12.2101027"><ele>711.5</ele><time>2026-04-12T09:49:15Z</time></trkpt><trkpt lat="42.3767557" lon="12.2101872"><ele>710.3333333333334</ele><time>2026-04-12T09:49:15.999Z</time></trkpt><trkpt lat="42.3767827" lon="12.2102754"><ele>709.1666666666666</ele><time>2026-04-12T09:49:17.001Z</time></trkpt><trkpt lat="42.3768197" lon="12.2103612"><ele>708.0</ele><time>2026-04-12T09:49:18.001Z</time></trkpt><trkpt lat="42.3768963" lon="12.2104778"><ele>708.0</ele><time>2026-04-12T09:49:20Z</time></trkpt><trkpt lat="42.3770154" lon="12.2105651"><ele>708.0</ele><time>2026-04-12T09:49:22.001Z</time></trkpt><trkpt lat="42.3770854" lon="12.2105993"><ele>708.0</ele><time>2026-04-12T09:49:23.001Z</time></trkpt><trkpt lat="42.3771608" lon="12.2106203"><ele>708.0</ele><time>2026-04-12T09:49:24Z</time></trkpt><trkpt lat="42.377236" lon="12.2106376"><ele>708.0</ele><time>2026-04-12T09:49:25.001Z</time></trkpt><trkpt lat="42.3773165" lon="12.2106364"><ele>708.0</ele><time>2026-04-12T09:49:26Z</time></trkpt><trkpt lat="42.3774051" lon="12.2107124"><ele>705.8333333333334</ele><time>2026-04-12T09:49:27.001Z</time></trkpt><trkpt lat="42.3774904" lon="12.2107484"><ele>703.6666666666666</ele><time>2026-04-12T09:49:28.001Z</time></trkpt><trkpt lat="42.3775768" lon="12.2108011"><ele>701.5</ele><time>2026-04-12T09:49:29.001Z</time></trkpt><trkpt lat="42.377665" lon="12.2108442"><ele>699.3333333333333</ele><time>2026-04-12T09:49:30.001Z</time></trkpt><trkpt lat="42.3777434" lon="12.2108619"><ele>697.1666666666666</ele><time>2026-04-12T09:49:31.001Z</time></trkpt><trkpt lat="42.3778063" lon="12.2109047"><ele>695.0</ele><time>2026-04-12T09:49:32.001Z</time></trkpt><trkpt lat="42.37785" lon="12.2109666"><ele>695.0</ele><time>2026-04-12T09:49:33.001Z</time></trkpt><trkpt lat="42.3778923" lon="12.2110475"><ele>695.0</ele><time>2026-04-12T09:49:34.001Z</time></trkpt><trkpt lat="42.3779312" lon="12.2111741"><ele>695.0</ele><time>2026-04-12T09:49:35Z</time></trkpt><trkpt lat="42.3779623" lon="12.2112796"><ele>695.0</ele><time>2026-04-12T09:49:36.001Z</time></trkpt><trkpt lat="42.3779889" lon="12.2113769"><ele>695.0</ele><time>2026-04-12T09:49:37.001Z</time></trkpt><trkpt lat="42.3779971" lon="12.2114756"><ele>695.0</ele><time>2026-04-12T09:49:38Z</time></trkpt><trkpt lat="42.3780141" lon="12.2115901"><ele>694.0</ele><time>2026-04-12T09:49:39.001Z</time></trkpt><trkpt lat="42.3780255" lon="12.2116969"><ele>693.0</ele><time>2026-04-12T09:49:40.001Z</time></trkpt><trkpt lat="42.3780763" lon="12.211795"><ele>692.0</ele><time>2026-04-12T09:49:42Z</time></trkpt><trkpt lat="42.3781224" lon="12.2118576"><ele>691.0</ele><time>2026-04-12T09:49:44.001Z</time></trkpt><trkpt lat="42.3781445" lon="12.2119846"><ele>690.0</ele><time>2026-04-12T09:49:54.001Z</time></trkpt><trkpt lat="42.3781053" lon="12.2121582"><ele>690.0</ele><time>2026-04-12T09:49:56.001Z</time></trkpt><trkpt lat="42.3781016" lon="12.2122814"><ele>690.0</ele><time>2026-04-12T09:49:57.001Z</time></trkpt><trkpt lat="42.378077" lon="12.2123901"><ele>690.0</ele><time>2026-04-12T09:49:58.001Z</time></trkpt><trkpt lat="42.3780606" lon="12.2124923"><ele>690.0</ele><time>2026-04-12T09:49:59Z</time></trkpt><trkpt lat="42.3780393" lon="12.2125895"><ele>690.0</ele><time>2026-04-12T09:50:00Z</time></trkpt><trkpt lat="42.3780027" lon="12.2127752"><ele>688.2</ele><time>2026-04-12T09:50:02Z</time></trkpt><trkpt lat="42.3779875" lon="12.2128794"><ele>686.4</ele><time>2026-04-12T09:50:03.001Z</time></trkpt><trkpt lat="42.3779669" lon="12.2130061"><ele>684.5999999999999</ele><time>2026-04-12T09:50:04.001Z</time></trkpt><trkpt lat="42.3779503" lon="12.2131295"><ele>682.8</ele><time>2026-04-12T09:50:05.001Z</time></trkpt><trkpt lat="42.3779359" lon="12.2132541"><ele>681.0</ele><time>2026-04-12T09:50:06Z</time></trkpt><trkpt lat="42.3779213" lon="12.2133776"><ele>680.6666666666666</ele><time>2026-04-12T09:50:07Z</time></trkpt><trkpt lat="42.3779098" lon="12.2134903"><ele>680.3333333333334</ele><time>2026-04-12T09:50:08.001Z</time></trkpt><trkpt lat="42.377887" lon="12.213603"><ele>680.0</ele><time>2026-04-12T09:50:09.001Z</time></trkpt><trkpt lat="42.3778522" lon="12.2137152"><ele>679.6666666666667</ele><time>2026-04-12T09:50:10.001Z</time></trkpt><trkpt lat="42.377829" lon="12.2138321"><ele>679.3333333333334</ele><time>2026-04-12T09:50:11.001Z</time></trkpt><trkpt lat="42.3778215" lon="12.2139517"><ele>679.0</ele><time>2026-04-12T09:50:11.999Z</time></trkpt><trkpt lat="42.3778019" lon="12.2140712"><ele>678.75</ele><time>2026-04-12T09:50:13.001Z</time></trkpt><trkpt lat="42.3777993" lon="12.2142159"><ele>678.5</ele><time>2026-04-12T09:50:14.001Z</time></trkpt><trkpt lat="42.3777799" lon="12.2143901"><ele>678.25</ele><time>2026-04-12T09:50:15Z</time></trkpt><trkpt lat="42.3777766" lon="12.2145865"><ele>678.0</ele><time>2026-04-12T09:50:16Z</time></trkpt><trkpt lat="42.3777522" lon="12.2147369"><ele>677.25</ele><time>2026-04-12T09:50:17.001Z</time></trkpt><trkpt lat="42.3777022" lon="12.2148577"><ele>676.5</ele><time>2026-04-12T09:50:18Z</time></trkpt><trkpt lat="42.3776319" lon="12.2149904"><ele>675.75</ele><time>2026-04-12T09:50:19Z</time></trkpt><trkpt lat="42.3775629" lon="12.2151347"><ele>675.0</ele><time>2026-04-12T09:50:20.001Z</time></trkpt><trkpt lat="42.3774968" lon="12.2152825"><ele>675.0</ele><time>2026-04-12T09:50:21.001Z</time></trkpt><trkpt lat="42.3774269" lon="12.2154193"><ele>675.0</ele><time>2026-04-12T09:50:22Z</time></trkpt><trkpt lat="42.3773529" lon="12.2155497"><ele>675.0</ele><time>2026-04-12T09:50:23.001Z</time></trkpt><trkpt lat="42.377271" lon="12.2156586"><ele>675.0</ele><time>2026-04-12T09:50:24Z</time></trkpt><trkpt lat="42.3771881" lon="12.2157667"><ele>671.4</ele><time>2026-04-12T09:50:25Z</time></trkpt><trkpt lat="42.3771069" lon="12.2158658"><ele>667.8</ele><time>2026-04-12T09:50:26Z</time></trkpt><trkpt lat="42.3770296" lon="12.2159813"><ele>664.2</ele><time>2026-04-12T09:50:27.001Z</time></trkpt><trkpt lat="42.3769591" lon="12.2160868"><ele>660.6</ele><time>2026-04-12T09:50:28.001Z</time></trkpt><trkpt lat="42.3769006" lon="12.2161795"><ele>657.0</ele><time>2026-04-12T09:50:29.001Z</time></trkpt><trkpt lat="42.3768576" lon="12.2162585"><ele>657.0</ele><time>2026-04-12T09:50:30.001Z</time></trkpt><trkpt lat="42.3768255" lon="12.2163346"><ele>657.0</ele><time>2026-04-12T09:50:30.999Z</time></trkpt><trkpt lat="42.3767764" lon="12.216418"><ele>657.0</ele><time>2026-04-12T09:50:33.001Z</time></trkpt><trkpt lat="42.3767041" lon="12.2163532"><ele>657.0</ele><time>2026-04-12T09:50:36.001Z</time></trkpt><trkpt lat="42.3766795" lon="12.2162535"><ele>657.0</ele><time>2026-04-12T09:50:37Z</time></trkpt><trkpt lat="42.3766507" lon="12.2160399"><ele>657.0</ele><time>2026-04-12T09:50:38Z</time></trkpt><trkpt lat="42.3766579" lon="12.2158329"><ele>657.0</ele><time>2026-04-12T09:50:39Z</time></trkpt><trkpt lat="42.3766503" lon="12.2156777"><ele>657.0</ele><time>2026-04-12T09:50:40Z</time></trkpt><trkpt lat="42.3766348" lon="12.2155328"><ele>657.0</ele><time>2026-04-12T09:50:41Z</time></trkpt><trkpt lat="42.3766072" lon="12.2153623"><ele>657.6</ele><time>2026-04-12T09:50:42.001Z</time></trkpt><trkpt lat="42.3765848" lon="12.2152005"><ele>658.2</ele><time>2026-04-12T09:50:43Z</time></trkpt><trkpt lat="42.3765542" lon="12.2150771"><ele>658.8</ele><time>2026-04-12T09:50:44.001Z</time></trkpt><trkpt lat="42.376519" lon="12.2149696"><ele>659.4</ele><time>2026-04-12T09:50:45Z</time></trkpt><trkpt lat="42.3764633" lon="12.2148747"><ele>660.0</ele><time>2026-04-12T09:50:46.001Z</time></trkpt><trkpt lat="42.3764081" lon="12.2147903"><ele>662.8</ele><time>2026-04-12T09:50:47.001Z</time></trkpt><trkpt lat="42.376346" lon="12.214725"><ele>665.6</ele><time>2026-04-12T09:50:48.001Z</time></trkpt><trkpt lat="42.3762986" lon="12.2146549"><ele>668.4000000000001</ele><time>2026-04-12T09:50:49Z</time></trkpt><trkpt lat="42.3762482" lon="12.2145586"><ele>671.2</ele><time>2026-04-12T09:50:50.001Z</time></trkpt><trkpt lat="42.376167" lon="12.2144763"><ele>674.0</ele><time>2026-04-12T09:50:51.001Z</time></trkpt><trkpt lat="42.3760099" lon="12.2143832"><ele>674.0</ele><time>2026-04-12T09:50:52.001Z</time></trkpt><trkpt lat="42.3758946" lon="12.2142867"><ele>674.0</ele><time>2026-04-12T09:50:53.001Z</time></trkpt><trkpt lat="42.3757923" lon="12.214204"><ele>674.0</ele><time>2026-04-12T09:50:54Z</time></trkpt><trkpt lat="42.3756644" lon="12.2141307"><ele>674.0</ele><time>2026-04-12T09:50:55.001Z</time></trkpt><trkpt lat="42.3755222" lon="12.214092"><ele>675.8000000000001</ele><time>2026-04-12T09:50:56.001Z</time></trkpt><trkpt lat="42.3753919" lon="12.214031"><ele>677.6</ele><time>2026-04-12T09:50:57.001Z</time></trkpt><trkpt lat="42.375286" lon="12.2140492"><ele>679.4</ele><time>2026-04-12T09:50:58.001Z</time></trkpt><trkpt lat="42.3751873" lon="12.2140648"><ele>681.2</ele><time>2026-04-12T09:50:59.001Z</time></trkpt><trkpt lat="42.375092" lon="12.2141012"><ele>683.0</ele><time>2026-04-12T09:51:00.001Z</time></trkpt><trkpt lat="42.3749887" lon="12.214122"><ele>683.0</ele><time>2026-04-12T09:51:01Z</time></trkpt><trkpt lat="42.3748786" lon="12.21416"><ele>683.0</ele><time>2026-04-12T09:51:02.001Z</time></trkpt><trkpt lat="42.3748038" lon="12.2141295"><ele>683.0</ele><time>2026-04-12T09:51:02.999Z</time></trkpt><trkpt lat="42.3747494" lon="12.2140746"><ele>683.0</ele><time>2026-04-12T09:51:04Z</time></trkpt><trkpt lat="42.3747009" lon="12.2139792"><ele>683.0</ele><time>2026-04-12T09:51:05Z</time></trkpt><trkpt lat="42.3745932" lon="12.213881"><ele>687.25</ele><time>2026-04-12T09:51:06Z</time></trkpt><trkpt lat="42.3745" lon="12.2137911"><ele>691.5</ele><time>2026-04-12T09:51:07Z</time></trkpt><trkpt lat="42.374353" lon="12.2137037"><ele>695.75</ele><time>2026-04-12T09:51:08.001Z</time></trkpt><trkpt lat="42.3742389" lon="12.2136075"><ele>700.0</ele><time>2026-04-12T09:51:09Z</time></trkpt><trkpt lat="42.3741265" lon="12.2135087"><ele>700.0</ele><time>2026-04-12T09:51:10Z</time></trkpt><trkpt lat="42.3740442" lon="12.2134346"><ele>700.0</ele><time>2026-04-12T09:51:11.001Z</time></trkpt><trkpt lat="42.373949" lon="12.2133532"><ele>700.0</ele><time>2026-04-12T09:51:12Z</time></trkpt><trkpt lat="42.373854" lon="12.2132689"><ele>700.0</ele><time>2026-04-12T09:51:13.001Z</time></trkpt><trkpt lat="42.3738078" lon="12.2131329"><ele>700.0</ele><time>2026-04-12T09:51:14Z</time></trkpt><trkpt lat="42.3737305" lon="12.2130709"><ele>702.8</ele><time>2026-04-12T09:51:15.001Z</time></trkpt><trkpt lat="42.3736534" lon="12.2130274"><ele>705.6</ele><time>2026-04-12T09:51:16.001Z</time></trkpt><trkpt lat="42.3735196" lon="12.2130134"><ele>708.4000000000001</ele><time>2026-04-12T09:51:17Z</time></trkpt><trkpt lat="42.3734213" lon="12.212975"><ele>711.2</ele><time>2026-04-12T09:51:18.001Z</time></trkpt><trkpt lat="42.3733341" lon="12.2129896"><ele>714.0</ele><time>2026-04-12T09:51:19.001Z</time></trkpt><trkpt lat="42.373209" lon="12.2130089"><ele>714.0</ele><time>2026-04-12T09:51:20.001Z</time></trkpt><trkpt lat="42.3730954" lon="12.2130699"><ele>714.0</ele><time>2026-04-12T09:51:21.001Z</time></trkpt><trkpt lat="42.3729892" lon="12.2130886"><ele>714.0</ele><time>2026-04-12T09:51:22.001Z</time></trkpt><trkpt lat="42.372857" lon="12.2131327"><ele>714.0</ele><time>2026-04-12T09:51:24.001Z</time></trkpt><trkpt lat="42.3727939" lon="12.2131566"><ele>714.0</ele><time>2026-04-12T09:51:27.001Z</time></trkpt><trkpt lat="42.3727308" lon="12.2131334"><ele>714.8000000000001</ele><time>2026-04-12T09:51:47.001Z</time></trkpt><trkpt lat="42.3726782" lon="12.2130661"><ele>715.6</ele><time>2026-04-12T09:51:49Z</time></trkpt><trkpt lat="42.3726038" lon="12.2130157"><ele>716.4</ele><time>2026-04-12T09:51:50.001Z</time></trkpt><trkpt lat="42.3725393" lon="12.2129309"><ele>717.2</ele><time>2026-04-12T09:51:51.001Z</time></trkpt><trkpt lat="42.3724426" lon="12.2128498"><ele>718.0</ele><time>2026-04-12T09:51:52Z</time></trkpt><trkpt lat="42.3723445" lon="12.2127639"><ele>718.0</ele><time>2026-04-12T09:51:53.001Z</time></trkpt><trkpt lat="42.3722603" lon="12.2126788"><ele>718.0</ele><time>2026-04-12T09:51:54.001Z</time></trkpt><trkpt lat="42.3721923" lon="12.2125861"><ele>718.0</ele><time>2026-04-12T09:51:55.001Z</time></trkpt><trkpt lat="42.3721432" lon="12.212527"><ele>718.0</ele><time>2026-04-12T09:51:56.001Z</time></trkpt><trkpt lat="42.3721209" lon="12.2124433"><ele>718.0</ele><time>2026-04-12T09:51:57.001Z</time></trkpt><trkpt lat="42.3720832" lon="12.2123489"><ele>718.0</ele><time>2026-04-12T09:51:58Z</time></trkpt><trkpt lat="42.3720439" lon="12.2122421"><ele>718.2</ele><time>2026-04-12T09:51:59.001Z</time></trkpt><trkpt lat="42.3719951" lon="12.2121259"><ele>718.4</ele><time>2026-04-12T09:52:00.001Z</time></trkpt><trkpt lat="42.3719447" lon="12.2119802"><ele>718.6</ele><time>2026-04-12T09:52:01.001Z</time></trkpt><trkpt lat="42.3719135" lon="12.2118406"><ele>718.8000000000001</ele><time>2026-04-12T09:52:02.001Z</time></trkpt><trkpt lat="42.3718814" lon="12.2117117"><ele>719.0</ele><time>2026-04-12T09:52:03.001Z</time></trkpt><trkpt lat="42.3718489" lon="12.2115846"><ele>719.8000000000001</ele><time>2026-04-12T09:52:04.001Z</time></trkpt><trkpt lat="42.3718412" lon="12.2114491"><ele>720.6</ele><time>2026-04-12T09:52:05.001Z</time></trkpt><trkpt lat="42.3718383" lon="12.2113365"><ele>721.4</ele><time>2026-04-12T09:52:06.001Z</time></trkpt><trkpt lat="42.3718433" lon="12.2112226"><ele>722.2</ele><time>2026-04-12T09:52:07.001Z</time></trkpt><trkpt lat="42.3718584" lon="12.2110872"><ele>723.0</ele><time>2026-04-12T09:52:08Z</time></trkpt><trkpt lat="42.3718816" lon="12.2109291"><ele>723.0</ele><time>2026-04-12T09:52:09.001Z</time></trkpt><trkpt lat="42.3718993" lon="12.2108072"><ele>723.0</ele><time>2026-04-12T09:52:10.001Z</time></trkpt><trkpt lat="42.3719156" lon="12.2106504"><ele>723.0</ele><time>2026-04-12T09:52:11.001Z</time></trkpt><trkpt lat="42.3719307" lon="12.2104898"><ele>723.0</ele><time>2026-04-12T09:52:12.001Z</time></trkpt><trkpt lat="42.3719351" lon="12.2103517"><ele>723.0</ele><time>2026-04-12T09:52:13.001Z</time></trkpt><trkpt lat="42.3719586" lon="12.2101607"><ele>724.0</ele><time>2026-04-12T09:52:14Z</time></trkpt><trkpt lat="42.3719802" lon="12.2100018"><ele>725.0</ele><time>2026-04-12T09:52:15Z</time></trkpt><trkpt lat="42.3720083" lon="12.2098646"><ele>726.0</ele><time>2026-04-12T09:52:16.001Z</time></trkpt><trkpt lat="42.3720442" lon="12.2097156"><ele>727.0</ele><time>2026-04-12T09:52:17.001Z</time></trkpt><trkpt lat="42.3720495" lon="12.2095406"><ele>727.8</ele><time>2026-04-12T09:52:18.001Z</time></trkpt><trkpt lat="42.3720326" lon="12.2093899"><ele>728.6</ele><time>2026-04-12T09:52:19.001Z</time></trkpt><trkpt lat="42.3720196" lon="12.2092386"><ele>729.4</ele><time>2026-04-12T09:52:20.001Z</time></trkpt><trkpt lat="42.3720169" lon="12.2091105"><ele>730.1999999999999</ele><time>2026-04-12T09:52:21.001Z</time></trkpt><trkpt lat="42.3719952" lon="12.2089618"><ele>731.0</ele><time>2026-04-12T09:52:23.001Z</time></trkpt><trkpt lat="42.3720016" lon="12.2088736"><ele>731.8333333333333</ele><time>2026-04-12T09:52:24.001Z</time></trkpt><trkpt lat="42.3720078" lon="12.2087805"><ele>732.6666666666666</ele><time>2026-04-12T09:52:26.001Z</time></trkpt><trkpt lat="42.372026" lon="12.2086563"><ele>733.5</ele><time>2026-04-12T09:52:33.001Z</time></trkpt><trkpt lat="42.3720568" lon="12.2085667"><ele>734.3333333333334</ele><time>2026-04-12T09:52:34Z</time></trkpt><trkpt lat="42.3720864" lon="12.208426"><ele>735.1666666666667</ele><time>2026-04-12T09:52:36.001Z</time></trkpt><trkpt lat="42.3720794" lon="12.2083199"><ele>736.0</ele><time>2026-04-12T09:52:38.001Z</time></trkpt><trkpt lat="42.3720213" lon="12.2082251"><ele>736.0</ele><time>2026-04-12T09:52:40.001Z</time></trkpt><trkpt lat="42.3719708" lon="12.2081657"><ele>736.0</ele><time>2026-04-12T09:52:41.001Z</time></trkpt><trkpt lat="42.3719121" lon="12.2081003"><ele>736.0</ele><time>2026-04-12T09:52:42.001Z</time></trkpt><trkpt lat="42.3718599" lon="12.2080356"><ele>736.0</ele><time>2026-04-12T09:52:43.001Z</time></trkpt><trkpt lat="42.3718019" lon="12.2079903"><ele>736.0</ele><time>2026-04-12T09:52:44.001Z</time></trkpt><trkpt lat="42.3716757" lon="12.2079413"><ele>736.0</ele><time>2026-04-12T09:52:46.001Z</time></trkpt><trkpt lat="42.3715021" lon="12.2079021"><ele>737.75</ele><time>2026-04-12T09:52:47Z</time></trkpt><trkpt lat="42.3713934" lon="12.207861"><ele>739.5</ele><time>2026-04-12T09:52:48Z</time></trkpt><trkpt lat="42.3712868" lon="12.2078318"><ele>741.25</ele><time>2026-04-12T09:52:49Z</time></trkpt><trkpt lat="42.371179" lon="12.2078205"><ele>743.0</ele><time>2026-04-12T09:52:50Z</time></trkpt><trkpt lat="42.3710494" lon="12.2078495"><ele>743.5999999999999</ele><time>2026-04-12T09:52:51.001Z</time></trkpt><trkpt lat="42.3709368" lon="12.2078962"><ele>744.1999999999999</ele><time>2026-04-12T09:52:52.001Z</time></trkpt><trkpt lat="42.3708553" lon="12.2079452"><ele>744.8</ele><time>2026-04-12T09:52:53.001Z</time></trkpt><trkpt lat="42.3707585" lon="12.2079816"><ele>745.4</ele><time>2026-04-12T09:52:54.001Z</time></trkpt><trkpt lat="42.3706524" lon="12.2080213"><ele>746.0</ele><time>2026-04-12T09:52:55.001Z</time></trkpt><trkpt lat="42.3705538" lon="12.2080443"><ele>744.6666666666666</ele><time>2026-04-12T09:52:56Z</time></trkpt><trkpt lat="42.3704636" lon="12.2080693"><ele>743.3333333333333</ele><time>2026-04-12T09:52:57Z</time></trkpt><trkpt lat="42.370408" lon="12.2079629"><ele>742.0</ele><time>2026-04-12T09:52:59.001Z</time></trkpt><trkpt lat="42.3703368" lon="12.2078515"><ele>740.6666666666666</ele><time>2026-04-12T09:53:01.001Z</time></trkpt><trkpt lat="42.3702795" lon="12.2077767"><ele>739.3333333333334</ele><time>2026-04-12T09:53:02.001Z</time></trkpt><trkpt lat="42.3702299" lon="12.2077162"><ele>738.0</ele><time>2026-04-12T09:53:03.001Z</time></trkpt><trkpt lat="42.3701584" lon="12.2076775"><ele>738.0</ele><time>2026-04-12T09:53:04Z</time></trkpt><trkpt lat="42.3700993" lon="12.2076091"><ele>738.0</ele><time>2026-04-12T09:53:05.001Z</time></trkpt><trkpt lat="42.3700121" lon="12.2075151"><ele>738.0</ele><time>2026-04-12T09:53:07.001Z</time></trkpt><trkpt lat="42.3699271" lon="12.2073896"><ele>738.0</ele><time>2026-04-12T09:53:09.001Z</time></trkpt><trkpt lat="42.3698544" lon="12.2073038"><ele>738.0</ele><time>2026-04-12T09:53:11.001Z</time></trkpt><trkpt lat="42.369771" lon="12.2073324"><ele>738.0</ele><time>2026-04-12T09:53:13Z</time></trkpt><trkpt lat="42.3697481" lon="12.2074209"><ele>738.0</ele><time>2026-04-12T09:53:15.001Z</time></trkpt><trkpt lat="42.3697451" lon="12.207593"><ele>738.0</ele><time>2026-04-12T09:53:17Z</time></trkpt><trkpt lat="42.3697492" lon="12.2076813"><ele>738.0</ele><time>2026-04-12T09:53:18.001Z</time></trkpt><trkpt lat="42.3697605" lon="12.2077829"><ele>738.0</ele><time>2026-04-12T09:53:19.001Z</time></trkpt><trkpt lat="42.3697811" lon="12.2078763"><ele>738.0</ele><time>2026-04-12T09:53:20.001Z</time></trkpt><trkpt lat="42.3697976" lon="12.2079762"><ele>738.0</ele><time>2026-04-12T09:53:21.001Z</time></trkpt><trkpt lat="42.3698033" lon="12.2080619"><ele>738.0</ele><time>2026-04-12T09:53:22.001Z</time></trkpt><trkpt lat="42.3698094" lon="12.2081549"><ele>738.0</ele><time>2026-04-12T09:53:23.001Z</time></trkpt><trkpt lat="42.3698187" lon="12.2082445"><ele>738.0</ele><time>2026-04-12T09:53:24.001Z</time></trkpt><trkpt lat="42.3698375" lon="12.2083503"><ele>738.0</ele><time>2026-04-12T09:53:25Z</time></trkpt><trkpt lat="42.3698561" lon="12.2084398"><ele>738.0</ele><time>2026-04-12T09:53:26.001Z</time></trkpt><trkpt lat="42.3698847" lon="12.2085405"><ele>738.0</ele><time>2026-04-12T09:53:27.001Z</time></trkpt><trkpt lat="42.3698798" lon="12.2086512"><ele>736.6666666666666</ele><time>2026-04-12T09:53:28.001Z</time></trkpt><trkpt lat="42.3698974" lon="12.2087442"><ele>735.3333333333334</ele><time>2026-04-12T09:53:29.001Z</time></trkpt><trkpt lat="42.3698922" lon="12.2088418"><ele>734.0</ele><time>2026-04-12T09:53:30.001Z</time></trkpt><trkpt lat="42.369906" lon="12.2089318"><ele>732.6666666666667</ele><time>2026-04-12T09:53:31.001Z</time></trkpt><trkpt lat="42.3699299" lon="12.2090463"><ele>731.3333333333334</ele><time>2026-04-12T09:53:32Z</time></trkpt><trkpt lat="42.3699465" lon="12.2091514"><ele>730.0</ele><time>2026-04-12T09:53:33.001Z</time></trkpt><trkpt lat="42.3699572" lon="12.2092659"><ele>728.8333333333334</ele><time>2026-04-12T09:53:34.001Z</time></trkpt><trkpt lat="42.3699777" lon="12.2093673"><ele>727.6666666666667</ele><time>2026-04-12T09:53:35.001Z</time></trkpt><trkpt lat="42.3699805" lon="12.2094765"><ele>726.5</ele><time>2026-04-12T09:53:36.001Z</time></trkpt><trkpt lat="42.3699897" lon="12.2095641"><ele>725.3333333333334</ele><time>2026-04-12T09:53:37.001Z</time></trkpt><trkpt lat="42.3699519" lon="12.2097216"><ele>724.1666666666666</ele><time>2026-04-12T09:53:38.001Z</time></trkpt><trkpt lat="42.3699561" lon="12.2098424"><ele>723.0</ele><time>2026-04-12T09:53:39.001Z</time></trkpt><trkpt lat="42.3699687" lon="12.20996"><ele>721.8</ele><time>2026-04-12T09:53:40.001Z</time></trkpt><trkpt lat="42.369978" lon="12.2100484"><ele>720.5999999999999</ele><time>2026-04-12T09:53:41.001Z</time></trkpt><trkpt lat="42.3699771" lon="12.2101547"><ele>719.4000000000001</ele><time>2026-04-12T09:53:42.001Z</time></trkpt><trkpt lat="42.3699431" lon="12.2103428"><ele>718.2</ele><time>2026-04-12T09:53:44.001Z</time></trkpt><trkpt lat="42.3699295" lon="12.2104328"><ele>717.0</ele><time>2026-04-12T09:53:45.001Z</time></trkpt><trkpt lat="42.3699082" lon="12.2106036"><ele>716.0</ele><time>2026-04-12T09:53:47.001Z</time></trkpt><trkpt lat="42.3698791" lon="12.2106995"><ele>715.0</ele><time>2026-04-12T09:53:48.001Z</time></trkpt><trkpt lat="42.3698607" lon="12.2108503"><ele>714.0</ele><time>2026-04-12T09:53:49Z</time></trkpt><trkpt lat="42.3698311" lon="12.21095"><ele>713.0</ele><time>2026-04-12T09:53:50.001Z</time></trkpt><trkpt lat="42.3697749" lon="12.2111021"><ele>712.0</ele><time>2026-04-12T09:53:51.001Z</time></trkpt><trkpt lat="42.3697296" lon="12.2112328"><ele>712.0</ele><time>2026-04-12T09:53:51.999Z</time></trkpt><trkpt lat="42.3697273" lon="12.2113426"><ele>712.0</ele><time>2026-04-12T09:53:53.001Z</time></trkpt><trkpt lat="42.369695" lon="12.2114529"><ele>712.0</ele><time>2026-04-12T09:53:54.001Z</time></trkpt><trkpt lat="42.369676" lon="12.2115344"><ele>712.0</ele><time>2026-04-12T09:53:56.001Z</time></trkpt><trkpt lat="42.3696195" lon="12.2115765"><ele>712.0</ele><time>2026-04-12T09:54:01Z</time></trkpt><trkpt lat="42.36949" lon="12.2115226"><ele>712.0</ele><time>2026-04-12T09:54:04Z</time></trkpt><trkpt lat="42.3693347" lon="12.2114502"><ele>712.6</ele><time>2026-04-12T09:54:06.001Z</time></trkpt><trkpt lat="42.3692482" lon="12.2113479"><ele>713.2</ele><time>2026-04-12T09:54:06.999Z</time></trkpt><trkpt lat="42.3691815" lon="12.2112642"><ele>713.8</ele><time>2026-04-12T09:54:08.001Z</time></trkpt><trkpt lat="42.3691092" lon="12.2111894"><ele>714.4</ele><time>2026-04-12T09:54:09Z</time></trkpt><trkpt lat="42.3690393" lon="12.2111161"><ele>715.0</ele><time>2026-04-12T09:54:10Z</time></trkpt><trkpt lat="42.3689599" lon="12.2110418"><ele>715.0</ele><time>2026-04-12T09:54:11.001Z</time></trkpt><trkpt lat="42.3688688" lon="12.2109079"><ele>715.0</ele><time>2026-04-12T09:54:12.001Z</time></trkpt><trkpt lat="42.3689125" lon="12.2107582"><ele>715.0</ele><time>2026-04-12T09:54:13Z</time></trkpt><trkpt lat="42.3688778" lon="12.2106504"><ele>715.0</ele><time>2026-04-12T09:54:14.001Z</time></trkpt><trkpt lat="42.3688518" lon="12.2105575"><ele>715.0</ele><time>2026-04-12T09:54:15Z</time></trkpt><trkpt lat="42.3687832" lon="12.210446"><ele>714.4</ele><time>2026-04-12T09:54:16.001Z</time></trkpt><trkpt lat="42.3687365" lon="12.2103403"><ele>713.8</ele><time>2026-04-12T09:54:17.001Z</time></trkpt><trkpt lat="42.3686415" lon="12.2102406"><ele>713.2</ele><time>2026-04-12T09:54:18.001Z</time></trkpt><trkpt lat="42.3685723" lon="12.2101658"><ele>712.6</ele><time>2026-04-12T09:54:19.001Z</time></trkpt><trkpt lat="42.3685006" lon="12.2100778"><ele>712.0</ele><time>2026-04-12T09:54:20.001Z</time></trkpt><trkpt lat="42.3684738" lon="12.2099538"><ele>712.0</ele><time>2026-04-12T09:54:21.001Z</time></trkpt><trkpt lat="42.3684317" lon="12.2098497"><ele>712.0</ele><time>2026-04-12T09:54:22Z</time></trkpt><trkpt lat="42.3684181" lon="12.2097213"><ele>712.0</ele><time>2026-04-12T09:54:23.001Z</time></trkpt><trkpt lat="42.3684058" lon="12.2095974"><ele>712.0</ele><time>2026-04-12T09:54:24Z</time></trkpt><trkpt lat="42.3683836" lon="12.2092815"><ele>712.8</ele><time>2026-04-12T09:54:26.001Z</time></trkpt><trkpt lat="42.3683763" lon="12.2091497"><ele>713.6</ele><time>2026-04-12T09:54:27.001Z</time></trkpt><trkpt lat="42.3683856" lon="12.2089962"><ele>714.4</ele><time>2026-04-12T09:54:28.001Z</time></trkpt><trkpt lat="42.3683737" lon="12.2088685"><ele>715.1999999999999</ele><time>2026-04-12T09:54:29.001Z</time></trkpt><trkpt lat="42.3683513" lon="12.2087406"><ele>716.0</ele><time>2026-04-12T09:54:30.001Z</time></trkpt><trkpt lat="42.3683602" lon="12.2085487"><ele>716.5999999999999</ele><time>2026-04-12T09:54:32Z</time></trkpt><trkpt lat="42.3683388" lon="12.2084165"><ele>717.2</ele><time>2026-04-12T09:54:33.001Z</time></trkpt><trkpt lat="42.3683226" lon="12.2082911"><ele>717.8</ele><time>2026-04-12T09:54:34Z</time></trkpt><trkpt lat="42.3683017" lon="12.2081654"><ele>718.4000000000001</ele><time>2026-04-12T09:54:35.001Z</time></trkpt><trkpt lat="42.3682673" lon="12.2080337"><ele>719.0</ele><time>2026-04-12T09:54:36.001Z</time></trkpt><trkpt lat="42.3682213" lon="12.2079076"><ele>719.5</ele><time>2026-04-12T09:54:37.001Z</time></trkpt><trkpt lat="42.3681899" lon="12.207734"><ele>720.0</ele><time>2026-04-12T09:54:38.001Z</time></trkpt><trkpt lat="42.3681506" lon="12.2076157"><ele>720.5</ele><time>2026-04-12T09:54:39.001Z</time></trkpt><trkpt lat="42.3681038" lon="12.2074609"><ele>721.0</ele><time>2026-04-12T09:54:40.999Z</time></trkpt><trkpt lat="42.3681454" lon="12.2073283"><ele>722.4</ele><time>2026-04-12T09:54:42.001Z</time></trkpt><trkpt lat="42.3681511" lon="12.2072209"><ele>723.8</ele><time>2026-04-12T09:54:43.001Z</time></trkpt><trkpt lat="42.3681654" lon="12.2071223"><ele>725.1999999999999</ele><time>2026-04-12T09:54:44Z</time></trkpt><trkpt lat="42.3681574" lon="12.2069317"><ele>726.5999999999999</ele><time>2026-04-12T09:54:46.001Z</time></trkpt><trkpt lat="42.3680733" lon="12.2068296"><ele>728.0</ele><time>2026-04-12T09:54:47Z</time></trkpt><trkpt lat="42.368032" lon="12.2067639"><ele>728.3333333333333</ele><time>2026-04-12T09:54:48Z</time></trkpt><trkpt lat="42.367997" lon="12.2066875"><ele>728.6666666666666</ele><time>2026-04-12T09:54:49.001Z</time></trkpt><trkpt lat="42.3679473" lon="12.2066239"><ele>729.0</ele><time>2026-04-12T09:54:49.999Z</time></trkpt><trkpt lat="42.3679421" lon="12.206522"><ele>729.3333333333334</ele><time>2026-04-12T09:54:53.001Z</time></trkpt><trkpt lat="42.3679224" lon="12.2064289"><ele>729.6666666666667</ele><time>2026-04-12T09:54:59Z</time></trkpt><trkpt lat="42.3679513" lon="12.2063226"><ele>730.0</ele><time>2026-04-12T09:55:01.001Z</time></trkpt><trkpt lat="42.3679993" lon="12.2062086"><ele>731.1666666666667</ele><time>2026-04-12T09:55:03.001Z</time></trkpt><trkpt lat="42.3679923" lon="12.206097"><ele>732.3333333333334</ele><time>2026-04-12T09:55:05.001Z</time></trkpt><trkpt lat="42.3679742" lon="12.205995"><ele>733.5</ele><time>2026-04-12T09:55:07.001Z</time></trkpt><trkpt lat="42.3679914" lon="12.205883"><ele>734.6666666666666</ele><time>2026-04-12T09:55:09.001Z</time></trkpt><trkpt lat="42.3680672" lon="12.2058199"><ele>735.8333333333333</ele><time>2026-04-12T09:55:13.001Z</time></trkpt><trkpt lat="42.3681141" lon="12.2057265"><ele>737.0</ele><time>2026-04-12T09:55:16Z</time></trkpt><trkpt lat="42.3681557" lon="12.2056488"><ele>737.0</ele><time>2026-04-12T09:55:33.001Z</time></trkpt><trkpt lat="42.3682224" lon="12.2056501"><ele>737.0</ele><time>2026-04-12T09:55:35.001Z</time></trkpt><trkpt lat="42.3682918" lon="12.2056553"><ele>737.0</ele><time>2026-04-12T09:55:38.001Z</time></trkpt><trkpt lat="42.3683925" lon="12.205671"><ele>737.0</ele><time>2026-04-12T09:55:41.001Z</time></trkpt><trkpt lat="42.3684594" lon="12.2057222"><ele>737.0</ele><time>2026-04-12T09:55:43Z</time></trkpt><trkpt lat="42.3685338" lon="12.2057478"><ele>737.0</ele><time>2026-04-12T09:55:45.001Z</time></trkpt><trkpt lat="42.3684904" lon="12.2056626"><ele>738.4000000000001</ele><time>2026-04-12T09:55:53.001Z</time></trkpt><trkpt lat="42.3684869" lon="12.2055159"><ele>739.8000000000001</ele><time>2026-04-12T09:55:55Z</time></trkpt><trkpt lat="42.3684716" lon="12.2053577"><ele>741.2</ele><time>2026-04-12T09:56:07.001Z</time></trkpt><trkpt lat="42.3684632" lon="12.205236"><ele>742.6</ele><time>2026-04-12T09:56:09.001Z</time></trkpt><trkpt lat="42.3684898" lon="12.2051399"><ele>744.0</ele><time>2026-04-12T09:56:11.001Z</time></trkpt><trkpt lat="42.368553" lon="12.2051974"><ele>744.0</ele><time>2026-04-12T09:56:15.001Z</time></trkpt><trkpt lat="42.3685975" lon="12.2053089"><ele>744.0</ele><time>2026-04-12T09:56:16.001Z</time></trkpt><trkpt lat="42.3686958" lon="12.2054613"><ele>744.0</ele><time>2026-04-12T09:56:17.001Z</time></trkpt><trkpt lat="42.368758" lon="12.2055641"><ele>744.0</ele><time>2026-04-12T09:56:18Z</time></trkpt><trkpt lat="42.368817" lon="12.2056324"><ele>744.0</ele><time>2026-04-12T09:56:19.001Z</time></trkpt><trkpt lat="42.3689592" lon="12.2057137"><ele>745.2857142857143</ele><time>2026-04-12T09:56:21.001Z</time></trkpt><trkpt lat="42.3690277" lon="12.2057503"><ele>746.5714285714286</ele><time>2026-04-12T09:56:23Z</time></trkpt><trkpt lat="42.3690993" lon="12.2057901"><ele>747.8571428571429</ele><time>2026-04-12T09:56:26.001Z</time></trkpt><trkpt lat="42.3691535" lon="12.2057429"><ele>749.1428571428571</ele><time>2026-04-12T09:56:34.001Z</time></trkpt><trkpt lat="42.3692225" lon="12.205699"><ele>750.4285714285714</ele><time>2026-04-12T09:56:37.001Z</time></trkpt><trkpt lat="42.3692849" lon="12.2056714"><ele>751.7142857142858</ele><time>2026-04-12T09:56:39.001Z</time></trkpt><trkpt lat="42.3693518" lon="12.2056189"><ele>753.0</ele><time>2026-04-12T09:56:41.001Z</time></trkpt><trkpt lat="42.3694267" lon="12.2055945"><ele>753.0</ele><time>2026-04-12T09:56:43.001Z</time></trkpt><trkpt lat="42.3695596" lon="12.2056231"><ele>753.0</ele><time>2026-04-12T09:56:45.001Z</time></trkpt><trkpt lat="42.3696524" lon="12.2056527"><ele>753.0</ele><time>2026-04-12T09:56:46.001Z</time></trkpt><trkpt lat="42.369741" lon="12.2056913"><ele>753.0</ele><time>2026-04-12T09:56:48.001Z</time></trkpt><trkpt lat="42.3698049" lon="12.205726"><ele>753.0</ele><time>2026-04-12T09:56:50.001Z</time></trkpt><trkpt lat="42.3698359" lon="12.2058118"><ele>753.0</ele><time>2026-04-12T09:56:52.001Z</time></trkpt><trkpt lat="42.369833" lon="12.2059304"><ele>753.0</ele><time>2026-04-12T09:56:53.999Z</time></trkpt><trkpt lat="42.3698335" lon="12.2060854"><ele>753.0</ele><time>2026-04-12T09:56:56.001Z</time></trkpt><trkpt lat="42.3698347" lon="12.2061814"><ele>753.0</ele><time>2026-04-12T09:56:57.001Z</time></trkpt><trkpt lat="42.3698353" lon="12.2062728"><ele>753.0</ele><time>2026-04-12T09:56:58.001Z</time></trkpt><trkpt lat="42.3698424" lon="12.2063912"><ele>753.0</ele><time>2026-04-12T09:56:59.001Z</time></trkpt><trkpt lat="42.3698458" lon="12.2064874"><ele>752.0</ele><time>2026-04-12T09:57:00.001Z</time></trkpt><trkpt lat="42.3698374" lon="12.2065901"><ele>751.0</ele><time>2026-04-12T09:57:01.001Z</time></trkpt><trkpt lat="42.3698219" lon="12.2066806"><ele>750.0</ele><time>2026-04-12T09:57:02Z</time></trkpt><trkpt lat="42.3698175" lon="12.2067697"><ele>749.0</ele><time>2026-04-12T09:57:03.001Z</time></trkpt><trkpt lat="42.3698127" lon="12.2068587"><ele>748.0</ele><time>2026-04-12T09:57:04.001Z</time></trkpt><trkpt lat="42.3697979" lon="12.2069435"><ele>747.0</ele><time>2026-04-12T09:57:05.001Z</time></trkpt><trkpt lat="42.3697707" lon="12.2070904"><ele>747.0</ele><time>2026-04-12T09:57:07.001Z</time></trkpt><trkpt lat="42.3697597" lon="12.2072365"><ele>747.0</ele><time>2026-04-12T09:57:09Z</time></trkpt><trkpt lat="42.369751" lon="12.2073267"><ele>747.0</ele><time>2026-04-12T09:57:10.001Z</time></trkpt><trkpt lat="42.3697473" lon="12.2074252"><ele>747.0</ele><time>2026-04-12T09:57:11.001Z</time></trkpt><trkpt lat="42.3697439" lon="12.2075211"><ele>747.0</ele><time>2026-04-12T09:57:12.001Z</time></trkpt><trkpt lat="42.3697343" lon="12.2076193"><ele>747.0</ele><time>2026-04-12T09:57:13Z</time></trkpt><trkpt lat="42.3697486" lon="12.2077076"><ele>745.5</ele><time>2026-04-12T09:57:14.001Z</time></trkpt><trkpt lat="42.3697663" lon="12.2078037"><ele>744.0</ele><time>2026-04-12T09:57:15.001Z</time></trkpt><trkpt lat="42.3697942" lon="12.2078925"><ele>742.5</ele><time>2026-04-12T09:57:16.001Z</time></trkpt><trkpt lat="42.3698072" lon="12.2079793"><ele>741.0</ele><time>2026-04-12T09:57:17.001Z</time></trkpt><trkpt lat="42.3698256" lon="12.2081484"><ele>739.5</ele><time>2026-04-12T09:57:19Z</time></trkpt><trkpt lat="42.3698363" lon="12.2082404"><ele>738.0</ele><time>2026-04-12T09:57:20.001Z</time></trkpt><trkpt lat="42.3698436" lon="12.2083364"><ele>736.6666666666666</ele><time>2026-04-12T09:57:21.001Z</time></trkpt><trkpt lat="42.3698571" lon="12.2084432"><ele>735.3333333333334</ele><time>2026-04-12T09:57:22Z</time></trkpt><trkpt lat="42.3698791" lon="12.2085323"><ele>734.0</ele><time>2026-04-12T09:57:23Z</time></trkpt><trkpt lat="42.369891" lon="12.2086306"><ele>732.6666666666667</ele><time>2026-04-12T09:57:24.001Z</time></trkpt><trkpt lat="42.3698888" lon="12.208731"><ele>731.3333333333334</ele><time>2026-04-12T09:57:25Z</time></trkpt><trkpt lat="42.3698935" lon="12.2088361"><ele>730.0</ele><time>2026-04-12T09:57:26Z</time></trkpt><trkpt lat="42.3699211" lon="12.2089841"><ele>728.6</ele><time>2026-04-12T09:57:27.001Z</time></trkpt><trkpt lat="42.3699336" lon="12.2090927"><ele>727.2</ele><time>2026-04-12T09:57:28.001Z</time></trkpt><trkpt lat="42.3699536" lon="12.2092198"><ele>725.8</ele><time>2026-04-12T09:57:29.001Z</time></trkpt><trkpt lat="42.3699483" lon="12.2093597"><ele>724.4</ele><time>2026-04-12T09:57:30Z</time></trkpt><trkpt lat="42.3699526" lon="12.2094985"><ele>723.0</ele><time>2026-04-12T09:57:31.001Z</time></trkpt><trkpt lat="42.3699557" lon="12.2096553"><ele>723.0</ele><time>2026-04-12T09:57:32.001Z</time></trkpt><trkpt lat="42.3699749" lon="12.2098129"><ele>723.0</ele><time>2026-04-12T09:57:33.001Z</time></trkpt><trkpt lat="42.3699786" lon="12.2099407"><ele>723.0</ele><time>2026-04-12T09:57:34.001Z</time></trkpt><trkpt lat="42.3699688" lon="12.2100714"><ele>723.0</ele><time>2026-04-12T09:57:35.001Z</time></trkpt><trkpt lat="42.3699491" lon="12.2101978"><ele>723.0</ele><time>2026-04-12T09:57:36.001Z</time></trkpt><trkpt lat="42.369926" lon="12.2103011"><ele>722.0</ele><time>2026-04-12T09:57:37.001Z</time></trkpt><trkpt lat="42.3698984" lon="12.2104166"><ele>721.0</ele><time>2026-04-12T09:57:38.001Z</time></trkpt><trkpt lat="42.3698806" lon="12.2105252"><ele>720.0</ele><time>2026-04-12T09:57:39.001Z</time></trkpt><trkpt lat="42.3698801" lon="12.2106179"><ele>719.0</ele><time>2026-04-12T09:57:40Z</time></trkpt><trkpt lat="42.369855" lon="12.2107223"><ele>718.0</ele><time>2026-04-12T09:57:41Z</time></trkpt><trkpt lat="42.3698416" lon="12.2108279"><ele>717.0</ele><time>2026-04-12T09:57:42.001Z</time></trkpt><trkpt lat="42.3697998" lon="12.2109488"><ele>716.6</ele><time>2026-04-12T09:57:43Z</time></trkpt><trkpt lat="42.3697685" lon="12.2110629"><ele>716.2</ele><time>2026-04-12T09:57:44.001Z</time></trkpt><trkpt lat="42.3697428" lon="12.2111833"><ele>715.8</ele><time>2026-04-12T09:57:45Z</time></trkpt><trkpt lat="42.3697137" lon="12.2113087"><ele>715.4</ele><time>2026-04-12T09:57:46.001Z</time></trkpt><trkpt lat="42.3696742" lon="12.2114091"><ele>715.0</ele><time>2026-04-12T09:57:47Z</time></trkpt><trkpt lat="42.3696465" lon="12.2115772"><ele>713.4</ele><time>2026-04-12T09:57:49.001Z</time></trkpt><trkpt lat="42.369639" lon="12.2117264"><ele>711.8</ele><time>2026-04-12T09:57:51.001Z</time></trkpt><trkpt lat="42.3696226" lon="12.2118972"><ele>710.2</ele><time>2026-04-12T09:57:53Z</time></trkpt><trkpt lat="42.3695961" lon="12.2120157"><ele>708.6</ele><time>2026-04-12T09:57:54.001Z</time></trkpt><trkpt lat="42.369578" lon="12.2121024"><ele>707.0</ele><time>2026-04-12T09:57:55Z</time></trkpt><trkpt lat="42.3695523" lon="12.2121966"><ele>707.0</ele><time>2026-04-12T09:57:56Z</time></trkpt><trkpt lat="42.3695348" lon="12.2122864"><ele>707.0</ele><time>2026-04-12T09:57:57.001Z</time></trkpt><trkpt lat="42.369519" lon="12.2123715"><ele>707.0</ele><time>2026-04-12T09:57:58.001Z</time></trkpt><trkpt lat="42.3695006" lon="12.2124875"><ele>707.0</ele><time>2026-04-12T09:57:59.001Z</time></trkpt><trkpt lat="42.3694679" lon="12.2125724"><ele>707.0</ele><time>2026-04-12T09:58:00.001Z</time></trkpt><trkpt lat="42.3693852" lon="12.2126699"><ele>707.0</ele><time>2026-04-12T09:58:02.001Z</time></trkpt><trkpt lat="42.3692802" lon="12.2127413"><ele>705.4000000000001</ele><time>2026-04-12T09:58:04.001Z</time></trkpt><trkpt lat="42.3691975" lon="12.2128104"><ele>703.8000000000001</ele><time>2026-04-12T09:58:05.001Z</time></trkpt><trkpt lat="42.369116" lon="12.2128769"><ele>702.2</ele><time>2026-04-12T09:58:06.001Z</time></trkpt><trkpt lat="42.3690385" lon="12.2129586"><ele>700.6</ele><time>2026-04-12T09:58:07.001Z</time></trkpt><trkpt lat="42.3689427" lon="12.2130766"><ele>699.0</ele><time>2026-04-12T09:58:08.001Z</time></trkpt><trkpt lat="42.3688473" lon="12.2131764"><ele>696.6</ele><time>2026-04-12T09:58:09.001Z</time></trkpt><trkpt lat="42.3687536" lon="12.213257"><ele>694.2</ele><time>2026-04-12T09:58:10.001Z</time></trkpt><trkpt lat="42.3687294" lon="12.2133726"><ele>691.8000000000001</ele><time>2026-04-12T09:58:11.001Z</time></trkpt><trkpt lat="42.3686647" lon="12.2133951"><ele>689.4000000000001</ele><time>2026-04-12T09:58:13.001Z</time></trkpt><trkpt lat="42.3685363" lon="12.2134139"><ele>687.0</ele><time>2026-04-12T09:58:15.001Z</time></trkpt><trkpt lat="42.3684597" lon="12.2134428"><ele>687.0</ele><time>2026-04-12T09:58:16Z</time></trkpt><trkpt lat="42.3683467" lon="12.21346"><ele>687.0</ele><time>2026-04-12T09:58:18.001Z</time></trkpt><trkpt lat="42.3682296" lon="12.2134709"><ele>687.0</ele><time>2026-04-12T09:58:20Z</time></trkpt><trkpt lat="42.3681383" lon="12.2134692"><ele>687.0</ele><time>2026-04-12T09:58:22.001Z</time></trkpt><trkpt lat="42.3680506" lon="12.2134375"><ele>687.0</ele><time>2026-04-12T09:58:24.001Z</time></trkpt><trkpt lat="42.3679815" lon="12.2134139"><ele>684.4000000000001</ele><time>2026-04-12T09:58:24.999Z</time></trkpt><trkpt lat="42.3678945" lon="12.213348"><ele>681.8000000000001</ele><time>2026-04-12T09:58:27.001Z</time></trkpt><trkpt lat="42.3678134" lon="12.2132568"><ele>679.2</ele><time>2026-04-12T09:58:29.001Z</time></trkpt><trkpt lat="42.36772" lon="12.2131728"><ele>676.6</ele><time>2026-04-12T09:58:31.001Z</time></trkpt><trkpt lat="42.367666" lon="12.2131216"><ele>674.0</ele><time>2026-04-12T09:58:32.001Z</time></trkpt><trkpt lat="42.3675695" lon="12.2130421"><ele>674.0</ele><time>2026-04-12T09:58:34Z</time></trkpt><trkpt lat="42.3674895" lon="12.2129613"><ele>674.0</ele><time>2026-04-12T09:58:36.001Z</time></trkpt><trkpt lat="42.3674004" lon="12.2128634"><ele>674.0</ele><time>2026-04-12T09:58:38.001Z</time></trkpt><trkpt lat="42.3673485" lon="12.2127612"><ele>674.0</ele><time>2026-04-12T09:58:40.001Z</time></trkpt><trkpt lat="42.3673011" lon="12.2126834"><ele>674.0</ele><time>2026-04-12T09:58:42Z</time></trkpt><trkpt lat="42.3672227" lon="12.2126633"><ele>678.25</ele><time>2026-04-12T09:58:44.001Z</time></trkpt><trkpt lat="42.3671285" lon="12.21285"><ele>682.5</ele><time>2026-04-12T09:58:47.001Z</time></trkpt><trkpt lat="42.3671118" lon="12.2130335"><ele>686.75</ele><time>2026-04-12T09:58:49.001Z</time></trkpt><trkpt lat="42.3670829" lon="12.2132124"><ele>691.0</ele><time>2026-04-12T09:58:51.001Z</time></trkpt><trkpt lat="42.3670243" lon="12.2133046"><ele>691.4</ele><time>2026-04-12T09:58:52.001Z</time></trkpt><trkpt lat="42.3669747" lon="12.2134273"><ele>691.8</ele><time>2026-04-12T09:58:53.001Z</time></trkpt><trkpt lat="42.3669764" lon="12.2135365"><ele>692.1999999999999</ele><time>2026-04-12T09:58:54.001Z</time></trkpt><trkpt lat="42.366977" lon="12.2136361"><ele>692.5999999999999</ele><time>2026-04-12T09:58:55.001Z</time></trkpt><trkpt lat="42.3669861" lon="12.2138034"><ele>693.0</ele><time>2026-04-12T09:58:56Z</time></trkpt><trkpt lat="42.3669825" lon="12.2139479"><ele>692.0</ele><time>2026-04-12T09:58:57.001Z</time></trkpt><trkpt lat="42.3669984" lon="12.2140422"><ele>691.0</ele><time>2026-04-12T09:58:58.001Z</time></trkpt><trkpt lat="42.3670126" lon="12.2141676"><ele>690.0</ele><time>2026-04-12T09:59:00Z</time></trkpt><trkpt lat="42.367015" lon="12.2142616"><ele>689.0</ele><time>2026-04-12T09:59:01.001Z</time></trkpt><trkpt lat="42.3669808" lon="12.214414"><ele>688.0</ele><time>2026-04-12T09:59:02Z</time></trkpt><trkpt lat="42.3669778" lon="12.214552"><ele>688.0</ele><time>2026-04-12T09:59:03Z</time></trkpt><trkpt lat="42.366968" lon="12.2146731"><ele>688.0</ele><time>2026-04-12T09:59:04.001Z</time></trkpt><trkpt lat="42.3669623" lon="12.214811"><ele>688.0</ele><time>2026-04-12T09:59:05.001Z</time></trkpt><trkpt lat="42.366985" lon="12.2149217"><ele>688.0</ele><time>2026-04-12T09:59:06.002Z</time></trkpt><trkpt lat="42.366995" lon="12.2150373"><ele>688.0</ele><time>2026-04-12T09:59:07.001Z</time></trkpt><trkpt lat="42.3670019" lon="12.2151223"><ele>688.0</ele><time>2026-04-12T09:59:08.001Z</time></trkpt><trkpt lat="42.3670185" lon="12.2152129"><ele>687.5</ele><time>2026-04-12T09:59:09.001Z</time></trkpt><trkpt lat="42.3670282" lon="12.2153125"><ele>687.0</ele><time>2026-04-12T09:59:10Z</time></trkpt><trkpt lat="42.3670117" lon="12.2154142"><ele>686.5</ele><time>2026-04-12T09:59:11Z</time></trkpt><trkpt lat="42.3669913" lon="12.2155717"><ele>686.0</ele><time>2026-04-12T09:59:13.001Z</time></trkpt><trkpt lat="42.3669539" lon="12.2156935"><ele>685.5</ele><time>2026-04-12T09:59:15.001Z</time></trkpt><trkpt lat="42.3669711" lon="12.2157832"><ele>685.0</ele><time>2026-04-12T09:59:17.001Z</time></trkpt><trkpt lat="42.3669684" lon="12.2158843"><ele>683.75</ele><time>2026-04-12T09:59:22Z</time></trkpt><trkpt lat="42.3669691" lon="12.2160365"><ele>682.5</ele><time>2026-04-12T09:59:24Z</time></trkpt><trkpt lat="42.3669852" lon="12.2161933"><ele>681.25</ele><time>2026-04-12T09:59:25Z</time></trkpt><trkpt lat="42.3669891" lon="12.2163797"><ele>680.0</ele><time>2026-04-12T09:59:26.001Z</time></trkpt><trkpt lat="42.3669885" lon="12.216556"><ele>678.6</ele><time>2026-04-12T09:59:27.001Z</time></trkpt><trkpt lat="42.3669948" lon="12.2167161"><ele>677.2</ele><time>2026-04-12T09:59:28.001Z</time></trkpt><trkpt lat="42.3670047" lon="12.2168739"><ele>675.8</ele><time>2026-04-12T09:59:29Z</time></trkpt><trkpt lat="42.3670156" lon="12.2170168"><ele>674.4</ele><time>2026-04-12T09:59:30.001Z</time></trkpt><trkpt lat="42.367031" lon="12.2171476"><ele>673.0</ele><time>2026-04-12T09:59:31.001Z</time></trkpt><trkpt lat="42.367037" lon="12.2172655"><ele>672.0</ele><time>2026-04-12T09:59:32Z</time></trkpt><trkpt lat="42.3670436" lon="12.2173712"><ele>671.0</ele><time>2026-04-12T09:59:33Z</time></trkpt><trkpt lat="42.3670531" lon="12.217485"><ele>670.0</ele><time>2026-04-12T09:59:34Z</time></trkpt><trkpt lat="42.3670858" lon="12.217584"><ele>669.0</ele><time>2026-04-12T10:01:27.001Z</time></trkpt><trkpt lat="42.3671213" lon="12.2177686"><ele>668.0</ele><time>2026-04-12T10:01:29.001Z</time></trkpt><trkpt lat="42.3671509" lon="12.2178935"><ele>668.0</ele><time>2026-04-12T10:01:30Z</time></trkpt><trkpt lat="42.3671879" lon="12.218047"><ele>668.0</ele><time>2026-04-12T10:01:31.001Z</time></trkpt><trkpt lat="42.3672227" lon="12.2182185"><ele>668.0</ele><time>2026-04-12T10:01:32.001Z</time></trkpt><trkpt lat="42.3672565" lon="12.2183978"><ele>668.0</ele><time>2026-04-12T10:01:33.001Z</time></trkpt><trkpt lat="42.3672865" lon="12.2185663"><ele>668.6666666666666</ele><time>2026-04-12T10:01:34.001Z</time></trkpt><trkpt lat="42.3673683" lon="12.2189033"><ele>669.3333333333334</ele><time>2026-04-12T10:01:36Z</time></trkpt><trkpt lat="42.3674138" lon="12.2190959"><ele>670.0</ele><time>2026-04-12T10:01:37Z</time></trkpt><trkpt lat="42.3674556" lon="12.2192802"><ele>668.75</ele><time>2026-04-12T10:01:38Z</time></trkpt><trkpt lat="42.3674959" lon="12.2194549"><ele>667.5</ele><time>2026-04-12T10:01:39.001Z</time></trkpt><trkpt lat="42.3675362" lon="12.2196225"><ele>666.25</ele><time>2026-04-12T10:01:40Z</time></trkpt><trkpt lat="42.3675695" lon="12.2197887"><ele>665.0</ele><time>2026-04-12T10:01:41.001Z</time></trkpt><trkpt lat="42.3676028" lon="12.2199557"><ele>663.75</ele><time>2026-04-12T10:01:42Z</time></trkpt><trkpt lat="42.3676338" lon="12.2201119"><ele>662.5</ele><time>2026-04-12T10:01:43Z</time></trkpt><trkpt lat="42.3676642" lon="12.2202721"><ele>661.25</ele><time>2026-04-12T10:01:44Z</time></trkpt><trkpt lat="42.3677249" lon="12.2204409"><ele>660.0</ele><time>2026-04-12T10:01:45.001Z</time></trkpt><trkpt lat="42.3678543" lon="12.2207876"><ele>658.6666666666666</ele><time>2026-04-12T10:01:47.001Z</time></trkpt><trkpt lat="42.3679086" lon="12.2209746"><ele>657.3333333333333</ele><time>2026-04-12T10:01:48Z</time></trkpt><trkpt lat="42.3679612" lon="12.2211551"><ele>656.0</ele><time>2026-04-12T10:01:49Z</time></trkpt><trkpt lat="42.3680336" lon="12.2213524"><ele>655.0</ele><time>2026-04-12T10:01:50Z</time></trkpt><trkpt lat="42.3681114" lon="12.221539"><ele>654.0</ele><time>2026-04-12T10:01:51Z</time></trkpt><trkpt lat="42.3682006" lon="12.2217155"><ele>653.0</ele><time>2026-04-12T10:01:52Z</time></trkpt><trkpt lat="42.3682758" lon="12.2218899"><ele>653.0</ele><time>2026-04-12T10:01:53Z</time></trkpt><trkpt lat="42.3683521" lon="12.2220618"><ele>653.0</ele><time>2026-04-12T10:01:54.001Z</time></trkpt><trkpt lat="42.3684092" lon="12.2222351"><ele>653.0</ele><time>2026-04-12T10:01:55.001Z</time></trkpt><trkpt lat="42.3684661" lon="12.2224238"><ele>653.0</ele><time>2026-04-12T10:01:56.001Z</time></trkpt><trkpt lat="42.3685199" lon="12.2226074"><ele>650.8</ele><time>2026-04-12T10:01:56.999Z</time></trkpt><trkpt lat="42.3685529" lon="12.2227415"><ele>648.5999999999999</ele><time>2026-04-12T10:01:58.001Z</time></trkpt><trkpt lat="42.3685874" lon="12.2228746"><ele>646.4000000000001</ele><time>2026-04-12T10:01:59.001Z</time></trkpt><trkpt lat="42.3686203" lon="12.2229828"><ele>644.2</ele><time>2026-04-12T10:02:00.001Z</time></trkpt><trkpt lat="42.3686811" lon="12.2230727"><ele>642.0</ele><time>2026-04-12T10:02:02.001Z</time></trkpt><trkpt lat="42.3687817" lon="12.2231367"><ele>641.4</ele><time>2026-04-12T10:02:04.001Z</time></trkpt><trkpt lat="42.3688834" lon="12.2231595"><ele>640.8000000000001</ele><time>2026-04-12T10:02:06Z</time></trkpt><trkpt lat="42.3689839" lon="12.2231071"><ele>640.2</ele><time>2026-04-12T10:02:08.001Z</time></trkpt><trkpt lat="42.3690895" lon="12.2230529"><ele>639.6</ele><time>2026-04-12T10:02:09.001Z</time></trkpt><trkpt lat="42.3691539" lon="12.2229952"><ele>639.0</ele><time>2026-04-12T10:02:10.002Z</time></trkpt><trkpt lat="42.3692187" lon="12.2229367"><ele>639.0000000000001</ele><time>2026-04-12T10:02:11.001Z</time></trkpt><trkpt lat="42.3692638" lon="12.2228758"><ele>639.0</ele><time>2026-04-12T10:02:12.001Z</time></trkpt><trkpt lat="42.3693074" lon="12.222813"><ele>639.0</ele><time>2026-04-12T10:02:13.001Z</time></trkpt><trkpt lat="42.3693393" lon="12.2227152"><ele>639.0</ele><time>2026-04-12T10:02:14.001Z</time></trkpt><trkpt lat="42.3693784" lon="12.2226395"><ele>639.0</ele><time>2026-04-12T10:02:15.001Z</time></trkpt><trkpt lat="42.3694296" lon="12.222579"><ele>639.0000000000001</ele><time>2026-04-12T10:02:16.001Z</time></trkpt><trkpt lat="42.3694742" lon="12.2225129"><ele>639.0</ele><time>2026-04-12T10:02:17.001Z</time></trkpt><trkpt lat="42.369543" lon="12.2223953"><ele>639.0</ele><time>2026-04-12T10:02:19Z</time></trkpt><trkpt lat="42.3695759" lon="12.2221888"><ele>639.0</ele><time>2026-04-12T10:02:21.001Z</time></trkpt><trkpt lat="42.3695993" lon="12.2220837"><ele>639.0</ele><time>2026-04-12T10:02:22.001Z</time></trkpt><trkpt lat="42.3696151" lon="12.2219786"><ele>639.0</ele><time>2026-04-12T10:02:23.001Z</time></trkpt><trkpt lat="42.3696278" lon="12.221855"><ele>639.0</ele><time>2026-04-12T10:02:24.001Z</time></trkpt><trkpt lat="42.3696354" lon="12.2217378"><ele>639.0</ele><time>2026-04-12T10:02:25Z</time></trkpt><trkpt lat="42.3696385" lon="12.2216196"><ele>639.0</ele><time>2026-04-12T10:02:26Z</time></trkpt><trkpt lat="42.3696413" lon="12.2215013"><ele>639.0</ele><time>2026-04-12T10:02:27.001Z</time></trkpt><trkpt lat="42.3696508" lon="12.2213843"><ele>639.0</ele><time>2026-04-12T10:02:28.001Z</time></trkpt><trkpt lat="42.3696673" lon="12.2212445"><ele>639.0</ele><time>2026-04-12T10:02:29.001Z</time></trkpt><trkpt lat="42.3696818" lon="12.2211225"><ele>639.1666666666666</ele><time>2026-04-12T10:02:30.001Z</time></trkpt><trkpt lat="42.3696913" lon="12.2210063"><ele>639.3333333333334</ele><time>2026-04-12T10:02:31.001Z</time></trkpt><trkpt lat="42.3696952" lon="12.2208872"><ele>639.5</ele><time>2026-04-12T10:02:32.001Z</time></trkpt><trkpt lat="42.369688" lon="12.2207643"><ele>639.6666666666667</ele><time>2026-04-12T10:02:33.001Z</time></trkpt><trkpt lat="42.3696808" lon="12.2206454"><ele>639.8333333333334</ele><time>2026-04-12T10:02:34.001Z</time></trkpt><trkpt lat="42.3696649" lon="12.2205266"><ele>640.0</ele><time>2026-04-12T10:02:35Z</time></trkpt><trkpt lat="42.3696428" lon="12.2204064"><ele>640.0</ele><time>2026-04-12T10:02:36.001Z</time></trkpt><trkpt lat="42.3696236" lon="12.2203012"><ele>640.0</ele><time>2026-04-12T10:02:37Z</time></trkpt><trkpt lat="42.3696072" lon="12.2202001"><ele>640.0</ele><time>2026-04-12T10:02:38.001Z</time></trkpt><trkpt lat="42.369586" lon="12.2200377"><ele>640.0</ele><time>2026-04-12T10:02:40Z</time></trkpt><trkpt lat="42.3695495" lon="12.2199449"><ele>640.0</ele><time>2026-04-12T10:02:43Z</time></trkpt><trkpt lat="42.3695407" lon="12.2198591"><ele>640.0</ele><time>2026-04-12T10:03:00.001Z</time></trkpt><trkpt lat="42.3695866" lon="12.219767"><ele>639.0</ele><time>2026-04-12T10:03:03.001Z</time></trkpt><trkpt lat="42.3695261" lon="12.219707"><ele>638.0</ele><time>2026-04-12T10:03:07.001Z</time></trkpt><trkpt lat="42.3694298" lon="12.2196682"><ele>637.0</ele><time>2026-04-12T10:03:31Z</time></trkpt><trkpt lat="42.3694322" lon="12.2195711"><ele>636.0</ele><time>2026-04-12T10:03:36.001Z</time></trkpt><trkpt lat="42.3693847" lon="12.2193615"><ele>635.0</ele><time>2026-04-12T10:03:38.001Z</time></trkpt><trkpt lat="42.3694198" lon="12.2192174"><ele>635.0</ele><time>2026-04-12T10:03:39.001Z</time></trkpt><trkpt lat="42.3694094" lon="12.2191008"><ele>635.0</ele><time>2026-04-12T10:03:40.001Z</time></trkpt><trkpt lat="42.3693986" lon="12.2190028"><ele>635.0</ele><time>2026-04-12T10:03:41Z</time></trkpt><trkpt lat="42.3692724" lon="12.2189009"><ele>635.0</ele><time>2026-04-12T10:03:42.001Z</time></trkpt><trkpt lat="42.3691955" lon="12.2188133"><ele>635.0</ele><time>2026-04-12T10:03:43.001Z</time></trkpt><trkpt lat="42.3691078" lon="12.2187333"><ele>636.0</ele><time>2026-04-12T10:03:44.001Z</time></trkpt><trkpt lat="42.3690422" lon="12.21862"><ele>637.0</ele><time>2026-04-12T10:03:45Z</time></trkpt><trkpt lat="42.3689769" lon="12.2185291"><ele>638.0</ele><time>2026-04-12T10:03:46.001Z</time></trkpt><trkpt lat="42.3689293" lon="12.2184136"><ele>639.0</ele><time>2026-04-12T10:03:47Z</time></trkpt><trkpt lat="42.3689328" lon="12.2182731"><ele>640.0</ele><time>2026-04-12T10:03:48.001Z</time></trkpt><trkpt lat="42.3688866" lon="12.2181445"><ele>640.8333333333334</ele><time>2026-04-12T10:03:49.001Z</time></trkpt><trkpt lat="42.3688554" lon="12.2180315"><ele>641.6666666666667</ele><time>2026-04-12T10:03:50Z</time></trkpt><trkpt lat="42.3688144" lon="12.2179572"><ele>642.5</ele><time>2026-04-12T10:03:51Z</time></trkpt><trkpt lat="42.3687753" lon="12.217842"><ele>643.3333333333334</ele><time>2026-04-12T10:03:52.001Z</time></trkpt><trkpt lat="42.3687502" lon="12.2177393"><ele>644.1666666666666</ele><time>2026-04-12T10:03:54Z</time></trkpt><trkpt lat="42.3687523" lon="12.2176168"><ele>645.0</ele><time>2026-04-12T10:03:56.001Z</time></trkpt><trkpt lat="42.3688382" lon="12.2175372"><ele>645.4</ele><time>2026-04-12T10:03:57.001Z</time></trkpt><trkpt lat="42.3689417" lon="12.2174902"><ele>645.8</ele><time>2026-04-12T10:03:59.001Z</time></trkpt><trkpt lat="42.3690346" lon="12.2174495"><ele>646.2</ele><time>2026-04-12T10:04:01.001Z</time></trkpt><trkpt lat="42.3691126" lon="12.2174214"><ele>646.6</ele><time>2026-04-12T10:04:02.001Z</time></trkpt><trkpt lat="42.369174" lon="12.2172875"><ele>647.0</ele><time>2026-04-12T10:04:03.999Z</time></trkpt><trkpt lat="42.369258" lon="12.2172231"><ele>648.1666666666666</ele><time>2026-04-12T10:04:05.001Z</time></trkpt><trkpt lat="42.3693235" lon="12.2171403"><ele>649.3333333333333</ele><time>2026-04-12T10:04:06.001Z</time></trkpt><trkpt lat="42.3693741" lon="12.2170782"><ele>650.5</ele><time>2026-04-12T10:04:07Z</time></trkpt><trkpt lat="42.3694197" lon="12.2168841"><ele>651.6666666666666</ele><time>2026-04-12T10:04:09.001Z</time></trkpt><trkpt lat="42.3694362" lon="12.2167905"><ele>652.8333333333334</ele><time>2026-04-12T10:04:10Z</time></trkpt><trkpt lat="42.3694329" lon="12.2167041"><ele>654.0</ele><time>2026-04-12T10:04:11Z</time></trkpt><trkpt lat="42.3694391" lon="12.2165913"><ele>656.2</ele><time>2026-04-12T10:04:12.001Z</time></trkpt><trkpt lat="42.3694593" lon="12.2164784"><ele>658.4000000000001</ele><time>2026-04-12T10:04:13Z</time></trkpt><trkpt lat="42.3694219" lon="12.2163656"><ele>660.6</ele><time>2026-04-12T10:04:13.999Z</time></trkpt><trkpt lat="42.3693702" lon="12.2162173"><ele>662.8</ele><time>2026-04-12T10:04:15.001Z</time></trkpt><trkpt lat="42.3693466" lon="12.2160694"><ele>665.0</ele><time>2026-04-12T10:04:16.001Z</time></trkpt><trkpt lat="42.3693037" lon="12.2159456"><ele>665.0</ele><time>2026-04-12T10:04:17Z</time></trkpt><trkpt lat="42.3692682" lon="12.2158337"><ele>665.0</ele><time>2026-04-12T10:04:18Z</time></trkpt><trkpt lat="42.3692208" lon="12.2157397"><ele>665.0</ele><time>2026-04-12T10:04:19.001Z</time></trkpt><trkpt lat="42.3692985" lon="12.2155472"><ele>665.0</ele><time>2026-04-12T10:04:21.001Z</time></trkpt><trkpt lat="42.3693146" lon="12.2154378"><ele>665.0</ele><time>2026-04-12T10:04:22Z</time></trkpt><trkpt lat="42.3693467" lon="12.2152948"><ele>666.3333333333333</ele><time>2026-04-12T10:04:23.001Z</time></trkpt><trkpt lat="42.3693774" lon="12.2151829"><ele>667.6666666666666</ele><time>2026-04-12T10:04:24.001Z</time></trkpt><trkpt lat="42.3693533" lon="12.2150963"><ele>669.0</ele><time>2026-04-12T10:04:25Z</time></trkpt><trkpt lat="42.3693288" lon="12.2150136"><ele>670.3333333333334</ele><time>2026-04-12T10:04:26.001Z</time></trkpt><trkpt lat="42.3693241" lon="12.2149136"><ele>671.6666666666667</ele><time>2026-04-12T10:04:27.001Z</time></trkpt><trkpt lat="42.3693465" lon="12.2148113"><ele>673.0</ele><time>2026-04-12T10:04:28.001Z</time></trkpt><trkpt lat="42.3693601" lon="12.2146426"><ele>675.0</ele><time>2026-04-12T10:04:30.001Z</time></trkpt><trkpt lat="42.3693569" lon="12.214537"><ele>677.0</ele><time>2026-04-12T10:04:30.999Z</time></trkpt><trkpt lat="42.3693971" lon="12.2143357"><ele>679.0</ele><time>2026-04-12T10:04:33Z</time></trkpt><trkpt lat="42.3693782" lon="12.2142003"><ele>681.0</ele><time>2026-04-12T10:04:35.001Z</time></trkpt><trkpt lat="42.3693496" lon="12.2141188"><ele>683.0</ele><time>2026-04-12T10:04:36.001Z</time></trkpt><trkpt lat="42.3692976" lon="12.2140434"><ele>684.75</ele><time>2026-04-12T10:04:37.001Z</time></trkpt><trkpt lat="42.3692674" lon="12.2139658"><ele>686.5</ele><time>2026-04-12T10:04:38.001Z</time></trkpt><trkpt lat="42.3692406" lon="12.2137894"><ele>688.25</ele><time>2026-04-12T10:04:40Z</time></trkpt><trkpt lat="42.3692691" lon="12.2135574"><ele>690.0</ele><time>2026-04-12T10:04:42.001Z</time></trkpt><trkpt lat="42.3693063" lon="12.2134448"><ele>690.0</ele><time>2026-04-12T10:04:43Z</time></trkpt><trkpt lat="42.369345" lon="12.2132332"><ele>690.0</ele><time>2026-04-12T10:04:45Z</time></trkpt><trkpt lat="42.3693649" lon="12.2131347"><ele>690.0</ele><time>2026-04-12T10:04:46.001Z</time></trkpt><trkpt lat="42.3693826" lon="12.2130363"><ele>690.0</ele><time>2026-04-12T10:04:48.001Z</time></trkpt><trkpt lat="42.3693508" lon="12.2129456"><ele>690.0</ele><time>2026-04-12T10:04:50.001Z</time></trkpt><trkpt lat="42.369324" lon="12.2128038"><ele>691.5</ele><time>2026-04-12T10:04:52.001Z</time></trkpt><trkpt lat="42.3693233" lon="12.2127095"><ele>693.0</ele><time>2026-04-12T10:04:53.001Z</time></trkpt><trkpt lat="42.3693737" lon="12.2126226"><ele>694.5</ele><time>2026-04-12T10:04:55.001Z</time></trkpt><trkpt lat="42.3694536" lon="12.2126732"><ele>696.0</ele><time>2026-04-12T10:05:10.001Z</time></trkpt><trkpt lat="42.3695364" lon="12.212763"><ele>697.5</ele><time>2026-04-12T10:05:12.001Z</time></trkpt><trkpt lat="42.3695879" lon="12.2128192"><ele>699.0</ele><time>2026-04-12T10:05:13.001Z</time></trkpt><trkpt lat="42.3696339" lon="12.2129"><ele>699.5</ele><time>2026-04-12T10:05:14.001Z</time></trkpt><trkpt lat="42.3697786" lon="12.2129519"><ele>700.0</ele><time>2026-04-12T10:05:16.001Z</time></trkpt><trkpt lat="42.36986" lon="12.2129614"><ele>700.5</ele><time>2026-04-12T10:05:17.001Z</time></trkpt><trkpt lat="42.3699297" lon="12.212977"><ele>701.0</ele><time>2026-04-12T10:05:18.001Z</time></trkpt><trkpt lat="42.3699892" lon="12.2129483"><ele>701.5</ele><time>2026-04-12T10:05:19.001Z</time></trkpt><trkpt lat="42.3700542" lon="12.2129136"><ele>702.0</ele><time>2026-04-12T10:05:20Z</time></trkpt><trkpt lat="42.3701199" lon="12.2128673"><ele>702.0</ele><time>2026-04-12T10:05:21.001Z</time></trkpt><trkpt lat="42.3701843" lon="12.2128389"><ele>702.0</ele><time>2026-04-12T10:05:22Z</time></trkpt><trkpt lat="42.370312" lon="12.2127915"><ele>702.0</ele><time>2026-04-12T10:05:24.001Z</time></trkpt><trkpt lat="42.3703693" lon="12.2127518"><ele>702.0</ele><time>2026-04-12T10:05:25.001Z</time></trkpt><trkpt lat="42.3704673" lon="12.2127046"><ele>702.0</ele><time>2026-04-12T10:05:27.001Z</time></trkpt><trkpt lat="42.3705843" lon="12.2127212"><ele>703.25</ele><time>2026-04-12T10:05:29.001Z</time></trkpt><trkpt lat="42.3706817" lon="12.2127669"><ele>704.5</ele><time>2026-04-12T10:05:30.001Z</time></trkpt><trkpt lat="42.3707824" lon="12.212825"><ele>705.75</ele><time>2026-04-12T10:05:31.001Z</time></trkpt><trkpt lat="42.3708907" lon="12.2128939"><ele>707.0</ele><time>2026-04-12T10:05:32.001Z</time></trkpt><trkpt lat="42.3709981" lon="12.212982"><ele>707.0</ele><time>2026-04-12T10:05:33.001Z</time></trkpt><trkpt lat="42.3711013" lon="12.2130435"><ele>707.0</ele><time>2026-04-12T10:05:34.001Z</time></trkpt><trkpt lat="42.3711599" lon="12.2130789"><ele>707.0</ele><time>2026-04-12T10:05:35Z</time></trkpt><trkpt lat="42.371247" lon="12.2131559"><ele>707.0</ele><time>2026-04-12T10:05:37.001Z</time></trkpt><trkpt lat="42.3712668" lon="12.213239"><ele>707.0</ele><time>2026-04-12T10:05:39Z</time></trkpt><trkpt lat="42.3712191" lon="12.2133754"><ele>706.0</ele><time>2026-04-12T10:05:40.001Z</time></trkpt><trkpt lat="42.371192" lon="12.213487"><ele>705.0</ele><time>2026-04-12T10:05:41.001Z</time></trkpt><trkpt lat="42.3711268" lon="12.2136191"><ele>704.0</ele><time>2026-04-12T10:05:42.001Z</time></trkpt><trkpt lat="42.3710695" lon="12.2137252"><ele>703.0</ele><time>2026-04-12T10:05:43.001Z</time></trkpt><trkpt lat="42.3710039" lon="12.213831"><ele>702.0</ele><time>2026-04-12T10:05:44.001Z</time></trkpt><trkpt lat="42.37096" lon="12.2139361"><ele>702.0</ele><time>2026-04-12T10:05:45Z</time></trkpt><trkpt lat="42.3709069" lon="12.2140361"><ele>702.0</ele><time>2026-04-12T10:05:46Z</time></trkpt><trkpt lat="42.3708854" lon="12.2141196"><ele>702.0</ele><time>2026-04-12T10:05:47Z</time></trkpt><trkpt lat="42.3708929" lon="12.213987"><ele>702.0</ele><time>2026-04-12T10:06:04Z</time></trkpt><trkpt lat="42.3709727" lon="12.2138474"><ele>702.0</ele><time>2026-04-12T10:06:06.001Z</time></trkpt><trkpt lat="42.3710384" lon="12.2137325"><ele>702.0</ele><time>2026-04-12T10:06:07.001Z</time></trkpt><trkpt lat="42.3710976" lon="12.2136109"><ele>702.0</ele><time>2026-04-12T10:06:08.001Z</time></trkpt><trkpt lat="42.3711513" lon="12.2135028"><ele>702.0</ele><time>2026-04-12T10:06:09.001Z</time></trkpt><trkpt lat="42.3712006" lon="12.2133934"><ele>702.0</ele><time>2026-04-12T10:06:10.001Z</time></trkpt><trkpt lat="42.3712411" lon="12.2132927"><ele>702.0</ele><time>2026-04-12T10:06:11Z</time></trkpt><trkpt lat="42.37129" lon="12.2132294"><ele>702.0</ele><time>2026-04-12T10:06:12Z</time></trkpt><trkpt lat="42.3713327" lon="12.2131629"><ele>702.0</ele><time>2026-04-12T10:06:13.001Z</time></trkpt><trkpt lat="42.371419" lon="12.2131825"><ele>702.0</ele><time>2026-04-12T10:06:14.001Z</time></trkpt><trkpt lat="42.3715116" lon="12.2131573"><ele>702.0</ele><time>2026-04-12T10:06:15.001Z</time></trkpt><trkpt lat="42.3716026" lon="12.2131447"><ele>702.0</ele><time>2026-04-12T10:06:16.001Z</time></trkpt><trkpt lat="42.3717017" lon="12.2131452"><ele>702.0</ele><time>2026-04-12T10:06:17.001Z</time></trkpt><trkpt lat="42.3717947" lon="12.213156"><ele>702.8</ele><time>2026-04-12T10:06:18.001Z</time></trkpt><trkpt lat="42.3718893" lon="12.2131656"><ele>703.6</ele><time>2026-04-12T10:06:19.001Z</time></trkpt><trkpt lat="42.371998" lon="12.2131955"><ele>704.4</ele><time>2026-04-12T10:06:19.999Z</time></trkpt><trkpt lat="42.3720947" lon="12.2132103"><ele>705.1999999999999</ele><time>2026-04-12T10:06:21.001Z</time></trkpt><trkpt lat="42.3721954" lon="12.2132274"><ele>706.0</ele><time>2026-04-12T10:06:22.001Z</time></trkpt><trkpt lat="42.3723063" lon="12.2132402"><ele>706.1999999999999</ele><time>2026-04-12T10:06:23.001Z</time></trkpt><trkpt lat="42.3724243" lon="12.21324"><ele>706.4</ele><time>2026-04-12T10:06:24.001Z</time></trkpt><trkpt lat="42.3725155" lon="12.2132514"><ele>706.6</ele><time>2026-04-12T10:06:25Z</time></trkpt><trkpt lat="42.372611" lon="12.213243"><ele>706.8</ele><time>2026-04-12T10:06:26.001Z</time></trkpt><trkpt lat="42.3727167" lon="12.2131766"><ele>707.0</ele><time>2026-04-12T10:06:27.001Z</time></trkpt><trkpt lat="42.3728132" lon="12.2131507"><ele>708.75</ele><time>2026-04-12T10:06:28Z</time></trkpt><trkpt lat="42.3729177" lon="12.2131164"><ele>710.5</ele><time>2026-04-12T10:06:29Z</time></trkpt><trkpt lat="42.3730445" lon="12.2130943"><ele>712.25</ele><time>2026-04-12T10:06:30Z</time></trkpt><trkpt lat="42.3731574" lon="12.2130626"><ele>714.0</ele><time>2026-04-12T10:06:31.001Z</time></trkpt><trkpt lat="42.3732805" lon="12.2130335"><ele>714.0</ele><time>2026-04-12T10:06:32Z</time></trkpt><trkpt lat="42.3733957" lon="12.2130271"><ele>714.0</ele><time>2026-04-12T10:06:33.001Z</time></trkpt><trkpt lat="42.3735064" lon="12.2130261"><ele>714.0</ele><time>2026-04-12T10:06:34Z</time></trkpt><trkpt lat="42.3736154" lon="12.2130865"><ele>714.0</ele><time>2026-04-12T10:06:35.001Z</time></trkpt><trkpt lat="42.3737079" lon="12.2130998"><ele>714.0</ele><time>2026-04-12T10:06:36Z</time></trkpt><trkpt lat="42.3737763" lon="12.2131486"><ele>712.0</ele><time>2026-04-12T10:06:37.001Z</time></trkpt><trkpt lat="42.3738426" lon="12.2131938"><ele>710.0</ele><time>2026-04-12T10:06:38.001Z</time></trkpt><trkpt lat="42.3739177" lon="12.2132619"><ele>708.0</ele><time>2026-04-12T10:06:39Z</time></trkpt><trkpt lat="42.3739856" lon="12.2133389"><ele>706.0</ele><time>2026-04-12T10:06:40.001Z</time></trkpt><trkpt lat="42.3740639" lon="12.2134375"><ele>704.0</ele><time>2026-04-12T10:06:41.001Z</time></trkpt><trkpt lat="42.3741944" lon="12.2135587"><ele>703.0</ele><time>2026-04-12T10:06:42.001Z</time></trkpt><trkpt lat="42.374326" lon="12.2136604"><ele>702.0</ele><time>2026-04-12T10:06:43Z</time></trkpt><trkpt lat="42.374457" lon="12.2137504"><ele>701.0</ele><time>2026-04-12T10:06:44.001Z</time></trkpt><trkpt lat="42.3745361" lon="12.2138047"><ele>700.0</ele><time>2026-04-12T10:06:45.001Z</time></trkpt><trkpt lat="42.3746191" lon="12.213904"><ele>698.8</ele><time>2026-04-12T10:06:46Z</time></trkpt><trkpt lat="42.37469" lon="12.2139717"><ele>697.6</ele><time>2026-04-12T10:06:47.001Z</time></trkpt><trkpt lat="42.3747631" lon="12.2140507"><ele>696.4000000000001</ele><time>2026-04-12T10:06:48.001Z</time></trkpt><trkpt lat="42.3748338" lon="12.214116"><ele>695.2</ele><time>2026-04-12T10:06:48.999Z</time></trkpt><trkpt lat="42.3749266" lon="12.214166"><ele>694.0</ele><time>2026-04-12T10:06:50.001Z</time></trkpt><trkpt lat="42.3750448" lon="12.2141143"><ele>691.25</ele><time>2026-04-12T10:06:51.001Z</time></trkpt><trkpt lat="42.3751579" lon="12.2140717"><ele>688.5</ele><time>2026-04-12T10:06:52Z</time></trkpt><trkpt lat="42.3752737" lon="12.2140425"><ele>685.75</ele><time>2026-04-12T10:06:53Z</time></trkpt><trkpt lat="42.3753939" lon="12.2140416"><ele>683.0</ele><time>2026-04-12T10:06:54.001Z</time></trkpt><trkpt lat="42.375521" lon="12.2140102"><ele>681.2</ele><time>2026-04-12T10:06:55.001Z</time></trkpt><trkpt lat="42.3756065" lon="12.214039"><ele>679.4</ele><time>2026-04-12T10:06:56.001Z</time></trkpt><trkpt lat="42.3756835" lon="12.21409"><ele>677.6</ele><time>2026-04-12T10:06:57Z</time></trkpt><trkpt lat="42.3757624" lon="12.2141408"><ele>675.8000000000001</ele><time>2026-04-12T10:06:58.001Z</time></trkpt><trkpt lat="42.375862" lon="12.2142152"><ele>674.0</ele><time>2026-04-12T10:06:59Z</time></trkpt><trkpt lat="42.3759603" lon="12.2143053"><ele>674.0</ele><time>2026-04-12T10:07:00.001Z</time></trkpt><trkpt lat="42.3760667" lon="12.2143799"><ele>674.0</ele><time>2026-04-12T10:07:00.999Z</time></trkpt><trkpt lat="42.3761753" lon="12.2144901"><ele>674.0</ele><time>2026-04-12T10:07:02.001Z</time></trkpt><trkpt lat="42.3762381" lon="12.2145888"><ele>674.0</ele><time>2026-04-12T10:07:03.001Z</time></trkpt><trkpt lat="42.3762975" lon="12.2147087"><ele>672.0</ele><time>2026-04-12T10:07:04.001Z</time></trkpt><trkpt lat="42.3763789" lon="12.2147901"><ele>670.0</ele><time>2026-04-12T10:07:05.001Z</time></trkpt><trkpt lat="42.3765142" lon="12.2149448"><ele>668.0</ele><time>2026-04-12T10:07:07.001Z</time></trkpt><trkpt lat="42.3765791" lon="12.2150529"><ele>666.0</ele><time>2026-04-12T10:07:08.001Z</time></trkpt><trkpt lat="42.3766325" lon="12.215164"><ele>664.5</ele><time>2026-04-12T10:07:09.001Z</time></trkpt><trkpt lat="42.3766318" lon="12.2153391"><ele>663.0</ele><time>2026-04-12T10:07:10.001Z</time></trkpt><trkpt lat="42.3766817" lon="12.2154943"><ele>661.5</ele><time>2026-04-12T10:07:11.001Z</time></trkpt><trkpt lat="42.3766889" lon="12.2156602"><ele>660.0</ele><time>2026-04-12T10:07:12.001Z</time></trkpt><trkpt lat="42.3766786" lon="12.2158588"><ele>659.4</ele><time>2026-04-12T10:07:13.001Z</time></trkpt><trkpt lat="42.3766774" lon="12.2160106"><ele>658.8</ele><time>2026-04-12T10:07:14.001Z</time></trkpt><trkpt lat="42.3766737" lon="12.2161742"><ele>658.2</ele><time>2026-04-12T10:07:15.001Z</time></trkpt><trkpt lat="42.3766767" lon="12.2162998"><ele>657.6</ele><time>2026-04-12T10:07:16Z</time></trkpt><trkpt lat="42.3767074" lon="12.2164157"><ele>657.0</ele><time>2026-04-12T10:07:17.001Z</time></trkpt><trkpt lat="42.3767351" lon="12.2165744"><ele>657.0</ele><time>2026-04-12T10:07:19.001Z</time></trkpt><trkpt lat="42.376737" lon="12.2166703"><ele>657.0</ele><time>2026-04-12T10:07:20.001Z</time></trkpt><trkpt lat="42.3767178" lon="12.2167939"><ele>657.0</ele><time>2026-04-12T10:07:21.001Z</time></trkpt><trkpt lat="42.3766598" lon="12.2169926"><ele>657.0</ele><time>2026-04-12T10:07:22.001Z</time></trkpt><trkpt lat="42.3766145" lon="12.2171597"><ele>656.5</ele><time>2026-04-12T10:07:23.001Z</time></trkpt><trkpt lat="42.3765669" lon="12.2173366"><ele>656.0</ele><time>2026-04-12T10:07:24.001Z</time></trkpt><trkpt lat="42.3765235" lon="12.2174981"><ele>655.5</ele><time>2026-04-12T10:07:25.001Z</time></trkpt><trkpt lat="42.3764834" lon="12.2176618"><ele>655.0</ele><time>2026-04-12T10:07:26.001Z</time></trkpt><trkpt lat="42.3764418" lon="12.2178422"><ele>655.0</ele><time>2026-04-12T10:07:27.001Z</time></trkpt><trkpt lat="42.3763961" lon="12.2180171"><ele>655.0</ele><time>2026-04-12T10:07:28Z</time></trkpt><trkpt lat="42.376355" lon="12.2181864"><ele>655.0</ele><time>2026-04-12T10:07:29.001Z</time></trkpt><trkpt lat="42.3763232" lon="12.2183535"><ele>655.0</ele><time>2026-04-12T10:07:30Z</time></trkpt><trkpt lat="42.3762927" lon="12.218523"><ele>654.75</ele><time>2026-04-12T10:07:31.001Z</time></trkpt><trkpt lat="42.3762608" lon="12.2186977"><ele>654.5</ele><time>2026-04-12T10:07:32Z</time></trkpt><trkpt lat="42.3762282" lon="12.2188579"><ele>654.25</ele><time>2026-04-12T10:07:33.001Z</time></trkpt><trkpt lat="42.376189" lon="12.2190069"><ele>654.0</ele><time>2026-04-12T10:07:34.001Z</time></trkpt><trkpt lat="42.3761327" lon="12.2191378"><ele>654.0</ele><time>2026-04-12T10:07:35.001Z</time></trkpt><trkpt lat="42.3760693" lon="12.219273"><ele>654.0</ele><time>2026-04-12T10:07:36Z</time></trkpt><trkpt lat="42.3760019" lon="12.2194138"><ele>654.0</ele><time>2026-04-12T10:07:37.001Z</time></trkpt><trkpt lat="42.3759219" lon="12.2195522"><ele>654.0</ele><time>2026-04-12T10:07:38Z</time></trkpt><trkpt lat="42.375852" lon="12.2196887"><ele>654.0</ele><time>2026-04-12T10:07:39Z</time></trkpt><trkpt lat="42.3757577" lon="12.219808"><ele>654.0</ele><time>2026-04-12T10:07:40Z</time></trkpt><trkpt lat="42.375693" lon="12.2199362"><ele>654.0</ele><time>2026-04-12T10:07:41.001Z</time></trkpt><trkpt lat="42.3756174" lon="12.220051"><ele>654.0</ele><time>2026-04-12T10:07:42.001Z</time></trkpt><trkpt lat="42.3755469" lon="12.2201694"><ele>653.4000000000001</ele><time>2026-04-12T10:07:43.001Z</time></trkpt><trkpt lat="42.3754961" lon="12.2202907"><ele>652.8</ele><time>2026-04-12T10:07:44Z</time></trkpt><trkpt lat="42.3754329" lon="12.2204238"><ele>652.2</ele><time>2026-04-12T10:07:45.001Z</time></trkpt><trkpt lat="42.3753708" lon="12.220559"><ele>651.5999999999999</ele><time>2026-04-12T10:07:46Z</time></trkpt><trkpt lat="42.3753186" lon="12.2206869"><ele>651.0</ele><time>2026-04-12T10:07:47.001Z</time></trkpt><trkpt lat="42.3752921" lon="12.220827"><ele>651.0</ele><time>2026-04-12T10:07:48.001Z</time></trkpt><trkpt lat="42.3752545" lon="12.2209636"><ele>651.0</ele><time>2026-04-12T10:07:49Z</time></trkpt><trkpt lat="42.3752094" lon="12.2211088"><ele>651.0</ele><time>2026-04-12T10:07:50.001Z</time></trkpt><trkpt lat="42.3751688" lon="12.2212651"><ele>651.0</ele><time>2026-04-12T10:07:51.001Z</time></trkpt><trkpt lat="42.3751347" lon="12.2213915"><ele>651.0</ele><time>2026-04-12T10:07:52.001Z</time></trkpt><trkpt lat="42.3751118" lon="12.2215245"><ele>650.5</ele><time>2026-04-12T10:07:53.001Z</time></trkpt><trkpt lat="42.3750752" lon="12.221659"><ele>650.0</ele><time>2026-04-12T10:07:54Z</time></trkpt><trkpt lat="42.3750167" lon="12.221786"><ele>649.5</ele><time>2026-04-12T10:07:55.001Z</time></trkpt><trkpt lat="42.3749453" lon="12.2219224"><ele>649.0</ele><time>2026-04-12T10:07:56Z</time></trkpt><trkpt lat="42.3748926" lon="12.2220665"><ele>649.0</ele><time>2026-04-12T10:07:57.001Z</time></trkpt><trkpt lat="42.3748558" lon="12.222202"><ele>649.0</ele><time>2026-04-12T10:07:58.001Z</time></trkpt><trkpt lat="42.3748164" lon="12.2223429"><ele>649.0</ele><time>2026-04-12T10:07:59Z</time></trkpt><trkpt lat="42.3747975" lon="12.2224787"><ele>649.0</ele><time>2026-04-12T10:08:00Z</time></trkpt><trkpt lat="42.3747947" lon="12.222585"><ele>649.0</ele><time>2026-04-12T10:08:01.001Z</time></trkpt><trkpt lat="42.3747773" lon="12.2227006"><ele>647.5</ele><time>2026-04-12T10:08:02.001Z</time></trkpt><trkpt lat="42.3747962" lon="12.2228372"><ele>646.0</ele><time>2026-04-12T10:08:03Z</time></trkpt><trkpt lat="42.374831" lon="12.2230102"><ele>644.5</ele><time>2026-04-12T10:08:04.001Z</time></trkpt><trkpt lat="42.3748419" lon="12.2231574"><ele>643.0</ele><time>2026-04-12T10:08:05.001Z</time></trkpt><trkpt lat="42.3748278" lon="12.2233145"><ele>642.0</ele><time>2026-04-12T10:08:06.001Z</time></trkpt><trkpt lat="42.3748148" lon="12.2234586"><ele>641.0</ele><time>2026-04-12T10:08:07.001Z</time></trkpt><trkpt lat="42.3748007" lon="12.2235956"><ele>640.0</ele><time>2026-04-12T10:08:08Z</time></trkpt><trkpt lat="42.3747827" lon="12.2237321"><ele>639.0</ele><time>2026-04-12T10:08:09.001Z</time></trkpt><trkpt lat="42.3747302" lon="12.2238658"><ele>638.0</ele><time>2026-04-12T10:08:10.001Z</time></trkpt><trkpt lat="42.3746516" lon="12.2240432"><ele>634.5</ele><time>2026-04-12T10:08:11.001Z</time></trkpt><trkpt lat="42.374574" lon="12.2242154"><ele>631.0</ele><time>2026-04-12T10:08:12.002Z</time></trkpt><trkpt lat="42.3745173" lon="12.2243856"><ele>627.5</ele><time>2026-04-12T10:08:13.001Z</time></trkpt><trkpt lat="42.3744857" lon="12.2245596"><ele>624.0</ele><time>2026-04-12T10:08:14Z</time></trkpt><trkpt lat="42.3744557" lon="12.2247215"><ele>622.75</ele><time>2026-04-12T10:08:15.001Z</time></trkpt><trkpt lat="42.3744595" lon="12.2249072"><ele>621.5</ele><time>2026-04-12T10:08:16.001Z</time></trkpt><trkpt lat="42.3744543" lon="12.2250843"><ele>620.25</ele><time>2026-04-12T10:08:17.001Z</time></trkpt><trkpt lat="42.3744737" lon="12.2252339"><ele>619.0</ele><time>2026-04-12T10:08:18.001Z</time></trkpt><trkpt lat="42.3745038" lon="12.225399"><ele>619.0</ele><time>2026-04-12T10:08:19.001Z</time></trkpt><trkpt lat="42.3745905" lon="12.2255527"><ele>619.0</ele><time>2026-04-12T10:08:20.001Z</time></trkpt><trkpt lat="42.3746573" lon="12.225714"><ele>619.0</ele><time>2026-04-12T10:08:21.001Z</time></trkpt><trkpt lat="42.3747264" lon="12.2257997"><ele>619.0</ele><time>2026-04-12T10:08:22.001Z</time></trkpt><trkpt lat="42.3747862" lon="12.2259248"><ele>617.6</ele><time>2026-04-12T10:08:23Z</time></trkpt><trkpt lat="42.3748305" lon="12.2260596"><ele>616.2</ele><time>2026-04-12T10:08:24.001Z</time></trkpt><trkpt lat="42.3748766" lon="12.2261837"><ele>614.8000000000001</ele><time>2026-04-12T10:08:25.001Z</time></trkpt><trkpt lat="42.3749231" lon="12.2263395"><ele>613.4</ele><time>2026-04-12T10:08:26.001Z</time></trkpt><trkpt lat="42.3749431" lon="12.2264577"><ele>612.0</ele><time>2026-04-12T10:08:27.001Z</time></trkpt><trkpt lat="42.3749801" lon="12.22658"><ele>609.0</ele><time>2026-04-12T10:08:28Z</time></trkpt><trkpt lat="42.3750187" lon="12.2267226"><ele>606.0</ele><time>2026-04-12T10:08:29.001Z</time></trkpt><trkpt lat="42.3750726" lon="12.2268522"><ele>603.0</ele><time>2026-04-12T10:08:30.001Z</time></trkpt><trkpt lat="42.3750733" lon="12.2270543"><ele>600.0</ele><time>2026-04-12T10:08:32.001Z</time></trkpt><trkpt lat="42.375079" lon="12.2271635"><ele>600.0</ele><time>2026-04-12T10:08:33.001Z</time></trkpt><trkpt lat="42.3750818" lon="12.227302"><ele>600.0</ele><time>2026-04-12T10:08:34.001Z</time></trkpt><trkpt lat="42.3750739" lon="12.2274195"><ele>600.0</ele><time>2026-04-12T10:08:35.001Z</time></trkpt><trkpt lat="42.375037" lon="12.2275531"><ele>600.0</ele><time>2026-04-12T10:08:36Z</time></trkpt><trkpt lat="42.375012" lon="12.227683"><ele>600.0</ele><time>2026-04-12T10:08:37.001Z</time></trkpt><trkpt lat="42.3750307" lon="12.2278074"><ele>598.2</ele><time>2026-04-12T10:08:38.001Z</time></trkpt><trkpt lat="42.3750331" lon="12.2279339"><ele>596.4</ele><time>2026-04-12T10:08:39Z</time></trkpt><trkpt lat="42.3750326" lon="12.2280496"><ele>594.6</ele><time>2026-04-12T10:08:40.001Z</time></trkpt><trkpt lat="42.375095" lon="12.2281673"><ele>592.8</ele><time>2026-04-12T10:08:41.001Z</time></trkpt><trkpt lat="42.3751374" lon="12.2282943"><ele>591.0</ele><time>2026-04-12T10:08:42.001Z</time></trkpt><trkpt lat="42.3751819" lon="12.2284325"><ele>587.75</ele><time>2026-04-12T10:08:43.001Z</time></trkpt><trkpt lat="42.3752191" lon="12.2285944"><ele>584.5</ele><time>2026-04-12T10:08:44.001Z</time></trkpt><trkpt lat="42.375267" lon="12.2287429"><ele>581.25</ele><time>2026-04-12T10:08:45Z</time></trkpt><trkpt lat="42.3753168" lon="12.2288822"><ele>578.0</ele><time>2026-04-12T10:08:46Z</time></trkpt><trkpt lat="42.3753935" lon="12.2290212"><ele>577.25</ele><time>2026-04-12T10:08:47.001Z</time></trkpt><trkpt lat="42.375469" lon="12.2291593"><ele>576.5</ele><time>2026-04-12T10:08:48.001Z</time></trkpt><trkpt lat="42.3755482" lon="12.2292695"><ele>575.75</ele><time>2026-04-12T10:08:49.001Z</time></trkpt><trkpt lat="42.3756114" lon="12.2294136"><ele>575.0</ele><time>2026-04-12T10:08:50.001Z</time></trkpt><trkpt lat="42.3756968" lon="12.2295456"><ele>573.25</ele><time>2026-04-12T10:08:51.001Z</time></trkpt><trkpt lat="42.3757941" lon="12.229681"><ele>571.5</ele><time>2026-04-12T10:08:52Z</time></trkpt><trkpt lat="42.3758918" lon="12.2298061"><ele>569.75</ele><time>2026-04-12T10:08:53.001Z</time></trkpt><trkpt lat="42.3759926" lon="12.2298863"><ele>568.0</ele><time>2026-04-12T10:08:54Z</time></trkpt><trkpt lat="42.3760829" lon="12.2299934"><ele>568.0</ele><time>2026-04-12T10:08:55.001Z</time></trkpt><trkpt lat="42.3761835" lon="12.2300947"><ele>568.0</ele><time>2026-04-12T10:08:56.001Z</time></trkpt><trkpt lat="42.3762669" lon="12.2301631"><ele>568.0</ele><time>2026-04-12T10:08:57.001Z</time></trkpt><trkpt lat="42.3763623" lon="12.2302361"><ele>568.0</ele><time>2026-04-12T10:08:58.001Z</time></trkpt><trkpt lat="42.3764556" lon="12.2303086"><ele>568.0</ele><time>2026-04-12T10:08:59Z</time></trkpt><trkpt lat="42.3765567" lon="12.230395"><ele>565.5</ele><time>2026-04-12T10:09:00.001Z</time></trkpt><trkpt lat="42.3766816" lon="12.2304759"><ele>563.0</ele><time>2026-04-12T10:09:01.001Z</time></trkpt><trkpt lat="42.3768101" lon="12.2305602"><ele>560.5</ele><time>2026-04-12T10:09:02.001Z</time></trkpt><trkpt lat="42.3769293" lon="12.2306307"><ele>558.0</ele><time>2026-04-12T10:09:03Z</time></trkpt><trkpt lat="42.3770459" lon="12.2306718"><ele>555.25</ele><time>2026-04-12T10:09:04.001Z</time></trkpt><trkpt lat="42.3771566" lon="12.230688"><ele>552.5</ele><time>2026-04-12T10:09:05Z</time></trkpt><trkpt lat="42.3772845" lon="12.2307068"><ele>549.75</ele><time>2026-04-12T10:09:06.001Z</time></trkpt><trkpt lat="42.3774028" lon="12.2307129"><ele>547.0</ele><time>2026-04-12T10:09:07.001Z</time></trkpt><trkpt lat="42.3775245" lon="12.2307225"><ele>546.6666666666667</ele><time>2026-04-12T10:09:08.001Z</time></trkpt><trkpt lat="42.3776202" lon="12.2306715"><ele>546.3333333333334</ele><time>2026-04-12T10:09:09Z</time></trkpt><trkpt lat="42.377711" lon="12.2306452"><ele>546.0</ele><time>2026-04-12T10:09:10.001Z</time></trkpt><trkpt lat="42.377762" lon="12.2305739"><ele>545.6666666666666</ele><time>2026-04-12T10:09:11.001Z</time></trkpt><trkpt lat="42.3778321" lon="12.2305114"><ele>545.3333333333333</ele><time>2026-04-12T10:09:13Z</time></trkpt><trkpt lat="42.3779056" lon="12.2304668"><ele>545.0</ele><time>2026-04-12T10:09:15.001Z</time></trkpt><trkpt lat="42.3780322" lon="12.2304598"><ele>543.3333333333333</ele><time>2026-04-12T10:09:17.001Z</time></trkpt><trkpt lat="42.3781253" lon="12.2304873"><ele>541.6666666666666</ele><time>2026-04-12T10:09:18.001Z</time></trkpt><trkpt lat="42.3781967" lon="12.2305127"><ele>540.0</ele><time>2026-04-12T10:09:19Z</time></trkpt><trkpt lat="42.37826" lon="12.2305984"><ele>538.3333333333334</ele><time>2026-04-12T10:09:20.001Z</time></trkpt><trkpt lat="42.378315" lon="12.2306487"><ele>536.6666666666667</ele><time>2026-04-12T10:09:21Z</time></trkpt><trkpt lat="42.3783679" lon="12.2307008"><ele>535.0</ele><time>2026-04-12T10:09:22.001Z</time></trkpt><trkpt lat="42.3784282" lon="12.2307524"><ele>535.0</ele><time>2026-04-12T10:09:23.001Z</time></trkpt><trkpt lat="42.3784903" lon="12.2308283"><ele>535.0</ele><time>2026-04-12T10:09:24.001Z</time></trkpt><trkpt lat="42.378569" lon="12.2309011"><ele>535.0</ele><time>2026-04-12T10:09:25Z</time></trkpt><trkpt lat="42.3786344" lon="12.2309758"><ele>535.0</ele><time>2026-04-12T10:09:26.001Z</time></trkpt><trkpt lat="42.3787016" lon="12.2310715"><ele>535.0</ele><time>2026-04-12T10:09:27Z</time></trkpt><trkpt lat="42.3787793" lon="12.2311471"><ele>532.75</ele><time>2026-04-12T10:09:28.001Z</time></trkpt><trkpt lat="42.3788662" lon="12.2313424"><ele>530.5</ele><time>2026-04-12T10:09:29.001Z</time></trkpt><trkpt lat="42.3789349" lon="12.2315024"><ele>528.25</ele><time>2026-04-12T10:09:30.001Z</time></trkpt><trkpt lat="42.3790075" lon="12.2316379"><ele>526.0</ele><time>2026-04-12T10:09:31.001Z</time></trkpt><trkpt lat="42.3790719" lon="12.2318231"><ele>525.0</ele><time>2026-04-12T10:09:32.001Z</time></trkpt><trkpt lat="42.379142" lon="12.2319253"><ele>524.0</ele><time>2026-04-12T10:09:33.001Z</time></trkpt><trkpt lat="42.3791885" lon="12.2320593"><ele>523.0</ele><time>2026-04-12T10:09:34Z</time></trkpt><trkpt lat="42.3792313" lon="12.2321991"><ele>522.0</ele><time>2026-04-12T10:09:35.001Z</time></trkpt><trkpt lat="42.379288" lon="12.2323199"><ele>521.0</ele><time>2026-04-12T10:09:36.001Z</time></trkpt><trkpt lat="42.3793389" lon="12.2324279"><ele>519.25</ele><time>2026-04-12T10:09:37Z</time></trkpt><trkpt lat="42.3794179" lon="12.2325931"><ele>517.5</ele><time>2026-04-12T10:09:38.001Z</time></trkpt><trkpt lat="42.3794576" lon="12.2326944"><ele>515.75</ele><time>2026-04-12T10:09:39Z</time></trkpt><trkpt lat="42.3794749" lon="12.2328031"><ele>514.0</ele><time>2026-04-12T10:09:40.001Z</time></trkpt><trkpt lat="42.3796158" lon="12.2328883"><ele>513.6666666666667</ele><time>2026-04-12T10:09:42Z</time></trkpt><trkpt lat="42.3796845" lon="12.2328904"><ele>513.3333333333334</ele><time>2026-04-12T10:09:43Z</time></trkpt><trkpt lat="42.3797452" lon="12.2329564"><ele>513.0</ele><time>2026-04-12T10:09:44Z</time></trkpt><trkpt lat="42.3798161" lon="12.2330144"><ele>512.6666666666666</ele><time>2026-04-12T10:09:45.001Z</time></trkpt><trkpt lat="42.379925" lon="12.233095"><ele>512.3333333333333</ele><time>2026-04-12T10:09:47.001Z</time></trkpt><trkpt lat="42.3800078" lon="12.2331227"><ele>512.0</ele><time>2026-04-12T10:09:48.999Z</time></trkpt><trkpt lat="42.3800933" lon="12.233096"><ele>511.99999999999994</ele><time>2026-04-12T10:09:51.001Z</time></trkpt><trkpt lat="42.3801898" lon="12.233083"><ele>512.0</ele><time>2026-04-12T10:09:53Z</time></trkpt><trkpt lat="42.3802589" lon="12.233056"><ele>512.0</ele><time>2026-04-12T10:09:54.001Z</time></trkpt><trkpt lat="42.3803196" lon="12.2331029"><ele>512.0</ele><time>2026-04-12T10:09:56.001Z</time></trkpt><trkpt lat="42.380379" lon="12.2331739"><ele>511.99999999999994</ele><time>2026-04-12T10:09:58Z</time></trkpt><trkpt lat="42.3804644" lon="12.2332146"><ele>512.0</ele><time>2026-04-12T10:10:00.001Z</time></trkpt><trkpt lat="42.3805051" lon="12.233286"><ele>509.16666666666663</ele><time>2026-04-12T10:10:01.001Z</time></trkpt><trkpt lat="42.3806045" lon="12.2333397"><ele>506.3333333333333</ele><time>2026-04-12T10:10:03Z</time></trkpt><trkpt lat="42.3806799" lon="12.2333184"><ele>503.5</ele><time>2026-04-12T10:10:04.999Z</time></trkpt><trkpt lat="42.3806074" lon="12.2332901"><ele>500.66666666666663</ele><time>2026-04-12T10:10:06.001Z</time></trkpt><trkpt lat="42.3805578" lon="12.2333696"><ele>497.8333333333333</ele><time>2026-04-12T10:10:18Z</time></trkpt><trkpt lat="42.3805016" lon="12.2334859"><ele>495.0</ele><time>2026-04-12T10:10:21.001Z</time></trkpt><trkpt lat="42.3804078" lon="12.233604"><ele>494.99999999999994</ele><time>2026-04-12T10:10:22.001Z</time></trkpt><trkpt lat="42.3803606" lon="12.2336928"><ele>495.0</ele><time>2026-04-12T10:10:23Z</time></trkpt><trkpt lat="42.3803173" lon="12.2337553"><ele>494.99999999999994</ele><time>2026-04-12T10:10:24Z</time></trkpt><trkpt lat="42.3802836" lon="12.2338365"><ele>494.99999999999994</ele><time>2026-04-12T10:10:25.001Z</time></trkpt><trkpt lat="42.3802489" lon="12.233914"><ele>495.0</ele><time>2026-04-12T10:10:26Z</time></trkpt><trkpt lat="42.3802117" lon="12.2339978"><ele>494.99999999999994</ele><time>2026-04-12T10:10:27.001Z</time></trkpt><trkpt lat="42.3801781" lon="12.2340847"><ele>494.99999999999994</ele><time>2026-04-12T10:10:28.001Z</time></trkpt><trkpt lat="42.3801455" lon="12.2341834"><ele>491.8</ele><time>2026-04-12T10:10:29Z</time></trkpt><trkpt lat="42.3800953" lon="12.2342669"><ele>488.6</ele><time>2026-04-12T10:10:30.001Z</time></trkpt><trkpt lat="42.3800439" lon="12.2343571"><ele>485.4</ele><time>2026-04-12T10:10:31Z</time></trkpt><trkpt lat="42.380003" lon="12.2344677"><ele>482.2</ele><time>2026-04-12T10:10:32.001Z</time></trkpt><trkpt lat="42.3799098" lon="12.2345803"><ele>479.0</ele><time>2026-04-12T10:10:33Z</time></trkpt><trkpt lat="42.3798461" lon="12.2347162"><ele>478.2</ele><time>2026-04-12T10:10:34.001Z</time></trkpt><trkpt lat="42.3797932" lon="12.234843"><ele>477.4</ele><time>2026-04-12T10:10:34.999Z</time></trkpt><trkpt lat="42.3797286" lon="12.2349707"><ele>476.6</ele><time>2026-04-12T10:10:36.001Z</time></trkpt><trkpt lat="42.3796731" lon="12.2350984"><ele>475.8</ele><time>2026-04-12T10:10:37.001Z</time></trkpt><trkpt lat="42.3796231" lon="12.2352272"><ele>475.0</ele><time>2026-04-12T10:10:38.001Z</time></trkpt><trkpt lat="42.3795882" lon="12.2353616"><ele>475.0</ele><time>2026-04-12T10:10:39Z</time></trkpt><trkpt lat="42.3795847" lon="12.2354964"><ele>475.0</ele><time>2026-04-12T10:10:40Z</time></trkpt><trkpt lat="42.3795886" lon="12.2356264"><ele>475.0</ele><time>2026-04-12T10:10:40.999Z</time></trkpt><trkpt lat="42.3796264" lon="12.235744"><ele>475.0</ele><time>2026-04-12T10:10:42.001Z</time></trkpt><trkpt lat="42.3797376" lon="12.2359322"><ele>475.0</ele><time>2026-04-12T10:10:43.001Z</time></trkpt><trkpt lat="42.379825" lon="12.236084"><ele>475.0</ele><time>2026-04-12T10:10:44.001Z</time></trkpt><trkpt lat="42.3799096" lon="12.2362226"><ele>475.0</ele><time>2026-04-12T10:10:45.001Z</time></trkpt><trkpt lat="42.3799865" lon="12.2363573"><ele>475.0</ele><time>2026-04-12T10:10:46.001Z</time></trkpt><trkpt lat="42.3800576" lon="12.2364821"><ele>475.0</ele><time>2026-04-12T10:10:47.001Z</time></trkpt><trkpt lat="42.3801204" lon="12.2366018"><ele>475.0</ele><time>2026-04-12T10:10:48.001Z</time></trkpt><trkpt lat="42.3801649" lon="12.2367306"><ele>475.0</ele><time>2026-04-12T10:10:49Z</time></trkpt><trkpt lat="42.3801939" lon="12.2368632"><ele>475.0</ele><time>2026-04-12T10:10:50.001Z</time></trkpt><trkpt lat="42.3802026" lon="12.2369902"><ele>475.0</ele><time>2026-04-12T10:10:51Z</time></trkpt><trkpt lat="42.3801804" lon="12.2371034"><ele>475.0</ele><time>2026-04-12T10:10:52.001Z</time></trkpt><trkpt lat="42.3801269" lon="12.2372162"><ele>475.0</ele><time>2026-04-12T10:10:53Z</time></trkpt><trkpt lat="42.3800717" lon="12.2373175"><ele>475.0</ele><time>2026-04-12T10:10:54.001Z</time></trkpt><trkpt lat="42.3799787" lon="12.2373884"><ele>475.0</ele><time>2026-04-12T10:10:55.001Z</time></trkpt><trkpt lat="42.3798856" lon="12.2374787"><ele>475.0</ele><time>2026-04-12T10:10:55.999Z</time></trkpt><trkpt lat="42.3797851" lon="12.2375952"><ele>474.33333333333337</ele><time>2026-04-12T10:10:57.001Z</time></trkpt><trkpt lat="42.3797091" lon="12.2376917"><ele>473.6666666666667</ele><time>2026-04-12T10:10:58Z</time></trkpt><trkpt lat="42.3796504" lon="12.2378265"><ele>473.0</ele><time>2026-04-12T10:10:59.001Z</time></trkpt><trkpt lat="42.3796097" lon="12.2379286"><ele>472.33333333333337</ele><time>2026-04-12T10:11:00Z</time></trkpt><trkpt lat="42.3796122" lon="12.2380199"><ele>471.6666666666667</ele><time>2026-04-12T10:11:01.001Z</time></trkpt><trkpt lat="42.3796086" lon="12.2381225"><ele>471.0</ele><time>2026-04-12T10:11:02Z</time></trkpt><trkpt lat="42.3796593" lon="12.2382324"><ele>473.66666666666663</ele><time>2026-04-12T10:11:02.999Z</time></trkpt><trkpt lat="42.3797971" lon="12.2383336"><ele>476.3333333333333</ele><time>2026-04-12T10:11:04.001Z</time></trkpt><trkpt lat="42.3799015" lon="12.2383875"><ele>479.0</ele><time>2026-04-12T10:11:05.001Z</time></trkpt><trkpt lat="42.380145" lon="12.238437"><ele>479.0</ele><time>2026-04-12T10:11:06.001Z</time></trkpt><trkpt lat="42.3803392" lon="12.2383743"><ele>479.0</ele><time>2026-04-12T10:11:07.001Z</time></trkpt><trkpt lat="42.3804604" lon="12.2384105"><ele>479.0</ele><time>2026-04-12T10:11:08.001Z</time></trkpt><trkpt lat="42.3807028" lon="12.2384504"><ele>475.75</ele><time>2026-04-12T10:11:08.999Z</time></trkpt><trkpt lat="42.3808355" lon="12.238514"><ele>472.5</ele><time>2026-04-12T10:11:10.001Z</time></trkpt><trkpt lat="42.3809784" lon="12.2385462"><ele>469.25</ele><time>2026-04-12T10:11:11.001Z</time></trkpt><trkpt lat="42.3811109" lon="12.2385839"><ele>466.0</ele><time>2026-04-12T10:11:12.001Z</time></trkpt><trkpt lat="42.3812217" lon="12.2386363"><ele>466.0</ele><time>2026-04-12T10:11:13.001Z</time></trkpt><trkpt lat="42.3813296" lon="12.2387"><ele>466.0</ele><time>2026-04-12T10:11:14Z</time></trkpt><trkpt lat="42.3814199" lon="12.2387887"><ele>466.0</ele><time>2026-04-12T10:11:15Z</time></trkpt><trkpt lat="42.3814966" lon="12.2388933"><ele>466.0</ele><time>2026-04-12T10:11:16.001Z</time></trkpt><trkpt lat="42.3815765" lon="12.2390096"><ele>465.25</ele><time>2026-04-12T10:11:17.001Z</time></trkpt><trkpt lat="42.3816557" lon="12.2391356"><ele>464.5</ele><time>2026-04-12T10:11:17.999Z</time></trkpt><trkpt lat="42.3817335" lon="12.2392759"><ele>463.75</ele><time>2026-04-12T10:11:19Z</time></trkpt><trkpt lat="42.3818119" lon="12.239435"><ele>463.0</ele><time>2026-04-12T10:11:20.001Z</time></trkpt><trkpt lat="42.3819025" lon="12.2395991"><ele>463.0</ele><time>2026-04-12T10:11:21.001Z</time></trkpt><trkpt lat="42.3820069" lon="12.2397766"><ele>463.0</ele><time>2026-04-12T10:11:22.001Z</time></trkpt><trkpt lat="42.3821073" lon="12.2399444"><ele>463.0</ele><time>2026-04-12T10:11:23Z</time></trkpt><trkpt lat="42.3822127" lon="12.24012"><ele>460.6666666666667</ele><time>2026-04-12T10:11:24.001Z</time></trkpt><trkpt lat="42.3822928" lon="12.2403223"><ele>458.33333333333337</ele><time>2026-04-12T10:11:25Z</time></trkpt><trkpt lat="42.3823772" lon="12.2405216"><ele>456.0</ele><time>2026-04-12T10:11:26Z</time></trkpt><trkpt lat="42.3824382" lon="12.2407524"><ele>456.0</ele><time>2026-04-12T10:11:27.001Z</time></trkpt><trkpt lat="42.3823434" lon="12.2410169"><ele>456.0</ele><time>2026-04-12T10:11:28Z</time></trkpt><trkpt lat="42.3823516" lon="12.2412353"><ele>456.0</ele><time>2026-04-12T10:11:29.001Z</time></trkpt><trkpt lat="42.3823466" lon="12.2414655"><ele>458.33333333333337</ele><time>2026-04-12T10:11:30.001Z</time></trkpt><trkpt lat="42.3823993" lon="12.2416478"><ele>460.6666666666667</ele><time>2026-04-12T10:11:31.001Z</time></trkpt><trkpt lat="42.382538" lon="12.2418037"><ele>463.0</ele><time>2026-04-12T10:11:32.001Z</time></trkpt><trkpt lat="42.3827077" lon="12.2419923"><ele>463.0</ele><time>2026-04-12T10:11:33.001Z</time></trkpt><trkpt lat="42.3828237" lon="12.24219"><ele>463.0</ele><time>2026-04-12T10:11:34.001Z</time></trkpt><trkpt lat="42.3829119" lon="12.242412"><ele>463.0</ele><time>2026-04-12T10:11:35.001Z</time></trkpt><trkpt lat="42.3830288" lon="12.2425984"><ele>461.0</ele><time>2026-04-12T10:11:36.001Z</time></trkpt><trkpt lat="42.3831317" lon="12.2427655"><ele>459.0</ele><time>2026-04-12T10:11:37Z</time></trkpt><trkpt lat="42.3832968" lon="12.2428978"><ele>457.0</ele><time>2026-04-12T10:11:38.001Z</time></trkpt><trkpt lat="42.383441" lon="12.2429599"><ele>457.0</ele><time>2026-04-12T10:11:39Z</time></trkpt><trkpt lat="42.3835864" lon="12.2430922"><ele>457.0</ele><time>2026-04-12T10:11:40.001Z</time></trkpt><trkpt lat="42.383727" lon="12.2432618"><ele>457.0</ele><time>2026-04-12T10:11:41.001Z</time></trkpt><trkpt lat="42.3838226" lon="12.2435139"><ele>456.6666666666667</ele><time>2026-04-12T10:11:42.001Z</time></trkpt><trkpt lat="42.3839388" lon="12.2437439"><ele>456.33333333333337</ele><time>2026-04-12T10:11:42.999Z</time></trkpt><trkpt lat="42.3840479" lon="12.243953"><ele>456.0</ele><time>2026-04-12T10:11:44.001Z</time></trkpt><trkpt lat="42.384141" lon="12.2441181"><ele>458.0</ele><time>2026-04-12T10:11:45.001Z</time></trkpt><trkpt lat="42.384215" lon="12.2442339"><ele>460.0</ele><time>2026-04-12T10:11:46.001Z</time></trkpt><trkpt lat="42.3842822" lon="12.2443661"><ele>462.0</ele><time>2026-04-12T10:11:47.001Z</time></trkpt><trkpt lat="42.3843491" lon="12.2444815"><ele>464.0</ele><time>2026-04-12T10:11:48Z</time></trkpt><trkpt lat="42.3844139" lon="12.2445715"><ele>466.0</ele><time>2026-04-12T10:11:49Z</time></trkpt><trkpt lat="42.3844731" lon="12.244693"><ele>466.25</ele><time>2026-04-12T10:11:50Z</time></trkpt><trkpt lat="42.3845357" lon="12.2448432"><ele>466.5</ele><time>2026-04-12T10:11:51.001Z</time></trkpt><trkpt lat="42.3845946" lon="12.2450088"><ele>466.75</ele><time>2026-04-12T10:11:52.001Z</time></trkpt><trkpt lat="42.3846371" lon="12.2451741"><ele>467.0</ele><time>2026-04-12T10:11:53Z</time></trkpt><trkpt lat="42.3846601" lon="12.2453405"><ele>467.0</ele><time>2026-04-12T10:11:54.001Z</time></trkpt><trkpt lat="42.3846699" lon="12.2455103"><ele>467.0</ele><time>2026-04-12T10:11:55Z</time></trkpt><trkpt lat="42.3846306" lon="12.245671"><ele>467.0</ele><time>2026-04-12T10:11:56.001Z</time></trkpt><trkpt lat="42.3845874" lon="12.2458392"><ele>467.0</ele><time>2026-04-12T10:11:57.001Z</time></trkpt><trkpt lat="42.3845355" lon="12.2460039"><ele>466.3333333333333</ele><time>2026-04-12T10:11:58.001Z</time></trkpt><trkpt lat="42.38447" lon="12.2461618"><ele>465.66666666666663</ele><time>2026-04-12T10:11:59.001Z</time></trkpt><trkpt lat="42.3843751" lon="12.2463366"><ele>465.0</ele><time>2026-04-12T10:12:00Z</time></trkpt><trkpt lat="42.3842563" lon="12.2466204"><ele>463.33333333333337</ele><time>2026-04-12T10:12:01.001Z</time></trkpt><trkpt lat="42.3841439" lon="12.2468706"><ele>461.6666666666667</ele><time>2026-04-12T10:12:02.001Z</time></trkpt><trkpt lat="42.3840406" lon="12.2471163"><ele>460.0</ele><time>2026-04-12T10:12:03.001Z</time></trkpt><trkpt lat="42.3839609" lon="12.2473962"><ele>458.0</ele><time>2026-04-12T10:12:04.001Z</time></trkpt><trkpt lat="42.3838706" lon="12.247682"><ele>456.0</ele><time>2026-04-12T10:12:05Z</time></trkpt><trkpt lat="42.3838175" lon="12.2479688"><ele>454.0</ele><time>2026-04-12T10:12:06.001Z</time></trkpt><trkpt lat="42.3837762" lon="12.2482496"><ele>453.0</ele><time>2026-04-12T10:12:07.001Z</time></trkpt><trkpt lat="42.3837502" lon="12.2485156"><ele>452.0</ele><time>2026-04-12T10:12:08.001Z</time></trkpt><trkpt lat="42.3837314" lon="12.2487721"><ele>451.0</ele><time>2026-04-12T10:12:09.001Z</time></trkpt><trkpt lat="42.3837217" lon="12.2490193"><ele>450.33333333333337</ele><time>2026-04-12T10:12:10.001Z</time></trkpt><trkpt lat="42.3837191" lon="12.2492536"><ele>449.66666666666663</ele><time>2026-04-12T10:12:11.001Z</time></trkpt><trkpt lat="42.383718" lon="12.2494801"><ele>449.0</ele><time>2026-04-12T10:12:12.001Z</time></trkpt><trkpt lat="42.3837302" lon="12.2496984"><ele>448.0</ele><time>2026-04-12T10:12:13.001Z</time></trkpt><trkpt lat="42.3837403" lon="12.249904"><ele>447.0</ele><time>2026-04-12T10:12:14Z</time></trkpt><trkpt lat="42.3837426" lon="12.2500992"><ele>446.0</ele><time>2026-04-12T10:12:15Z</time></trkpt><trkpt lat="42.383738" lon="12.2502888"><ele>445.0</ele><time>2026-04-12T10:12:16.001Z</time></trkpt><trkpt lat="42.3837345" lon="12.2504714"><ele>443.5</ele><time>2026-04-12T10:12:17.001Z</time></trkpt><trkpt lat="42.3837214" lon="12.2506411"><ele>442.0</ele><time>2026-04-12T10:12:18.001Z</time></trkpt><trkpt lat="42.3837124" lon="12.2508057"><ele>440.5</ele><time>2026-04-12T10:12:19.001Z</time></trkpt><trkpt lat="42.3837083" lon="12.2509649"><ele>439.0</ele><time>2026-04-12T10:12:19.999Z</time></trkpt><trkpt lat="42.3837022" lon="12.2510935"><ele>439.00000000000006</ele><time>2026-04-12T10:12:21Z</time></trkpt><trkpt lat="42.3836859" lon="12.2512034"><ele>439.0</ele><time>2026-04-12T10:12:22.001Z</time></trkpt><trkpt lat="42.3836465" lon="12.2513011"><ele>439.0</ele><time>2026-04-12T10:12:23.001Z</time></trkpt><trkpt lat="42.3835938" lon="12.2513794"><ele>439.0</ele><time>2026-04-12T10:12:24.001Z</time></trkpt><trkpt lat="42.3835272" lon="12.251435"><ele>439.00000000000006</ele><time>2026-04-12T10:12:25.001Z</time></trkpt><trkpt lat="42.3834588" lon="12.2514619"><ele>439.0</ele><time>2026-04-12T10:12:26.001Z</time></trkpt><trkpt lat="42.3833903" lon="12.2514786"><ele>438.83333333333337</ele><time>2026-04-12T10:12:27.001Z</time></trkpt><trkpt lat="42.3833234" lon="12.2514837"><ele>438.6666666666667</ele><time>2026-04-12T10:12:28.001Z</time></trkpt><trkpt lat="42.3832598" lon="12.2514862"><ele>438.5</ele><time>2026-04-12T10:12:29Z</time></trkpt><trkpt lat="42.3832001" lon="12.25152"><ele>438.33333333333337</ele><time>2026-04-12T10:12:30.001Z</time></trkpt><trkpt lat="42.3830861" lon="12.2515725"><ele>438.1666666666667</ele><time>2026-04-12T10:12:32.001Z</time></trkpt><trkpt lat="42.3829724" lon="12.2516151"><ele>438.0</ele><time>2026-04-12T10:12:34.001Z</time></trkpt><trkpt lat="42.3828664" lon="12.2516812"><ele>438.4</ele><time>2026-04-12T10:12:36.001Z</time></trkpt><trkpt lat="42.382753" lon="12.2517762"><ele>438.79999999999995</ele><time>2026-04-12T10:12:38.001Z</time></trkpt><trkpt lat="42.3826855" lon="12.2518595"><ele>439.2</ele><time>2026-04-12T10:12:39Z</time></trkpt><trkpt lat="42.3826104" lon="12.2519592"><ele>439.6</ele><time>2026-04-12T10:12:40.001Z</time></trkpt><trkpt lat="42.3825268" lon="12.2520743"><ele>440.0</ele><time>2026-04-12T10:12:41Z</time></trkpt><trkpt lat="42.3824461" lon="12.2522202"><ele>439.66666666666663</ele><time>2026-04-12T10:12:42.001Z</time></trkpt><trkpt lat="42.3823684" lon="12.2523819"><ele>439.33333333333337</ele><time>2026-04-12T10:12:43.001Z</time></trkpt><trkpt lat="42.3822964" lon="12.2525665"><ele>439.0</ele><time>2026-04-12T10:12:44.001Z</time></trkpt><trkpt lat="42.3822306" lon="12.2527769"><ele>441.6666666666667</ele><time>2026-04-12T10:12:45Z</time></trkpt><trkpt lat="42.3821659" lon="12.2530024"><ele>444.33333333333337</ele><time>2026-04-12T10:12:46.001Z</time></trkpt><trkpt lat="42.3821062" lon="12.2532299"><ele>447.0</ele><time>2026-04-12T10:12:47.001Z</time></trkpt><trkpt lat="42.3820499" lon="12.2534414"><ele>447.0</ele><time>2026-04-12T10:12:48.001Z</time></trkpt><trkpt lat="42.3819958" lon="12.2536305"><ele>447.0</ele><time>2026-04-12T10:12:49.001Z</time></trkpt><trkpt lat="42.3819311" lon="12.2538366"><ele>447.0</ele><time>2026-04-12T10:12:50.001Z</time></trkpt><trkpt lat="42.3818568" lon="12.2540377"><ele>444.33333333333337</ele><time>2026-04-12T10:12:51.001Z</time></trkpt><trkpt lat="42.3817648" lon="12.2542235"><ele>441.6666666666667</ele><time>2026-04-12T10:12:52.001Z</time></trkpt><trkpt lat="42.3816637" lon="12.2543981"><ele>439.0</ele><time>2026-04-12T10:12:53.001Z</time></trkpt><trkpt lat="42.3815212" lon="12.2545513"><ele>439.0</ele><time>2026-04-12T10:12:54.001Z</time></trkpt><trkpt lat="42.3813719" lon="12.2546875"><ele>439.0</ele><time>2026-04-12T10:12:55Z</time></trkpt><trkpt lat="42.3812222" lon="12.2548053"><ele>439.0</ele><time>2026-04-12T10:12:56.001Z</time></trkpt><trkpt lat="42.381075" lon="12.2549208"><ele>438.33333333333337</ele><time>2026-04-12T10:12:57Z</time></trkpt><trkpt lat="42.3809297" lon="12.2550284"><ele>437.66666666666663</ele><time>2026-04-12T10:12:58.001Z</time></trkpt><trkpt lat="42.3807815" lon="12.2551306"><ele>437.0</ele><time>2026-04-12T10:12:59Z</time></trkpt><trkpt lat="42.380633" lon="12.2552497"><ele>436.3333333333333</ele><time>2026-04-12T10:13:00.001Z</time></trkpt><trkpt lat="42.3804871" lon="12.2553778"><ele>435.66666666666663</ele><time>2026-04-12T10:13:01.001Z</time></trkpt><trkpt lat="42.3803482" lon="12.2555229"><ele>435.0</ele><time>2026-04-12T10:13:02.001Z</time></trkpt><trkpt lat="42.3802263" lon="12.2556822"><ele>431.66666666666663</ele><time>2026-04-12T10:13:03Z</time></trkpt><trkpt lat="42.3800918" lon="12.2558505"><ele>428.3333333333333</ele><time>2026-04-12T10:13:04.001Z</time></trkpt><trkpt lat="42.3799452" lon="12.2560429"><ele>425.0</ele><time>2026-04-12T10:13:05.001Z</time></trkpt><trkpt lat="42.3796842" lon="12.256405"><ele>417.3333333333333</ele><time>2026-04-12T10:13:07Z</time></trkpt><trkpt lat="42.3795528" lon="12.2565805"><ele>409.66666666666663</ele><time>2026-04-12T10:13:08.001Z</time></trkpt><trkpt lat="42.3794166" lon="12.2567586"><ele>402.0</ele><time>2026-04-12T10:13:09.001Z</time></trkpt><trkpt lat="42.3792828" lon="12.256939"><ele>402.0</ele><time>2026-04-12T10:13:10.001Z</time></trkpt><trkpt lat="42.3791448" lon="12.257126"><ele>402.0</ele><time>2026-04-12T10:13:11.001Z</time></trkpt><trkpt lat="42.379005" lon="12.2573144"><ele>402.0</ele><time>2026-04-12T10:13:12Z</time></trkpt><trkpt lat="42.3788633" lon="12.2575029"><ele>410.0</ele><time>2026-04-12T10:13:13.001Z</time></trkpt><trkpt lat="42.3787211" lon="12.2576978"><ele>418.0</ele><time>2026-04-12T10:13:14.001Z</time></trkpt><trkpt lat="42.3785859" lon="12.2578969"><ele>426.0</ele><time>2026-04-12T10:13:15.001Z</time></trkpt><trkpt lat="42.3784624" lon="12.2581062"><ele>426.66666666666663</ele><time>2026-04-12T10:13:16.001Z</time></trkpt><trkpt lat="42.3783425" lon="12.2583247"><ele>427.3333333333333</ele><time>2026-04-12T10:13:17.001Z</time></trkpt><trkpt lat="42.3782418" lon="12.2585556"><ele>428.0</ele><time>2026-04-12T10:13:18.001Z</time></trkpt><trkpt lat="42.3781504" lon="12.2588004"><ele>426.66666666666663</ele><time>2026-04-12T10:13:19.001Z</time></trkpt><trkpt lat="42.3780592" lon="12.2590558"><ele>425.33333333333337</ele><time>2026-04-12T10:13:20Z</time></trkpt><trkpt lat="42.3779769" lon="12.2593252"><ele>424.0</ele><time>2026-04-12T10:13:21.001Z</time></trkpt><trkpt lat="42.3778886" lon="12.2596055"><ele>423.0</ele><time>2026-04-12T10:13:22.001Z</time></trkpt><trkpt lat="42.3777943" lon="12.2598924"><ele>422.0</ele><time>2026-04-12T10:13:23.001Z</time></trkpt><trkpt lat="42.3776855" lon="12.2601866"><ele>422.0</ele><time>2026-04-12T10:13:24Z</time></trkpt><trkpt lat="42.3775549" lon="12.2604841"><ele>422.0</ele><time>2026-04-12T10:13:25.001Z</time></trkpt><trkpt lat="42.3774006" lon="12.2607764"><ele>420.5</ele><time>2026-04-12T10:13:26Z</time></trkpt><trkpt lat="42.3772456" lon="12.2610381"><ele>419.0</ele><time>2026-04-12T10:13:27Z</time></trkpt><trkpt lat="42.3770884" lon="12.2612777"><ele>416.66666666666663</ele><time>2026-04-12T10:13:28.001Z</time></trkpt><trkpt lat="42.3769389" lon="12.2615031"><ele>414.33333333333337</ele><time>2026-04-12T10:13:29.001Z</time></trkpt><trkpt lat="42.3767983" lon="12.261714"><ele>412.0</ele><time>2026-04-12T10:13:30.001Z</time></trkpt><trkpt lat="42.37667" lon="12.2619055"><ele>412.0</ele><time>2026-04-12T10:13:31.001Z</time></trkpt><trkpt lat="42.3765542" lon="12.2620848"><ele>412.0</ele><time>2026-04-12T10:13:32.001Z</time></trkpt><trkpt lat="42.3764468" lon="12.2622614"><ele>412.0</ele><time>2026-04-12T10:13:33.001Z</time></trkpt><trkpt lat="42.376349" lon="12.2624369"><ele>410.5</ele><time>2026-04-12T10:13:34.001Z</time></trkpt><trkpt lat="42.3762638" lon="12.262603"><ele>409.0</ele><time>2026-04-12T10:13:35Z</time></trkpt><trkpt lat="42.3761935" lon="12.2627596"><ele>407.5</ele><time>2026-04-12T10:13:36.001Z</time></trkpt><trkpt lat="42.3761426" lon="12.2628973"><ele>406.0</ele><time>2026-04-12T10:13:37Z</time></trkpt><trkpt lat="42.3761023" lon="12.2630148"><ele>405.0</ele><time>2026-04-12T10:13:38Z</time></trkpt><trkpt lat="42.376064" lon="12.2631373"><ele>404.0</ele><time>2026-04-12T10:13:39Z</time></trkpt><trkpt lat="42.3760219" lon="12.2632793"><ele>403.0</ele><time>2026-04-12T10:13:40.001Z</time></trkpt><trkpt lat="42.3759762" lon="12.2634465"><ele>402.0</ele><time>2026-04-12T10:13:40.999Z</time></trkpt><trkpt lat="42.3759362" lon="12.2636396"><ele>401.5</ele><time>2026-04-12T10:13:42Z</time></trkpt><trkpt lat="42.3758964" lon="12.2640903"><ele>401.0</ele><time>2026-04-12T10:13:44.001Z</time></trkpt><trkpt lat="42.3758937" lon="12.2643336"><ele>401.0</ele><time>2026-04-12T10:13:45Z</time></trkpt><trkpt lat="42.3759004" lon="12.2645669"><ele>401.0</ele><time>2026-04-12T10:13:46.001Z</time></trkpt><trkpt lat="42.3759154" lon="12.264804"><ele>401.0</ele><time>2026-04-12T10:13:47Z</time></trkpt><trkpt lat="42.3759335" lon="12.2650475"><ele>401.0</ele><time>2026-04-12T10:13:48Z</time></trkpt><trkpt lat="42.3759507" lon="12.2652937"><ele>401.0</ele><time>2026-04-12T10:13:49Z</time></trkpt><trkpt lat="42.3759674" lon="12.2655209"><ele>401.0</ele><time>2026-04-12T10:13:50Z</time></trkpt><trkpt lat="42.375988" lon="12.2657605"><ele>400.0</ele><time>2026-04-12T10:13:51Z</time></trkpt><trkpt lat="42.3760039" lon="12.265993"><ele>399.0</ele><time>2026-04-12T10:13:52.001Z</time></trkpt><trkpt lat="42.3760128" lon="12.2662265"><ele>398.0</ele><time>2026-04-12T10:13:53.001Z</time></trkpt><trkpt lat="42.3760111" lon="12.2664616"><ele>397.66666666666663</ele><time>2026-04-12T10:13:54.001Z</time></trkpt><trkpt lat="42.3760073" lon="12.2666953"><ele>397.33333333333337</ele><time>2026-04-12T10:13:55.001Z</time></trkpt><trkpt lat="42.3760087" lon="12.2669259"><ele>397.0</ele><time>2026-04-12T10:13:56.001Z</time></trkpt><trkpt lat="42.3760054" lon="12.2671615"><ele>397.0</ele><time>2026-04-12T10:13:57.001Z</time></trkpt><trkpt lat="42.3760004" lon="12.2673939"><ele>397.0</ele><time>2026-04-12T10:13:58.001Z</time></trkpt><trkpt lat="42.3759919" lon="12.2676446"><ele>397.0</ele><time>2026-04-12T10:13:59Z</time></trkpt><trkpt lat="42.3759824" lon="12.267883"><ele>397.0</ele><time>2026-04-12T10:14:00.001Z</time></trkpt><trkpt lat="42.3759726" lon="12.268122"><ele>397.0</ele><time>2026-04-12T10:14:01.001Z</time></trkpt><trkpt lat="42.3759635" lon="12.2683612"><ele>397.0</ele><time>2026-04-12T10:14:02.001Z</time></trkpt><trkpt lat="42.3759592" lon="12.2685936"><ele>397.0</ele><time>2026-04-12T10:14:03Z</time></trkpt><trkpt lat="42.3759565" lon="12.2688289"><ele>397.0</ele><time>2026-04-12T10:14:04.001Z</time></trkpt><trkpt lat="42.3759509" lon="12.26906"><ele>397.0</ele><time>2026-04-12T10:14:05.001Z</time></trkpt><trkpt lat="42.3759484" lon="12.2692932"><ele>396.6666666666667</ele><time>2026-04-12T10:14:06Z</time></trkpt><trkpt lat="42.3759484" lon="12.2695374"><ele>396.33333333333337</ele><time>2026-04-12T10:14:07.001Z</time></trkpt><trkpt lat="42.3759497" lon="12.2697821"><ele>396.0</ele><time>2026-04-12T10:14:08.001Z</time></trkpt><trkpt lat="42.3759641" lon="12.2700251"><ele>395.66666666666663</ele><time>2026-04-12T10:14:09.001Z</time></trkpt><trkpt lat="42.3759761" lon="12.2702696"><ele>395.3333333333333</ele><time>2026-04-12T10:14:10.001Z</time></trkpt><trkpt lat="42.375991" lon="12.2705122"><ele>395.0</ele><time>2026-04-12T10:14:11.001Z</time></trkpt><trkpt lat="42.3760025" lon="12.2707579"><ele>394.0</ele><time>2026-04-12T10:14:12Z</time></trkpt><trkpt lat="42.3760175" lon="12.2710036"><ele>393.0</ele><time>2026-04-12T10:14:13.001Z</time></trkpt><trkpt lat="42.3760321" lon="12.2712498"><ele>392.0</ele><time>2026-04-12T10:14:14.001Z</time></trkpt><trkpt lat="42.3760521" lon="12.2714752"><ele>391.3333333333333</ele><time>2026-04-12T10:14:15.001Z</time></trkpt><trkpt lat="42.3760668" lon="12.2717317"><ele>390.66666666666663</ele><time>2026-04-12T10:14:16.001Z</time></trkpt><trkpt lat="42.3760771" lon="12.2719919"><ele>390.0</ele><time>2026-04-12T10:14:17.001Z</time></trkpt><trkpt lat="42.3760932" lon="12.2722559"><ele>389.0</ele><time>2026-04-12T10:14:18.001Z</time></trkpt><trkpt lat="42.3761151" lon="12.2725017"><ele>388.0</ele><time>2026-04-12T10:14:19Z</time></trkpt><trkpt lat="42.3761399" lon="12.2727341"><ele>387.0</ele><time>2026-04-12T10:14:19.999Z</time></trkpt><trkpt lat="42.3761637" lon="12.2729586"><ele>386.0</ele><time>2026-04-12T10:14:21.001Z</time></trkpt><trkpt lat="42.3761933" lon="12.2731782"><ele>385.0</ele><time>2026-04-12T10:14:22.001Z</time></trkpt><trkpt lat="42.3762308" lon="12.2733949"><ele>384.0</ele><time>2026-04-12T10:14:23Z</time></trkpt><trkpt lat="42.3762711" lon="12.2736094"><ele>384.0</ele><time>2026-04-12T10:14:24.001Z</time></trkpt><trkpt lat="42.3763149" lon="12.2738253"><ele>384.0</ele><time>2026-04-12T10:14:25.001Z</time></trkpt><trkpt lat="42.3763622" lon="12.274041"><ele>384.0</ele><time>2026-04-12T10:14:25.999Z</time></trkpt><trkpt lat="42.3764107" lon="12.2742619"><ele>385.0</ele><time>2026-04-12T10:14:27.001Z</time></trkpt><trkpt lat="42.3764504" lon="12.2744896"><ele>386.0</ele><time>2026-04-12T10:14:28Z</time></trkpt><trkpt lat="42.3764812" lon="12.274718"><ele>387.0</ele><time>2026-04-12T10:14:29.001Z</time></trkpt><trkpt lat="42.3765081" lon="12.2749401"><ele>385.0</ele><time>2026-04-12T10:14:30Z</time></trkpt><trkpt lat="42.376526" lon="12.2751664"><ele>383.0</ele><time>2026-04-12T10:14:31.001Z</time></trkpt><trkpt lat="42.3765329" lon="12.2754079"><ele>381.0</ele><time>2026-04-12T10:14:32.001Z</time></trkpt><trkpt lat="42.3765235" lon="12.2756725"><ele>379.6666666666667</ele><time>2026-04-12T10:14:33.001Z</time></trkpt><trkpt lat="42.3764893" lon="12.2759584"><ele>378.33333333333337</ele><time>2026-04-12T10:14:34.001Z</time></trkpt><trkpt lat="42.3764433" lon="12.2762506"><ele>377.0</ele><time>2026-04-12T10:14:35.001Z</time></trkpt><trkpt lat="42.3763976" lon="12.2765321"><ele>376.6666666666667</ele><time>2026-04-12T10:14:36Z</time></trkpt><trkpt lat="42.3763561" lon="12.2767991"><ele>376.3333333333333</ele><time>2026-04-12T10:14:37.001Z</time></trkpt><trkpt lat="42.3763136" lon="12.2770667"><ele>376.0</ele><time>2026-04-12T10:14:38.001Z</time></trkpt><trkpt lat="42.3762695" lon="12.2773333"><ele>369.3333333333333</ele><time>2026-04-12T10:14:39Z</time></trkpt><trkpt lat="42.3762283" lon="12.2775845"><ele>362.6666666666667</ele><time>2026-04-12T10:14:40Z</time></trkpt><trkpt lat="42.376188" lon="12.2778403"><ele>356.0</ele><time>2026-04-12T10:14:41.001Z</time></trkpt><trkpt lat="42.3761466" lon="12.2780943"><ele>356.0</ele><time>2026-04-12T10:14:42Z</time></trkpt><trkpt lat="42.3761069" lon="12.2783439"><ele>356.0</ele><time>2026-04-12T10:14:43.001Z</time></trkpt><trkpt lat="42.3760665" lon="12.2785855"><ele>356.0</ele><time>2026-04-12T10:14:44.001Z</time></trkpt><trkpt lat="42.3760364" lon="12.2788356"><ele>356.6666666666667</ele><time>2026-04-12T10:14:45.001Z</time></trkpt><trkpt lat="42.3760157" lon="12.279099"><ele>357.3333333333333</ele><time>2026-04-12T10:14:46.001Z</time></trkpt><trkpt lat="42.3759962" lon="12.2793593"><ele>358.0</ele><time>2026-04-12T10:14:47.001Z</time></trkpt><trkpt lat="42.3759861" lon="12.2796159"><ele>359.3333333333333</ele><time>2026-04-12T10:14:48Z</time></trkpt><trkpt lat="42.3759842" lon="12.2798747"><ele>360.6666666666667</ele><time>2026-04-12T10:14:49.001Z</time></trkpt><trkpt lat="42.3759907" lon="12.2801306"><ele>362.0</ele><time>2026-04-12T10:14:50Z</time></trkpt><trkpt lat="42.3760016" lon="12.2803856"><ele>362.33333333333337</ele><time>2026-04-12T10:14:51Z</time></trkpt><trkpt lat="42.3760123" lon="12.2806455"><ele>362.6666666666667</ele><time>2026-04-12T10:14:52.001Z</time></trkpt><trkpt lat="42.3760428" lon="12.2809122"><ele>363.0</ele><time>2026-04-12T10:14:53.001Z</time></trkpt><trkpt lat="42.3760658" lon="12.2811701"><ele>363.0</ele><time>2026-04-12T10:14:54.001Z</time></trkpt><trkpt lat="42.3760989" lon="12.2814241"><ele>363.0</ele><time>2026-04-12T10:14:55Z</time></trkpt><trkpt lat="42.3761562" lon="12.2816764"><ele>363.0</ele><time>2026-04-12T10:14:56.001Z</time></trkpt><trkpt lat="42.3762286" lon="12.2819266"><ele>363.3333333333333</ele><time>2026-04-12T10:14:57Z</time></trkpt><trkpt lat="42.376316" lon="12.2821716"><ele>363.66666666666663</ele><time>2026-04-12T10:14:58Z</time></trkpt><trkpt lat="42.3764158" lon="12.2824058"><ele>364.0</ele><time>2026-04-12T10:14:59.001Z</time></trkpt><trkpt lat="42.3765275" lon="12.2826293"><ele>364.0</ele><time>2026-04-12T10:15:00.001Z</time></trkpt><trkpt lat="42.3766507" lon="12.2828453"><ele>364.0</ele><time>2026-04-12T10:15:01.001Z</time></trkpt><trkpt lat="42.3767718" lon="12.2830535"><ele>364.0</ele><time>2026-04-12T10:15:02.001Z</time></trkpt><trkpt lat="42.3768967" lon="12.283258"><ele>362.66666666666663</ele><time>2026-04-12T10:15:03.001Z</time></trkpt><trkpt lat="42.3770203" lon="12.2834575"><ele>361.3333333333333</ele><time>2026-04-12T10:15:04.001Z</time></trkpt><trkpt lat="42.3771423" lon="12.2836541"><ele>360.0</ele><time>2026-04-12T10:15:05Z</time></trkpt><trkpt lat="42.3772657" lon="12.2838496"><ele>358.0</ele><time>2026-04-12T10:15:06.001Z</time></trkpt><trkpt lat="42.377392" lon="12.2840464"><ele>356.0</ele><time>2026-04-12T10:15:07Z</time></trkpt><trkpt lat="42.3775113" lon="12.2842406"><ele>354.0</ele><time>2026-04-12T10:15:08.001Z</time></trkpt><trkpt lat="42.3776312" lon="12.284435"><ele>354.0</ele><time>2026-04-12T10:15:09Z</time></trkpt><trkpt lat="42.3777556" lon="12.2846318"><ele>354.0</ele><time>2026-04-12T10:15:10.001Z</time></trkpt><trkpt lat="42.3778783" lon="12.2848293"><ele>354.0</ele><time>2026-04-12T10:15:11.001Z</time></trkpt><trkpt lat="42.377996" lon="12.2850341"><ele>353.6666666666667</ele><time>2026-04-12T10:15:12Z</time></trkpt><trkpt lat="42.3781095" lon="12.2852542"><ele>353.33333333333337</ele><time>2026-04-12T10:15:13.001Z</time></trkpt><trkpt lat="42.37821" lon="12.285485"><ele>353.0</ele><time>2026-04-12T10:15:14.001Z</time></trkpt><trkpt lat="42.3782938" lon="12.2857183"><ele>352.33333333333337</ele><time>2026-04-12T10:15:15.001Z</time></trkpt><trkpt lat="42.3783622" lon="12.2859515"><ele>351.6666666666667</ele><time>2026-04-12T10:15:16.001Z</time></trkpt><trkpt lat="42.3784177" lon="12.2861805"><ele>351.0</ele><time>2026-04-12T10:15:17.001Z</time></trkpt><trkpt lat="42.3784727" lon="12.2863999"><ele>349.6666666666667</ele><time>2026-04-12T10:15:18Z</time></trkpt><trkpt lat="42.3785273" lon="12.2866146"><ele>348.33333333333337</ele><time>2026-04-12T10:15:19.001Z</time></trkpt><trkpt lat="42.3785774" lon="12.2868495"><ele>347.0</ele><time>2026-04-12T10:15:20Z</time></trkpt><trkpt lat="42.3786263" lon="12.2870808"><ele>345.33333333333337</ele><time>2026-04-12T10:15:21.001Z</time></trkpt><trkpt lat="42.3786796" lon="12.2873097"><ele>343.6666666666667</ele><time>2026-04-12T10:15:22.001Z</time></trkpt><trkpt lat="42.3787374" lon="12.2875399"><ele>342.0</ele><time>2026-04-12T10:15:23Z</time></trkpt><trkpt lat="42.3787926" lon="12.2877747"><ele>342.0</ele><time>2026-04-12T10:15:24.001Z</time></trkpt><trkpt lat="42.3788594" lon="12.2879947"><ele>342.0</ele><time>2026-04-12T10:15:25.001Z</time></trkpt><trkpt lat="42.3789389" lon="12.2882028"><ele>342.0</ele><time>2026-04-12T10:15:26.001Z</time></trkpt><trkpt lat="42.3790234" lon="12.2884082"><ele>342.0</ele><time>2026-04-12T10:15:27.001Z</time></trkpt><trkpt lat="42.3791137" lon="12.2886096"><ele>342.0</ele><time>2026-04-12T10:15:28.001Z</time></trkpt><trkpt lat="42.3792135" lon="12.2888151"><ele>342.0</ele><time>2026-04-12T10:15:29Z</time></trkpt><trkpt lat="42.3793327" lon="12.2890152"><ele>342.3333333333333</ele><time>2026-04-12T10:15:30.001Z</time></trkpt><trkpt lat="42.3794751" lon="12.289221"><ele>342.66666666666663</ele><time>2026-04-12T10:15:31Z</time></trkpt><trkpt lat="42.3796256" lon="12.2894195"><ele>343.0</ele><time>2026-04-12T10:15:32.001Z</time></trkpt><trkpt lat="42.3797657" lon="12.2896077"><ele>342.3333333333333</ele><time>2026-04-12T10:15:33.001Z</time></trkpt><trkpt lat="42.3798987" lon="12.289777"><ele>341.6666666666667</ele><time>2026-04-12T10:15:34.001Z</time></trkpt><trkpt lat="42.3800268" lon="12.2899251"><ele>341.0</ele><time>2026-04-12T10:15:35Z</time></trkpt><trkpt lat="42.380148" lon="12.2900579"><ele>341.0</ele><time>2026-04-12T10:15:36.001Z</time></trkpt><trkpt lat="42.3802678" lon="12.2901921"><ele>341.0</ele><time>2026-04-12T10:15:37.001Z</time></trkpt><trkpt lat="42.3803889" lon="12.2903314"><ele>341.0</ele><time>2026-04-12T10:15:38.001Z</time></trkpt><trkpt lat="42.3805169" lon="12.2904642"><ele>342.0</ele><time>2026-04-12T10:15:39Z</time></trkpt><trkpt lat="42.3806452" lon="12.2905827"><ele>343.0</ele><time>2026-04-12T10:15:40Z</time></trkpt><trkpt lat="42.3807661" lon="12.2906831"><ele>344.0</ele><time>2026-04-12T10:15:41.001Z</time></trkpt><trkpt lat="42.3808762" lon="12.2907732"><ele>345.0</ele><time>2026-04-12T10:15:42.001Z</time></trkpt><trkpt lat="42.3810739" lon="12.290924"><ele>345.0</ele><time>2026-04-12T10:15:44Z</time></trkpt><trkpt lat="42.3811667" lon="12.2909941"><ele>345.0</ele><time>2026-04-12T10:15:45.001Z</time></trkpt><trkpt lat="42.3812548" lon="12.2910621"><ele>345.0</ele><time>2026-04-12T10:15:46.001Z</time></trkpt><trkpt lat="42.3813343" lon="12.2911336"><ele>345.0</ele><time>2026-04-12T10:15:47.001Z</time></trkpt><trkpt lat="42.3814039" lon="12.2912172"><ele>345.0</ele><time>2026-04-12T10:15:48.001Z</time></trkpt><trkpt lat="42.3814549" lon="12.2913045"><ele>344.6666666666667</ele><time>2026-04-12T10:15:49.001Z</time></trkpt><trkpt lat="42.3814963" lon="12.2914085"><ele>344.3333333333333</ele><time>2026-04-12T10:15:50.001Z</time></trkpt><trkpt lat="42.3815335" lon="12.2915149"><ele>344.0</ele><time>2026-04-12T10:15:51Z</time></trkpt><trkpt lat="42.3815835" lon="12.2916129"><ele>343.66666666666663</ele><time>2026-04-12T10:15:52Z</time></trkpt><trkpt lat="42.3816445" lon="12.2916993"><ele>343.3333333333333</ele><time>2026-04-12T10:15:53.001Z</time></trkpt><trkpt lat="42.3817119" lon="12.2917761"><ele>343.0</ele><time>2026-04-12T10:15:54.001Z</time></trkpt><trkpt lat="42.3817952" lon="12.2918361"><ele>342.4</ele><time>2026-04-12T10:15:55.001Z</time></trkpt><trkpt lat="42.3818879" lon="12.2918558"><ele>341.79999999999995</ele><time>2026-04-12T10:15:56Z</time></trkpt><trkpt lat="42.3819849" lon="12.2918716"><ele>341.2</ele><time>2026-04-12T10:15:57.001Z</time></trkpt><trkpt lat="42.3820902" lon="12.2918899"><ele>340.6</ele><time>2026-04-12T10:15:58.001Z</time></trkpt><trkpt lat="42.3821978" lon="12.2919298"><ele>340.0</ele><time>2026-04-12T10:15:59.001Z</time></trkpt><trkpt lat="42.3823179" lon="12.2919916"><ele>339.66666666666663</ele><time>2026-04-12T10:16:00.001Z</time></trkpt><trkpt lat="42.382449" lon="12.2920636"><ele>339.3333333333333</ele><time>2026-04-12T10:16:01Z</time></trkpt><trkpt lat="42.3825919" lon="12.2921531"><ele>339.0</ele><time>2026-04-12T10:16:02.001Z</time></trkpt><trkpt lat="42.3827465" lon="12.2922419"><ele>338.3333333333333</ele><time>2026-04-12T10:16:03.001Z</time></trkpt><trkpt lat="42.3829102" lon="12.2923257"><ele>337.66666666666663</ele><time>2026-04-12T10:16:04.001Z</time></trkpt><trkpt lat="42.3830796" lon="12.292405"><ele>337.0</ele><time>2026-04-12T10:16:05.001Z</time></trkpt><trkpt lat="42.3832379" lon="12.2924763"><ele>335.66666666666663</ele><time>2026-04-12T10:16:06.001Z</time></trkpt><trkpt lat="42.3833905" lon="12.2925431"><ele>334.3333333333333</ele><time>2026-04-12T10:16:07.001Z</time></trkpt><trkpt lat="42.3835412" lon="12.2926025"><ele>333.0</ele><time>2026-04-12T10:16:07.999Z</time></trkpt><trkpt lat="42.3836931" lon="12.2926594"><ele>333.0</ele><time>2026-04-12T10:16:09.001Z</time></trkpt><trkpt lat="42.3838443" lon="12.2927215"><ele>333.0</ele><time>2026-04-12T10:16:10.001Z</time></trkpt><trkpt lat="42.3840022" lon="12.2927881"><ele>333.0</ele><time>2026-04-12T10:16:11.001Z</time></trkpt><trkpt lat="42.3841653" lon="12.2928494"><ele>329.6666666666667</ele><time>2026-04-12T10:16:12Z</time></trkpt><trkpt lat="42.3843307" lon="12.2929169"><ele>326.33333333333337</ele><time>2026-04-12T10:16:13Z</time></trkpt><trkpt lat="42.3844991" lon="12.2929813"><ele>323.0</ele><time>2026-04-12T10:16:14.001Z</time></trkpt><trkpt lat="42.3846692" lon="12.2930488"><ele>320.0</ele><time>2026-04-12T10:16:15.001Z</time></trkpt><trkpt lat="42.3848413" lon="12.2931191"><ele>317.0</ele><time>2026-04-12T10:16:16.001Z</time></trkpt><trkpt lat="42.3850088" lon="12.2931826"><ele>314.0</ele><time>2026-04-12T10:16:17Z</time></trkpt><trkpt lat="42.3851855" lon="12.2932506"><ele>314.0</ele><time>2026-04-12T10:16:18.001Z</time></trkpt><trkpt lat="42.3853604" lon="12.2933238"><ele>314.0</ele><time>2026-04-12T10:16:19.001Z</time></trkpt><trkpt lat="42.3855393" lon="12.293396"><ele>314.0</ele><time>2026-04-12T10:16:20.001Z</time></trkpt><trkpt lat="42.3857215" lon="12.2934675"><ele>318.6666666666667</ele><time>2026-04-12T10:16:21.001Z</time></trkpt><trkpt lat="42.3858872" lon="12.2935385"><ele>323.3333333333333</ele><time>2026-04-12T10:16:22.001Z</time></trkpt><trkpt lat="42.3860447" lon="12.2936038"><ele>328.0</ele><time>2026-04-12T10:16:23.001Z</time></trkpt><trkpt lat="42.3861902" lon="12.2936596"><ele>328.0</ele><time>2026-04-12T10:16:24Z</time></trkpt><trkpt lat="42.3863427" lon="12.2937241"><ele>328.0</ele><time>2026-04-12T10:16:25.001Z</time></trkpt><trkpt lat="42.3864823" lon="12.2937866"><ele>328.0</ele><time>2026-04-12T10:16:26Z</time></trkpt><trkpt lat="42.386619" lon="12.2938396"><ele>328.0</ele><time>2026-04-12T10:16:27.002Z</time></trkpt><trkpt lat="42.3867593" lon="12.2938864"><ele>330.3333333333333</ele><time>2026-04-12T10:16:28Z</time></trkpt><trkpt lat="42.3868994" lon="12.2939434"><ele>332.6666666666667</ele><time>2026-04-12T10:16:29.001Z</time></trkpt><trkpt lat="42.3870503" lon="12.2940043"><ele>335.0</ele><time>2026-04-12T10:16:30.001Z</time></trkpt><trkpt lat="42.3872125" lon="12.2940601"><ele>335.33333333333337</ele><time>2026-04-12T10:16:31.001Z</time></trkpt><trkpt lat="42.3873722" lon="12.2941269"><ele>335.6666666666667</ele><time>2026-04-12T10:16:32.001Z</time></trkpt><trkpt lat="42.3875275" lon="12.2941964"><ele>336.0</ele><time>2026-04-12T10:16:33.001Z</time></trkpt><trkpt lat="42.387685" lon="12.294259"><ele>336.0</ele><time>2026-04-12T10:16:34.001Z</time></trkpt><trkpt lat="42.3878428" lon="12.2943214"><ele>336.0</ele><time>2026-04-12T10:16:35.001Z</time></trkpt><trkpt lat="42.3879962" lon="12.2943852"><ele>336.0</ele><time>2026-04-12T10:16:36.001Z</time></trkpt><trkpt lat="42.3881662" lon="12.2944553"><ele>337.0</ele><time>2026-04-12T10:16:37.001Z</time></trkpt><trkpt lat="42.3883191" lon="12.294512"><ele>338.0</ele><time>2026-04-12T10:16:38.001Z</time></trkpt><trkpt lat="42.3884784" lon="12.2945739"><ele>339.0</ele><time>2026-04-12T10:16:39.001Z</time></trkpt><trkpt lat="42.3886362" lon="12.2946356"><ele>339.0</ele><time>2026-04-12T10:16:40.001Z</time></trkpt><trkpt lat="42.3887974" lon="12.2947001"><ele>339.0</ele><time>2026-04-12T10:16:41.001Z</time></trkpt><trkpt lat="42.3889616" lon="12.2947661"><ele>339.0</ele><time>2026-04-12T10:16:42.001Z</time></trkpt><trkpt lat="42.3891327" lon="12.2948351"><ele>339.0</ele><time>2026-04-12T10:16:43.001Z</time></trkpt><trkpt lat="42.3893236" lon="12.2949159"><ele>339.0</ele><time>2026-04-12T10:16:44Z</time></trkpt><trkpt lat="42.3895398" lon="12.2949796"><ele>339.0</ele><time>2026-04-12T10:16:45.001Z</time></trkpt><trkpt lat="42.3897976" lon="12.2951038"><ele>339.0</ele><time>2026-04-12T10:16:46.001Z</time></trkpt><trkpt lat="42.3900369" lon="12.2951883"><ele>339.0</ele><time>2026-04-12T10:16:46.999Z</time></trkpt><trkpt lat="42.3902711" lon="12.2952883"><ele>339.0</ele><time>2026-04-12T10:16:48.001Z</time></trkpt><trkpt lat="42.3904852" lon="12.295403"><ele>339.0</ele><time>2026-04-12T10:16:49.001Z</time></trkpt><trkpt lat="42.3907291" lon="12.2954999"><ele>338.0</ele><time>2026-04-12T10:16:50.001Z</time></trkpt><trkpt lat="42.390912" lon="12.2954003"><ele>337.0</ele><time>2026-04-12T10:16:51Z</time></trkpt><trkpt lat="42.3911214" lon="12.2954168"><ele>336.0</ele><time>2026-04-12T10:16:52.001Z</time></trkpt><trkpt lat="42.3913248" lon="12.2954171"><ele>335.6666666666667</ele><time>2026-04-12T10:16:53.001Z</time></trkpt><trkpt lat="42.3915265" lon="12.2954175"><ele>335.33333333333337</ele><time>2026-04-12T10:16:54Z</time></trkpt><trkpt lat="42.3917205" lon="12.2954107"><ele>335.0</ele><time>2026-04-12T10:16:55.001Z</time></trkpt><trkpt lat="42.3919094" lon="12.295394"><ele>335.0</ele><time>2026-04-12T10:16:56Z</time></trkpt><trkpt lat="42.3920924" lon="12.2953653"><ele>335.0</ele><time>2026-04-12T10:16:57.001Z</time></trkpt><trkpt lat="42.3922719" lon="12.2953354"><ele>335.0</ele><time>2026-04-12T10:16:58.001Z</time></trkpt><trkpt lat="42.3924461" lon="12.295295"><ele>332.0</ele><time>2026-04-12T10:16:59Z</time></trkpt><trkpt lat="42.39262" lon="12.2952568"><ele>329.0</ele><time>2026-04-12T10:17:00.001Z</time></trkpt><trkpt lat="42.3927835" lon="12.2952028"><ele>326.0</ele><time>2026-04-12T10:17:01.001Z</time></trkpt><trkpt lat="42.392949" lon="12.2951485"><ele>320.0</ele><time>2026-04-12T10:17:02Z</time></trkpt><trkpt lat="42.3931112" lon="12.2950876"><ele>314.0</ele><time>2026-04-12T10:17:03Z</time></trkpt><trkpt lat="42.3932824" lon="12.2950173"><ele>308.0</ele><time>2026-04-12T10:17:04Z</time></trkpt><trkpt lat="42.3934746" lon="12.2949374"><ele>308.0</ele><time>2026-04-12T10:17:05.001Z</time></trkpt><trkpt lat="42.393676" lon="12.2948603"><ele>308.0</ele><time>2026-04-12T10:17:06Z</time></trkpt><trkpt lat="42.3938666" lon="12.2947802"><ele>308.0</ele><time>2026-04-12T10:17:07Z</time></trkpt><trkpt lat="42.3940595" lon="12.2947134"><ele>304.6666666666667</ele><time>2026-04-12T10:17:08.001Z</time></trkpt><trkpt lat="42.394254" lon="12.2946394"><ele>301.3333333333333</ele><time>2026-04-12T10:17:09.001Z</time></trkpt><trkpt lat="42.394449" lon="12.2945713"><ele>298.0</ele><time>2026-04-12T10:17:10.001Z</time></trkpt><trkpt lat="42.3946524" lon="12.2944893"><ele>296.3333333333333</ele><time>2026-04-12T10:17:11.001Z</time></trkpt><trkpt lat="42.3948479" lon="12.2944144"><ele>294.6666666666667</ele><time>2026-04-12T10:17:12.001Z</time></trkpt><trkpt lat="42.3950466" lon="12.2943387"><ele>293.0</ele><time>2026-04-12T10:17:13.001Z</time></trkpt><trkpt lat="42.3952459" lon="12.294263"><ele>293.0</ele><time>2026-04-12T10:17:14.001Z</time></trkpt><trkpt lat="42.395448" lon="12.2941857"><ele>293.0</ele><time>2026-04-12T10:17:15.001Z</time></trkpt><trkpt lat="42.3956583" lon="12.2941055"><ele>293.0</ele><time>2026-04-12T10:17:16Z</time></trkpt><trkpt lat="42.3958716" lon="12.2940222"><ele>294.33333333333337</ele><time>2026-04-12T10:17:17.001Z</time></trkpt><trkpt lat="42.3960694" lon="12.2939489"><ele>295.6666666666667</ele><time>2026-04-12T10:17:18.001Z</time></trkpt><trkpt lat="42.3962535" lon="12.2938781"><ele>297.0</ele><time>2026-04-12T10:17:19.001Z</time></trkpt><trkpt lat="42.3964316" lon="12.2938081"><ele>302.3333333333333</ele><time>2026-04-12T10:17:20.001Z</time></trkpt><trkpt lat="42.3966194" lon="12.2937327"><ele>307.66666666666663</ele><time>2026-04-12T10:17:21.001Z</time></trkpt><trkpt lat="42.3968241" lon="12.2936506"><ele>313.0</ele><time>2026-04-12T10:17:22.001Z</time></trkpt><trkpt lat="42.397039" lon="12.293565"><ele>314.3333333333333</ele><time>2026-04-12T10:17:23.001Z</time></trkpt><trkpt lat="42.3972547" lon="12.293479"><ele>315.6666666666667</ele><time>2026-04-12T10:17:24.001Z</time></trkpt><trkpt lat="42.3974642" lon="12.2933971"><ele>317.0</ele><time>2026-04-12T10:17:25.001Z</time></trkpt><trkpt lat="42.3976483" lon="12.2933311"><ele>317.0</ele><time>2026-04-12T10:17:26.001Z</time></trkpt><trkpt lat="42.397844" lon="12.2932719"><ele>317.0</ele><time>2026-04-12T10:17:27.001Z</time></trkpt><trkpt lat="42.39805" lon="12.2932201"><ele>317.0</ele><time>2026-04-12T10:17:28.001Z</time></trkpt><trkpt lat="42.3982655" lon="12.2931921"><ele>316.6666666666667</ele><time>2026-04-12T10:17:29.001Z</time></trkpt><trkpt lat="42.3984591" lon="12.2931678"><ele>316.3333333333333</ele><time>2026-04-12T10:17:30.001Z</time></trkpt><trkpt lat="42.3986402" lon="12.29315"><ele>316.0</ele><time>2026-04-12T10:17:31.001Z</time></trkpt><trkpt lat="42.3988114" lon="12.2931424"><ele>318.0</ele><time>2026-04-12T10:17:32.001Z</time></trkpt><trkpt lat="42.3989853" lon="12.2931518"><ele>320.0</ele><time>2026-04-12T10:17:33.001Z</time></trkpt><trkpt lat="42.3991726" lon="12.293182"><ele>322.0</ele><time>2026-04-12T10:17:34.001Z</time></trkpt><trkpt lat="42.399351" lon="12.2932372"><ele>322.0</ele><time>2026-04-12T10:17:35.001Z</time></trkpt><trkpt lat="42.3995153" lon="12.2932941"><ele>322.0</ele><time>2026-04-12T10:17:36.001Z</time></trkpt><trkpt lat="42.3996827" lon="12.2933659"><ele>322.0</ele><time>2026-04-12T10:17:37.001Z</time></trkpt><trkpt lat="42.3998536" lon="12.2934728"><ele>326.0</ele><time>2026-04-12T10:17:38.001Z</time></trkpt><trkpt lat="42.4001461" lon="12.2937036"><ele>330.0</ele><time>2026-04-12T10:17:40.001Z</time></trkpt><trkpt lat="42.4002677" lon="12.2938368"><ele>329.75</ele><time>2026-04-12T10:17:41Z</time></trkpt><trkpt lat="42.4003675" lon="12.2939768"><ele>329.5</ele><time>2026-04-12T10:17:42.001Z</time></trkpt><trkpt lat="42.4004488" lon="12.2941155"><ele>329.25</ele><time>2026-04-12T10:17:43.001Z</time></trkpt><trkpt lat="42.4005082" lon="12.2942533"><ele>329.0</ele><time>2026-04-12T10:17:44.001Z</time></trkpt><trkpt lat="42.4005441" lon="12.2943886"><ele>329.5</ele><time>2026-04-12T10:17:45Z</time></trkpt><trkpt lat="42.4005682" lon="12.2945204"><ele>330.0</ele><time>2026-04-12T10:17:46.001Z</time></trkpt><trkpt lat="42.4005862" lon="12.2946457"><ele>330.5</ele><time>2026-04-12T10:17:47.001Z</time></trkpt><trkpt lat="42.4006068" lon="12.2947341"><ele>331.0</ele><time>2026-04-12T10:17:47.999Z</time></trkpt><trkpt lat="42.400635" lon="12.2948109"><ele>331.5</ele><time>2026-04-12T10:17:51Z</time></trkpt><trkpt lat="42.4006556" lon="12.2949266"><ele>332.0</ele><time>2026-04-12T10:18:10.001Z</time></trkpt><trkpt lat="42.4007244" lon="12.2949303"><ele>332.0</ele><time>2026-04-12T10:18:13.001Z</time></trkpt><trkpt lat="42.4007715" lon="12.2948261"><ele>332.0</ele><time>2026-04-12T10:19:02.001Z</time></trkpt><trkpt lat="42.4008519" lon="12.2947571"><ele>332.0</ele><time>2026-04-12T10:19:03.001Z</time></trkpt><trkpt lat="42.4009605" lon="12.2946813"><ele>332.0</ele><time>2026-04-12T10:19:04Z</time></trkpt><trkpt lat="42.4010826" lon="12.2945992"><ele>332.0</ele><time>2026-04-12T10:19:05.001Z</time></trkpt><trkpt lat="42.4012076" lon="12.2945106"><ele>332.0</ele><time>2026-04-12T10:19:06.001Z</time></trkpt><trkpt lat="42.4013291" lon="12.2944262"><ele>332.0</ele><time>2026-04-12T10:19:07.002Z</time></trkpt><trkpt lat="42.4014352" lon="12.2943422"><ele>332.0</ele><time>2026-04-12T10:19:08.002Z</time></trkpt><trkpt lat="42.4015456" lon="12.2942622"><ele>332.0</ele><time>2026-04-12T10:19:09.002Z</time></trkpt><trkpt lat="42.4016479" lon="12.2941864"><ele>331.8</ele><time>2026-04-12T10:19:10.002Z</time></trkpt><trkpt lat="42.4017434" lon="12.2941175"><ele>331.6</ele><time>2026-04-12T10:19:11.002Z</time></trkpt><trkpt lat="42.4018302" lon="12.2940762"><ele>331.40000000000003</ele><time>2026-04-12T10:19:12.002Z</time></trkpt><trkpt lat="42.4019003" lon="12.2940582"><ele>331.20000000000005</ele><time>2026-04-12T10:19:13.002Z</time></trkpt><trkpt lat="42.4020136" lon="12.2941102"><ele>331.0</ele><time>2026-04-12T10:19:15.002Z</time></trkpt><trkpt lat="42.4020686" lon="12.2942057"><ele>331.0</ele><time>2026-04-12T10:19:17.001Z</time></trkpt><trkpt lat="42.4020704" lon="12.2943227"><ele>331.0</ele><time>2026-04-12T10:19:19.001Z</time></trkpt><trkpt lat="42.4020718" lon="12.2944109"><ele>331.0</ele><time>2026-04-12T10:19:44.002Z</time></trkpt><trkpt lat="42.4021247" lon="12.2944774"><ele>331.0</ele><time>2026-04-12T10:20:32.002Z</time></trkpt><trkpt lat="42.4020607" lon="12.2944301"><ele>331.0</ele><time>2026-04-12T10:33:59.995Z</time></trkpt><trkpt lat="42.4020102" lon="12.2943743"><ele>331.0</ele><time>2026-04-12T10:35:21.994Z</time></trkpt><trkpt lat="42.4020603" lon="12.2942919"><ele>331.0</ele><time>2026-04-12T10:35:41.995Z</time></trkpt><trkpt lat="42.4020503" lon="12.2941801"><ele>331.0</ele><time>2026-04-12T10:35:44.995Z</time></trkpt><trkpt lat="42.4019816" lon="12.2941059"><ele>331.0</ele><time>2026-04-12T10:35:46.995Z</time></trkpt><trkpt lat="42.4019164" lon="12.2940469"><ele>331.0</ele><time>2026-04-12T10:35:58.995Z</time></trkpt><trkpt lat="42.4018076" lon="12.294062"><ele>331.0</ele><time>2026-04-12T10:36:01.995Z</time></trkpt><trkpt lat="42.4017327" lon="12.2941041"><ele>331.0</ele><time>2026-04-12T10:36:03.995Z</time></trkpt><trkpt lat="42.4016541" lon="12.294158"><ele>331.0</ele><time>2026-04-12T10:36:05.995Z</time></trkpt><trkpt lat="42.4015373" lon="12.2942326"><ele>331.0</ele><time>2026-04-12T10:36:07.995Z</time></trkpt><trkpt lat="42.4014768" lon="12.2942801"><ele>331.0</ele><time>2026-04-12T10:36:08.995Z</time></trkpt><trkpt lat="42.4014152" lon="12.294326"><ele>331.0</ele><time>2026-04-12T10:36:09.995Z</time></trkpt><trkpt lat="42.4013552" lon="12.2943661"><ele>331.0</ele><time>2026-04-12T10:36:10.995Z</time></trkpt><trkpt lat="42.4012933" lon="12.2944084"><ele>331.0</ele><time>2026-04-12T10:36:11.995Z</time></trkpt><trkpt lat="42.4012358" lon="12.29445"><ele>331.0</ele><time>2026-04-12T10:36:12.995Z</time></trkpt><trkpt lat="42.4011747" lon="12.2945002"><ele>331.0</ele><time>2026-04-12T10:36:13.995Z</time></trkpt><trkpt lat="42.4011094" lon="12.2945484"><ele>331.20000000000005</ele><time>2026-04-12T10:36:14.995Z</time></trkpt><trkpt lat="42.4010338" lon="12.2946025"><ele>331.40000000000003</ele><time>2026-04-12T10:36:15.995Z</time></trkpt><trkpt lat="42.4009516" lon="12.2946619"><ele>331.6</ele><time>2026-04-12T10:36:16.995Z</time></trkpt><trkpt lat="42.4008555" lon="12.2947309"><ele>331.8</ele><time>2026-04-12T10:36:17.995Z</time></trkpt><trkpt lat="42.4007505" lon="12.2948088"><ele>332.0</ele><time>2026-04-12T10:36:18.995Z</time></trkpt><trkpt lat="42.4006368" lon="12.2948956"><ele>332.0</ele><time>2026-04-12T10:36:19.995Z</time></trkpt><trkpt lat="42.4005118" lon="12.2949931"><ele>332.0</ele><time>2026-04-12T10:36:20.995Z</time></trkpt><trkpt lat="42.4003855" lon="12.2950951"><ele>332.0</ele><time>2026-04-12T10:36:21.995Z</time></trkpt><trkpt lat="42.4002588" lon="12.2952056"><ele>332.0</ele><time>2026-04-12T10:36:22.995Z</time></trkpt><trkpt lat="42.4001274" lon="12.2953267"><ele>332.6666666666667</ele><time>2026-04-12T10:36:23.995Z</time></trkpt><trkpt lat="42.3999877" lon="12.2954453"><ele>333.3333333333333</ele><time>2026-04-12T10:36:24.994Z</time></trkpt><trkpt lat="42.3998448" lon="12.2955694"><ele>334.0</ele><time>2026-04-12T10:36:25.994Z</time></trkpt><trkpt lat="42.3997112" lon="12.2956926"><ele>334.66666666666663</ele><time>2026-04-12T10:36:26.995Z</time></trkpt><trkpt lat="42.3995775" lon="12.2958116"><ele>335.3333333333333</ele><time>2026-04-12T10:36:27.995Z</time></trkpt><trkpt lat="42.399443" lon="12.2959354"><ele>336.0</ele><time>2026-04-12T10:36:28.994Z</time></trkpt><trkpt lat="42.3993048" lon="12.2960594"><ele>336.0</ele><time>2026-04-12T10:36:29.995Z</time></trkpt><trkpt lat="42.3991602" lon="12.2961866"><ele>336.0</ele><time>2026-04-12T10:36:30.995Z</time></trkpt><trkpt lat="42.3990175" lon="12.2963165"><ele>336.0</ele><time>2026-04-12T10:36:31.995Z</time></trkpt><trkpt lat="42.3988666" lon="12.2964457"><ele>336.6666666666667</ele><time>2026-04-12T10:36:32.995Z</time></trkpt><trkpt lat="42.3987212" lon="12.2965773"><ele>337.33333333333337</ele><time>2026-04-12T10:36:33.994Z</time></trkpt><trkpt lat="42.3985839" lon="12.2967077"><ele>338.0</ele><time>2026-04-12T10:36:34.995Z</time></trkpt><trkpt lat="42.3984399" lon="12.2968391"><ele>338.0</ele><time>2026-04-12T10:36:35.994Z</time></trkpt><trkpt lat="42.3982956" lon="12.296964"><ele>338.0</ele><time>2026-04-12T10:36:36.995Z</time></trkpt><trkpt lat="42.3981415" lon="12.2970929"><ele>338.0</ele><time>2026-04-12T10:36:37.995Z</time></trkpt><trkpt lat="42.3979806" lon="12.2972257"><ele>337.6666666666667</ele><time>2026-04-12T10:36:38.995Z</time></trkpt><trkpt lat="42.3978315" lon="12.2973614"><ele>337.3333333333333</ele><time>2026-04-12T10:36:39.995Z</time></trkpt><trkpt lat="42.3976931" lon="12.2974889"><ele>337.0</ele><time>2026-04-12T10:36:40.995Z</time></trkpt><trkpt lat="42.3975718" lon="12.2976102"><ele>337.0</ele><time>2026-04-12T10:36:41.995Z</time></trkpt><trkpt lat="42.3974643" lon="12.2977273"><ele>337.0</ele><time>2026-04-12T10:36:42.995Z</time></trkpt><trkpt lat="42.3973627" lon="12.2978409"><ele>337.0</ele><time>2026-04-12T10:36:43.994Z</time></trkpt><trkpt lat="42.3972787" lon="12.2979439"><ele>337.0</ele><time>2026-04-12T10:36:44.995Z</time></trkpt><trkpt lat="42.3972269" lon="12.2980362"><ele>336.8</ele><time>2026-04-12T10:36:45.995Z</time></trkpt><trkpt lat="42.3972052" lon="12.2981413"><ele>336.6</ele><time>2026-04-12T10:36:46.995Z</time></trkpt><trkpt lat="42.3972155" lon="12.2982608"><ele>336.40000000000003</ele><time>2026-04-12T10:36:47.995Z</time></trkpt><trkpt lat="42.397241" lon="12.2983834"><ele>336.20000000000005</ele><time>2026-04-12T10:36:48.995Z</time></trkpt><trkpt lat="42.3973306" lon="12.2985076"><ele>336.0</ele><time>2026-04-12T10:36:49.995Z</time></trkpt><trkpt lat="42.3974506" lon="12.2986291"><ele>336.0</ele><time>2026-04-12T10:36:50.995Z</time></trkpt><trkpt lat="42.3975722" lon="12.2987462"><ele>336.0</ele><time>2026-04-12T10:36:51.995Z</time></trkpt><trkpt lat="42.3977072" lon="12.2988873"><ele>336.0</ele><time>2026-04-12T10:36:52.994Z</time></trkpt><trkpt lat="42.3978426" lon="12.2990442"><ele>336.3333333333333</ele><time>2026-04-12T10:36:53.994Z</time></trkpt><trkpt lat="42.3979749" lon="12.2992045"><ele>336.66666666666663</ele><time>2026-04-12T10:36:54.994Z</time></trkpt><trkpt lat="42.3981038" lon="12.2993642"><ele>337.0</ele><time>2026-04-12T10:36:55.995Z</time></trkpt><trkpt lat="42.3982314" lon="12.2995309"><ele>336.3333333333333</ele><time>2026-04-12T10:36:56.995Z</time></trkpt><trkpt lat="42.3983577" lon="12.299694"><ele>335.6666666666667</ele><time>2026-04-12T10:36:57.995Z</time></trkpt><trkpt lat="42.3984938" lon="12.2998626"><ele>335.0</ele><time>2026-04-12T10:36:58.995Z</time></trkpt><trkpt lat="42.3986295" lon="12.3000349"><ele>335.0</ele><time>2026-04-12T10:36:59.995Z</time></trkpt><trkpt lat="42.3987665" lon="12.3002063"><ele>335.0</ele><time>2026-04-12T10:37:00.994Z</time></trkpt><trkpt lat="42.3989005" lon="12.3003809"><ele>335.0</ele><time>2026-04-12T10:37:01.995Z</time></trkpt><trkpt lat="42.3990408" lon="12.300563"><ele>334.33333333333337</ele><time>2026-04-12T10:37:02.995Z</time></trkpt><trkpt lat="42.3991849" lon="12.300739"><ele>333.6666666666667</ele><time>2026-04-12T10:37:03.994Z</time></trkpt><trkpt lat="42.3993381" lon="12.3009068"><ele>333.0</ele><time>2026-04-12T10:37:04.995Z</time></trkpt><trkpt lat="42.3995018" lon="12.3010629"><ele>333.3333333333333</ele><time>2026-04-12T10:37:05.995Z</time></trkpt><trkpt lat="42.3996792" lon="12.3012079"><ele>333.66666666666663</ele><time>2026-04-12T10:37:06.995Z</time></trkpt><trkpt lat="42.3998608" lon="12.3013515"><ele>334.0</ele><time>2026-04-12T10:37:07.995Z</time></trkpt><trkpt lat="42.4000455" lon="12.3014883"><ele>333.0</ele><time>2026-04-12T10:37:08.994Z</time></trkpt><trkpt lat="42.4002222" lon="12.3016146"><ele>332.0</ele><time>2026-04-12T10:37:09.995Z</time></trkpt><trkpt lat="42.4003907" lon="12.3017453"><ele>331.0</ele><time>2026-04-12T10:37:10.995Z</time></trkpt><trkpt lat="42.4005542" lon="12.301892"><ele>330.66666666666663</ele><time>2026-04-12T10:37:11.995Z</time></trkpt><trkpt lat="42.400719" lon="12.302053"><ele>330.3333333333333</ele><time>2026-04-12T10:37:12.995Z</time></trkpt><trkpt lat="42.4008744" lon="12.3022333"><ele>330.0</ele><time>2026-04-12T10:37:13.995Z</time></trkpt><trkpt lat="42.4010218" lon="12.302431"><ele>329.6666666666667</ele><time>2026-04-12T10:37:14.995Z</time></trkpt><trkpt lat="42.4011573" lon="12.3026302"><ele>329.33333333333337</ele><time>2026-04-12T10:37:15.995Z</time></trkpt><trkpt lat="42.4012856" lon="12.3028229"><ele>329.0</ele><time>2026-04-12T10:37:16.995Z</time></trkpt><trkpt lat="42.4014208" lon="12.3030143"><ele>328.0</ele><time>2026-04-12T10:37:17.995Z</time></trkpt><trkpt lat="42.4015574" lon="12.3032023"><ele>327.0</ele><time>2026-04-12T10:37:18.995Z</time></trkpt><trkpt lat="42.4016946" lon="12.3033949"><ele>326.0</ele><time>2026-04-12T10:37:19.995Z</time></trkpt><trkpt lat="42.4018338" lon="12.3035904"><ele>326.0</ele><time>2026-04-12T10:37:20.994Z</time></trkpt><trkpt lat="42.4019755" lon="12.303793"><ele>326.0</ele><time>2026-04-12T10:37:21.995Z</time></trkpt><trkpt lat="42.4021164" lon="12.3039907"><ele>326.0</ele><time>2026-04-12T10:37:22.995Z</time></trkpt><trkpt lat="42.4022645" lon="12.304208"><ele>326.0</ele><time>2026-04-12T10:37:23.995Z</time></trkpt><trkpt lat="42.4024188" lon="12.3044243"><ele>326.0</ele><time>2026-04-12T10:37:24.995Z</time></trkpt><trkpt lat="42.4025802" lon="12.3046468"><ele>326.0</ele><time>2026-04-12T10:37:25.994Z</time></trkpt><trkpt lat="42.4027353" lon="12.3048715"><ele>326.0</ele><time>2026-04-12T10:37:26.995Z</time></trkpt><trkpt lat="42.40288" lon="12.305096"><ele>326.0</ele><time>2026-04-12T10:37:27.995Z</time></trkpt><trkpt lat="42.4030052" lon="12.3053252"><ele>325.5</ele><time>2026-04-12T10:37:28.995Z</time></trkpt><trkpt lat="42.4031253" lon="12.3055638"><ele>325.0</ele><time>2026-04-12T10:37:29.995Z</time></trkpt><trkpt lat="42.4032395" lon="12.3058455"><ele>324.0</ele><time>2026-04-12T10:37:30.995Z</time></trkpt><trkpt lat="42.4033462" lon="12.30612"><ele>323.0</ele><time>2026-04-12T10:37:31.995Z</time></trkpt><trkpt lat="42.4034545" lon="12.3064138"><ele>322.0</ele><time>2026-04-12T10:37:32.995Z</time></trkpt><trkpt lat="42.4035653" lon="12.3067092"><ele>321.0</ele><time>2026-04-12T10:37:33.995Z</time></trkpt><trkpt lat="42.4036687" lon="12.3069866"><ele>320.5</ele><time>2026-04-12T10:37:34.994Z</time></trkpt><trkpt lat="42.4037764" lon="12.3072586"><ele>320.0</ele><time>2026-04-12T10:37:35.995Z</time></trkpt><trkpt lat="42.4038951" lon="12.3075321"><ele>320.0</ele><time>2026-04-12T10:37:36.995Z</time></trkpt><trkpt lat="42.4040141" lon="12.3078083"><ele>320.0</ele><time>2026-04-12T10:37:37.995Z</time></trkpt><trkpt lat="42.4041648" lon="12.3080935"><ele>320.0</ele><time>2026-04-12T10:37:38.994Z</time></trkpt><trkpt lat="42.40431" lon="12.3083816"><ele>320.0</ele><time>2026-04-12T10:37:39.994Z</time></trkpt><trkpt lat="42.4044613" lon="12.3086773"><ele>320.0</ele><time>2026-04-12T10:37:40.994Z</time></trkpt><trkpt lat="42.4046162" lon="12.3089843"><ele>320.0</ele><time>2026-04-12T10:37:41.995Z</time></trkpt><trkpt lat="42.4047623" lon="12.3092762"><ele>320.0</ele><time>2026-04-12T10:37:42.995Z</time></trkpt><trkpt lat="42.4048983" lon="12.3095413"><ele>320.0</ele><time>2026-04-12T10:37:43.995Z</time></trkpt><trkpt lat="42.4050355" lon="12.3098121"><ele>320.0</ele><time>2026-04-12T10:37:44.995Z</time></trkpt><trkpt lat="42.4051582" lon="12.3100517"><ele>320.0</ele><time>2026-04-12T10:37:45.995Z</time></trkpt><trkpt lat="42.4052795" lon="12.310289"><ele>320.0</ele><time>2026-04-12T10:37:46.994Z</time></trkpt><trkpt lat="42.4054049" lon="12.3105333"><ele>319.33333333333337</ele><time>2026-04-12T10:37:47.995Z</time></trkpt><trkpt lat="42.4055337" lon="12.3107787"><ele>318.6666666666667</ele><time>2026-04-12T10:37:48.995Z</time></trkpt><trkpt lat="42.4056639" lon="12.311022"><ele>318.0</ele><time>2026-04-12T10:37:49.995Z</time></trkpt><trkpt lat="42.405793" lon="12.3112686"><ele>317.5</ele><time>2026-04-12T10:37:50.995Z</time></trkpt><trkpt lat="42.4059262" lon="12.3115313"><ele>317.0</ele><time>2026-04-12T10:37:51.994Z</time></trkpt><trkpt lat="42.4060587" lon="12.3117932"><ele>317.0</ele><time>2026-04-12T10:37:52.995Z</time></trkpt><trkpt lat="42.4061971" lon="12.3120687"><ele>317.0</ele><time>2026-04-12T10:37:53.994Z</time></trkpt><trkpt lat="42.4063257" lon="12.3123309"><ele>315.5</ele><time>2026-04-12T10:37:54.995Z</time></trkpt><trkpt lat="42.4064446" lon="12.3126057"><ele>314.0</ele><time>2026-04-12T10:37:55.995Z</time></trkpt><trkpt lat="42.4065523" lon="12.3128897"><ele>312.5</ele><time>2026-04-12T10:37:56.995Z</time></trkpt><trkpt lat="42.4066571" lon="12.3131881"><ele>311.0</ele><time>2026-04-12T10:37:57.995Z</time></trkpt><trkpt lat="42.4067603" lon="12.3134758"><ele>311.0</ele><time>2026-04-12T10:37:58.995Z</time></trkpt><trkpt lat="42.4068644" lon="12.3137593"><ele>311.0</ele><time>2026-04-12T10:37:59.995Z</time></trkpt><trkpt lat="42.4069693" lon="12.3140372"><ele>311.0</ele><time>2026-04-12T10:38:00.994Z</time></trkpt><trkpt lat="42.4070774" lon="12.3143183"><ele>311.0</ele><time>2026-04-12T10:38:01.995Z</time></trkpt><trkpt lat="42.4071879" lon="12.3145948"><ele>312.0</ele><time>2026-04-12T10:38:02.995Z</time></trkpt><trkpt lat="42.407305" lon="12.3148659"><ele>313.0</ele><time>2026-04-12T10:38:03.994Z</time></trkpt><trkpt lat="42.4074278" lon="12.3151401"><ele>313.0</ele><time>2026-04-12T10:38:04.995Z</time></trkpt><trkpt lat="42.4075527" lon="12.3154162"><ele>313.0</ele><time>2026-04-12T10:38:05.995Z</time></trkpt><trkpt lat="42.4076772" lon="12.3156947"><ele>312.66666666666663</ele><time>2026-04-12T10:38:06.995Z</time></trkpt><trkpt lat="42.4077917" lon="12.3159538"><ele>312.3333333333333</ele><time>2026-04-12T10:38:07.995Z</time></trkpt><trkpt lat="42.4079051" lon="12.3162033"><ele>312.0</ele><time>2026-04-12T10:38:08.995Z</time></trkpt><trkpt lat="42.4080145" lon="12.3164559"><ele>311.3333333333333</ele><time>2026-04-12T10:38:09.994Z</time></trkpt><trkpt lat="42.4081154" lon="12.3167032"><ele>310.66666666666663</ele><time>2026-04-12T10:38:10.995Z</time></trkpt><trkpt lat="42.4082116" lon="12.3169559"><ele>310.0</ele><time>2026-04-12T10:38:11.994Z</time></trkpt><trkpt lat="42.4082993" lon="12.3171983"><ele>310.0</ele><time>2026-04-12T10:38:12.995Z</time></trkpt><trkpt lat="42.40838" lon="12.3174438"><ele>310.0</ele><time>2026-04-12T10:38:13.994Z</time></trkpt><trkpt lat="42.4084531" lon="12.317684"><ele>310.0</ele><time>2026-04-12T10:38:14.994Z</time></trkpt><trkpt lat="42.4085293" lon="12.3179247"><ele>309.0</ele><time>2026-04-12T10:38:15.995Z</time></trkpt><trkpt lat="42.4086125" lon="12.3181759"><ele>308.0</ele><time>2026-04-12T10:38:16.995Z</time></trkpt><trkpt lat="42.4086991" lon="12.3184438"><ele>307.0</ele><time>2026-04-12T10:38:17.995Z</time></trkpt><trkpt lat="42.4087949" lon="12.3187127"><ele>305.5</ele><time>2026-04-12T10:38:18.995Z</time></trkpt><trkpt lat="42.4089154" lon="12.3189838"><ele>304.0</ele><time>2026-04-12T10:38:19.995Z</time></trkpt><trkpt lat="42.4090538" lon="12.3192325"><ele>304.0</ele><time>2026-04-12T10:38:20.995Z</time></trkpt><trkpt lat="42.4092131" lon="12.3194534"><ele>304.0</ele><time>2026-04-12T10:38:21.995Z</time></trkpt><trkpt lat="42.4093888" lon="12.3196445"><ele>303.66666666666663</ele><time>2026-04-12T10:38:22.995Z</time></trkpt><trkpt lat="42.4095689" lon="12.3198219"><ele>303.3333333333333</ele><time>2026-04-12T10:38:23.995Z</time></trkpt><trkpt lat="42.4097443" lon="12.3199825"><ele>303.0</ele><time>2026-04-12T10:38:24.995Z</time></trkpt><trkpt lat="42.4099096" lon="12.3201317"><ele>303.0</ele><time>2026-04-12T10:38:25.994Z</time></trkpt><trkpt lat="42.41007" lon="12.3202798"><ele>303.0</ele><time>2026-04-12T10:38:26.994Z</time></trkpt><trkpt lat="42.4102322" lon="12.3204394"><ele>303.0</ele><time>2026-04-12T10:38:27.995Z</time></trkpt><trkpt lat="42.4103982" lon="12.3206111"><ele>302.6666666666667</ele><time>2026-04-12T10:38:28.995Z</time></trkpt><trkpt lat="42.4105639" lon="12.3207955"><ele>302.33333333333337</ele><time>2026-04-12T10:38:29.994Z</time></trkpt><trkpt lat="42.4107296" lon="12.3209862"><ele>302.0</ele><time>2026-04-12T10:38:30.994Z</time></trkpt><trkpt lat="42.4108924" lon="12.3211904"><ele>301.5</ele><time>2026-04-12T10:38:31.995Z</time></trkpt><trkpt lat="42.411061" lon="12.3214102"><ele>301.0</ele><time>2026-04-12T10:38:32.995Z</time></trkpt><trkpt lat="42.4112233" lon="12.321622"><ele>300.66666666666663</ele><time>2026-04-12T10:38:33.995Z</time></trkpt><trkpt lat="42.4113744" lon="12.3218165"><ele>300.3333333333333</ele><time>2026-04-12T10:38:34.995Z</time></trkpt><trkpt lat="42.4115196" lon="12.322011"><ele>300.0</ele><time>2026-04-12T10:38:35.995Z</time></trkpt><trkpt lat="42.4116547" lon="12.3222206"><ele>299.6666666666667</ele><time>2026-04-12T10:38:36.995Z</time></trkpt><trkpt lat="42.4117749" lon="12.3224456"><ele>299.33333333333337</ele><time>2026-04-12T10:38:37.995Z</time></trkpt><trkpt lat="42.4118945" lon="12.3227271"><ele>299.0</ele><time>2026-04-12T10:38:38.995Z</time></trkpt><trkpt lat="42.4120135" lon="12.3229806"><ele>298.0</ele><time>2026-04-12T10:38:39.995Z</time></trkpt><trkpt lat="42.4120976" lon="12.3233379"><ele>297.0</ele><time>2026-04-12T10:38:40.995Z</time></trkpt><trkpt lat="42.4122026" lon="12.3236025"><ele>296.6666666666667</ele><time>2026-04-12T10:38:41.995Z</time></trkpt><trkpt lat="42.4123012" lon="12.3238677"><ele>296.33333333333337</ele><time>2026-04-12T10:38:42.995Z</time></trkpt><trkpt lat="42.4123982" lon="12.3241377"><ele>296.0</ele><time>2026-04-12T10:38:43.995Z</time></trkpt><trkpt lat="42.4124742" lon="12.3244074"><ele>295.0</ele><time>2026-04-12T10:38:44.995Z</time></trkpt><trkpt lat="42.412555" lon="12.3246932"><ele>294.0</ele><time>2026-04-12T10:38:45.995Z</time></trkpt><trkpt lat="42.4126233" lon="12.3249851"><ele>293.5</ele><time>2026-04-12T10:38:46.995Z</time></trkpt><trkpt lat="42.4126954" lon="12.32529"><ele>293.0</ele><time>2026-04-12T10:38:47.995Z</time></trkpt><trkpt lat="42.4127713" lon="12.3255954"><ele>292.5</ele><time>2026-04-12T10:38:48.995Z</time></trkpt><trkpt lat="42.412848" lon="12.325891"><ele>292.0</ele><time>2026-04-12T10:38:49.994Z</time></trkpt><trkpt lat="42.4129194" lon="12.3261886"><ele>291.3333333333333</ele><time>2026-04-12T10:38:50.995Z</time></trkpt><trkpt lat="42.4129856" lon="12.3264767"><ele>290.6666666666667</ele><time>2026-04-12T10:38:51.994Z</time></trkpt><trkpt lat="42.4130539" lon="12.3267462"><ele>290.0</ele><time>2026-04-12T10:38:52.995Z</time></trkpt><trkpt lat="42.4131193" lon="12.3270143"><ele>288.6666666666667</ele><time>2026-04-12T10:38:53.994Z</time></trkpt><trkpt lat="42.4131834" lon="12.327277"><ele>287.3333333333333</ele><time>2026-04-12T10:38:54.995Z</time></trkpt><trkpt lat="42.4132463" lon="12.3275389"><ele>286.0</ele><time>2026-04-12T10:38:55.995Z</time></trkpt><trkpt lat="42.4133107" lon="12.3278076"><ele>286.3333333333333</ele><time>2026-04-12T10:38:56.995Z</time></trkpt><trkpt lat="42.4133798" lon="12.3280725"><ele>286.6666666666667</ele><time>2026-04-12T10:38:57.995Z</time></trkpt><trkpt lat="42.4134543" lon="12.328335"><ele>287.0</ele><time>2026-04-12T10:38:58.994Z</time></trkpt><trkpt lat="42.4135394" lon="12.3286021"><ele>287.0</ele><time>2026-04-12T10:38:59.995Z</time></trkpt><trkpt lat="42.4136362" lon="12.3288656"><ele>287.0</ele><time>2026-04-12T10:39:00.995Z</time></trkpt><trkpt lat="42.4137372" lon="12.3291375"><ele>287.0</ele><time>2026-04-12T10:39:01.994Z</time></trkpt><trkpt lat="42.4138397" lon="12.3294061"><ele>286.5</ele><time>2026-04-12T10:39:02.994Z</time></trkpt><trkpt lat="42.4139554" lon="12.3297003"><ele>286.0</ele><time>2026-04-12T10:39:03.995Z</time></trkpt><trkpt lat="42.4140639" lon="12.3299802"><ele>286.0</ele><time>2026-04-12T10:39:04.995Z</time></trkpt><trkpt lat="42.4141543" lon="12.3302498"><ele>286.0</ele><time>2026-04-12T10:39:05.994Z</time></trkpt><trkpt lat="42.4142291" lon="12.3305158"><ele>286.0</ele><time>2026-04-12T10:39:06.995Z</time></trkpt><trkpt lat="42.4142832" lon="12.330798"><ele>286.3333333333333</ele><time>2026-04-12T10:39:07.994Z</time></trkpt><trkpt lat="42.4143203" lon="12.3310962"><ele>286.6666666666667</ele><time>2026-04-12T10:39:08.995Z</time></trkpt><trkpt lat="42.4143463" lon="12.331389"><ele>287.0</ele><time>2026-04-12T10:39:09.994Z</time></trkpt><trkpt lat="42.4143673" lon="12.3316843"><ele>287.0</ele><time>2026-04-12T10:39:10.995Z</time></trkpt><trkpt lat="42.4143875" lon="12.3319681"><ele>287.0</ele><time>2026-04-12T10:39:11.994Z</time></trkpt><trkpt lat="42.4144016" lon="12.3322258"><ele>287.0</ele><time>2026-04-12T10:39:12.994Z</time></trkpt><trkpt lat="42.4144175" lon="12.3324903"><ele>285.6666666666667</ele><time>2026-04-12T10:39:13.995Z</time></trkpt><trkpt lat="42.4144305" lon="12.3327547"><ele>284.3333333333333</ele><time>2026-04-12T10:39:14.995Z</time></trkpt><trkpt lat="42.4144406" lon="12.3330212"><ele>283.0</ele><time>2026-04-12T10:39:15.995Z</time></trkpt><trkpt lat="42.4144586" lon="12.3335761"><ele>282.3333333333333</ele><time>2026-04-12T10:39:17.995Z</time></trkpt><trkpt lat="42.4144597" lon="12.3338601"><ele>281.6666666666667</ele><time>2026-04-12T10:39:18.994Z</time></trkpt><trkpt lat="42.4144609" lon="12.3341567"><ele>281.0</ele><time>2026-04-12T10:39:19.995Z</time></trkpt><trkpt lat="42.4144629" lon="12.3344685"><ele>278.0</ele><time>2026-04-12T10:39:20.995Z</time></trkpt><trkpt lat="42.4144674" lon="12.3347889"><ele>275.0</ele><time>2026-04-12T10:39:21.995Z</time></trkpt><trkpt lat="42.414469" lon="12.3350995"><ele>275.0</ele><time>2026-04-12T10:39:22.995Z</time></trkpt><trkpt lat="42.4144773" lon="12.3353757"><ele>275.0</ele><time>2026-04-12T10:39:23.995Z</time></trkpt><trkpt lat="42.4144884" lon="12.3356296"><ele>275.0</ele><time>2026-04-12T10:39:24.995Z</time></trkpt><trkpt lat="42.4144965" lon="12.3358619"><ele>274.5</ele><time>2026-04-12T10:39:25.995Z</time></trkpt><trkpt lat="42.4144982" lon="12.3360725"><ele>274.0</ele><time>2026-04-12T10:39:26.995Z</time></trkpt><trkpt lat="42.4144887" lon="12.3362535"><ele>273.5</ele><time>2026-04-12T10:39:27.995Z</time></trkpt><trkpt lat="42.4144663" lon="12.3364033"><ele>273.0</ele><time>2026-04-12T10:39:28.995Z</time></trkpt><trkpt lat="42.4144449" lon="12.3365188"><ele>273.0</ele><time>2026-04-12T10:39:29.995Z</time></trkpt><trkpt lat="42.4144453" lon="12.3366251"><ele>273.0</ele><time>2026-04-12T10:39:30.995Z</time></trkpt><trkpt lat="42.414487" lon="12.3367219"><ele>273.0</ele><time>2026-04-12T10:39:31.994Z</time></trkpt><trkpt lat="42.4145383" lon="12.3368232"><ele>273.0</ele><time>2026-04-12T10:39:32.995Z</time></trkpt><trkpt lat="42.4146019" lon="12.3369247"><ele>273.0</ele><time>2026-04-12T10:39:33.995Z</time></trkpt><trkpt lat="42.4147165" lon="12.3371148"><ele>274.0</ele><time>2026-04-12T10:39:34.995Z</time></trkpt><trkpt lat="42.4148165" lon="12.3372854"><ele>275.0</ele><time>2026-04-12T10:39:35.995Z</time></trkpt><trkpt lat="42.4149578" lon="12.3374533"><ele>276.0</ele><time>2026-04-12T10:39:36.995Z</time></trkpt><trkpt lat="42.4150951" lon="12.3376045"><ele>276.0</ele><time>2026-04-12T10:39:37.995Z</time></trkpt><trkpt lat="42.4151982" lon="12.3377516"><ele>276.0</ele><time>2026-04-12T10:39:38.995Z</time></trkpt><trkpt lat="42.4152998" lon="12.3378965"><ele>276.0</ele><time>2026-04-12T10:39:39.995Z</time></trkpt><trkpt lat="42.4153822" lon="12.338046"><ele>276.0</ele><time>2026-04-12T10:39:40.994Z</time></trkpt><trkpt lat="42.4154048" lon="12.3382344"><ele>277.0</ele><time>2026-04-12T10:39:41.995Z</time></trkpt><trkpt lat="42.4154135" lon="12.3384225"><ele>278.0</ele><time>2026-04-12T10:39:42.995Z</time></trkpt><trkpt lat="42.4154314" lon="12.338624"><ele>279.0</ele><time>2026-04-12T10:39:43.995Z</time></trkpt><trkpt lat="42.4153399" lon="12.3388606"><ele>279.3333333333333</ele><time>2026-04-12T10:39:44.994Z</time></trkpt><trkpt lat="42.4152479" lon="12.3391664"><ele>279.66666666666663</ele><time>2026-04-12T10:39:45.995Z</time></trkpt><trkpt lat="42.4151966" lon="12.3393895"><ele>280.0</ele><time>2026-04-12T10:39:46.995Z</time></trkpt><trkpt lat="42.4151396" lon="12.3396445"><ele>278.66666666666663</ele><time>2026-04-12T10:39:47.995Z</time></trkpt><trkpt lat="42.4150639" lon="12.3399524"><ele>277.3333333333333</ele><time>2026-04-12T10:39:48.995Z</time></trkpt><trkpt lat="42.4149747" lon="12.3402027"><ele>276.0</ele><time>2026-04-12T10:39:49.995Z</time></trkpt><trkpt lat="42.4148841" lon="12.3404298"><ele>275.0</ele><time>2026-04-12T10:39:50.995Z</time></trkpt><trkpt lat="42.4147744" lon="12.3406283"><ele>274.0</ele><time>2026-04-12T10:39:51.995Z</time></trkpt><trkpt lat="42.4146541" lon="12.3408126"><ele>273.0</ele><time>2026-04-12T10:39:52.995Z</time></trkpt><trkpt lat="42.4145413" lon="12.3409779"><ele>272.25</ele><time>2026-04-12T10:39:53.995Z</time></trkpt><trkpt lat="42.4144397" lon="12.3411419"><ele>271.5</ele><time>2026-04-12T10:39:54.995Z</time></trkpt><trkpt lat="42.4143602" lon="12.3412941"><ele>270.75</ele><time>2026-04-12T10:39:55.995Z</time></trkpt><trkpt lat="42.4143157" lon="12.3413959"><ele>270.0</ele><time>2026-04-12T10:39:56.995Z</time></trkpt><trkpt lat="42.4142828" lon="12.3414836"><ele>269.5</ele><time>2026-04-12T10:39:57.995Z</time></trkpt><trkpt lat="42.4143349" lon="12.341617"><ele>269.0</ele><time>2026-04-12T10:39:59.995Z</time></trkpt><trkpt lat="42.4143816" lon="12.3416885"><ele>268.5</ele><time>2026-04-12T10:40:00.995Z</time></trkpt><trkpt lat="42.4145006" lon="12.3418037"><ele>268.0</ele><time>2026-04-12T10:40:01.995Z</time></trkpt><trkpt lat="42.4146367" lon="12.341859"><ele>268.6</ele><time>2026-04-12T10:40:02.995Z</time></trkpt><trkpt lat="42.4147562" lon="12.3419204"><ele>269.20000000000005</ele><time>2026-04-12T10:40:03.995Z</time></trkpt><trkpt lat="42.4148773" lon="12.3419643"><ele>269.8</ele><time>2026-04-12T10:40:04.995Z</time></trkpt><trkpt lat="42.4149758" lon="12.3420023"><ele>270.40000000000003</ele><time>2026-04-12T10:40:05.995Z</time></trkpt><trkpt lat="42.4150546" lon="12.34202"><ele>271.0</ele><time>2026-04-12T10:40:06.995Z</time></trkpt><trkpt lat="42.4151285" lon="12.3420497"><ele>271.0</ele><time>2026-04-12T10:40:09.995Z</time></trkpt><trkpt lat="42.4152695" lon="12.3420871"><ele>271.0</ele><time>2026-04-12T10:40:11.995Z</time></trkpt><trkpt lat="42.415402" lon="12.34217"><ele>271.0</ele><time>2026-04-12T10:40:13.995Z</time></trkpt><trkpt lat="42.4154837" lon="12.3422401"><ele>271.0</ele><time>2026-04-12T10:40:14.995Z</time></trkpt><trkpt lat="42.4155834" lon="12.3423153"><ele>269.5</ele><time>2026-04-12T10:40:15.995Z</time></trkpt><trkpt lat="42.4156988" lon="12.3424223"><ele>268.0</ele><time>2026-04-12T10:40:16.995Z</time></trkpt><trkpt lat="42.4158456" lon="12.3425158"><ele>266.5</ele><time>2026-04-12T10:40:17.995Z</time></trkpt><trkpt lat="42.415962" lon="12.342583"><ele>265.0</ele><time>2026-04-12T10:40:18.995Z</time></trkpt><trkpt lat="42.4160408" lon="12.3426733"><ele>265.0</ele><time>2026-04-12T10:40:19.995Z</time></trkpt><trkpt lat="42.41611" lon="12.3427845"><ele>265.0</ele><time>2026-04-12T10:40:20.994Z</time></trkpt><trkpt lat="42.4161246" lon="12.3428791"><ele>265.0</ele><time>2026-04-12T10:40:21.995Z</time></trkpt><trkpt lat="42.4161631" lon="12.342958"><ele>265.0</ele><time>2026-04-12T10:40:22.995Z</time></trkpt><trkpt lat="42.4162116" lon="12.3430563"><ele>265.0</ele><time>2026-04-12T10:40:24.995Z</time></trkpt><trkpt lat="42.416305" lon="12.3431431"><ele>265.0</ele><time>2026-04-12T10:40:26.995Z</time></trkpt><trkpt lat="42.4163599" lon="12.3431907"><ele>264.6</ele><time>2026-04-12T10:40:27.995Z</time></trkpt><trkpt lat="42.4164757" lon="12.3432671"><ele>264.2</ele><time>2026-04-12T10:40:28.995Z</time></trkpt><trkpt lat="42.4165576" lon="12.343317"><ele>263.8</ele><time>2026-04-12T10:40:29.995Z</time></trkpt><trkpt lat="42.4166271" lon="12.3433443"><ele>263.4</ele><time>2026-04-12T10:40:30.995Z</time></trkpt><trkpt lat="42.4166665" lon="12.3434685"><ele>263.0</ele><time>2026-04-12T10:40:33.995Z</time></trkpt><trkpt lat="42.4166172" lon="12.3435385"><ele>263.0</ele><time>2026-04-12T10:40:34.995Z</time></trkpt><trkpt lat="42.4165732" lon="12.3436687"><ele>263.0</ele><time>2026-04-12T10:40:36.995Z</time></trkpt><trkpt lat="42.4166879" lon="12.3437824"><ele>263.0</ele><time>2026-04-12T10:40:38.995Z</time></trkpt><trkpt lat="42.4168539" lon="12.3439101"><ele>263.0</ele><time>2026-04-12T10:40:39.995Z</time></trkpt><trkpt lat="42.4169324" lon="12.3439723"><ele>262.8</ele><time>2026-04-12T10:40:40.995Z</time></trkpt><trkpt lat="42.417021" lon="12.3440328"><ele>262.6</ele><time>2026-04-12T10:40:41.995Z</time></trkpt><trkpt lat="42.417091" lon="12.344079"><ele>262.4</ele><time>2026-04-12T10:40:42.995Z</time></trkpt><trkpt lat="42.4171805" lon="12.3441358"><ele>262.2</ele><time>2026-04-12T10:40:43.995Z</time></trkpt><trkpt lat="42.4172763" lon="12.3441964"><ele>262.0</ele><time>2026-04-12T10:40:44.995Z</time></trkpt><trkpt lat="42.4173726" lon="12.3442474"><ele>261.75</ele><time>2026-04-12T10:40:45.995Z</time></trkpt><trkpt lat="42.4174735" lon="12.3443115"><ele>261.5</ele><time>2026-04-12T10:40:46.994Z</time></trkpt><trkpt lat="42.4175682" lon="12.3444198"><ele>261.25</ele><time>2026-04-12T10:40:47.995Z</time></trkpt><trkpt lat="42.4176589" lon="12.34454"><ele>261.0</ele><time>2026-04-12T10:40:48.995Z</time></trkpt><trkpt lat="42.4177552" lon="12.3446376"><ele>261.1666666666667</ele><time>2026-04-12T10:40:49.995Z</time></trkpt><trkpt lat="42.4178592" lon="12.3447128"><ele>261.3333333333333</ele><time>2026-04-12T10:40:50.995Z</time></trkpt><trkpt lat="42.4179471" lon="12.3447817"><ele>261.5</ele><time>2026-04-12T10:40:51.995Z</time></trkpt><trkpt lat="42.4180289" lon="12.3448319"><ele>261.66666666666663</ele><time>2026-04-12T10:40:53.995Z</time></trkpt><trkpt lat="42.4180757" lon="12.3449023"><ele>261.8333333333333</ele><time>2026-04-12T10:40:55.995Z</time></trkpt><trkpt lat="42.4180367" lon="12.3448352"><ele>262.0</ele><time>2026-04-12T10:41:06.995Z</time></trkpt><trkpt lat="42.4180673" lon="12.3449249"><ele>256.0</ele><time>2026-04-12T10:41:38.995Z</time></trkpt><trkpt lat="42.4181094" lon="12.3448592"><ele>256.0</ele><time>2026-04-12T10:41:59.995Z</time></trkpt><trkpt lat="42.4180831" lon="12.3449463"><ele>256.0</ele><time>2026-04-12T10:42:03.995Z</time></trkpt></trkseg></trk></gpx>